<?xml version="1.0" encoding="UTF-8" standalone="no" ?>
<gpx xmlns="http://www.topografix.com/GPX/1/1" xmlns:xsi="http://www.w3.org/2001/XMLSchema-instance" xsi:schemaLocation="http://www.topografix.com/GPX/1/1 http://www.topografix.com/GPX/1/1/gpx.xsd" version="1.1" creator="VisuGPX - https://www.visugpx.com">
  <metadata>
    <name>GR 400, étape 06</name>
    <desc><![CDATA[Du parvis de la chapelle de ND de la Consolation au camping d'Albepierre.]]></desc>
  </metadata>
  <trk>
    <name><![CDATA[GR 400, étape 06_1]]></name>
    <extensions>
      <line xmlns="http://www.topografix.com/GPX/gpx_style/0/2">
        <color>0000FF</color>
        <width>4</width>
      </line>
    </extensions>
    <trkseg>
      <trkpt lat="45.01687" lon="2.66793">
        <ele>837.6</ele>
        <time>2021-09-13T05:25:39.000Z</time>
      </trkpt>
      <trkpt lat="45.01681" lon="2.66796">
        <ele>834</ele>
        <time>2021-09-13T05:28:07.000Z</time>
      </trkpt>
      <trkpt lat="45.01676" lon="2.66804">
        <ele>830.9</ele>
        <time>2021-09-13T05:28:22.000Z</time>
      </trkpt>
      <trkpt lat="45.01673" lon="2.66812">
        <ele>828.8</ele>
        <time>2021-09-13T05:28:31.000Z</time>
      </trkpt>
      <trkpt lat="45.01667" lon="2.66804">
        <ele>825.6</ele>
        <time>2021-09-13T05:28:39.000Z</time>
      </trkpt>
      <trkpt lat="45.01663" lon="2.66797">
        <ele>824.3</ele>
        <time>2021-09-13T05:28:46.000Z</time>
      </trkpt>
      <trkpt lat="45.01667" lon="2.6679">
        <ele>826.3</ele>
        <time>2021-09-13T05:30:32.000Z</time>
      </trkpt>
      <trkpt lat="45.0167" lon="2.66781">
        <ele>828.4</ele>
        <time>2021-09-13T05:30:39.000Z</time>
      </trkpt>
      <trkpt lat="45.01669" lon="2.66771">
        <ele>828.3</ele>
        <time>2021-09-13T05:30:46.000Z</time>
      </trkpt>
      <trkpt lat="45.01666" lon="2.66761">
        <ele>827.2</ele>
        <time>2021-09-13T05:30:54.000Z</time>
      </trkpt>
      <trkpt lat="45.01666" lon="2.66752">
        <ele>827.7</ele>
        <time>2021-09-13T05:31:09.000Z</time>
      </trkpt>
      <trkpt lat="45.01665" lon="2.66743">
        <ele>827.6</ele>
        <time>2021-09-13T05:31:15.000Z</time>
      </trkpt>
      <trkpt lat="45.01666" lon="2.66733">
        <ele>828.2</ele>
        <time>2021-09-13T05:31:24.000Z</time>
      </trkpt>
      <trkpt lat="45.01669" lon="2.66724">
        <ele>829.7</ele>
        <time>2021-09-13T05:31:32.000Z</time>
      </trkpt>
      <trkpt lat="45.01669" lon="2.66715">
        <ele>829.9</ele>
        <time>2021-09-13T05:31:40.000Z</time>
      </trkpt>
      <trkpt lat="45.01672" lon="2.66705">
        <ele>831.4</ele>
        <time>2021-09-13T05:31:47.000Z</time>
      </trkpt>
      <trkpt lat="45.01673" lon="2.66696">
        <ele>832</ele>
        <time>2021-09-13T05:31:52.000Z</time>
      </trkpt>
      <trkpt lat="45.01674" lon="2.66686">
        <ele>832.5</ele>
        <time>2021-09-13T05:31:58.000Z</time>
      </trkpt>
      <trkpt lat="45.01676" lon="2.66677">
        <ele>833.4</ele>
        <time>2021-09-13T05:32:05.000Z</time>
      </trkpt>
      <trkpt lat="45.01678" lon="2.66668">
        <ele>834.2</ele>
        <time>2021-09-13T05:32:10.000Z</time>
      </trkpt>
      <trkpt lat="45.01677" lon="2.66658">
        <ele>833.9</ele>
        <time>2021-09-13T05:32:15.000Z</time>
      </trkpt>
      <trkpt lat="45.01677" lon="2.66648">
        <ele>833.9</ele>
        <time>2021-09-13T05:32:21.000Z</time>
      </trkpt>
      <trkpt lat="45.0168" lon="2.66639">
        <ele>834.9</ele>
        <time>2021-09-13T05:32:28.000Z</time>
      </trkpt>
      <trkpt lat="45.01678" lon="2.66628">
        <ele>834.2</ele>
        <time>2021-09-13T05:32:33.000Z</time>
      </trkpt>
      <trkpt lat="45.01672" lon="2.66624">
        <ele>832.3</ele>
        <time>2021-09-13T05:32:40.000Z</time>
      </trkpt>
      <trkpt lat="45.01664" lon="2.66626">
        <ele>829.8</ele>
        <time>2021-09-13T05:32:47.000Z</time>
      </trkpt>
      <trkpt lat="45.01657" lon="2.66626">
        <ele>827.9</ele>
        <time>2021-09-13T05:32:53.000Z</time>
      </trkpt>
      <trkpt lat="45.0165" lon="2.66621">
        <ele>826.1</ele>
        <time>2021-09-13T05:32:58.000Z</time>
      </trkpt>
      <trkpt lat="45.01645" lon="2.66614">
        <ele>825</ele>
        <time>2021-09-13T05:33:04.000Z</time>
      </trkpt>
      <trkpt lat="45.01639" lon="2.66607">
        <ele>823.6</ele>
        <time>2021-09-13T05:33:10.000Z</time>
      </trkpt>
      <trkpt lat="45.01633" lon="2.66601">
        <ele>822.3</ele>
        <time>2021-09-13T05:33:17.000Z</time>
      </trkpt>
      <trkpt lat="45.01628" lon="2.66595">
        <ele>821.3</ele>
        <time>2021-09-13T05:33:24.000Z</time>
      </trkpt>
      <trkpt lat="45.01622" lon="2.66588">
        <ele>820.1</ele>
        <time>2021-09-13T05:33:31.000Z</time>
      </trkpt>
      <trkpt lat="45.01617" lon="2.66582">
        <ele>819.1</ele>
        <time>2021-09-13T05:33:36.000Z</time>
      </trkpt>
      <trkpt lat="45.01612" lon="2.66575">
        <ele>817.8</ele>
        <time>2021-09-13T05:33:43.000Z</time>
      </trkpt>
      <trkpt lat="45.01606" lon="2.6657">
        <ele>816.4</ele>
        <time>2021-09-13T05:33:50.000Z</time>
      </trkpt>
      <trkpt lat="45.01601" lon="2.66563">
        <ele>815.1</ele>
        <time>2021-09-13T05:33:58.000Z</time>
      </trkpt>
      <trkpt lat="45.01595" lon="2.66556">
        <ele>813.7</ele>
        <time>2021-09-13T05:34:04.000Z</time>
      </trkpt>
      <trkpt lat="45.01588" lon="2.66555">
        <ele>812.1</ele>
        <time>2021-09-13T05:34:10.000Z</time>
      </trkpt>
      <trkpt lat="45.01581" lon="2.66554">
        <ele>810.6</ele>
        <time>2021-09-13T05:34:15.000Z</time>
      </trkpt>
      <trkpt lat="45.01573" lon="2.66554">
        <ele>809.4</ele>
        <time>2021-09-13T05:34:21.000Z</time>
      </trkpt>
      <trkpt lat="45.01566" lon="2.66554">
        <ele>808.3</ele>
        <time>2021-09-13T05:34:30.000Z</time>
      </trkpt>
      <trkpt lat="45.0156" lon="2.66549">
        <ele>807.5</ele>
        <time>2021-09-13T05:34:35.000Z</time>
      </trkpt>
      <trkpt lat="45.01554" lon="2.66545">
        <ele>806.7</ele>
        <time>2021-09-13T05:34:40.000Z</time>
      </trkpt>
      <trkpt lat="45.01547" lon="2.66543">
        <ele>805.7</ele>
        <time>2021-09-13T05:34:45.000Z</time>
      </trkpt>
      <trkpt lat="45.01538" lon="2.66544">
        <ele>804.4</ele>
        <time>2021-09-13T05:34:51.000Z</time>
      </trkpt>
      <trkpt lat="45.0153" lon="2.66548">
        <ele>803</ele>
        <time>2021-09-13T05:34:57.000Z</time>
      </trkpt>
      <trkpt lat="45.01523" lon="2.66557">
        <ele>801.5</ele>
        <time>2021-09-13T05:35:03.000Z</time>
      </trkpt>
      <trkpt lat="45.01517" lon="2.66566">
        <ele>800.1</ele>
        <time>2021-09-13T05:35:09.000Z</time>
      </trkpt>
      <trkpt lat="45.01511" lon="2.66573">
        <ele>798.6</ele>
        <time>2021-09-13T05:35:15.000Z</time>
      </trkpt>
      <trkpt lat="45.01504" lon="2.66574">
        <ele>797.4</ele>
        <time>2021-09-13T05:35:21.000Z</time>
      </trkpt>
      <trkpt lat="45.01497" lon="2.66571">
        <ele>796.4</ele>
        <time>2021-09-13T05:35:51.000Z</time>
      </trkpt>
      <trkpt lat="45.01492" lon="2.66564">
        <ele>796.1</ele>
        <time>2021-09-13T05:36:01.000Z</time>
      </trkpt>
      <trkpt lat="45.01489" lon="2.66574">
        <ele>794.8</ele>
        <time>2021-09-13T05:36:21.000Z</time>
      </trkpt>
      <trkpt lat="45.0149" lon="2.66583">
        <ele>794.3</ele>
        <time>2021-09-13T05:36:28.000Z</time>
      </trkpt>
      <trkpt lat="45.01494" lon="2.66591">
        <ele>794.5</ele>
        <time>2021-09-13T05:36:34.000Z</time>
      </trkpt>
      <trkpt lat="45.01498" lon="2.66599">
        <ele>794.7</ele>
        <time>2021-09-13T05:36:39.000Z</time>
      </trkpt>
      <trkpt lat="45.01505" lon="2.66607">
        <ele>795.5</ele>
        <time>2021-09-13T05:36:45.000Z</time>
      </trkpt>
      <trkpt lat="45.01514" lon="2.66612">
        <ele>796.7</ele>
        <time>2021-09-13T05:36:51.000Z</time>
      </trkpt>
      <trkpt lat="45.0152" lon="2.66615">
        <ele>797.6</ele>
        <time>2021-09-13T05:36:57.000Z</time>
      </trkpt>
      <trkpt lat="45.01527" lon="2.66608">
        <ele>799.3</ele>
        <time>2021-09-13T05:45:25.000Z</time>
      </trkpt>
      <trkpt lat="45.01532" lon="2.66617">
        <ele>799.6</ele>
        <time>2021-09-13T05:51:09.000Z</time>
      </trkpt>
      <trkpt lat="45.01527" lon="2.66609">
        <ele>799.2</ele>
        <time>2021-09-13T05:51:32.000Z</time>
      </trkpt>
      <trkpt lat="45.01525" lon="2.6662">
        <ele>798.2</ele>
        <time>2021-09-13T05:51:42.000Z</time>
      </trkpt>
      <trkpt lat="45.0152" lon="2.66627">
        <ele>796.9</ele>
        <time>2021-09-13T05:51:47.000Z</time>
      </trkpt>
      <trkpt lat="45.01515" lon="2.66635">
        <ele>795.5</ele>
        <time>2021-09-13T05:51:52.000Z</time>
      </trkpt>
      <trkpt lat="45.01511" lon="2.66646">
        <ele>794.1</ele>
        <time>2021-09-13T05:51:57.000Z</time>
      </trkpt>
      <trkpt lat="45.0151" lon="2.66661">
        <ele>793</ele>
        <time>2021-09-13T05:52:03.000Z</time>
      </trkpt>
      <trkpt lat="45.01512" lon="2.6667">
        <ele>792.9</ele>
        <time>2021-09-13T05:52:36.000Z</time>
      </trkpt>
      <trkpt lat="45.01513" lon="2.66681">
        <ele>792.9</ele>
        <time>2021-09-13T05:52:46.000Z</time>
      </trkpt>
      <trkpt lat="45.01515" lon="2.66692">
        <ele>792.9</ele>
        <time>2021-09-13T05:52:51.000Z</time>
      </trkpt>
      <trkpt lat="45.01513" lon="2.66701">
        <ele>792.5</ele>
        <time>2021-09-13T05:53:13.000Z</time>
      </trkpt>
      <trkpt lat="45.01511" lon="2.66711">
        <ele>792</ele>
        <time>2021-09-13T05:53:17.000Z</time>
      </trkpt>
      <trkpt lat="45.0151" lon="2.66721">
        <ele>791.6</ele>
        <time>2021-09-13T05:53:21.000Z</time>
      </trkpt>
      <trkpt lat="45.01509" lon="2.66731">
        <ele>791.3</ele>
        <time>2021-09-13T05:53:27.000Z</time>
      </trkpt>
      <trkpt lat="45.01508" lon="2.6674">
        <ele>791</ele>
        <time>2021-09-13T05:53:33.000Z</time>
      </trkpt>
      <trkpt lat="45.01508" lon="2.66753">
        <ele>790.3</ele>
        <time>2021-09-13T05:53:39.000Z</time>
      </trkpt>
      <trkpt lat="45.01511" lon="2.66762">
        <ele>789</ele>
        <time>2021-09-13T05:53:45.000Z</time>
      </trkpt>
      <trkpt lat="45.01517" lon="2.66771">
        <ele>788.1</ele>
        <time>2021-09-13T05:53:51.000Z</time>
      </trkpt>
      <trkpt lat="45.01519" lon="2.66781">
        <ele>786.5</ele>
        <time>2021-09-13T05:53:58.000Z</time>
      </trkpt>
      <trkpt lat="45.01521" lon="2.66791">
        <ele>785</ele>
        <time>2021-09-13T05:54:04.000Z</time>
      </trkpt>
      <trkpt lat="45.01524" lon="2.66799">
        <ele>784</ele>
        <time>2021-09-13T05:54:10.000Z</time>
      </trkpt>
      <trkpt lat="45.01527" lon="2.66808">
        <ele>782.9</ele>
        <time>2021-09-13T05:54:14.000Z</time>
      </trkpt>
      <trkpt lat="45.01532" lon="2.66821">
        <ele>781.5</ele>
        <time>2021-09-13T05:54:20.000Z</time>
      </trkpt>
      <trkpt lat="45.01535" lon="2.66836">
        <ele>779.7</ele>
        <time>2021-09-13T05:54:26.000Z</time>
      </trkpt>
      <trkpt lat="45.01541" lon="2.66847">
        <ele>779.8</ele>
        <time>2021-09-13T05:54:31.000Z</time>
      </trkpt>
      <trkpt lat="45.01543" lon="2.66859">
        <ele>779.2</ele>
        <time>2021-09-13T05:54:37.000Z</time>
      </trkpt>
      <trkpt lat="45.01544" lon="2.66871">
        <ele>778.5</ele>
        <time>2021-09-13T05:54:43.000Z</time>
      </trkpt>
      <trkpt lat="45.01546" lon="2.66883">
        <ele>777.9</ele>
        <time>2021-09-13T05:54:49.000Z</time>
      </trkpt>
      <trkpt lat="45.01548" lon="2.66891">
        <ele>777.6</ele>
        <time>2021-09-13T05:54:55.000Z</time>
      </trkpt>
      <trkpt lat="45.01549" lon="2.66901">
        <ele>777</ele>
        <time>2021-09-13T05:55:00.000Z</time>
      </trkpt>
      <trkpt lat="45.01552" lon="2.66915">
        <ele>776.5</ele>
        <time>2021-09-13T05:55:06.000Z</time>
      </trkpt>
      <trkpt lat="45.01556" lon="2.66927">
        <ele>776.8</ele>
        <time>2021-09-13T05:55:12.000Z</time>
      </trkpt>
      <trkpt lat="45.0155" lon="2.66933">
        <ele>775.6</ele>
        <time>2021-09-13T05:55:29.000Z</time>
      </trkpt>
      <trkpt lat="45.01544" lon="2.66939">
        <ele>774.4</ele>
        <time>2021-09-13T05:55:37.000Z</time>
      </trkpt>
      <trkpt lat="45.01539" lon="2.66946">
        <ele>773.3</ele>
        <time>2021-09-13T05:55:41.000Z</time>
      </trkpt>
      <trkpt lat="45.01534" lon="2.66953">
        <ele>772.3</ele>
        <time>2021-09-13T05:55:47.000Z</time>
      </trkpt>
      <trkpt lat="45.01531" lon="2.66961">
        <ele>771.7</ele>
        <time>2021-09-13T05:55:52.000Z</time>
      </trkpt>
      <trkpt lat="45.01527" lon="2.66969">
        <ele>770.8</ele>
        <time>2021-09-13T05:55:57.000Z</time>
      </trkpt>
      <trkpt lat="45.01523" lon="2.66978">
        <ele>770</ele>
        <time>2021-09-13T05:56:03.000Z</time>
      </trkpt>
      <trkpt lat="45.01519" lon="2.66986">
        <ele>769.2</ele>
        <time>2021-09-13T05:56:09.000Z</time>
      </trkpt>
      <trkpt lat="45.01515" lon="2.66993">
        <ele>768.5</ele>
        <time>2021-09-13T05:56:16.000Z</time>
      </trkpt>
      <trkpt lat="45.0151" lon="2.67">
        <ele>767.6</ele>
        <time>2021-09-13T05:56:22.000Z</time>
      </trkpt>
      <trkpt lat="45.01503" lon="2.67004">
        <ele>766.4</ele>
        <time>2021-09-13T05:56:28.000Z</time>
      </trkpt>
      <trkpt lat="45.01496" lon="2.67007">
        <ele>765.8</ele>
        <time>2021-09-13T05:56:34.000Z</time>
      </trkpt>
      <trkpt lat="45.01491" lon="2.67012">
        <ele>765.7</ele>
        <time>2021-09-13T05:56:39.000Z</time>
      </trkpt>
      <trkpt lat="45.01487" lon="2.67024">
        <ele>765.4</ele>
        <time>2021-09-13T05:56:45.000Z</time>
      </trkpt>
      <trkpt lat="45.01484" lon="2.67036">
        <ele>765.3</ele>
        <time>2021-09-13T05:56:51.000Z</time>
      </trkpt>
      <trkpt lat="45.01482" lon="2.67046">
        <ele>765.1</ele>
        <time>2021-09-13T05:56:57.000Z</time>
      </trkpt>
      <trkpt lat="45.0148" lon="2.67057">
        <ele>765</ele>
        <time>2021-09-13T05:57:03.000Z</time>
      </trkpt>
      <trkpt lat="45.01476" lon="2.67067">
        <ele>764.9</ele>
        <time>2021-09-13T05:57:09.000Z</time>
      </trkpt>
      <trkpt lat="45.01474" lon="2.67078">
        <ele>764.7</ele>
        <time>2021-09-13T05:57:15.000Z</time>
      </trkpt>
      <trkpt lat="45.01473" lon="2.6709">
        <ele>764.8</ele>
        <time>2021-09-13T05:57:21.000Z</time>
      </trkpt>
      <trkpt lat="45.01474" lon="2.67101">
        <ele>764.9</ele>
        <time>2021-09-13T05:57:27.000Z</time>
      </trkpt>
      <trkpt lat="45.01473" lon="2.67112">
        <ele>765</ele>
        <time>2021-09-13T05:57:33.000Z</time>
      </trkpt>
      <trkpt lat="45.01473" lon="2.67124">
        <ele>765.2</ele>
        <time>2021-09-13T05:57:39.000Z</time>
      </trkpt>
      <trkpt lat="45.01477" lon="2.67132">
        <ele>765.3</ele>
        <time>2021-09-13T05:57:45.000Z</time>
      </trkpt>
      <trkpt lat="45.01476" lon="2.67143">
        <ele>765.4</ele>
        <time>2021-09-13T05:58:31.000Z</time>
      </trkpt>
      <trkpt lat="45.01472" lon="2.67135">
        <ele>765.3</ele>
        <time>2021-09-13T05:59:31.000Z</time>
      </trkpt>
      <trkpt lat="45.01465" lon="2.67134">
        <ele>765.2</ele>
        <time>2021-09-13T05:59:36.000Z</time>
      </trkpt>
      <trkpt lat="45.01458" lon="2.67137">
        <ele>765.1</ele>
        <time>2021-09-13T05:59:43.000Z</time>
      </trkpt>
      <trkpt lat="45.01451" lon="2.67143">
        <ele>765.1</ele>
        <time>2021-09-13T05:59:48.000Z</time>
      </trkpt>
      <trkpt lat="45.01445" lon="2.67149">
        <ele>765.1</ele>
        <time>2021-09-13T05:59:53.000Z</time>
      </trkpt>
      <trkpt lat="45.01439" lon="2.67154">
        <ele>765.1</ele>
        <time>2021-09-13T05:59:57.000Z</time>
      </trkpt>
      <trkpt lat="45.01431" lon="2.67163">
        <ele>765.1</ele>
        <time>2021-09-13T06:00:03.000Z</time>
      </trkpt>
      <trkpt lat="45.01424" lon="2.67166">
        <ele>765.1</ele>
        <time>2021-09-13T06:00:22.000Z</time>
      </trkpt>
      <trkpt lat="45.01421" lon="2.67175">
        <ele>765</ele>
        <time>2021-09-13T06:00:27.000Z</time>
      </trkpt>
      <trkpt lat="45.01421" lon="2.67185">
        <ele>764.8</ele>
        <time>2021-09-13T06:00:33.000Z</time>
      </trkpt>
      <trkpt lat="45.01423" lon="2.67195">
        <ele>764.7</ele>
        <time>2021-09-13T06:00:39.000Z</time>
      </trkpt>
      <trkpt lat="45.01424" lon="2.6721">
        <ele>764.6</ele>
        <time>2021-09-13T06:00:45.000Z</time>
      </trkpt>
      <trkpt lat="45.01424" lon="2.67224">
        <ele>764.4</ele>
        <time>2021-09-13T06:00:51.000Z</time>
      </trkpt>
      <trkpt lat="45.01427" lon="2.67233">
        <ele>764.3</ele>
        <time>2021-09-13T06:00:58.000Z</time>
      </trkpt>
      <trkpt lat="45.01428" lon="2.67243">
        <ele>764.2</ele>
        <time>2021-09-13T06:01:02.000Z</time>
      </trkpt>
      <trkpt lat="45.01429" lon="2.67256">
        <ele>764.5</ele>
        <time>2021-09-13T06:01:07.000Z</time>
      </trkpt>
      <trkpt lat="45.01429" lon="2.67269">
        <ele>765.2</ele>
        <time>2021-09-13T06:01:13.000Z</time>
      </trkpt>
      <trkpt lat="45.0143" lon="2.67283">
        <ele>765.9</ele>
        <time>2021-09-13T06:01:19.000Z</time>
      </trkpt>
      <trkpt lat="45.0143" lon="2.67295">
        <ele>766.6</ele>
        <time>2021-09-13T06:01:25.000Z</time>
      </trkpt>
      <trkpt lat="45.01431" lon="2.67309">
        <ele>767.3</ele>
        <time>2021-09-13T06:01:31.000Z</time>
      </trkpt>
      <trkpt lat="45.01432" lon="2.67326">
        <ele>768.2</ele>
        <time>2021-09-13T06:01:37.000Z</time>
      </trkpt>
      <trkpt lat="45.01427" lon="2.67332">
        <ele>768.7</ele>
        <time>2021-09-13T06:01:50.000Z</time>
      </trkpt>
      <trkpt lat="45.01427" lon="2.67342">
        <ele>769.5</ele>
        <time>2021-09-13T06:05:32.000Z</time>
      </trkpt>
      <trkpt lat="45.01431" lon="2.67351">
        <ele>770.1</ele>
        <time>2021-09-13T06:05:39.000Z</time>
      </trkpt>
      <trkpt lat="45.01431" lon="2.6736">
        <ele>770.8</ele>
        <time>2021-09-13T06:05:44.000Z</time>
      </trkpt>
      <trkpt lat="45.0143" lon="2.6737">
        <ele>771.6</ele>
        <time>2021-09-13T06:05:49.000Z</time>
      </trkpt>
      <trkpt lat="45.01429" lon="2.6738">
        <ele>772.5</ele>
        <time>2021-09-13T06:05:54.000Z</time>
      </trkpt>
      <trkpt lat="45.01428" lon="2.67389">
        <ele>773.2</ele>
        <time>2021-09-13T06:06:02.000Z</time>
      </trkpt>
      <trkpt lat="45.01428" lon="2.67399">
        <ele>774</ele>
        <time>2021-09-13T06:06:09.000Z</time>
      </trkpt>
      <trkpt lat="45.01423" lon="2.67406">
        <ele>774.8</ele>
        <time>2021-09-13T06:06:21.000Z</time>
      </trkpt>
      <trkpt lat="45.01417" lon="2.67411">
        <ele>775.5</ele>
        <time>2021-09-13T06:06:25.000Z</time>
      </trkpt>
      <trkpt lat="45.01411" lon="2.67414">
        <ele>775.7</ele>
        <time>2021-09-13T06:06:30.000Z</time>
      </trkpt>
      <trkpt lat="45.01403" lon="2.67416">
        <ele>775.8</ele>
        <time>2021-09-13T06:06:36.000Z</time>
      </trkpt>
      <trkpt lat="45.01393" lon="2.67415">
        <ele>775.6</ele>
        <time>2021-09-13T06:06:42.000Z</time>
      </trkpt>
      <trkpt lat="45.01383" lon="2.67415">
        <ele>775.5</ele>
        <time>2021-09-13T06:06:48.000Z</time>
      </trkpt>
      <trkpt lat="45.01376" lon="2.67416">
        <ele>775.5</ele>
        <time>2021-09-13T06:06:55.000Z</time>
      </trkpt>
      <trkpt lat="45.01369" lon="2.67417">
        <ele>775.5</ele>
        <time>2021-09-13T06:07:01.000Z</time>
      </trkpt>
      <trkpt lat="45.01363" lon="2.67422">
        <ele>775.8</ele>
        <time>2021-09-13T06:07:06.000Z</time>
      </trkpt>
      <trkpt lat="45.01358" lon="2.6743">
        <ele>776.3</ele>
        <time>2021-09-13T06:07:11.000Z</time>
      </trkpt>
      <trkpt lat="45.01356" lon="2.67441">
        <ele>777.1</ele>
        <time>2021-09-13T06:07:17.000Z</time>
      </trkpt>
      <trkpt lat="45.01355" lon="2.6745">
        <ele>777.8</ele>
        <time>2021-09-13T06:07:37.000Z</time>
      </trkpt>
      <trkpt lat="45.01356" lon="2.6746">
        <ele>778.5</ele>
        <time>2021-09-13T06:07:43.000Z</time>
      </trkpt>
      <trkpt lat="45.01357" lon="2.6747">
        <ele>779.3</ele>
        <time>2021-09-13T06:07:49.000Z</time>
      </trkpt>
      <trkpt lat="45.01359" lon="2.67479">
        <ele>780</ele>
        <time>2021-09-13T06:07:54.000Z</time>
      </trkpt>
      <trkpt lat="45.01364" lon="2.67487">
        <ele>780.7</ele>
        <time>2021-09-13T06:08:00.000Z</time>
      </trkpt>
      <trkpt lat="45.01368" lon="2.67495">
        <ele>781.4</ele>
        <time>2021-09-13T06:08:05.000Z</time>
      </trkpt>
      <trkpt lat="45.01372" lon="2.67502">
        <ele>782.2</ele>
        <time>2021-09-13T06:08:14.000Z</time>
      </trkpt>
      <trkpt lat="45.01375" lon="2.6751">
        <ele>783.3</ele>
        <time>2021-09-13T06:08:20.000Z</time>
      </trkpt>
      <trkpt lat="45.01378" lon="2.6752">
        <ele>784.7</ele>
        <time>2021-09-13T06:08:27.000Z</time>
      </trkpt>
      <trkpt lat="45.0138" lon="2.67529">
        <ele>785.9</ele>
        <time>2021-09-13T06:08:34.000Z</time>
      </trkpt>
      <trkpt lat="45.01382" lon="2.67538">
        <ele>787.1</ele>
        <time>2021-09-13T06:08:41.000Z</time>
      </trkpt>
      <trkpt lat="45.01384" lon="2.67548">
        <ele>788.4</ele>
        <time>2021-09-13T06:08:48.000Z</time>
      </trkpt>
      <trkpt lat="45.01384" lon="2.67558">
        <ele>789.7</ele>
        <time>2021-09-13T06:08:57.000Z</time>
      </trkpt>
      <trkpt lat="45.01384" lon="2.67568">
        <ele>791</ele>
        <time>2021-09-13T06:09:05.000Z</time>
      </trkpt>
      <trkpt lat="45.01385" lon="2.67578">
        <ele>792.3</ele>
        <time>2021-09-13T06:09:12.000Z</time>
      </trkpt>
      <trkpt lat="45.01387" lon="2.67588">
        <ele>793.5</ele>
        <time>2021-09-13T06:09:19.000Z</time>
      </trkpt>
      <trkpt lat="45.0139" lon="2.67597">
        <ele>794.6</ele>
        <time>2021-09-13T06:09:26.000Z</time>
      </trkpt>
      <trkpt lat="45.01392" lon="2.67606">
        <ele>795.6</ele>
        <time>2021-09-13T06:09:35.000Z</time>
      </trkpt>
      <trkpt lat="45.01392" lon="2.67616">
        <ele>796.8</ele>
        <time>2021-09-13T06:09:43.000Z</time>
      </trkpt>
      <trkpt lat="45.01394" lon="2.67625">
        <ele>797.8</ele>
        <time>2021-09-13T06:09:49.000Z</time>
      </trkpt>
      <trkpt lat="45.01397" lon="2.67635">
        <ele>798.9</ele>
        <time>2021-09-13T06:09:54.000Z</time>
      </trkpt>
      <trkpt lat="45.01399" lon="2.67645">
        <ele>800</ele>
        <time>2021-09-13T06:10:00.000Z</time>
      </trkpt>
      <trkpt lat="45.01396" lon="2.67653">
        <ele>800.9</ele>
        <time>2021-09-13T06:10:05.000Z</time>
      </trkpt>
      <trkpt lat="45.01394" lon="2.67663">
        <ele>802.1</ele>
        <time>2021-09-13T06:10:11.000Z</time>
      </trkpt>
      <trkpt lat="45.01391" lon="2.67674">
        <ele>803.6</ele>
        <time>2021-09-13T06:10:17.000Z</time>
      </trkpt>
      <trkpt lat="45.01387" lon="2.67682">
        <ele>804.7</ele>
        <time>2021-09-13T06:10:23.000Z</time>
      </trkpt>
      <trkpt lat="45.01382" lon="2.67689">
        <ele>805.8</ele>
        <time>2021-09-13T06:10:29.000Z</time>
      </trkpt>
      <trkpt lat="45.01377" lon="2.67696">
        <ele>807</ele>
        <time>2021-09-13T06:10:35.000Z</time>
      </trkpt>
      <trkpt lat="45.01372" lon="2.67704">
        <ele>808.3</ele>
        <time>2021-09-13T06:10:41.000Z</time>
      </trkpt>
      <trkpt lat="45.01368" lon="2.67712">
        <ele>809.6</ele>
        <time>2021-09-13T06:10:47.000Z</time>
      </trkpt>
      <trkpt lat="45.01365" lon="2.67721">
        <ele>811</ele>
        <time>2021-09-13T06:10:53.000Z</time>
      </trkpt>
      <trkpt lat="45.01364" lon="2.67731">
        <ele>812.4</ele>
        <time>2021-09-13T06:11:40.000Z</time>
      </trkpt>
      <trkpt lat="45.01363" lon="2.67741">
        <ele>813.9</ele>
        <time>2021-09-13T06:11:48.000Z</time>
      </trkpt>
      <trkpt lat="45.01364" lon="2.6775">
        <ele>815.2</ele>
        <time>2021-09-13T06:11:55.000Z</time>
      </trkpt>
      <trkpt lat="45.01365" lon="2.67761">
        <ele>816.7</ele>
        <time>2021-09-13T06:11:59.000Z</time>
      </trkpt>
      <trkpt lat="45.01369" lon="2.6777">
        <ele>817.8</ele>
        <time>2021-09-13T06:12:15.000Z</time>
      </trkpt>
      <trkpt lat="45.01373" lon="2.67777">
        <ele>818.7</ele>
        <time>2021-09-13T06:12:21.000Z</time>
      </trkpt>
      <trkpt lat="45.01377" lon="2.67784">
        <ele>819.5</ele>
        <time>2021-09-13T06:12:27.000Z</time>
      </trkpt>
      <trkpt lat="45.01381" lon="2.67793">
        <ele>820.6</ele>
        <time>2021-09-13T06:12:33.000Z</time>
      </trkpt>
      <trkpt lat="45.01386" lon="2.678">
        <ele>821.4</ele>
        <time>2021-09-13T06:12:38.000Z</time>
      </trkpt>
      <trkpt lat="45.01391" lon="2.67807">
        <ele>822.2</ele>
        <time>2021-09-13T06:12:43.000Z</time>
      </trkpt>
      <trkpt lat="45.01394" lon="2.67815">
        <ele>823.3</ele>
        <time>2021-09-13T06:12:48.000Z</time>
      </trkpt>
      <trkpt lat="45.01397" lon="2.67824">
        <ele>824.5</ele>
        <time>2021-09-13T06:12:55.000Z</time>
      </trkpt>
      <trkpt lat="45.01402" lon="2.6783">
        <ele>825.2</ele>
        <time>2021-09-13T06:13:01.000Z</time>
      </trkpt>
      <trkpt lat="45.01406" lon="2.67837">
        <ele>826</ele>
        <time>2021-09-13T06:13:07.000Z</time>
      </trkpt>
      <trkpt lat="45.0141" lon="2.67846">
        <ele>827.2</ele>
        <time>2021-09-13T06:13:13.000Z</time>
      </trkpt>
      <trkpt lat="45.01412" lon="2.67855">
        <ele>828.4</ele>
        <time>2021-09-13T06:13:19.000Z</time>
      </trkpt>
      <trkpt lat="45.01413" lon="2.67864">
        <ele>829.6</ele>
        <time>2021-09-13T06:13:49.000Z</time>
      </trkpt>
      <trkpt lat="45.01417" lon="2.67872">
        <ele>830.5</ele>
        <time>2021-09-13T06:13:55.000Z</time>
      </trkpt>
      <trkpt lat="45.0142" lon="2.67881">
        <ele>831.4</ele>
        <time>2021-09-13T06:14:01.000Z</time>
      </trkpt>
      <trkpt lat="45.01422" lon="2.67889">
        <ele>832.2</ele>
        <time>2021-09-13T06:14:07.000Z</time>
      </trkpt>
      <trkpt lat="45.01427" lon="2.67898">
        <ele>832.8</ele>
        <time>2021-09-13T06:14:14.000Z</time>
      </trkpt>
      <trkpt lat="45.01432" lon="2.67904">
        <ele>833</ele>
        <time>2021-09-13T06:14:19.000Z</time>
      </trkpt>
      <trkpt lat="45.01439" lon="2.67909">
        <ele>832.7</ele>
        <time>2021-09-13T06:14:24.000Z</time>
      </trkpt>
      <trkpt lat="45.01444" lon="2.67915">
        <ele>832.8</ele>
        <time>2021-09-13T06:14:30.000Z</time>
      </trkpt>
      <trkpt lat="45.01451" lon="2.6792">
        <ele>832.4</ele>
        <time>2021-09-13T06:14:35.000Z</time>
      </trkpt>
      <trkpt lat="45.01456" lon="2.67925">
        <ele>832.1</ele>
        <time>2021-09-13T06:14:41.000Z</time>
      </trkpt>
      <trkpt lat="45.01463" lon="2.67931">
        <ele>831.7</ele>
        <time>2021-09-13T06:14:47.000Z</time>
      </trkpt>
      <trkpt lat="45.01469" lon="2.67937">
        <ele>831.5</ele>
        <time>2021-09-13T06:14:53.000Z</time>
      </trkpt>
      <trkpt lat="45.01474" lon="2.67944">
        <ele>831.5</ele>
        <time>2021-09-13T06:15:08.000Z</time>
      </trkpt>
      <trkpt lat="45.01476" lon="2.67953">
        <ele>832.1</ele>
        <time>2021-09-13T06:15:17.000Z</time>
      </trkpt>
      <trkpt lat="45.01476" lon="2.67963">
        <ele>833.1</ele>
        <time>2021-09-13T06:15:33.000Z</time>
      </trkpt>
      <trkpt lat="45.01476" lon="2.67973">
        <ele>834.2</ele>
        <time>2021-09-13T06:15:39.000Z</time>
      </trkpt>
      <trkpt lat="45.01476" lon="2.67984">
        <ele>835.3</ele>
        <time>2021-09-13T06:15:45.000Z</time>
      </trkpt>
      <trkpt lat="45.01476" lon="2.67994">
        <ele>836.3</ele>
        <time>2021-09-13T06:15:50.000Z</time>
      </trkpt>
      <trkpt lat="45.01475" lon="2.68004">
        <ele>837.4</ele>
        <time>2021-09-13T06:15:56.000Z</time>
      </trkpt>
      <trkpt lat="45.01476" lon="2.68014">
        <ele>838.3</ele>
        <time>2021-09-13T06:21:57.000Z</time>
      </trkpt>
      <trkpt lat="45.0148" lon="2.68023">
        <ele>838.8</ele>
        <time>2021-09-13T06:22:05.000Z</time>
      </trkpt>
      <trkpt lat="45.01482" lon="2.68031">
        <ele>839.3</ele>
        <time>2021-09-13T06:22:11.000Z</time>
      </trkpt>
      <trkpt lat="45.01484" lon="2.68041">
        <ele>840.2</ele>
        <time>2021-09-13T06:22:21.000Z</time>
      </trkpt>
      <trkpt lat="45.01486" lon="2.68051">
        <ele>841</ele>
        <time>2021-09-13T06:22:28.000Z</time>
      </trkpt>
      <trkpt lat="45.01489" lon="2.6806">
        <ele>841.6</ele>
        <time>2021-09-13T06:22:56.000Z</time>
      </trkpt>
      <trkpt lat="45.0149" lon="2.68069">
        <ele>842.5</ele>
        <time>2021-09-13T06:23:02.000Z</time>
      </trkpt>
      <trkpt lat="45.01493" lon="2.68078">
        <ele>843.1</ele>
        <time>2021-09-13T06:23:08.000Z</time>
      </trkpt>
      <trkpt lat="45.01495" lon="2.68088">
        <ele>843.7</ele>
        <time>2021-09-13T06:23:13.000Z</time>
      </trkpt>
      <trkpt lat="45.01497" lon="2.68097">
        <ele>844</ele>
        <time>2021-09-13T06:23:18.000Z</time>
      </trkpt>
      <trkpt lat="45.01499" lon="2.68106">
        <ele>844.2</ele>
        <time>2021-09-13T06:23:24.000Z</time>
      </trkpt>
      <trkpt lat="45.01503" lon="2.68115">
        <ele>844.3</ele>
        <time>2021-09-13T06:23:33.000Z</time>
      </trkpt>
      <trkpt lat="45.01502" lon="2.68124">
        <ele>844.8</ele>
        <time>2021-09-13T06:23:39.000Z</time>
      </trkpt>
      <trkpt lat="45.01501" lon="2.68138">
        <ele>845.6</ele>
        <time>2021-09-13T06:23:45.000Z</time>
      </trkpt>
      <trkpt lat="45.01505" lon="2.68146">
        <ele>845.7</ele>
        <time>2021-09-13T06:23:56.000Z</time>
      </trkpt>
      <trkpt lat="45.01501" lon="2.68153">
        <ele>846.3</ele>
        <time>2021-09-13T06:24:04.000Z</time>
      </trkpt>
      <trkpt lat="45.01495" lon="2.68156">
        <ele>847.2</ele>
        <time>2021-09-13T06:24:10.000Z</time>
      </trkpt>
      <trkpt lat="45.01488" lon="2.68161">
        <ele>848.6</ele>
        <time>2021-09-13T06:24:15.000Z</time>
      </trkpt>
      <trkpt lat="45.01479" lon="2.68164">
        <ele>850.1</ele>
        <time>2021-09-13T06:24:21.000Z</time>
      </trkpt>
      <trkpt lat="45.0147" lon="2.68168">
        <ele>851.7</ele>
        <time>2021-09-13T06:24:27.000Z</time>
      </trkpt>
      <trkpt lat="45.01464" lon="2.6817">
        <ele>852.8</ele>
        <time>2021-09-13T06:24:33.000Z</time>
      </trkpt>
      <trkpt lat="45.01456" lon="2.68173">
        <ele>854.3</ele>
        <time>2021-09-13T06:24:39.000Z</time>
      </trkpt>
      <trkpt lat="45.01448" lon="2.68175">
        <ele>855.8</ele>
        <time>2021-09-13T06:24:45.000Z</time>
      </trkpt>
      <trkpt lat="45.01441" lon="2.68177">
        <ele>857.1</ele>
        <time>2021-09-13T06:24:53.000Z</time>
      </trkpt>
      <trkpt lat="45.01435" lon="2.6818">
        <ele>858.4</ele>
        <time>2021-09-13T06:24:58.000Z</time>
      </trkpt>
      <trkpt lat="45.01428" lon="2.68184">
        <ele>860.1</ele>
        <time>2021-09-13T06:25:04.000Z</time>
      </trkpt>
      <trkpt lat="45.0142" lon="2.68186">
        <ele>861.7</ele>
        <time>2021-09-13T06:25:11.000Z</time>
      </trkpt>
      <trkpt lat="45.01413" lon="2.68189">
        <ele>863.5</ele>
        <time>2021-09-13T06:25:16.000Z</time>
      </trkpt>
      <trkpt lat="45.01407" lon="2.6819">
        <ele>865</ele>
        <time>2021-09-13T06:25:22.000Z</time>
      </trkpt>
      <trkpt lat="45.01399" lon="2.68192">
        <ele>867.1</ele>
        <time>2021-09-13T06:25:28.000Z</time>
      </trkpt>
      <trkpt lat="45.01391" lon="2.68192">
        <ele>868.9</ele>
        <time>2021-09-13T06:25:34.000Z</time>
      </trkpt>
      <trkpt lat="45.01385" lon="2.68191">
        <ele>870.1</ele>
        <time>2021-09-13T06:25:40.000Z</time>
      </trkpt>
      <trkpt lat="45.01378" lon="2.68191">
        <ele>871.7</ele>
        <time>2021-09-13T06:25:46.000Z</time>
      </trkpt>
      <trkpt lat="45.0137" lon="2.68192">
        <ele>873.7</ele>
        <time>2021-09-13T06:25:51.000Z</time>
      </trkpt>
      <trkpt lat="45.01363" lon="2.68193">
        <ele>875.4</ele>
        <time>2021-09-13T06:25:57.000Z</time>
      </trkpt>
      <trkpt lat="45.01357" lon="2.68195">
        <ele>877</ele>
        <time>2021-09-13T06:26:05.000Z</time>
      </trkpt>
      <trkpt lat="45.01351" lon="2.68202">
        <ele>879.2</ele>
        <time>2021-09-13T06:26:11.000Z</time>
      </trkpt>
      <trkpt lat="45.01345" lon="2.68207">
        <ele>881.2</ele>
        <time>2021-09-13T06:26:19.000Z</time>
      </trkpt>
      <trkpt lat="45.01339" lon="2.68213">
        <ele>883.3</ele>
        <time>2021-09-13T06:26:25.000Z</time>
      </trkpt>
      <trkpt lat="45.01334" lon="2.6822">
        <ele>885.2</ele>
        <time>2021-09-13T06:26:34.000Z</time>
      </trkpt>
      <trkpt lat="45.01332" lon="2.68229">
        <ele>886.7</ele>
        <time>2021-09-13T06:26:49.000Z</time>
      </trkpt>
      <trkpt lat="45.01335" lon="2.68239">
        <ele>887.3</ele>
        <time>2021-09-13T06:26:56.000Z</time>
      </trkpt>
      <trkpt lat="45.01336" lon="2.68249">
        <ele>888.3</ele>
        <time>2021-09-13T06:27:03.000Z</time>
      </trkpt>
      <trkpt lat="45.01336" lon="2.68259">
        <ele>889.5</ele>
        <time>2021-09-13T06:27:09.000Z</time>
      </trkpt>
      <trkpt lat="45.01341" lon="2.68269">
        <ele>889.5</ele>
        <time>2021-09-13T06:27:15.000Z</time>
      </trkpt>
      <trkpt lat="45.01343" lon="2.68279">
        <ele>890.2</ele>
        <time>2021-09-13T06:27:23.000Z</time>
      </trkpt>
      <trkpt lat="45.01345" lon="2.68288">
        <ele>890.8</ele>
        <time>2021-09-13T06:27:29.000Z</time>
      </trkpt>
      <trkpt lat="45.01349" lon="2.68296">
        <ele>890.8</ele>
        <time>2021-09-13T06:27:36.000Z</time>
      </trkpt>
      <trkpt lat="45.01351" lon="2.68305">
        <ele>891.4</ele>
        <time>2021-09-13T06:27:46.000Z</time>
      </trkpt>
      <trkpt lat="45.01351" lon="2.68326">
        <ele>893.9</ele>
        <time>2021-09-13T06:28:16.000Z</time>
      </trkpt>
      <trkpt lat="45.01351" lon="2.68337">
        <ele>895.5</ele>
        <time>2021-09-13T06:28:27.000Z</time>
      </trkpt>
      <trkpt lat="45.01339" lon="2.68348">
        <ele>900.8</ele>
        <time>2021-09-13T06:28:44.000Z</time>
      </trkpt>
      <trkpt lat="45.01332" lon="2.68346">
        <ele>902</ele>
        <time>2021-09-13T06:28:56.000Z</time>
      </trkpt>
      <trkpt lat="45.01325" lon="2.68343">
        <ele>902.9</ele>
        <time>2021-09-13T06:29:08.000Z</time>
      </trkpt>
      <trkpt lat="45.01319" lon="2.68343">
        <ele>904.2</ele>
        <time>2021-09-13T06:29:32.000Z</time>
      </trkpt>
      <trkpt lat="45.01309" lon="2.6834">
        <ele>905.7</ele>
        <time>2021-09-13T06:29:45.000Z</time>
      </trkpt>
      <trkpt lat="45.013" lon="2.68339">
        <ele>907.4</ele>
        <time>2021-09-13T06:30:02.000Z</time>
      </trkpt>
      <trkpt lat="45.01294" lon="2.68341">
        <ele>909.2</ele>
        <time>2021-09-13T06:30:10.000Z</time>
      </trkpt>
      <trkpt lat="45.01284" lon="2.68335">
        <ele>910</ele>
        <time>2021-09-13T06:31:08.000Z</time>
      </trkpt>
      <trkpt lat="45.01277" lon="2.68336">
        <ele>911.7</ele>
        <time>2021-09-13T06:31:18.000Z</time>
      </trkpt>
      <trkpt lat="45.01266" lon="2.68348">
        <ele>916.7</ele>
        <time>2021-09-13T06:31:54.000Z</time>
      </trkpt>
      <trkpt lat="45.01259" lon="2.68352">
        <ele>919.1</ele>
        <time>2021-09-13T06:32:15.000Z</time>
      </trkpt>
      <trkpt lat="45.01252" lon="2.68355">
        <ele>921.2</ele>
        <time>2021-09-13T06:32:38.000Z</time>
      </trkpt>
      <trkpt lat="45.01246" lon="2.68355">
        <ele>922</ele>
        <time>2021-09-13T06:32:51.000Z</time>
      </trkpt>
      <trkpt lat="45.01239" lon="2.68355">
        <ele>922.5</ele>
        <time>2021-09-13T06:33:08.000Z</time>
      </trkpt>
      <trkpt lat="45.01225" lon="2.68357">
        <ele>923.9</ele>
        <time>2021-09-13T06:33:28.000Z</time>
      </trkpt>
      <trkpt lat="45.01218" lon="2.6836">
        <ele>924.9</ele>
        <time>2021-09-13T06:33:47.000Z</time>
      </trkpt>
      <trkpt lat="45.01212" lon="2.6836">
        <ele>925.3</ele>
        <time>2021-09-13T06:33:52.000Z</time>
      </trkpt>
      <trkpt lat="45.01205" lon="2.68364">
        <ele>926.3</ele>
        <time>2021-09-13T06:33:59.000Z</time>
      </trkpt>
      <trkpt lat="45.01199" lon="2.68367">
        <ele>927.1</ele>
        <time>2021-09-13T06:34:08.000Z</time>
      </trkpt>
      <trkpt lat="45.0119" lon="2.68362">
        <ele>926.9</ele>
        <time>2021-09-13T06:34:15.000Z</time>
      </trkpt>
      <trkpt lat="45.01183" lon="2.68357">
        <ele>926.8</ele>
        <time>2021-09-13T06:34:22.000Z</time>
      </trkpt>
      <trkpt lat="45.01176" lon="2.68358">
        <ele>927.4</ele>
        <time>2021-09-13T06:36:40.000Z</time>
      </trkpt>
      <trkpt lat="45.01164" lon="2.68347">
        <ele>927.9</ele>
        <time>2021-09-13T06:37:14.000Z</time>
      </trkpt>
      <trkpt lat="45.01157" lon="2.68341">
        <ele>929.5</ele>
        <time>2021-09-13T06:37:23.000Z</time>
      </trkpt>
      <trkpt lat="45.01152" lon="2.68331">
        <ele>929.9</ele>
        <time>2021-09-13T06:37:45.000Z</time>
      </trkpt>
      <trkpt lat="45.01148" lon="2.68321">
        <ele>929.5</ele>
        <time>2021-09-13T06:38:03.000Z</time>
      </trkpt>
      <trkpt lat="45.01142" lon="2.68316">
        <ele>930.4</ele>
        <time>2021-09-13T06:38:10.000Z</time>
      </trkpt>
      <trkpt lat="45.01135" lon="2.68314">
        <ele>932.1</ele>
        <time>2021-09-13T06:38:15.000Z</time>
      </trkpt>
      <trkpt lat="45.01128" lon="2.68317">
        <ele>934.5</ele>
        <time>2021-09-13T06:38:24.000Z</time>
      </trkpt>
      <trkpt lat="45.01121" lon="2.68319">
        <ele>936.8</ele>
        <time>2021-09-13T06:38:29.000Z</time>
      </trkpt>
      <trkpt lat="45.01112" lon="2.68321">
        <ele>939.7</ele>
        <time>2021-09-13T06:38:33.000Z</time>
      </trkpt>
      <trkpt lat="45.01105" lon="2.68321">
        <ele>941.7</ele>
        <time>2021-09-13T06:38:41.000Z</time>
      </trkpt>
      <trkpt lat="45.01102" lon="2.6833">
        <ele>944.1</ele>
        <time>2021-09-13T06:38:48.000Z</time>
      </trkpt>
      <trkpt lat="45.01102" lon="2.68341">
        <ele>945.7</ele>
        <time>2021-09-13T06:38:52.000Z</time>
      </trkpt>
      <trkpt lat="45.01096" lon="2.68347">
        <ele>948.3</ele>
        <time>2021-09-13T06:39:01.000Z</time>
      </trkpt>
      <trkpt lat="45.0109" lon="2.68344">
        <ele>949.7</ele>
        <time>2021-09-13T06:39:12.000Z</time>
      </trkpt>
      <trkpt lat="45.01085" lon="2.68338">
        <ele>950.2</ele>
        <time>2021-09-13T06:39:20.000Z</time>
      </trkpt>
      <trkpt lat="45.0108" lon="2.68332">
        <ele>951.6</ele>
        <time>2021-09-13T06:39:28.000Z</time>
      </trkpt>
      <trkpt lat="45.01076" lon="2.68323">
        <ele>952.3</ele>
        <time>2021-09-13T06:39:33.000Z</time>
      </trkpt>
      <trkpt lat="45.01068" lon="2.68312">
        <ele>955</ele>
        <time>2021-09-13T06:39:39.000Z</time>
      </trkpt>
      <trkpt lat="45.01061" lon="2.68298">
        <ele>956.8</ele>
        <time>2021-09-13T06:39:45.000Z</time>
      </trkpt>
      <trkpt lat="45.01051" lon="2.68291">
        <ele>961.6</ele>
        <time>2021-09-13T06:40:02.000Z</time>
      </trkpt>
      <trkpt lat="45.01042" lon="2.68293">
        <ele>967.2</ele>
        <time>2021-09-13T06:40:23.000Z</time>
      </trkpt>
      <trkpt lat="45.01039" lon="2.68303">
        <ele>970.4</ele>
        <time>2021-09-13T06:40:39.000Z</time>
      </trkpt>
      <trkpt lat="45.0104" lon="2.68313">
        <ele>971.1</ele>
        <time>2021-09-13T06:40:51.000Z</time>
      </trkpt>
      <trkpt lat="45.01042" lon="2.68326">
        <ele>971.8</ele>
        <time>2021-09-13T06:41:08.000Z</time>
      </trkpt>
      <trkpt lat="45.01047" lon="2.68331">
        <ele>969.7</ele>
        <time>2021-09-13T06:41:14.000Z</time>
      </trkpt>
      <trkpt lat="45.01041" lon="2.68326">
        <ele>972.4</ele>
        <time>2021-09-13T06:41:27.000Z</time>
      </trkpt>
      <trkpt lat="45.01037" lon="2.68318">
        <ele>973.5</ele>
        <time>2021-09-13T06:41:34.000Z</time>
      </trkpt>
      <trkpt lat="45.01037" lon="2.68331">
        <ele>975.3</ele>
        <time>2021-09-13T06:41:56.000Z</time>
      </trkpt>
      <trkpt lat="45.01035" lon="2.68341">
        <ele>977.7</ele>
        <time>2021-09-13T06:42:19.000Z</time>
      </trkpt>
      <trkpt lat="45.01034" lon="2.68361">
        <ele>980.8</ele>
        <time>2021-09-13T06:42:51.000Z</time>
      </trkpt>
      <trkpt lat="45.01044" lon="2.68373">
        <ele>977</ele>
        <time>2021-09-13T06:43:37.000Z</time>
      </trkpt>
      <trkpt lat="45.01036" lon="2.68371">
        <ele>981</ele>
        <time>2021-09-13T06:43:59.000Z</time>
      </trkpt>
      <trkpt lat="45.01038" lon="2.68381">
        <ele>981.2</ele>
        <time>2021-09-13T06:44:23.000Z</time>
      </trkpt>
      <trkpt lat="45.01039" lon="2.68391">
        <ele>982</ele>
        <time>2021-09-13T06:44:29.000Z</time>
      </trkpt>
      <trkpt lat="45.01044" lon="2.68397">
        <ele>980.2</ele>
        <time>2021-09-13T06:44:35.000Z</time>
      </trkpt>
      <trkpt lat="45.01049" lon="2.68403">
        <ele>978.4</ele>
        <time>2021-09-13T06:44:42.000Z</time>
      </trkpt>
      <trkpt lat="45.01054" lon="2.68411">
        <ele>977</ele>
        <time>2021-09-13T06:44:50.000Z</time>
      </trkpt>
      <trkpt lat="45.01061" lon="2.68416">
        <ele>974.2</ele>
        <time>2021-09-13T06:44:56.000Z</time>
      </trkpt>
      <trkpt lat="45.01065" lon="2.68425">
        <ele>974.2</ele>
        <time>2021-09-13T06:45:01.000Z</time>
      </trkpt>
      <trkpt lat="45.01071" lon="2.68433">
        <ele>973.1</ele>
        <time>2021-09-13T06:45:06.000Z</time>
      </trkpt>
      <trkpt lat="45.01076" lon="2.68438">
        <ele>971.8</ele>
        <time>2021-09-13T06:45:12.000Z</time>
      </trkpt>
      <trkpt lat="45.01078" lon="2.68447">
        <ele>973</ele>
        <time>2021-09-13T06:45:18.000Z</time>
      </trkpt>
      <trkpt lat="45.01083" lon="2.68455">
        <ele>972.4</ele>
        <time>2021-09-13T06:45:23.000Z</time>
      </trkpt>
      <trkpt lat="45.01089" lon="2.68459">
        <ele>970.9</ele>
        <time>2021-09-13T06:45:31.000Z</time>
      </trkpt>
      <trkpt lat="45.01095" lon="2.68462">
        <ele>969.3</ele>
        <time>2021-09-13T06:45:39.000Z</time>
      </trkpt>
      <trkpt lat="45.01098" lon="2.68471">
        <ele>970.2</ele>
        <time>2021-09-13T06:45:54.000Z</time>
      </trkpt>
      <trkpt lat="45.01098" lon="2.6848">
        <ele>972.3</ele>
        <time>2021-09-13T06:46:00.000Z</time>
      </trkpt>
      <trkpt lat="45.01091" lon="2.68493">
        <ele>978.1</ele>
        <time>2021-09-13T06:46:17.000Z</time>
      </trkpt>
      <trkpt lat="45.01087" lon="2.68501">
        <ele>981.7</ele>
        <time>2021-09-13T06:46:37.000Z</time>
      </trkpt>
      <trkpt lat="45.01076" lon="2.68507">
        <ele>988.5</ele>
        <time>2021-09-13T06:47:06.000Z</time>
      </trkpt>
      <trkpt lat="45.0107" lon="2.68518">
        <ele>994.3</ele>
        <time>2021-09-13T06:47:33.000Z</time>
      </trkpt>
      <trkpt lat="45.0107" lon="2.68535">
        <ele>998.6</ele>
        <time>2021-09-13T06:48:15.000Z</time>
      </trkpt>
      <trkpt lat="45.01066" lon="2.68542">
        <ele>1002.4</ele>
        <time>2021-09-13T06:48:30.000Z</time>
      </trkpt>
      <trkpt lat="45.01063" lon="2.68551">
        <ele>1006.2</ele>
        <time>2021-09-13T06:48:42.000Z</time>
      </trkpt>
      <trkpt lat="45.01063" lon="2.6856">
        <ele>1008.5</ele>
        <time>2021-09-13T06:48:51.000Z</time>
      </trkpt>
      <trkpt lat="45.0106" lon="2.6857">
        <ele>1012.6</ele>
        <time>2021-09-13T06:49:03.000Z</time>
      </trkpt>
      <trkpt lat="45.01058" lon="2.68584">
        <ele>1017.3</ele>
        <time>2021-09-13T06:49:23.000Z</time>
      </trkpt>
      <trkpt lat="45.01056" lon="2.68596">
        <ele>1022.1</ele>
        <time>2021-09-13T06:49:48.000Z</time>
      </trkpt>
      <trkpt lat="45.01057" lon="2.68605">
        <ele>1024.4</ele>
        <time>2021-09-13T06:50:05.000Z</time>
      </trkpt>
      <trkpt lat="45.01056" lon="2.68615">
        <ele>1028</ele>
        <time>2021-09-13T06:50:15.000Z</time>
      </trkpt>
      <trkpt lat="45.01055" lon="2.68625">
        <ele>1031.6</ele>
        <time>2021-09-13T06:50:23.000Z</time>
      </trkpt>
      <trkpt lat="45.01057" lon="2.68635">
        <ele>1033.8</ele>
        <time>2021-09-13T06:50:32.000Z</time>
      </trkpt>
      <trkpt lat="45.01058" lon="2.68649">
        <ele>1037.8</ele>
        <time>2021-09-13T06:50:41.000Z</time>
      </trkpt>
      <trkpt lat="45.01058" lon="2.68658">
        <ele>1040.6</ele>
        <time>2021-09-13T06:50:47.000Z</time>
      </trkpt>
      <trkpt lat="45.01065" lon="2.68662">
        <ele>1039</ele>
        <time>2021-09-13T06:50:55.000Z</time>
      </trkpt>
      <trkpt lat="45.01065" lon="2.68673">
        <ele>1043.5</ele>
        <time>2021-09-13T06:51:21.000Z</time>
      </trkpt>
      <trkpt lat="45.0107" lon="2.68681">
        <ele>1045.5</ele>
        <time>2021-09-13T06:51:33.000Z</time>
      </trkpt>
      <trkpt lat="45.01071" lon="2.6869">
        <ele>1049.6</ele>
        <time>2021-09-13T06:51:42.000Z</time>
      </trkpt>
      <trkpt lat="45.01071" lon="2.68701">
        <ele>1055</ele>
        <time>2021-09-13T06:51:49.000Z</time>
      </trkpt>
      <trkpt lat="45.01074" lon="2.68709">
        <ele>1058.2</ele>
        <time>2021-09-13T06:51:54.000Z</time>
      </trkpt>
      <trkpt lat="45.01078" lon="2.68716">
        <ele>1060.9</ele>
        <time>2021-09-13T06:51:58.000Z</time>
      </trkpt>
      <trkpt lat="45.01082" lon="2.68726">
        <ele>1065.3</ele>
        <time>2021-09-13T06:52:04.000Z</time>
      </trkpt>
      <trkpt lat="45.01091" lon="2.68734">
        <ele>1062.9</ele>
        <time>2021-09-13T06:52:09.000Z</time>
      </trkpt>
      <trkpt lat="45.01097" lon="2.68742">
        <ele>1061.8</ele>
        <time>2021-09-13T06:52:15.000Z</time>
      </trkpt>
      <trkpt lat="45.01094" lon="2.6875">
        <ele>1068.5</ele>
        <time>2021-09-13T06:52:23.000Z</time>
      </trkpt>
      <trkpt lat="45.0109" lon="2.68758">
        <ele>1075.4</ele>
        <time>2021-09-13T06:52:35.000Z</time>
      </trkpt>
      <trkpt lat="45.01086" lon="2.68767">
        <ele>1082.7</ele>
        <time>2021-09-13T06:52:43.000Z</time>
      </trkpt>
      <trkpt lat="45.0108" lon="2.68772">
        <ele>1087.3</ele>
        <time>2021-09-13T06:52:47.000Z</time>
      </trkpt>
      <trkpt lat="45.01085" lon="2.6878">
        <ele>1088.9</ele>
        <time>2021-09-13T06:52:57.000Z</time>
      </trkpt>
      <trkpt lat="45.01089" lon="2.68788">
        <ele>1088.9</ele>
        <time>2021-09-13T06:53:03.000Z</time>
      </trkpt>
      <trkpt lat="45.01096" lon="2.68792">
        <ele>1084.9</ele>
        <time>2021-09-13T06:53:09.000Z</time>
      </trkpt>
      <trkpt lat="45.01104" lon="2.68797">
        <ele>1080.6</ele>
        <time>2021-09-13T06:53:15.000Z</time>
      </trkpt>
      <trkpt lat="45.0111" lon="2.68802">
        <ele>1078.1</ele>
        <time>2021-09-13T06:53:31.000Z</time>
      </trkpt>
      <trkpt lat="45.01115" lon="2.68808">
        <ele>1077</ele>
        <time>2021-09-13T06:53:42.000Z</time>
      </trkpt>
      <trkpt lat="45.01117" lon="2.68817">
        <ele>1079.7</ele>
        <time>2021-09-13T06:53:59.000Z</time>
      </trkpt>
      <trkpt lat="45.01122" lon="2.68825">
        <ele>1079.7</ele>
        <time>2021-09-13T06:54:07.000Z</time>
      </trkpt>
      <trkpt lat="45.01123" lon="2.68834">
        <ele>1083.2</ele>
        <time>2021-09-13T06:54:16.000Z</time>
      </trkpt>
      <trkpt lat="45.01128" lon="2.68844">
        <ele>1084</ele>
        <time>2021-09-13T06:54:22.000Z</time>
      </trkpt>
      <trkpt lat="45.01135" lon="2.68853">
        <ele>1083.5</ele>
        <time>2021-09-13T06:54:27.000Z</time>
      </trkpt>
      <trkpt lat="45.0114" lon="2.68857">
        <ele>1082.4</ele>
        <time>2021-09-13T06:54:33.000Z</time>
      </trkpt>
      <trkpt lat="45.0114" lon="2.68871">
        <ele>1089.4</ele>
        <time>2021-09-13T06:54:48.000Z</time>
      </trkpt>
      <trkpt lat="45.01147" lon="2.68878">
        <ele>1089.4</ele>
        <time>2021-09-13T06:54:52.000Z</time>
      </trkpt>
      <trkpt lat="45.01154" lon="2.68885">
        <ele>1089.8</ele>
        <time>2021-09-13T06:54:57.000Z</time>
      </trkpt>
      <trkpt lat="45.01161" lon="2.68886">
        <ele>1087.1</ele>
        <time>2021-09-13T06:55:03.000Z</time>
      </trkpt>
      <trkpt lat="45.01168" lon="2.6889">
        <ele>1086</ele>
        <time>2021-09-13T06:55:09.000Z</time>
      </trkpt>
      <trkpt lat="45.01176" lon="2.6889">
        <ele>1079.5</ele>
        <time>2021-09-13T06:55:15.000Z</time>
      </trkpt>
      <trkpt lat="45.01181" lon="2.68896">
        <ele>1079</ele>
        <time>2021-09-13T06:55:26.000Z</time>
      </trkpt>
      <trkpt lat="45.01185" lon="2.68904">
        <ele>1080.2</ele>
        <time>2021-09-13T06:55:36.000Z</time>
      </trkpt>
      <trkpt lat="45.01191" lon="2.68909">
        <ele>1077.7</ele>
        <time>2021-09-13T06:55:41.000Z</time>
      </trkpt>
      <trkpt lat="45.01197" lon="2.68913">
        <ele>1074.5</ele>
        <time>2021-09-13T06:55:49.000Z</time>
      </trkpt>
      <trkpt lat="45.01209" lon="2.68924">
        <ele>1068.8</ele>
        <time>2021-09-13T06:56:20.000Z</time>
      </trkpt>
      <trkpt lat="45.01212" lon="2.68932">
        <ele>1069.8</ele>
        <time>2021-09-13T06:56:28.000Z</time>
      </trkpt>
      <trkpt lat="45.01217" lon="2.6894">
        <ele>1069.4</ele>
        <time>2021-09-13T06:56:46.000Z</time>
      </trkpt>
      <trkpt lat="45.01221" lon="2.68948">
        <ele>1070</ele>
        <time>2021-09-13T06:56:54.000Z</time>
      </trkpt>
      <trkpt lat="45.01226" lon="2.68955">
        <ele>1069.5</ele>
        <time>2021-09-13T06:57:00.000Z</time>
      </trkpt>
      <trkpt lat="45.0123" lon="2.68963">
        <ele>1070.5</ele>
        <time>2021-09-13T06:57:08.000Z</time>
      </trkpt>
      <trkpt lat="45.01239" lon="2.68973">
        <ele>1069.2</ele>
        <time>2021-09-13T06:57:21.000Z</time>
      </trkpt>
      <trkpt lat="45.01247" lon="2.68974">
        <ele>1063.9</ele>
        <time>2021-09-13T06:57:27.000Z</time>
      </trkpt>
      <trkpt lat="45.01257" lon="2.68974">
        <ele>1058.7</ele>
        <time>2021-09-13T06:57:33.000Z</time>
      </trkpt>
      <trkpt lat="45.01269" lon="2.68971">
        <ele>1052.1</ele>
        <time>2021-09-13T06:57:39.000Z</time>
      </trkpt>
      <trkpt lat="45.01277" lon="2.68969">
        <ele>1047.9</ele>
        <time>2021-09-13T06:57:45.000Z</time>
      </trkpt>
      <trkpt lat="45.01286" lon="2.68969">
        <ele>1044.3</ele>
        <time>2021-09-13T06:58:00.000Z</time>
      </trkpt>
      <trkpt lat="45.01291" lon="2.68963">
        <ele>1039.7</ele>
        <time>2021-09-13T06:58:27.000Z</time>
      </trkpt>
      <trkpt lat="45.01298" lon="2.68964">
        <ele>1037.5</ele>
        <time>2021-09-13T06:58:38.000Z</time>
      </trkpt>
      <trkpt lat="45.01304" lon="2.68964">
        <ele>1035.2</ele>
        <time>2021-09-13T06:58:45.000Z</time>
      </trkpt>
      <trkpt lat="45.01312" lon="2.68964">
        <ele>1032.1</ele>
        <time>2021-09-13T06:58:51.000Z</time>
      </trkpt>
      <trkpt lat="45.01318" lon="2.68967">
        <ele>1030.7</ele>
        <time>2021-09-13T06:58:57.000Z</time>
      </trkpt>
      <trkpt lat="45.01322" lon="2.68975">
        <ele>1031.5</ele>
        <time>2021-09-13T06:59:07.000Z</time>
      </trkpt>
      <trkpt lat="45.01325" lon="2.68983">
        <ele>1032.5</ele>
        <time>2021-09-13T06:59:15.000Z</time>
      </trkpt>
      <trkpt lat="45.01321" lon="2.68994">
        <ele>1037.7</ele>
        <time>2021-09-13T06:59:21.000Z</time>
      </trkpt>
      <trkpt lat="45.01319" lon="2.69004">
        <ele>1042.6</ele>
        <time>2021-09-13T06:59:27.000Z</time>
      </trkpt>
      <trkpt lat="45.01322" lon="2.69013">
        <ele>1045.7</ele>
        <time>2021-09-13T06:59:33.000Z</time>
      </trkpt>
      <trkpt lat="45.0132" lon="2.69023">
        <ele>1051.8</ele>
        <time>2021-09-13T06:59:40.000Z</time>
      </trkpt>
      <trkpt lat="45.01321" lon="2.69033">
        <ele>1056.4</ele>
        <time>2021-09-13T06:59:46.000Z</time>
      </trkpt>
      <trkpt lat="45.01325" lon="2.69042">
        <ele>1059.1</ele>
        <time>2021-09-13T06:59:56.000Z</time>
      </trkpt>
      <trkpt lat="45.01327" lon="2.69051">
        <ele>1062.9</ele>
        <time>2021-09-13T07:00:03.000Z</time>
      </trkpt>
      <trkpt lat="45.01329" lon="2.69061">
        <ele>1067.2</ele>
        <time>2021-09-13T07:00:12.000Z</time>
      </trkpt>
      <trkpt lat="45.0133" lon="2.6907">
        <ele>1071.4</ele>
        <time>2021-09-13T07:00:20.000Z</time>
      </trkpt>
      <trkpt lat="45.01337" lon="2.69075">
        <ele>1071.6</ele>
        <time>2021-09-13T07:00:25.000Z</time>
      </trkpt>
      <trkpt lat="45.0134" lon="2.69084">
        <ele>1075.3</ele>
        <time>2021-09-13T07:00:58.000Z</time>
      </trkpt>
      <trkpt lat="45.01344" lon="2.69093">
        <ele>1076.3</ele>
        <time>2021-09-13T07:01:07.000Z</time>
      </trkpt>
      <trkpt lat="45.0135" lon="2.69099">
        <ele>1076.2</ele>
        <time>2021-09-13T07:01:15.000Z</time>
      </trkpt>
      <trkpt lat="45.01352" lon="2.69108">
        <ele>1077.8</ele>
        <time>2021-09-13T07:01:36.000Z</time>
      </trkpt>
      <trkpt lat="45.01358" lon="2.69119">
        <ele>1079.2</ele>
        <time>2021-09-13T07:02:00.000Z</time>
      </trkpt>
      <trkpt lat="45.01361" lon="2.69127">
        <ele>1080.5</ele>
        <time>2021-09-13T07:02:09.000Z</time>
      </trkpt>
      <trkpt lat="45.01365" lon="2.69135">
        <ele>1081.8</ele>
        <time>2021-09-13T07:02:18.000Z</time>
      </trkpt>
      <trkpt lat="45.01371" lon="2.69141">
        <ele>1082.2</ele>
        <time>2021-09-13T07:02:25.000Z</time>
      </trkpt>
      <trkpt lat="45.01381" lon="2.69151">
        <ele>1083.1</ele>
        <time>2021-09-13T07:03:03.000Z</time>
      </trkpt>
      <trkpt lat="45.01385" lon="2.69159">
        <ele>1084.7</ele>
        <time>2021-09-13T07:03:19.000Z</time>
      </trkpt>
      <trkpt lat="45.01386" lon="2.69168">
        <ele>1086.9</ele>
        <time>2021-09-13T07:03:30.000Z</time>
      </trkpt>
      <trkpt lat="45.01392" lon="2.69181">
        <ele>1086.7</ele>
        <time>2021-09-13T07:03:53.000Z</time>
      </trkpt>
      <trkpt lat="45.01399" lon="2.69186">
        <ele>1086.1</ele>
        <time>2021-09-13T07:03:58.000Z</time>
      </trkpt>
      <trkpt lat="45.01404" lon="2.69192">
        <ele>1085.9</ele>
        <time>2021-09-13T07:04:09.000Z</time>
      </trkpt>
      <trkpt lat="45.01408" lon="2.692">
        <ele>1086.1</ele>
        <time>2021-09-13T07:04:18.000Z</time>
      </trkpt>
      <trkpt lat="45.01411" lon="2.69211">
        <ele>1086.8</ele>
        <time>2021-09-13T07:04:25.000Z</time>
      </trkpt>
      <trkpt lat="45.01413" lon="2.6922">
        <ele>1087.4</ele>
        <time>2021-09-13T07:04:32.000Z</time>
      </trkpt>
      <trkpt lat="45.0142" lon="2.69224">
        <ele>1086.1</ele>
        <time>2021-09-13T07:04:37.000Z</time>
      </trkpt>
      <trkpt lat="45.01427" lon="2.69225">
        <ele>1083.2</ele>
        <time>2021-09-13T07:04:40.000Z</time>
      </trkpt>
      <trkpt lat="45.01433" lon="2.69228">
        <ele>1081</ele>
        <time>2021-09-13T07:04:45.000Z</time>
      </trkpt>
      <trkpt lat="45.0143" lon="2.69239">
        <ele>1083.7</ele>
        <time>2021-09-13T07:04:51.000Z</time>
      </trkpt>
      <trkpt lat="45.01428" lon="2.69251">
        <ele>1085.7</ele>
        <time>2021-09-13T07:04:57.000Z</time>
      </trkpt>
      <trkpt lat="45.01423" lon="2.6926">
        <ele>1086.8</ele>
        <time>2021-09-13T07:05:03.000Z</time>
      </trkpt>
      <trkpt lat="45.01423" lon="2.6927">
        <ele>1085.9</ele>
        <time>2021-09-13T07:05:16.000Z</time>
      </trkpt>
      <trkpt lat="45.01439" lon="2.69279">
        <ele>1079.9</ele>
        <time>2021-09-13T07:05:21.000Z</time>
      </trkpt>
      <trkpt lat="45.01447" lon="2.69283">
        <ele>1077.1</ele>
        <time>2021-09-13T07:05:45.000Z</time>
      </trkpt>
      <trkpt lat="45.0144" lon="2.69277">
        <ele>1079.7</ele>
        <time>2021-09-13T07:06:07.000Z</time>
      </trkpt>
      <trkpt lat="45.01435" lon="2.69271">
        <ele>1081.8</ele>
        <time>2021-09-13T07:06:19.000Z</time>
      </trkpt>
      <trkpt lat="45.01429" lon="2.69272">
        <ele>1083.7</ele>
        <time>2021-09-13T07:06:30.000Z</time>
      </trkpt>
      <trkpt lat="45.01421" lon="2.69273">
        <ele>1086.3</ele>
        <time>2021-09-13T07:06:43.000Z</time>
      </trkpt>
      <trkpt lat="45.01419" lon="2.69281">
        <ele>1086.3</ele>
        <time>2021-09-13T07:06:56.000Z</time>
      </trkpt>
      <trkpt lat="45.01417" lon="2.69291">
        <ele>1086</ele>
        <time>2021-09-13T07:07:07.000Z</time>
      </trkpt>
      <trkpt lat="45.01416" lon="2.69301">
        <ele>1085.1</ele>
        <time>2021-09-13T07:07:13.000Z</time>
      </trkpt>
      <trkpt lat="45.01424" lon="2.69309">
        <ele>1082.3</ele>
        <time>2021-09-13T07:07:41.000Z</time>
      </trkpt>
      <trkpt lat="45.01429" lon="2.69317">
        <ele>1080.3</ele>
        <time>2021-09-13T07:07:52.000Z</time>
      </trkpt>
      <trkpt lat="45.01436" lon="2.69317">
        <ele>1078.4</ele>
        <time>2021-09-13T07:08:06.000Z</time>
      </trkpt>
      <trkpt lat="45.01443" lon="2.69313">
        <ele>1076.8</ele>
        <time>2021-09-13T07:08:10.000Z</time>
      </trkpt>
      <trkpt lat="45.01446" lon="2.69324">
        <ele>1075.4</ele>
        <time>2021-09-13T07:08:27.000Z</time>
      </trkpt>
      <trkpt lat="45.01448" lon="2.69338">
        <ele>1073.1</ele>
        <time>2021-09-13T07:08:42.000Z</time>
      </trkpt>
      <trkpt lat="45.01454" lon="2.69351">
        <ele>1068</ele>
        <time>2021-09-13T07:08:48.000Z</time>
      </trkpt>
      <trkpt lat="45.0146" lon="2.69356">
        <ele>1065.2</ele>
        <time>2021-09-13T07:08:52.000Z</time>
      </trkpt>
      <trkpt lat="45.01464" lon="2.69364">
        <ele>1062.1</ele>
        <time>2021-09-13T07:09:05.000Z</time>
      </trkpt>
      <trkpt lat="45.01465" lon="2.69374">
        <ele>1059</ele>
        <time>2021-09-13T07:09:19.000Z</time>
      </trkpt>
      <trkpt lat="45.01471" lon="2.69381">
        <ele>1055.8</ele>
        <time>2021-09-13T07:09:22.000Z</time>
      </trkpt>
      <trkpt lat="45.01477" lon="2.69383">
        <ele>1053.9</ele>
        <time>2021-09-13T07:09:29.000Z</time>
      </trkpt>
      <trkpt lat="45.01482" lon="2.69388">
        <ele>1051.5</ele>
        <time>2021-09-13T07:09:49.000Z</time>
      </trkpt>
      <trkpt lat="45.01489" lon="2.69389">
        <ele>1049.7</ele>
        <time>2021-09-13T07:09:55.000Z</time>
      </trkpt>
      <trkpt lat="45.01496" lon="2.69392">
        <ele>1047.4</ele>
        <time>2021-09-13T07:10:01.000Z</time>
      </trkpt>
      <trkpt lat="45.01499" lon="2.69401">
        <ele>1044.3</ele>
        <time>2021-09-13T07:10:20.000Z</time>
      </trkpt>
      <trkpt lat="45.01496" lon="2.69412">
        <ele>1042.1</ele>
        <time>2021-09-13T07:10:35.000Z</time>
      </trkpt>
      <trkpt lat="45.01496" lon="2.69423">
        <ele>1038.9</ele>
        <time>2021-09-13T07:10:42.000Z</time>
      </trkpt>
      <trkpt lat="45.01494" lon="2.69432">
        <ele>1036.6</ele>
        <time>2021-09-13T07:10:46.000Z</time>
      </trkpt>
      <trkpt lat="45.01494" lon="2.69445">
        <ele>1032.7</ele>
        <time>2021-09-13T07:10:51.000Z</time>
      </trkpt>
      <trkpt lat="45.01495" lon="2.69457">
        <ele>1028.9</ele>
        <time>2021-09-13T07:10:57.000Z</time>
      </trkpt>
      <trkpt lat="45.01496" lon="2.69469">
        <ele>1025.1</ele>
        <time>2021-09-13T07:11:03.000Z</time>
      </trkpt>
      <trkpt lat="45.01497" lon="2.69481">
        <ele>1021.3</ele>
        <time>2021-09-13T07:11:09.000Z</time>
      </trkpt>
      <trkpt lat="45.01498" lon="2.69492">
        <ele>1017.8</ele>
        <time>2021-09-13T07:11:15.000Z</time>
      </trkpt>
      <trkpt lat="45.01498" lon="2.69501">
        <ele>1015.5</ele>
        <time>2021-09-13T07:11:21.000Z</time>
      </trkpt>
      <trkpt lat="45.01493" lon="2.69506">
        <ele>1016.7</ele>
        <time>2021-09-13T07:11:46.000Z</time>
      </trkpt>
      <trkpt lat="45.01488" lon="2.69514">
        <ele>1018.1</ele>
        <time>2021-09-13T07:11:54.000Z</time>
      </trkpt>
      <trkpt lat="45.01489" lon="2.69523">
        <ele>1018.2</ele>
        <time>2021-09-13T07:11:59.000Z</time>
      </trkpt>
      <trkpt lat="45.01488" lon="2.69535">
        <ele>1018.8</ele>
        <time>2021-09-13T07:12:03.000Z</time>
      </trkpt>
      <trkpt lat="45.01493" lon="2.69542">
        <ele>1018</ele>
        <time>2021-09-13T07:12:12.000Z</time>
      </trkpt>
      <trkpt lat="45.01502" lon="2.69545">
        <ele>1015.9</ele>
        <time>2021-09-13T07:12:16.000Z</time>
      </trkpt>
      <trkpt lat="45.01512" lon="2.69545">
        <ele>1012.4</ele>
        <time>2021-09-13T07:12:21.000Z</time>
      </trkpt>
      <trkpt lat="45.01517" lon="2.69551">
        <ele>1010.8</ele>
        <time>2021-09-13T07:12:31.000Z</time>
      </trkpt>
      <trkpt lat="45.01524" lon="2.69557">
        <ele>1008.5</ele>
        <time>2021-09-13T07:12:35.000Z</time>
      </trkpt>
      <trkpt lat="45.0153" lon="2.69562">
        <ele>1006.5</ele>
        <time>2021-09-13T07:12:39.000Z</time>
      </trkpt>
      <trkpt lat="45.01539" lon="2.69569">
        <ele>1003.5</ele>
        <time>2021-09-13T07:12:45.000Z</time>
      </trkpt>
      <trkpt lat="45.01545" lon="2.69575">
        <ele>1001.6</ele>
        <time>2021-09-13T07:12:51.000Z</time>
      </trkpt>
      <trkpt lat="45.01552" lon="2.69578">
        <ele>999.1</ele>
        <time>2021-09-13T07:13:01.000Z</time>
      </trkpt>
      <trkpt lat="45.01558" lon="2.6958">
        <ele>997</ele>
        <time>2021-09-13T07:13:07.000Z</time>
      </trkpt>
      <trkpt lat="45.01564" lon="2.69586">
        <ele>995.6</ele>
        <time>2021-09-13T07:13:59.000Z</time>
      </trkpt>
      <trkpt lat="45.01565" lon="2.69598">
        <ele>997.8</ele>
        <time>2021-09-13T07:14:07.000Z</time>
      </trkpt>
      <trkpt lat="45.01574" lon="2.69612">
        <ele>997.6</ele>
        <time>2021-09-13T07:14:13.000Z</time>
      </trkpt>
      <trkpt lat="45.01578" lon="2.69619">
        <ele>997.7</ele>
        <time>2021-09-13T07:14:19.000Z</time>
      </trkpt>
      <trkpt lat="45.01582" lon="2.69626">
        <ele>997.7</ele>
        <time>2021-09-13T07:14:31.000Z</time>
      </trkpt>
      <trkpt lat="45.01587" lon="2.69635">
        <ele>998.5</ele>
        <time>2021-09-13T07:14:42.000Z</time>
      </trkpt>
      <trkpt lat="45.01592" lon="2.69645">
        <ele>999.7</ele>
        <time>2021-09-13T07:14:47.000Z</time>
      </trkpt>
      <trkpt lat="45.01594" lon="2.69654">
        <ele>1001.2</ele>
        <time>2021-09-13T07:14:54.000Z</time>
      </trkpt>
      <trkpt lat="45.01596" lon="2.69663">
        <ele>1002.7</ele>
        <time>2021-09-13T07:15:06.000Z</time>
      </trkpt>
      <trkpt lat="45.01596" lon="2.69653">
        <ele>1000.6</ele>
        <time>2021-09-13T07:15:29.000Z</time>
      </trkpt>
      <trkpt lat="45.01593" lon="2.69645">
        <ele>999.5</ele>
        <time>2021-09-13T07:15:35.000Z</time>
      </trkpt>
      <trkpt lat="45.01586" lon="2.6964">
        <ele>999.7</ele>
        <time>2021-09-13T07:15:41.000Z</time>
      </trkpt>
      <trkpt lat="45.01579" lon="2.6964">
        <ele>1001.9</ele>
        <time>2021-09-13T07:15:50.000Z</time>
      </trkpt>
      <trkpt lat="45.01572" lon="2.69638">
        <ele>1004.1</ele>
        <time>2021-09-13T07:15:57.000Z</time>
      </trkpt>
      <trkpt lat="45.01565" lon="2.69636">
        <ele>1006.3</ele>
        <time>2021-09-13T07:16:05.000Z</time>
      </trkpt>
      <trkpt lat="45.01558" lon="2.69635">
        <ele>1008.7</ele>
        <time>2021-09-13T07:16:42.000Z</time>
      </trkpt>
      <trkpt lat="45.01551" lon="2.69634">
        <ele>1011.1</ele>
        <time>2021-09-13T07:16:48.000Z</time>
      </trkpt>
      <trkpt lat="45.01544" lon="2.69631">
        <ele>1013</ele>
        <time>2021-09-13T07:16:55.000Z</time>
      </trkpt>
      <trkpt lat="45.01537" lon="2.6963">
        <ele>1015.4</ele>
        <time>2021-09-13T07:17:02.000Z</time>
      </trkpt>
      <trkpt lat="45.0153" lon="2.69629">
        <ele>1017.8</ele>
        <time>2021-09-13T07:17:10.000Z</time>
      </trkpt>
      <trkpt lat="45.01527" lon="2.69638">
        <ele>1021</ele>
        <time>2021-09-13T07:17:21.000Z</time>
      </trkpt>
      <trkpt lat="45.0153" lon="2.69647">
        <ele>1021.9</ele>
        <time>2021-09-13T07:17:29.000Z</time>
      </trkpt>
      <trkpt lat="45.01536" lon="2.69652">
        <ele>1020.8</ele>
        <time>2021-09-13T07:17:36.000Z</time>
      </trkpt>
      <trkpt lat="45.01539" lon="2.6966">
        <ele>1021.5</ele>
        <time>2021-09-13T07:17:42.000Z</time>
      </trkpt>
      <trkpt lat="45.01544" lon="2.69667">
        <ele>1021.2</ele>
        <time>2021-09-13T07:17:48.000Z</time>
      </trkpt>
      <trkpt lat="45.01546" lon="2.69678">
        <ele>1022.9</ele>
        <time>2021-09-13T07:17:58.000Z</time>
      </trkpt>
      <trkpt lat="45.01548" lon="2.69687">
        <ele>1024.2</ele>
        <time>2021-09-13T07:18:06.000Z</time>
      </trkpt>
      <trkpt lat="45.01551" lon="2.69695">
        <ele>1025</ele>
        <time>2021-09-13T07:18:14.000Z</time>
      </trkpt>
      <trkpt lat="45.01546" lon="2.69702">
        <ele>1028.3</ele>
        <time>2021-09-13T07:18:25.000Z</time>
      </trkpt>
      <trkpt lat="45.01542" lon="2.69694">
        <ele>1027.9</ele>
        <time>2021-09-13T07:18:34.000Z</time>
      </trkpt>
      <trkpt lat="45.01535" lon="2.69696">
        <ele>1030.9</ele>
        <time>2021-09-13T07:18:58.000Z</time>
      </trkpt>
      <trkpt lat="45.01529" lon="2.6969">
        <ele>1031.7</ele>
        <time>2021-09-13T07:19:05.000Z</time>
      </trkpt>
      <trkpt lat="45.01523" lon="2.69686">
        <ele>1033.1</ele>
        <time>2021-09-13T07:19:10.000Z</time>
      </trkpt>
      <trkpt lat="45.01516" lon="2.69688">
        <ele>1036</ele>
        <time>2021-09-13T07:19:17.000Z</time>
      </trkpt>
      <trkpt lat="45.01512" lon="2.69696">
        <ele>1039</ele>
        <time>2021-09-13T07:19:24.000Z</time>
      </trkpt>
      <trkpt lat="45.01514" lon="2.69705">
        <ele>1040.1</ele>
        <time>2021-09-13T07:19:37.000Z</time>
      </trkpt>
      <trkpt lat="45.0152" lon="2.69713">
        <ele>1039.6</ele>
        <time>2021-09-13T07:19:46.000Z</time>
      </trkpt>
      <trkpt lat="45.01519" lon="2.69722">
        <ele>1041.7</ele>
        <time>2021-09-13T07:19:56.000Z</time>
      </trkpt>
      <trkpt lat="45.01512" lon="2.69726">
        <ele>1044.8</ele>
        <time>2021-09-13T07:20:04.000Z</time>
      </trkpt>
      <trkpt lat="45.01504" lon="2.69725">
        <ele>1047.2</ele>
        <time>2021-09-13T07:20:36.000Z</time>
      </trkpt>
      <trkpt lat="45.01498" lon="2.69719">
        <ele>1047.7</ele>
        <time>2021-09-13T07:20:43.000Z</time>
      </trkpt>
      <trkpt lat="45.01491" lon="2.69717">
        <ele>1048.2</ele>
        <time>2021-09-13T07:20:50.000Z</time>
      </trkpt>
      <trkpt lat="45.01484" lon="2.69715">
        <ele>1048.7</ele>
        <time>2021-09-13T07:20:57.000Z</time>
      </trkpt>
      <trkpt lat="45.01477" lon="2.69717">
        <ele>1049.9</ele>
        <time>2021-09-13T07:21:04.000Z</time>
      </trkpt>
      <trkpt lat="45.01469" lon="2.69721">
        <ele>1051.6</ele>
        <time>2021-09-13T07:21:09.000Z</time>
      </trkpt>
      <trkpt lat="45.01467" lon="2.69731">
        <ele>1053.6</ele>
        <time>2021-09-13T07:21:19.000Z</time>
      </trkpt>
      <trkpt lat="45.01472" lon="2.69738">
        <ele>1054.2</ele>
        <time>2021-09-13T07:21:26.000Z</time>
      </trkpt>
      <trkpt lat="45.01478" lon="2.69742">
        <ele>1054.2</ele>
        <time>2021-09-13T07:21:33.000Z</time>
      </trkpt>
      <trkpt lat="45.01483" lon="2.69749">
        <ele>1054.9</ele>
        <time>2021-09-13T07:21:41.000Z</time>
      </trkpt>
      <trkpt lat="45.01489" lon="2.69754">
        <ele>1054.9</ele>
        <time>2021-09-13T07:21:47.000Z</time>
      </trkpt>
      <trkpt lat="45.01495" lon="2.69759">
        <ele>1055</ele>
        <time>2021-09-13T07:21:55.000Z</time>
      </trkpt>
      <trkpt lat="45.015" lon="2.69765">
        <ele>1055.3</ele>
        <time>2021-09-13T07:22:03.000Z</time>
      </trkpt>
      <trkpt lat="45.01504" lon="2.69773">
        <ele>1055.6</ele>
        <time>2021-09-13T07:22:16.000Z</time>
      </trkpt>
      <trkpt lat="45.01508" lon="2.69781">
        <ele>1056</ele>
        <time>2021-09-13T07:22:25.000Z</time>
      </trkpt>
      <trkpt lat="45.01511" lon="2.69789">
        <ele>1056.8</ele>
        <time>2021-09-13T07:22:36.000Z</time>
      </trkpt>
      <trkpt lat="45.01517" lon="2.69793">
        <ele>1056.3</ele>
        <time>2021-09-13T07:22:43.000Z</time>
      </trkpt>
      <trkpt lat="45.0152" lon="2.69802">
        <ele>1057.5</ele>
        <time>2021-09-13T07:22:58.000Z</time>
      </trkpt>
      <trkpt lat="45.01524" lon="2.6981">
        <ele>1058.5</ele>
        <time>2021-09-13T07:23:07.000Z</time>
      </trkpt>
      <trkpt lat="45.01524" lon="2.69819">
        <ele>1060.4</ele>
        <time>2021-09-13T07:23:16.000Z</time>
      </trkpt>
      <trkpt lat="45.0153" lon="2.69825">
        <ele>1060.9</ele>
        <time>2021-09-13T07:23:24.000Z</time>
      </trkpt>
      <trkpt lat="45.01536" lon="2.69829">
        <ele>1061.1</ele>
        <time>2021-09-13T07:23:32.000Z</time>
      </trkpt>
      <trkpt lat="45.0154" lon="2.69837">
        <ele>1062.5</ele>
        <time>2021-09-13T07:23:47.000Z</time>
      </trkpt>
      <trkpt lat="45.0154" lon="2.69848">
        <ele>1064.9</ele>
        <time>2021-09-13T07:23:58.000Z</time>
      </trkpt>
      <trkpt lat="45.01542" lon="2.69857">
        <ele>1066.7</ele>
        <time>2021-09-13T07:24:09.000Z</time>
      </trkpt>
      <trkpt lat="45.01538" lon="2.6985">
        <ele>1065.5</ele>
        <time>2021-09-13T07:24:49.000Z</time>
      </trkpt>
      <trkpt lat="45.01532" lon="2.69846">
        <ele>1065.2</ele>
        <time>2021-09-13T07:24:56.000Z</time>
      </trkpt>
      <trkpt lat="45.01527" lon="2.6984">
        <ele>1064.4</ele>
        <time>2021-09-13T07:25:02.000Z</time>
      </trkpt>
      <trkpt lat="45.01522" lon="2.69834">
        <ele>1063.8</ele>
        <time>2021-09-13T07:25:14.000Z</time>
      </trkpt>
      <trkpt lat="45.01514" lon="2.69834">
        <ele>1064.6</ele>
        <time>2021-09-13T07:25:21.000Z</time>
      </trkpt>
      <trkpt lat="45.01508" lon="2.69837">
        <ele>1065.8</ele>
        <time>2021-09-13T07:25:28.000Z</time>
      </trkpt>
      <trkpt lat="45.01501" lon="2.69834">
        <ele>1066</ele>
        <time>2021-09-13T07:25:36.000Z</time>
      </trkpt>
      <trkpt lat="45.01496" lon="2.69828">
        <ele>1065.5</ele>
        <time>2021-09-13T07:25:42.000Z</time>
      </trkpt>
      <trkpt lat="45.01489" lon="2.69828">
        <ele>1066</ele>
        <time>2021-09-13T07:25:49.000Z</time>
      </trkpt>
      <trkpt lat="45.01484" lon="2.69821">
        <ele>1065.3</ele>
        <time>2021-09-13T07:25:57.000Z</time>
      </trkpt>
      <trkpt lat="45.01476" lon="2.69819">
        <ele>1065.7</ele>
        <time>2021-09-13T07:26:05.000Z</time>
      </trkpt>
      <trkpt lat="45.01469" lon="2.69817">
        <ele>1066</ele>
        <time>2021-09-13T07:26:10.000Z</time>
      </trkpt>
      <trkpt lat="45.01463" lon="2.69812">
        <ele>1065.8</ele>
        <time>2021-09-13T07:26:18.000Z</time>
      </trkpt>
      <trkpt lat="45.01458" lon="2.69805">
        <ele>1065.3</ele>
        <time>2021-09-13T07:26:23.000Z</time>
      </trkpt>
      <trkpt lat="45.01452" lon="2.69799">
        <ele>1065</ele>
        <time>2021-09-13T07:26:28.000Z</time>
      </trkpt>
      <trkpt lat="45.01446" lon="2.69795">
        <ele>1065.1</ele>
        <time>2021-09-13T07:26:33.000Z</time>
      </trkpt>
      <trkpt lat="45.01437" lon="2.6979">
        <ele>1065.3</ele>
        <time>2021-09-13T07:26:39.000Z</time>
      </trkpt>
      <trkpt lat="45.0143" lon="2.69787">
        <ele>1065.7</ele>
        <time>2021-09-13T07:26:45.000Z</time>
      </trkpt>
      <trkpt lat="45.0142" lon="2.69782">
        <ele>1066.1</ele>
        <time>2021-09-13T07:26:51.000Z</time>
      </trkpt>
      <trkpt lat="45.01411" lon="2.69778">
        <ele>1066.3</ele>
        <time>2021-09-13T07:26:57.000Z</time>
      </trkpt>
      <trkpt lat="45.01405" lon="2.6978">
        <ele>1066.8</ele>
        <time>2021-09-13T07:27:56.000Z</time>
      </trkpt>
      <trkpt lat="45.01396" lon="2.69782">
        <ele>1067.5</ele>
        <time>2021-09-13T07:28:02.000Z</time>
      </trkpt>
      <trkpt lat="45.0139" lon="2.69783">
        <ele>1067.9</ele>
        <time>2021-09-13T07:28:07.000Z</time>
      </trkpt>
      <trkpt lat="45.01383" lon="2.69785">
        <ele>1068.5</ele>
        <time>2021-09-13T07:28:11.000Z</time>
      </trkpt>
      <trkpt lat="45.01376" lon="2.69785">
        <ele>1068.8</ele>
        <time>2021-09-13T07:28:17.000Z</time>
      </trkpt>
      <trkpt lat="45.01367" lon="2.69783">
        <ele>1069.1</ele>
        <time>2021-09-13T07:28:21.000Z</time>
      </trkpt>
      <trkpt lat="45.01358" lon="2.69785">
        <ele>1069.7</ele>
        <time>2021-09-13T07:28:27.000Z</time>
      </trkpt>
      <trkpt lat="45.01351" lon="2.69785">
        <ele>1070.1</ele>
        <time>2021-09-13T07:28:36.000Z</time>
      </trkpt>
      <trkpt lat="45.01344" lon="2.69787">
        <ele>1070.6</ele>
        <time>2021-09-13T07:28:43.000Z</time>
      </trkpt>
      <trkpt lat="45.01346" lon="2.69798">
        <ele>1071.4</ele>
        <time>2021-09-13T07:28:54.000Z</time>
      </trkpt>
      <trkpt lat="45.01339" lon="2.69796">
        <ele>1071.6</ele>
        <time>2021-09-13T07:29:01.000Z</time>
      </trkpt>
      <trkpt lat="45.01332" lon="2.69796">
        <ele>1072</ele>
        <time>2021-09-13T07:29:10.000Z</time>
      </trkpt>
      <trkpt lat="45.01325" lon="2.69795">
        <ele>1072.9</ele>
        <time>2021-09-13T07:29:17.000Z</time>
      </trkpt>
      <trkpt lat="45.01318" lon="2.69792">
        <ele>1073.5</ele>
        <time>2021-09-13T07:29:25.000Z</time>
      </trkpt>
      <trkpt lat="45.01311" lon="2.69794">
        <ele>1074.5</ele>
        <time>2021-09-13T07:29:40.000Z</time>
      </trkpt>
      <trkpt lat="45.01304" lon="2.69798">
        <ele>1075.9</ele>
        <time>2021-09-13T07:29:48.000Z</time>
      </trkpt>
      <trkpt lat="45.01297" lon="2.69799">
        <ele>1076.9</ele>
        <time>2021-09-13T07:29:53.000Z</time>
      </trkpt>
      <trkpt lat="45.01291" lon="2.69804">
        <ele>1078.2</ele>
        <time>2021-09-13T07:30:00.000Z</time>
      </trkpt>
      <trkpt lat="45.01286" lon="2.6981">
        <ele>1079.6</ele>
        <time>2021-09-13T07:30:07.000Z</time>
      </trkpt>
      <trkpt lat="45.01285" lon="2.6982">
        <ele>1081</ele>
        <time>2021-09-13T07:30:14.000Z</time>
      </trkpt>
      <trkpt lat="45.0128" lon="2.69826">
        <ele>1082.4</ele>
        <time>2021-09-13T07:30:19.000Z</time>
      </trkpt>
      <trkpt lat="45.01274" lon="2.69831">
        <ele>1084</ele>
        <time>2021-09-13T07:30:27.000Z</time>
      </trkpt>
      <trkpt lat="45.01267" lon="2.69832">
        <ele>1085.2</ele>
        <time>2021-09-13T07:30:39.000Z</time>
      </trkpt>
      <trkpt lat="45.01261" lon="2.69838">
        <ele>1086.5</ele>
        <time>2021-09-13T07:30:53.000Z</time>
      </trkpt>
      <trkpt lat="45.01253" lon="2.69836">
        <ele>1087.7</ele>
        <time>2021-09-13T07:31:01.000Z</time>
      </trkpt>
      <trkpt lat="45.01246" lon="2.69838">
        <ele>1089</ele>
        <time>2021-09-13T07:31:08.000Z</time>
      </trkpt>
      <trkpt lat="45.01239" lon="2.69841">
        <ele>1090.5</ele>
        <time>2021-09-13T07:31:14.000Z</time>
      </trkpt>
      <trkpt lat="45.01232" lon="2.69843">
        <ele>1091.9</ele>
        <time>2021-09-13T07:31:23.000Z</time>
      </trkpt>
      <trkpt lat="45.01227" lon="2.69849">
        <ele>1093.2</ele>
        <time>2021-09-13T07:31:29.000Z</time>
      </trkpt>
      <trkpt lat="45.0122" lon="2.6985">
        <ele>1094.6</ele>
        <time>2021-09-13T07:31:38.000Z</time>
      </trkpt>
      <trkpt lat="45.01213" lon="2.69848">
        <ele>1095.8</ele>
        <time>2021-09-13T07:31:45.000Z</time>
      </trkpt>
      <trkpt lat="45.01206" lon="2.69849">
        <ele>1097.2</ele>
        <time>2021-09-13T07:31:52.000Z</time>
      </trkpt>
      <trkpt lat="45.012" lon="2.69851">
        <ele>1098.4</ele>
        <time>2021-09-13T07:31:59.000Z</time>
      </trkpt>
      <trkpt lat="45.01194" lon="2.69857">
        <ele>1099.9</ele>
        <time>2021-09-13T07:32:06.000Z</time>
      </trkpt>
      <trkpt lat="45.01188" lon="2.69863">
        <ele>1101.3</ele>
        <time>2021-09-13T07:32:11.000Z</time>
      </trkpt>
      <trkpt lat="45.01185" lon="2.69872">
        <ele>1102.3</ele>
        <time>2021-09-13T07:32:16.000Z</time>
      </trkpt>
      <trkpt lat="45.01181" lon="2.69879">
        <ele>1103.4</ele>
        <time>2021-09-13T07:32:23.000Z</time>
      </trkpt>
      <trkpt lat="45.01177" lon="2.69887">
        <ele>1104.6</ele>
        <time>2021-09-13T07:32:30.000Z</time>
      </trkpt>
      <trkpt lat="45.01176" lon="2.69896">
        <ele>1105.2</ele>
        <time>2021-09-13T07:32:48.000Z</time>
      </trkpt>
      <trkpt lat="45.01171" lon="2.69903">
        <ele>1106.5</ele>
        <time>2021-09-13T07:33:00.000Z</time>
      </trkpt>
      <trkpt lat="45.01168" lon="2.69911">
        <ele>1107.5</ele>
        <time>2021-09-13T07:33:09.000Z</time>
      </trkpt>
      <trkpt lat="45.01167" lon="2.69921">
        <ele>1108.2</ele>
        <time>2021-09-13T07:33:22.000Z</time>
      </trkpt>
      <trkpt lat="45.01161" lon="2.69927">
        <ele>1109.8</ele>
        <time>2021-09-13T07:33:30.000Z</time>
      </trkpt>
      <trkpt lat="45.01155" lon="2.69935">
        <ele>1111.5</ele>
        <time>2021-09-13T07:33:37.000Z</time>
      </trkpt>
      <trkpt lat="45.01152" lon="2.69945">
        <ele>1112.7</ele>
        <time>2021-09-13T07:33:42.000Z</time>
      </trkpt>
      <trkpt lat="45.01151" lon="2.69964">
        <ele>1114.2</ele>
        <time>2021-09-13T07:34:05.000Z</time>
      </trkpt>
      <trkpt lat="45.01149" lon="2.69973">
        <ele>1115.2</ele>
        <time>2021-09-13T07:34:34.000Z</time>
      </trkpt>
      <trkpt lat="45.01151" lon="2.69983">
        <ele>1115.5</ele>
        <time>2021-09-13T07:34:41.000Z</time>
      </trkpt>
      <trkpt lat="45.01154" lon="2.69991">
        <ele>1115.5</ele>
        <time>2021-09-13T07:34:49.000Z</time>
      </trkpt>
      <trkpt lat="45.01154" lon="2.70001">
        <ele>1116.2</ele>
        <time>2021-09-13T07:34:58.000Z</time>
      </trkpt>
      <trkpt lat="45.01153" lon="2.7001">
        <ele>1117.2</ele>
        <time>2021-09-13T07:35:07.000Z</time>
      </trkpt>
      <trkpt lat="45.01152" lon="2.70022">
        <ele>1118.5</ele>
        <time>2021-09-13T07:35:15.000Z</time>
      </trkpt>
      <trkpt lat="45.01152" lon="2.70034">
        <ele>1119.7</ele>
        <time>2021-09-13T07:35:29.000Z</time>
      </trkpt>
      <trkpt lat="45.01147" lon="2.70039">
        <ele>1121.1</ele>
        <time>2021-09-13T07:35:40.000Z</time>
      </trkpt>
      <trkpt lat="45.01148" lon="2.70049">
        <ele>1121.9</ele>
        <time>2021-09-13T07:35:52.000Z</time>
      </trkpt>
      <trkpt lat="45.01143" lon="2.70056">
        <ele>1123.6</ele>
        <time>2021-09-13T07:35:58.000Z</time>
      </trkpt>
      <trkpt lat="45.01137" lon="2.70063">
        <ele>1125.6</ele>
        <time>2021-09-13T07:36:06.000Z</time>
      </trkpt>
      <trkpt lat="45.0113" lon="2.70063">
        <ele>1127.1</ele>
        <time>2021-09-13T07:36:20.000Z</time>
      </trkpt>
      <trkpt lat="45.01124" lon="2.70058">
        <ele>1127.8</ele>
        <time>2021-09-13T07:36:26.000Z</time>
      </trkpt>
      <trkpt lat="45.01118" lon="2.70053">
        <ele>1128.5</ele>
        <time>2021-09-13T07:36:32.000Z</time>
      </trkpt>
      <trkpt lat="45.01111" lon="2.70048">
        <ele>1129.3</ele>
        <time>2021-09-13T07:36:39.000Z</time>
      </trkpt>
      <trkpt lat="45.01105" lon="2.70042">
        <ele>1129.8</ele>
        <time>2021-09-13T07:36:44.000Z</time>
      </trkpt>
      <trkpt lat="45.011" lon="2.70035">
        <ele>1129.8</ele>
        <time>2021-09-13T07:36:49.000Z</time>
      </trkpt>
      <trkpt lat="45.01094" lon="2.70028">
        <ele>1130</ele>
        <time>2021-09-13T07:36:55.000Z</time>
      </trkpt>
      <trkpt lat="45.01088" lon="2.70027">
        <ele>1131</ele>
        <time>2021-09-13T07:37:04.000Z</time>
      </trkpt>
      <trkpt lat="45.01081" lon="2.70028">
        <ele>1132.6</ele>
        <time>2021-09-13T07:37:10.000Z</time>
      </trkpt>
      <trkpt lat="45.01075" lon="2.7003">
        <ele>1134.2</ele>
        <time>2021-09-13T07:37:16.000Z</time>
      </trkpt>
      <trkpt lat="45.01072" lon="2.70038">
        <ele>1136.1</ele>
        <time>2021-09-13T07:37:27.000Z</time>
      </trkpt>
      <trkpt lat="45.01072" lon="2.70048">
        <ele>1137.6</ele>
        <time>2021-09-13T07:37:42.000Z</time>
      </trkpt>
      <trkpt lat="45.01073" lon="2.70059">
        <ele>1139</ele>
        <time>2021-09-13T07:37:52.000Z</time>
      </trkpt>
      <trkpt lat="45.01071" lon="2.70069">
        <ele>1141</ele>
        <time>2021-09-13T07:37:57.000Z</time>
      </trkpt>
      <trkpt lat="45.01067" lon="2.70076">
        <ele>1143</ele>
        <time>2021-09-13T07:38:02.000Z</time>
      </trkpt>
      <trkpt lat="45.01066" lon="2.70087">
        <ele>1145</ele>
        <time>2021-09-13T07:38:26.000Z</time>
      </trkpt>
      <trkpt lat="45.01063" lon="2.70097">
        <ele>1147.7</ele>
        <time>2021-09-13T07:38:41.000Z</time>
      </trkpt>
      <trkpt lat="45.01064" lon="2.70106">
        <ele>1149.1</ele>
        <time>2021-09-13T07:38:50.000Z</time>
      </trkpt>
      <trkpt lat="45.01062" lon="2.70115">
        <ele>1151.4</ele>
        <time>2021-09-13T07:38:58.000Z</time>
      </trkpt>
      <trkpt lat="45.01063" lon="2.70136">
        <ele>1155.1</ele>
        <time>2021-09-13T07:39:19.000Z</time>
      </trkpt>
      <trkpt lat="45.01065" lon="2.70146">
        <ele>1156.3</ele>
        <time>2021-09-13T07:39:29.000Z</time>
      </trkpt>
      <trkpt lat="45.01068" lon="2.70156">
        <ele>1157.2</ele>
        <time>2021-09-13T07:39:36.000Z</time>
      </trkpt>
      <trkpt lat="45.01068" lon="2.70165">
        <ele>1158.8</ele>
        <time>2021-09-13T07:39:42.000Z</time>
      </trkpt>
      <trkpt lat="45.01069" lon="2.70175">
        <ele>1159.9</ele>
        <time>2021-09-13T07:39:49.000Z</time>
      </trkpt>
      <trkpt lat="45.01071" lon="2.70184">
        <ele>1160.3</ele>
        <time>2021-09-13T07:39:56.000Z</time>
      </trkpt>
      <trkpt lat="45.0107" lon="2.70194">
        <ele>1162</ele>
        <time>2021-09-13T07:40:01.000Z</time>
      </trkpt>
      <trkpt lat="45.01067" lon="2.70203">
        <ele>1164.2</ele>
        <time>2021-09-13T07:40:08.000Z</time>
      </trkpt>
      <trkpt lat="45.01065" lon="2.70212">
        <ele>1166.1</ele>
        <time>2021-09-13T07:40:16.000Z</time>
      </trkpt>
      <trkpt lat="45.01066" lon="2.70222">
        <ele>1167</ele>
        <time>2021-09-13T07:40:27.000Z</time>
      </trkpt>
      <trkpt lat="45.01066" lon="2.70232">
        <ele>1168.3</ele>
        <time>2021-09-13T07:40:35.000Z</time>
      </trkpt>
      <trkpt lat="45.01068" lon="2.7025">
        <ele>1169.9</ele>
        <time>2021-09-13T07:40:53.000Z</time>
      </trkpt>
      <trkpt lat="45.01068" lon="2.7026">
        <ele>1171</ele>
        <time>2021-09-13T07:41:12.000Z</time>
      </trkpt>
      <trkpt lat="45.01067" lon="2.7027">
        <ele>1172.5</ele>
        <time>2021-09-13T07:41:23.000Z</time>
      </trkpt>
      <trkpt lat="45.01065" lon="2.70279">
        <ele>1174.2</ele>
        <time>2021-09-13T07:41:28.000Z</time>
      </trkpt>
      <trkpt lat="45.01063" lon="2.70288">
        <ele>1176</ele>
        <time>2021-09-13T07:41:32.000Z</time>
      </trkpt>
      <trkpt lat="45.01062" lon="2.70298">
        <ele>1177.5</ele>
        <time>2021-09-13T07:41:43.000Z</time>
      </trkpt>
      <trkpt lat="45.01057" lon="2.70304">
        <ele>1180.1</ele>
        <time>2021-09-13T07:42:11.000Z</time>
      </trkpt>
      <trkpt lat="45.01051" lon="2.70301">
        <ele>1182.2</ele>
        <time>2021-09-13T07:42:39.000Z</time>
      </trkpt>
      <trkpt lat="45.01044" lon="2.70297">
        <ele>1184.4</ele>
        <time>2021-09-13T07:42:45.000Z</time>
      </trkpt>
      <trkpt lat="45.01038" lon="2.70278">
        <ele>1184.6</ele>
        <time>2021-09-13T07:43:00.000Z</time>
      </trkpt>
      <trkpt lat="45.01028" lon="2.70266">
        <ele>1187.1</ele>
        <time>2021-09-13T07:43:10.000Z</time>
      </trkpt>
      <trkpt lat="45.0102" lon="2.70261">
        <ele>1189.6</ele>
        <time>2021-09-13T07:43:13.000Z</time>
      </trkpt>
      <trkpt lat="45.01011" lon="2.70255">
        <ele>1192.4</ele>
        <time>2021-09-13T07:43:19.000Z</time>
      </trkpt>
      <trkpt lat="45.01007" lon="2.70263">
        <ele>1194.9</ele>
        <time>2021-09-13T07:43:42.000Z</time>
      </trkpt>
      <trkpt lat="45.01005" lon="2.70272">
        <ele>1196.7</ele>
        <time>2021-09-13T07:43:58.000Z</time>
      </trkpt>
      <trkpt lat="45.01006" lon="2.70281">
        <ele>1197.4</ele>
        <time>2021-09-13T07:44:09.000Z</time>
      </trkpt>
      <trkpt lat="45.01004" lon="2.7029">
        <ele>1199.2</ele>
        <time>2021-09-13T07:44:30.000Z</time>
      </trkpt>
      <trkpt lat="45.01001" lon="2.70303">
        <ele>1202</ele>
        <time>2021-09-13T07:44:46.000Z</time>
      </trkpt>
      <trkpt lat="45.00997" lon="2.7031">
        <ele>1204.1</ele>
        <time>2021-09-13T07:44:59.000Z</time>
      </trkpt>
      <trkpt lat="45.00998" lon="2.7032">
        <ele>1205</ele>
        <time>2021-09-13T07:45:11.000Z</time>
      </trkpt>
      <trkpt lat="45.00997" lon="2.7033">
        <ele>1206.5</ele>
        <time>2021-09-13T07:45:21.000Z</time>
      </trkpt>
      <trkpt lat="45.00996" lon="2.70341">
        <ele>1208</ele>
        <time>2021-09-13T07:45:29.000Z</time>
      </trkpt>
      <trkpt lat="45.00992" lon="2.70349">
        <ele>1210</ele>
        <time>2021-09-13T07:45:38.000Z</time>
      </trkpt>
      <trkpt lat="45.00991" lon="2.70359">
        <ele>1211.3</ele>
        <time>2021-09-13T07:45:45.000Z</time>
      </trkpt>
      <trkpt lat="45.00996" lon="2.70367">
        <ele>1210.5</ele>
        <time>2021-09-13T07:45:55.000Z</time>
      </trkpt>
      <trkpt lat="45.00998" lon="2.70376">
        <ele>1210.7</ele>
        <time>2021-09-13T07:46:05.000Z</time>
      </trkpt>
      <trkpt lat="45.01" lon="2.70386">
        <ele>1211.1</ele>
        <time>2021-09-13T07:46:16.000Z</time>
      </trkpt>
      <trkpt lat="45.01004" lon="2.70393">
        <ele>1210.2</ele>
        <time>2021-09-13T07:46:23.000Z</time>
      </trkpt>
      <trkpt lat="45.01008" lon="2.70401">
        <ele>1209.6</ele>
        <time>2021-09-13T07:46:34.000Z</time>
      </trkpt>
      <trkpt lat="45.01011" lon="2.7041">
        <ele>1209.4</ele>
        <time>2021-09-13T07:46:45.000Z</time>
      </trkpt>
      <trkpt lat="45.01011" lon="2.70425">
        <ele>1211.3</ele>
        <time>2021-09-13T07:47:09.000Z</time>
      </trkpt>
      <trkpt lat="45.01016" lon="2.70434">
        <ele>1210.9</ele>
        <time>2021-09-13T07:47:24.000Z</time>
      </trkpt>
      <trkpt lat="45.01028" lon="2.70437">
        <ele>1207.2</ele>
        <time>2021-09-13T07:47:42.000Z</time>
      </trkpt>
      <trkpt lat="45.01037" lon="2.70438">
        <ele>1204.2</ele>
        <time>2021-09-13T07:47:48.000Z</time>
      </trkpt>
      <trkpt lat="45.01045" lon="2.70451">
        <ele>1203.6</ele>
        <time>2021-09-13T07:48:03.000Z</time>
      </trkpt>
      <trkpt lat="45.01051" lon="2.70464">
        <ele>1203.8</ele>
        <time>2021-09-13T07:48:11.000Z</time>
      </trkpt>
      <trkpt lat="45.01047" lon="2.70471">
        <ele>1206.4</ele>
        <time>2021-09-13T07:48:37.000Z</time>
      </trkpt>
      <trkpt lat="45.0104" lon="2.70469">
        <ele>1208.3</ele>
        <time>2021-09-13T07:48:46.000Z</time>
      </trkpt>
      <trkpt lat="45.01031" lon="2.70462">
        <ele>1210.2</ele>
        <time>2021-09-13T07:49:06.000Z</time>
      </trkpt>
      <trkpt lat="45.01025" lon="2.70465">
        <ele>1212.7</ele>
        <time>2021-09-13T07:49:13.000Z</time>
      </trkpt>
      <trkpt lat="45.01017" lon="2.70472">
        <ele>1216.4</ele>
        <time>2021-09-13T07:49:29.000Z</time>
      </trkpt>
      <trkpt lat="45.01012" lon="2.70478">
        <ele>1218.9</ele>
        <time>2021-09-13T07:49:52.000Z</time>
      </trkpt>
      <trkpt lat="45.01005" lon="2.7048">
        <ele>1221.5</ele>
        <time>2021-09-13T07:50:03.000Z</time>
      </trkpt>
      <trkpt lat="45.00994" lon="2.70479">
        <ele>1225.2</ele>
        <time>2021-09-13T07:50:28.000Z</time>
      </trkpt>
      <trkpt lat="45.0099" lon="2.70486">
        <ele>1227.7</ele>
        <time>2021-09-13T07:50:40.000Z</time>
      </trkpt>
      <trkpt lat="45.00984" lon="2.70491">
        <ele>1230.6</ele>
        <time>2021-09-13T07:50:51.000Z</time>
      </trkpt>
      <trkpt lat="45.00977" lon="2.70494">
        <ele>1233.7</ele>
        <time>2021-09-13T07:51:00.000Z</time>
      </trkpt>
      <trkpt lat="45.0097" lon="2.70495">
        <ele>1236.4</ele>
        <time>2021-09-13T07:51:09.000Z</time>
      </trkpt>
      <trkpt lat="45.00964" lon="2.70504">
        <ele>1239.9</ele>
        <time>2021-09-13T07:51:14.000Z</time>
      </trkpt>
      <trkpt lat="45.00963" lon="2.70514">
        <ele>1241.7</ele>
        <time>2021-09-13T07:51:20.000Z</time>
      </trkpt>
      <trkpt lat="45.00957" lon="2.70519">
        <ele>1244.5</ele>
        <time>2021-09-13T07:51:25.000Z</time>
      </trkpt>
      <trkpt lat="45.00948" lon="2.70528">
        <ele>1248.8</ele>
        <time>2021-09-13T07:51:30.000Z</time>
      </trkpt>
      <trkpt lat="45.0094" lon="2.70541">
        <ele>1253.1</ele>
        <time>2021-09-13T07:51:36.000Z</time>
      </trkpt>
      <trkpt lat="45.00947" lon="2.70549">
        <ele>1251.7</ele>
        <time>2021-09-13T07:51:42.000Z</time>
      </trkpt>
      <trkpt lat="45.00942" lon="2.70541">
        <ele>1252.4</ele>
        <time>2021-09-13T07:52:00.000Z</time>
      </trkpt>
      <trkpt lat="45.00945" lon="2.70526">
        <ele>1249.6</ele>
        <time>2021-09-13T07:52:06.000Z</time>
      </trkpt>
      <trkpt lat="45.00949" lon="2.70514">
        <ele>1246.7</ele>
        <time>2021-09-13T07:52:12.000Z</time>
      </trkpt>
      <trkpt lat="45.00955" lon="2.70511">
        <ele>1244.2</ele>
        <time>2021-09-13T07:52:26.000Z</time>
      </trkpt>
      <trkpt lat="45.00953" lon="2.70496">
        <ele>1242.9</ele>
        <time>2021-09-13T07:52:30.000Z</time>
      </trkpt>
      <trkpt lat="45.0095" lon="2.70478">
        <ele>1241.1</ele>
        <time>2021-09-13T07:52:36.000Z</time>
      </trkpt>
      <trkpt lat="45.00937" lon="2.70464">
        <ele>1243.6</ele>
        <time>2021-09-13T07:52:42.000Z</time>
      </trkpt>
      <trkpt lat="45.00929" lon="2.70465">
        <ele>1246.7</ele>
        <time>2021-09-13T07:52:56.000Z</time>
      </trkpt>
      <trkpt lat="45.00923" lon="2.70461">
        <ele>1248.2</ele>
        <time>2021-09-13T07:53:16.000Z</time>
      </trkpt>
      <trkpt lat="45.00918" lon="2.70456">
        <ele>1249.1</ele>
        <time>2021-09-13T07:53:35.000Z</time>
      </trkpt>
      <trkpt lat="45.00912" lon="2.70461">
        <ele>1252</ele>
        <time>2021-09-13T07:53:41.000Z</time>
      </trkpt>
      <trkpt lat="45.00905" lon="2.7046">
        <ele>1254.3</ele>
        <time>2021-09-13T07:53:48.000Z</time>
      </trkpt>
      <trkpt lat="45.00899" lon="2.7046">
        <ele>1256.3</ele>
        <time>2021-09-13T07:53:54.000Z</time>
      </trkpt>
      <trkpt lat="45.00893" lon="2.70455">
        <ele>1257.6</ele>
        <time>2021-09-13T07:54:10.000Z</time>
      </trkpt>
      <trkpt lat="45.00887" lon="2.70451">
        <ele>1259</ele>
        <time>2021-09-13T07:54:19.000Z</time>
      </trkpt>
      <trkpt lat="45.00881" lon="2.70446">
        <ele>1260.3</ele>
        <time>2021-09-13T07:54:34.000Z</time>
      </trkpt>
      <trkpt lat="45.00874" lon="2.70448">
        <ele>1263</ele>
        <time>2021-09-13T07:54:45.000Z</time>
      </trkpt>
      <trkpt lat="45.00867" lon="2.70447">
        <ele>1265.3</ele>
        <time>2021-09-13T07:55:25.000Z</time>
      </trkpt>
      <trkpt lat="45.00861" lon="2.70445">
        <ele>1267.1</ele>
        <time>2021-09-13T07:55:39.000Z</time>
      </trkpt>
      <trkpt lat="45.00854" lon="2.70443">
        <ele>1269.3</ele>
        <time>2021-09-13T07:55:52.000Z</time>
      </trkpt>
      <trkpt lat="45.00848" lon="2.70441">
        <ele>1271.1</ele>
        <time>2021-09-13T07:56:02.000Z</time>
      </trkpt>
      <trkpt lat="45.00841" lon="2.7044">
        <ele>1273.4</ele>
        <time>2021-09-13T07:56:15.000Z</time>
      </trkpt>
      <trkpt lat="45.00835" lon="2.70434">
        <ele>1274.7</ele>
        <time>2021-09-13T07:56:54.000Z</time>
      </trkpt>
      <trkpt lat="45.00829" lon="2.70436">
        <ele>1276.8</ele>
        <time>2021-09-13T07:57:05.000Z</time>
      </trkpt>
      <trkpt lat="45.00822" lon="2.70433">
        <ele>1278.5</ele>
        <time>2021-09-13T07:57:26.000Z</time>
      </trkpt>
      <trkpt lat="45.00815" lon="2.70431">
        <ele>1280.3</ele>
        <time>2021-09-13T07:57:48.000Z</time>
      </trkpt>
      <trkpt lat="45.0081" lon="2.70425">
        <ele>1280.9</ele>
        <time>2021-09-13T07:57:55.000Z</time>
      </trkpt>
      <trkpt lat="45.00803" lon="2.70426">
        <ele>1283.1</ele>
        <time>2021-09-13T07:58:10.000Z</time>
      </trkpt>
      <trkpt lat="45.00796" lon="2.70424">
        <ele>1284.9</ele>
        <time>2021-09-13T07:58:17.000Z</time>
      </trkpt>
      <trkpt lat="45.00792" lon="2.70416">
        <ele>1284.8</ele>
        <time>2021-09-13T07:58:39.000Z</time>
      </trkpt>
      <trkpt lat="45.00785" lon="2.70416">
        <ele>1286.8</ele>
        <time>2021-09-13T07:58:45.000Z</time>
      </trkpt>
      <trkpt lat="45.00778" lon="2.70414">
        <ele>1288.4</ele>
        <time>2021-09-13T07:58:51.000Z</time>
      </trkpt>
      <trkpt lat="45.00773" lon="2.70409">
        <ele>1289</ele>
        <time>2021-09-13T07:58:59.000Z</time>
      </trkpt>
      <trkpt lat="45.00767" lon="2.70404">
        <ele>1289.7</ele>
        <time>2021-09-13T07:59:07.000Z</time>
      </trkpt>
      <trkpt lat="45.00759" lon="2.70402">
        <ele>1291.6</ele>
        <time>2021-09-13T07:59:19.000Z</time>
      </trkpt>
      <trkpt lat="45.00746" lon="2.70401">
        <ele>1295.3</ele>
        <time>2021-09-13T07:59:50.000Z</time>
      </trkpt>
      <trkpt lat="45.0074" lon="2.70398">
        <ele>1296.6</ele>
        <time>2021-09-13T07:59:55.000Z</time>
      </trkpt>
      <trkpt lat="45.00735" lon="2.70392">
        <ele>1297</ele>
        <time>2021-09-13T08:00:02.000Z</time>
      </trkpt>
      <trkpt lat="45.00728" lon="2.70389">
        <ele>1298.6</ele>
        <time>2021-09-13T08:00:08.000Z</time>
      </trkpt>
      <trkpt lat="45.00722" lon="2.70386">
        <ele>1299.8</ele>
        <time>2021-09-13T08:00:12.000Z</time>
      </trkpt>
      <trkpt lat="45.00715" lon="2.70375">
        <ele>1299.7</ele>
        <time>2021-09-13T08:00:26.000Z</time>
      </trkpt>
      <trkpt lat="45.0071" lon="2.70369">
        <ele>1300</ele>
        <time>2021-09-13T08:00:44.000Z</time>
      </trkpt>
      <trkpt lat="45.00704" lon="2.70369">
        <ele>1301.8</ele>
        <time>2021-09-13T08:00:50.000Z</time>
      </trkpt>
      <trkpt lat="45.00694" lon="2.70363">
        <ele>1303.5</ele>
        <time>2021-09-13T08:01:00.000Z</time>
      </trkpt>
      <trkpt lat="45.00687" lon="2.70361">
        <ele>1305.2</ele>
        <time>2021-09-13T08:01:03.000Z</time>
      </trkpt>
      <trkpt lat="45.0068" lon="2.70359">
        <ele>1306.9</ele>
        <time>2021-09-13T08:01:09.000Z</time>
      </trkpt>
      <trkpt lat="45.00673" lon="2.70362">
        <ele>1309.6</ele>
        <time>2021-09-13T08:01:15.000Z</time>
      </trkpt>
      <trkpt lat="45.00667" lon="2.70357">
        <ele>1310.3</ele>
        <time>2021-09-13T08:01:34.000Z</time>
      </trkpt>
      <trkpt lat="45.00661" lon="2.70355">
        <ele>1311.5</ele>
        <time>2021-09-13T08:01:47.000Z</time>
      </trkpt>
      <trkpt lat="45.00583" lon="2.70234">
        <ele>1307.6</ele>
        <time>2021-09-13T08:02:24.000Z</time>
      </trkpt>
      <trkpt lat="45.00581" lon="2.70222">
        <ele>1306.1</ele>
        <time>2021-09-13T08:02:27.000Z</time>
      </trkpt>
      <trkpt lat="45.00591" lon="2.7025">
        <ele>1307.4</ele>
        <time>2021-09-13T08:02:32.000Z</time>
      </trkpt>
      <trkpt lat="45.00591" lon="2.70241">
        <ele>1306</ele>
        <time>2021-09-13T08:02:39.000Z</time>
      </trkpt>
      <trkpt lat="45.00583" lon="2.70236">
        <ele>1307.9</ele>
        <time>2021-09-13T08:02:44.000Z</time>
      </trkpt>
      <trkpt lat="45.00577" lon="2.70225">
        <ele>1307.3</ele>
        <time>2021-09-13T08:02:50.000Z</time>
      </trkpt>
      <trkpt lat="45.00571" lon="2.7023">
        <ele>1309.1</ele>
        <time>2021-09-13T08:03:03.000Z</time>
      </trkpt>
      <trkpt lat="45.00564" lon="2.70234">
        <ele>1310.9</ele>
        <time>2021-09-13T08:03:23.000Z</time>
      </trkpt>
      <trkpt lat="45.00565" lon="2.70243">
        <ele>1311.9</ele>
        <time>2021-09-13T08:03:30.000Z</time>
      </trkpt>
      <trkpt lat="45.00569" lon="2.70251">
        <ele>1312.5</ele>
        <time>2021-09-13T08:03:38.000Z</time>
      </trkpt>
      <trkpt lat="45.00572" lon="2.70259">
        <ele>1313.9</ele>
        <time>2021-09-13T08:03:47.000Z</time>
      </trkpt>
      <trkpt lat="45.00575" lon="2.70269">
        <ele>1315.8</ele>
        <time>2021-09-13T08:03:53.000Z</time>
      </trkpt>
      <trkpt lat="45.00581" lon="2.70272">
        <ele>1315.6</ele>
        <time>2021-09-13T08:03:56.000Z</time>
      </trkpt>
      <trkpt lat="45.00589" lon="2.70284">
        <ele>1316.3</ele>
        <time>2021-09-13T08:04:01.000Z</time>
      </trkpt>
      <trkpt lat="45.00596" lon="2.70294">
        <ele>1316.5</ele>
        <time>2021-09-13T08:04:07.000Z</time>
      </trkpt>
      <trkpt lat="45.006" lon="2.70305">
        <ele>1318</ele>
        <time>2021-09-13T08:04:13.000Z</time>
      </trkpt>
      <trkpt lat="45.00593" lon="2.70299">
        <ele>1318.7</ele>
        <time>2021-09-13T08:04:21.000Z</time>
      </trkpt>
      <trkpt lat="45.00599" lon="2.70295">
        <ele>1315.8</ele>
        <time>2021-09-13T08:04:37.000Z</time>
      </trkpt>
      <trkpt lat="45.00605" lon="2.70299">
        <ele>1314.9</ele>
        <time>2021-09-13T08:04:49.000Z</time>
      </trkpt>
      <trkpt lat="45.00608" lon="2.70308">
        <ele>1316.3</ele>
        <time>2021-09-13T08:05:02.000Z</time>
      </trkpt>
      <trkpt lat="45.00612" lon="2.70316">
        <ele>1317</ele>
        <time>2021-09-13T08:05:10.000Z</time>
      </trkpt>
      <trkpt lat="45.00615" lon="2.70325">
        <ele>1318.4</ele>
        <time>2021-09-13T08:05:18.000Z</time>
      </trkpt>
      <trkpt lat="45.00622" lon="2.70326">
        <ele>1316.5</ele>
        <time>2021-09-13T08:05:25.000Z</time>
      </trkpt>
      <trkpt lat="45.0063" lon="2.7034">
        <ele>1317.3</ele>
        <time>2021-09-13T08:05:45.000Z</time>
      </trkpt>
      <trkpt lat="45.00635" lon="2.70346">
        <ele>1317</ele>
        <time>2021-09-13T08:06:08.000Z</time>
      </trkpt>
      <trkpt lat="45.0064" lon="2.70353">
        <ele>1317</ele>
        <time>2021-09-13T08:06:16.000Z</time>
      </trkpt>
      <trkpt lat="45.00645" lon="2.70359">
        <ele>1316.8</ele>
        <time>2021-09-13T08:06:22.000Z</time>
      </trkpt>
      <trkpt lat="45.00649" lon="2.70367">
        <ele>1317.4</ele>
        <time>2021-09-13T08:06:28.000Z</time>
      </trkpt>
      <trkpt lat="45.00651" lon="2.70376">
        <ele>1318.8</ele>
        <time>2021-09-13T08:06:34.000Z</time>
      </trkpt>
      <trkpt lat="45.00657" lon="2.70384">
        <ele>1319</ele>
        <time>2021-09-13T08:06:42.000Z</time>
      </trkpt>
      <trkpt lat="45.00663" lon="2.70389">
        <ele>1318.6</ele>
        <time>2021-09-13T08:06:48.000Z</time>
      </trkpt>
      <trkpt lat="45.00668" lon="2.70395">
        <ele>1318.6</ele>
        <time>2021-09-13T08:06:58.000Z</time>
      </trkpt>
      <trkpt lat="45.00673" lon="2.70401">
        <ele>1318.4</ele>
        <time>2021-09-13T08:07:06.000Z</time>
      </trkpt>
      <trkpt lat="45.00678" lon="2.70408">
        <ele>1318.4</ele>
        <time>2021-09-13T08:07:14.000Z</time>
      </trkpt>
      <trkpt lat="45.00682" lon="2.70416">
        <ele>1318.9</ele>
        <time>2021-09-13T08:07:20.000Z</time>
      </trkpt>
      <trkpt lat="45.00689" lon="2.70421">
        <ele>1317.4</ele>
        <time>2021-09-13T08:07:26.000Z</time>
      </trkpt>
      <trkpt lat="45.00694" lon="2.7043">
        <ele>1317</ele>
        <time>2021-09-13T08:07:30.000Z</time>
      </trkpt>
      <trkpt lat="45.00694" lon="2.70443">
        <ele>1318.8</ele>
        <time>2021-09-13T08:07:35.000Z</time>
      </trkpt>
      <trkpt lat="45.00696" lon="2.70459">
        <ele>1320.5</ele>
        <time>2021-09-13T08:07:41.000Z</time>
      </trkpt>
      <trkpt lat="45.00698" lon="2.70467">
        <ele>1321</ele>
        <time>2021-09-13T08:08:04.000Z</time>
      </trkpt>
      <trkpt lat="45.00701" lon="2.70477">
        <ele>1321.6</ele>
        <time>2021-09-13T08:08:10.000Z</time>
      </trkpt>
      <trkpt lat="45.00705" lon="2.70486">
        <ele>1321.8</ele>
        <time>2021-09-13T08:08:16.000Z</time>
      </trkpt>
      <trkpt lat="45.0071" lon="2.70494">
        <ele>1321.7</ele>
        <time>2021-09-13T08:08:21.000Z</time>
      </trkpt>
      <trkpt lat="45.00713" lon="2.70502">
        <ele>1322</ele>
        <time>2021-09-13T08:08:33.000Z</time>
      </trkpt>
      <trkpt lat="45.00712" lon="2.70514">
        <ele>1323.7</ele>
        <time>2021-09-13T08:09:09.000Z</time>
      </trkpt>
      <trkpt lat="45.00715" lon="2.70523">
        <ele>1324.1</ele>
        <time>2021-09-13T08:09:17.000Z</time>
      </trkpt>
      <trkpt lat="45.00718" lon="2.70532">
        <ele>1324.5</ele>
        <time>2021-09-13T08:09:31.000Z</time>
      </trkpt>
      <trkpt lat="45.00722" lon="2.7054">
        <ele>1324.7</ele>
        <time>2021-09-13T08:09:39.000Z</time>
      </trkpt>
      <trkpt lat="45.00725" lon="2.70548">
        <ele>1325.1</ele>
        <time>2021-09-13T08:09:46.000Z</time>
      </trkpt>
      <trkpt lat="45.0073" lon="2.70556">
        <ele>1325.2</ele>
        <time>2021-09-13T08:09:51.000Z</time>
      </trkpt>
      <trkpt lat="45.00735" lon="2.70565">
        <ele>1325.6</ele>
        <time>2021-09-13T08:09:57.000Z</time>
      </trkpt>
      <trkpt lat="45.0074" lon="2.70572">
        <ele>1325.8</ele>
        <time>2021-09-13T08:10:04.000Z</time>
      </trkpt>
      <trkpt lat="45.00743" lon="2.70583">
        <ele>1327</ele>
        <time>2021-09-13T08:10:12.000Z</time>
      </trkpt>
      <trkpt lat="45.00746" lon="2.70591">
        <ele>1327.5</ele>
        <time>2021-09-13T08:10:18.000Z</time>
      </trkpt>
      <trkpt lat="45.00747" lon="2.70601">
        <ele>1328.5</ele>
        <time>2021-09-13T08:10:26.000Z</time>
      </trkpt>
      <trkpt lat="45.00748" lon="2.70611">
        <ele>1329.6</ele>
        <time>2021-09-13T08:10:33.000Z</time>
      </trkpt>
      <trkpt lat="45.00751" lon="2.70621">
        <ele>1330.2</ele>
        <time>2021-09-13T08:10:40.000Z</time>
      </trkpt>
      <trkpt lat="45.00751" lon="2.70631">
        <ele>1331.4</ele>
        <time>2021-09-13T08:10:45.000Z</time>
      </trkpt>
      <trkpt lat="45.00756" lon="2.70638">
        <ele>1330.6</ele>
        <time>2021-09-13T08:10:52.000Z</time>
      </trkpt>
      <trkpt lat="45.00758" lon="2.70647">
        <ele>1331</ele>
        <time>2021-09-13T08:11:00.000Z</time>
      </trkpt>
      <trkpt lat="45.00763" lon="2.70656">
        <ele>1330.6</ele>
        <time>2021-09-13T08:11:07.000Z</time>
      </trkpt>
      <trkpt lat="45.00769" lon="2.70662">
        <ele>1329.4</ele>
        <time>2021-09-13T08:11:14.000Z</time>
      </trkpt>
      <trkpt lat="45.00772" lon="2.70671">
        <ele>1329.5</ele>
        <time>2021-09-13T08:11:22.000Z</time>
      </trkpt>
      <trkpt lat="45.00775" lon="2.7068">
        <ele>1329.4</ele>
        <time>2021-09-13T08:11:29.000Z</time>
      </trkpt>
      <trkpt lat="45.0078" lon="2.70686">
        <ele>1328.4</ele>
        <time>2021-09-13T08:11:36.000Z</time>
      </trkpt>
      <trkpt lat="45.00786" lon="2.70692">
        <ele>1327.1</ele>
        <time>2021-09-13T08:11:43.000Z</time>
      </trkpt>
      <trkpt lat="45.00791" lon="2.70697">
        <ele>1326.1</ele>
        <time>2021-09-13T08:11:49.000Z</time>
      </trkpt>
      <trkpt lat="45.00796" lon="2.70705">
        <ele>1325.4</ele>
        <time>2021-09-13T08:11:54.000Z</time>
      </trkpt>
      <trkpt lat="45.00798" lon="2.70716">
        <ele>1325.9</ele>
        <time>2021-09-13T08:12:01.000Z</time>
      </trkpt>
      <trkpt lat="45.008" lon="2.70726">
        <ele>1326.4</ele>
        <time>2021-09-13T08:12:08.000Z</time>
      </trkpt>
      <trkpt lat="45.00802" lon="2.70735">
        <ele>1326.7</ele>
        <time>2021-09-13T08:12:15.000Z</time>
      </trkpt>
      <trkpt lat="45.00805" lon="2.70745">
        <ele>1327</ele>
        <time>2021-09-13T08:12:21.000Z</time>
      </trkpt>
      <trkpt lat="45.00808" lon="2.70758">
        <ele>1327.5</ele>
        <time>2021-09-13T08:12:27.000Z</time>
      </trkpt>
      <trkpt lat="45.00812" lon="2.70768">
        <ele>1327.6</ele>
        <time>2021-09-13T08:12:33.000Z</time>
      </trkpt>
      <trkpt lat="45.00817" lon="2.70777">
        <ele>1327.4</ele>
        <time>2021-09-13T08:12:39.000Z</time>
      </trkpt>
      <trkpt lat="45.00819" lon="2.70787">
        <ele>1328.1</ele>
        <time>2021-09-13T08:12:46.000Z</time>
      </trkpt>
      <trkpt lat="45.00828" lon="2.70789">
        <ele>1326.3</ele>
        <time>2021-09-13T08:12:51.000Z</time>
      </trkpt>
      <trkpt lat="45.00835" lon="2.70803">
        <ele>1326.5</ele>
        <time>2021-09-13T08:13:07.000Z</time>
      </trkpt>
      <trkpt lat="45.00849" lon="2.70806">
        <ele>1323.1</ele>
        <time>2021-09-13T08:13:16.000Z</time>
      </trkpt>
      <trkpt lat="45.00855" lon="2.70811">
        <ele>1322.2</ele>
        <time>2021-09-13T08:13:24.000Z</time>
      </trkpt>
      <trkpt lat="45.0086" lon="2.70818">
        <ele>1321.9</ele>
        <time>2021-09-13T08:13:30.000Z</time>
      </trkpt>
      <trkpt lat="45.00867" lon="2.70821">
        <ele>1320.5</ele>
        <time>2021-09-13T08:13:34.000Z</time>
      </trkpt>
      <trkpt lat="45.00875" lon="2.70824">
        <ele>1318.9</ele>
        <time>2021-09-13T08:13:39.000Z</time>
      </trkpt>
      <trkpt lat="45.00881" lon="2.70829">
        <ele>1318.2</ele>
        <time>2021-09-13T08:13:45.000Z</time>
      </trkpt>
      <trkpt lat="45.00889" lon="2.70837">
        <ele>1317.5</ele>
        <time>2021-09-13T08:13:51.000Z</time>
      </trkpt>
      <trkpt lat="45.00896" lon="2.70842">
        <ele>1316.5</ele>
        <time>2021-09-13T08:14:01.000Z</time>
      </trkpt>
      <trkpt lat="45.00901" lon="2.70848">
        <ele>1316.2</ele>
        <time>2021-09-13T08:14:07.000Z</time>
      </trkpt>
      <trkpt lat="45.00911" lon="2.70852">
        <ele>1314.5</ele>
        <time>2021-09-13T08:14:13.000Z</time>
      </trkpt>
      <trkpt lat="45.00918" lon="2.70853">
        <ele>1313</ele>
        <time>2021-09-13T08:14:19.000Z</time>
      </trkpt>
      <trkpt lat="45.00911" lon="2.70856">
        <ele>1315.1</ele>
        <time>2021-09-13T08:15:20.000Z</time>
      </trkpt>
      <trkpt lat="45.00904" lon="2.70854">
        <ele>1316.4</ele>
        <time>2021-09-13T08:15:39.000Z</time>
      </trkpt>
      <trkpt lat="45.00898" lon="2.70854">
        <ele>1317.8</ele>
        <time>2021-09-13T08:15:54.000Z</time>
      </trkpt>
      <trkpt lat="45.00891" lon="2.70853">
        <ele>1319.3</ele>
        <time>2021-09-13T08:16:07.000Z</time>
      </trkpt>
      <trkpt lat="45.00885" lon="2.70855">
        <ele>1321</ele>
        <time>2021-09-13T08:16:42.000Z</time>
      </trkpt>
      <trkpt lat="45.00879" lon="2.70858">
        <ele>1322.8</ele>
        <time>2021-09-13T08:16:57.000Z</time>
      </trkpt>
      <trkpt lat="45.00873" lon="2.70863">
        <ele>1324.9</ele>
        <time>2021-09-13T08:17:11.000Z</time>
      </trkpt>
      <trkpt lat="45.00868" lon="2.7087">
        <ele>1326.9</ele>
        <time>2021-09-13T08:17:19.000Z</time>
      </trkpt>
      <trkpt lat="45.00863" lon="2.70876">
        <ele>1328.7</ele>
        <time>2021-09-13T08:17:30.000Z</time>
      </trkpt>
      <trkpt lat="45.0086" lon="2.70888">
        <ele>1330.8</ele>
        <time>2021-09-13T08:17:40.000Z</time>
      </trkpt>
      <trkpt lat="45.00859" lon="2.70897">
        <ele>1332.1</ele>
        <time>2021-09-13T08:17:45.000Z</time>
      </trkpt>
      <trkpt lat="45.00853" lon="2.70906">
        <ele>1334.3</ele>
        <time>2021-09-13T08:17:51.000Z</time>
      </trkpt>
      <trkpt lat="45.00847" lon="2.7091">
        <ele>1335.8</ele>
        <time>2021-09-13T08:17:55.000Z</time>
      </trkpt>
      <trkpt lat="45.00836" lon="2.70905">
        <ele>1337.4</ele>
        <time>2021-09-13T08:18:00.000Z</time>
      </trkpt>
      <trkpt lat="45.00834" lon="2.70914">
        <ele>1338.6</ele>
        <time>2021-09-13T08:18:29.000Z</time>
      </trkpt>
      <trkpt lat="45.00829" lon="2.70921">
        <ele>1340.1</ele>
        <time>2021-09-13T08:18:38.000Z</time>
      </trkpt>
      <trkpt lat="45.00823" lon="2.70926">
        <ele>1341.4</ele>
        <time>2021-09-13T08:18:45.000Z</time>
      </trkpt>
      <trkpt lat="45.00818" lon="2.70931">
        <ele>1342.6</ele>
        <time>2021-09-13T08:18:48.000Z</time>
      </trkpt>
      <trkpt lat="45.00811" lon="2.70936">
        <ele>1344</ele>
        <time>2021-09-13T08:18:53.000Z</time>
      </trkpt>
      <trkpt lat="45.00802" lon="2.70943">
        <ele>1345.8</ele>
        <time>2021-09-13T08:18:59.000Z</time>
      </trkpt>
      <trkpt lat="45.00795" lon="2.70944">
        <ele>1346.7</ele>
        <time>2021-09-13T08:19:05.000Z</time>
      </trkpt>
      <trkpt lat="45.00788" lon="2.70944">
        <ele>1347.6</ele>
        <time>2021-09-13T08:19:11.000Z</time>
      </trkpt>
      <trkpt lat="45.00781" lon="2.70939">
        <ele>1347.9</ele>
        <time>2021-09-13T08:19:18.000Z</time>
      </trkpt>
      <trkpt lat="45.00775" lon="2.70937">
        <ele>1348.5</ele>
        <time>2021-09-13T08:19:24.000Z</time>
      </trkpt>
      <trkpt lat="45.00769" lon="2.70931">
        <ele>1348.7</ele>
        <time>2021-09-13T08:19:33.000Z</time>
      </trkpt>
      <trkpt lat="45.00764" lon="2.70923">
        <ele>1348.7</ele>
        <time>2021-09-13T08:19:43.000Z</time>
      </trkpt>
      <trkpt lat="45.00758" lon="2.70918">
        <ele>1349</ele>
        <time>2021-09-13T08:19:50.000Z</time>
      </trkpt>
      <trkpt lat="45.00752" lon="2.70914">
        <ele>1349.6</ele>
        <time>2021-09-13T08:19:54.000Z</time>
      </trkpt>
      <trkpt lat="45.00745" lon="2.70912">
        <ele>1350.3</ele>
        <time>2021-09-13T08:19:59.000Z</time>
      </trkpt>
      <trkpt lat="45.00739" lon="2.70908">
        <ele>1350.7</ele>
        <time>2021-09-13T08:20:06.000Z</time>
      </trkpt>
      <trkpt lat="45.00736" lon="2.70899">
        <ele>1350.5</ele>
        <time>2021-09-13T08:20:12.000Z</time>
      </trkpt>
      <trkpt lat="45.00731" lon="2.70892">
        <ele>1350.6</ele>
        <time>2021-09-13T08:20:19.000Z</time>
      </trkpt>
      <trkpt lat="45.00727" lon="2.70884">
        <ele>1350.6</ele>
        <time>2021-09-13T08:20:27.000Z</time>
      </trkpt>
      <trkpt lat="45.00722" lon="2.70875">
        <ele>1350.7</ele>
        <time>2021-09-13T08:20:33.000Z</time>
      </trkpt>
      <trkpt lat="45.00718" lon="2.70866">
        <ele>1350.6</ele>
        <time>2021-09-13T08:20:37.000Z</time>
      </trkpt>
      <trkpt lat="45.00715" lon="2.70857">
        <ele>1350.5</ele>
        <time>2021-09-13T08:20:41.000Z</time>
      </trkpt>
      <trkpt lat="45.00708" lon="2.70841">
        <ele>1350.5</ele>
        <time>2021-09-13T08:20:47.000Z</time>
      </trkpt>
      <trkpt lat="45.00702" lon="2.70826">
        <ele>1350.3</ele>
        <time>2021-09-13T08:20:53.000Z</time>
      </trkpt>
      <trkpt lat="45.00697" lon="2.70814">
        <ele>1350.1</ele>
        <time>2021-09-13T08:20:58.000Z</time>
      </trkpt>
      <trkpt lat="45.00695" lon="2.70804">
        <ele>1349.6</ele>
        <time>2021-09-13T08:21:04.000Z</time>
      </trkpt>
      <trkpt lat="45.00688" lon="2.70797">
        <ele>1349.8</ele>
        <time>2021-09-13T08:21:09.000Z</time>
      </trkpt>
      <trkpt lat="45.00681" lon="2.70788">
        <ele>1349.8</ele>
        <time>2021-09-13T08:21:15.000Z</time>
      </trkpt>
      <trkpt lat="45.00671" lon="2.70781">
        <ele>1350.2</ele>
        <time>2021-09-13T08:21:21.000Z</time>
      </trkpt>
      <trkpt lat="45.0066" lon="2.70777">
        <ele>1350.2</ele>
        <time>2021-09-13T08:21:27.000Z</time>
      </trkpt>
      <trkpt lat="45.00649" lon="2.70769">
        <ele>1349.5</ele>
        <time>2021-09-13T08:21:33.000Z</time>
      </trkpt>
      <trkpt lat="45.00641" lon="2.7076">
        <ele>1348.8</ele>
        <time>2021-09-13T08:21:39.000Z</time>
      </trkpt>
      <trkpt lat="45.00633" lon="2.70752">
        <ele>1348.1</ele>
        <time>2021-09-13T08:21:45.000Z</time>
      </trkpt>
      <trkpt lat="45.00624" lon="2.70744">
        <ele>1347.6</ele>
        <time>2021-09-13T08:21:51.000Z</time>
      </trkpt>
      <trkpt lat="45.00615" lon="2.70735">
        <ele>1347</ele>
        <time>2021-09-13T08:21:57.000Z</time>
      </trkpt>
      <trkpt lat="45.00606" lon="2.70726">
        <ele>1346.4</ele>
        <time>2021-09-13T08:22:03.000Z</time>
      </trkpt>
      <trkpt lat="45.00598" lon="2.70713">
        <ele>1345.4</ele>
        <time>2021-09-13T08:22:09.000Z</time>
      </trkpt>
      <trkpt lat="45.00592" lon="2.70699">
        <ele>1344.4</ele>
        <time>2021-09-13T08:22:15.000Z</time>
      </trkpt>
      <trkpt lat="45.00586" lon="2.70685">
        <ele>1343.3</ele>
        <time>2021-09-13T08:22:21.000Z</time>
      </trkpt>
      <trkpt lat="45.00583" lon="2.70673">
        <ele>1342.4</ele>
        <time>2021-09-13T08:22:27.000Z</time>
      </trkpt>
      <trkpt lat="45.00579" lon="2.70663">
        <ele>1341.7</ele>
        <time>2021-09-13T08:22:33.000Z</time>
      </trkpt>
      <trkpt lat="45.00577" lon="2.70654">
        <ele>1341.4</ele>
        <time>2021-09-13T08:22:39.000Z</time>
      </trkpt>
      <trkpt lat="45.00575" lon="2.70644">
        <ele>1341.1</ele>
        <time>2021-09-13T08:22:45.000Z</time>
      </trkpt>
      <trkpt lat="45.00573" lon="2.70633">
        <ele>1340.9</ele>
        <time>2021-09-13T08:22:53.000Z</time>
      </trkpt>
      <trkpt lat="45.00569" lon="2.70624">
        <ele>1340.6</ele>
        <time>2021-09-13T08:23:00.000Z</time>
      </trkpt>
      <trkpt lat="45.00567" lon="2.70614">
        <ele>1340.5</ele>
        <time>2021-09-13T08:23:05.000Z</time>
      </trkpt>
      <trkpt lat="45.00564" lon="2.70605">
        <ele>1340.4</ele>
        <time>2021-09-13T08:23:09.000Z</time>
      </trkpt>
      <trkpt lat="45.0056" lon="2.70595">
        <ele>1340.3</ele>
        <time>2021-09-13T08:23:15.000Z</time>
      </trkpt>
      <trkpt lat="45.00555" lon="2.70588">
        <ele>1340.3</ele>
        <time>2021-09-13T08:23:29.000Z</time>
      </trkpt>
      <trkpt lat="45.0055" lon="2.70582">
        <ele>1340.5</ele>
        <time>2021-09-13T08:23:38.000Z</time>
      </trkpt>
      <trkpt lat="45.00542" lon="2.70579">
        <ele>1340.8</ele>
        <time>2021-09-13T08:23:46.000Z</time>
      </trkpt>
      <trkpt lat="45.00537" lon="2.70573">
        <ele>1341.2</ele>
        <time>2021-09-13T08:23:53.000Z</time>
      </trkpt>
      <trkpt lat="45.00531" lon="2.70567">
        <ele>1341.7</ele>
        <time>2021-09-13T08:24:00.000Z</time>
      </trkpt>
      <trkpt lat="45.00523" lon="2.70566">
        <ele>1341.8</ele>
        <time>2021-09-13T08:24:08.000Z</time>
      </trkpt>
      <trkpt lat="45.00516" lon="2.70565">
        <ele>1342</ele>
        <time>2021-09-13T08:24:16.000Z</time>
      </trkpt>
      <trkpt lat="45.00509" lon="2.70563">
        <ele>1342.1</ele>
        <time>2021-09-13T08:24:26.000Z</time>
      </trkpt>
      <trkpt lat="45.00507" lon="2.70554">
        <ele>1342.7</ele>
        <time>2021-09-13T08:24:57.000Z</time>
      </trkpt>
      <trkpt lat="45.00506" lon="2.70545">
        <ele>1343.3</ele>
        <time>2021-09-13T08:25:07.000Z</time>
      </trkpt>
      <trkpt lat="45.00502" lon="2.70536">
        <ele>1343.8</ele>
        <time>2021-09-13T08:25:14.000Z</time>
      </trkpt>
      <trkpt lat="45.00497" lon="2.70529">
        <ele>1343.9</ele>
        <time>2021-09-13T08:25:19.000Z</time>
      </trkpt>
      <trkpt lat="45.00493" lon="2.70521">
        <ele>1343.9</ele>
        <time>2021-09-13T08:25:25.000Z</time>
      </trkpt>
      <trkpt lat="45.00489" lon="2.70514">
        <ele>1343.9</ele>
        <time>2021-09-13T08:25:30.000Z</time>
      </trkpt>
      <trkpt lat="45.00485" lon="2.70506">
        <ele>1344</ele>
        <time>2021-09-13T08:25:35.000Z</time>
      </trkpt>
      <trkpt lat="45.00481" lon="2.70498">
        <ele>1344</ele>
        <time>2021-09-13T08:25:40.000Z</time>
      </trkpt>
      <trkpt lat="45.00477" lon="2.7049">
        <ele>1343.7</ele>
        <time>2021-09-13T08:25:45.000Z</time>
      </trkpt>
      <trkpt lat="45.00472" lon="2.70479">
        <ele>1343.4</ele>
        <time>2021-09-13T08:25:51.000Z</time>
      </trkpt>
      <trkpt lat="45.00468" lon="2.70468">
        <ele>1343.3</ele>
        <time>2021-09-13T08:25:57.000Z</time>
      </trkpt>
      <trkpt lat="45.00463" lon="2.70458">
        <ele>1343.1</ele>
        <time>2021-09-13T08:26:03.000Z</time>
      </trkpt>
      <trkpt lat="45.0046" lon="2.70449">
        <ele>1343.1</ele>
        <time>2021-09-13T08:26:09.000Z</time>
      </trkpt>
      <trkpt lat="45.00452" lon="2.70454">
        <ele>1342.4</ele>
        <time>2021-09-13T08:26:15.000Z</time>
      </trkpt>
      <trkpt lat="45.00446" lon="2.7045">
        <ele>1342.1</ele>
        <time>2021-09-13T08:26:26.000Z</time>
      </trkpt>
      <trkpt lat="45.00443" lon="2.70441">
        <ele>1342.3</ele>
        <time>2021-09-13T08:26:31.000Z</time>
      </trkpt>
      <trkpt lat="45.00434" lon="2.70438">
        <ele>1341.8</ele>
        <time>2021-09-13T08:26:38.000Z</time>
      </trkpt>
      <trkpt lat="45.00437" lon="2.70446">
        <ele>1341.6</ele>
        <time>2021-09-13T08:27:16.000Z</time>
      </trkpt>
      <trkpt lat="45.0044" lon="2.70455">
        <ele>1341.5</ele>
        <time>2021-09-13T08:27:34.000Z</time>
      </trkpt>
      <trkpt lat="45.00439" lon="2.70468">
        <ele>1340.8</ele>
        <time>2021-09-13T08:27:53.000Z</time>
      </trkpt>
      <trkpt lat="45.00441" lon="2.70477">
        <ele>1340.6</ele>
        <time>2021-09-13T08:28:01.000Z</time>
      </trkpt>
      <trkpt lat="45.0044" lon="2.70487">
        <ele>1340.1</ele>
        <time>2021-09-13T08:28:18.000Z</time>
      </trkpt>
      <trkpt lat="45.00441" lon="2.70496">
        <ele>1339.8</ele>
        <time>2021-09-13T08:28:27.000Z</time>
      </trkpt>
      <trkpt lat="45.00443" lon="2.70505">
        <ele>1339.4</ele>
        <time>2021-09-13T08:28:34.000Z</time>
      </trkpt>
      <trkpt lat="45.00446" lon="2.70513">
        <ele>1339</ele>
        <time>2021-09-13T08:28:49.000Z</time>
      </trkpt>
      <trkpt lat="45.00452" lon="2.7052">
        <ele>1339.1</ele>
        <time>2021-09-13T08:29:01.000Z</time>
      </trkpt>
      <trkpt lat="45.00459" lon="2.70521">
        <ele>1339.8</ele>
        <time>2021-09-13T08:29:05.000Z</time>
      </trkpt>
      <trkpt lat="45.00466" lon="2.70518">
        <ele>1340.9</ele>
        <time>2021-09-13T08:29:15.000Z</time>
      </trkpt>
      <trkpt lat="45.00468" lon="2.70528">
        <ele>1340.3</ele>
        <time>2021-09-13T08:29:37.000Z</time>
      </trkpt>
      <trkpt lat="45.00472" lon="2.70536">
        <ele>1340.2</ele>
        <time>2021-09-13T08:29:44.000Z</time>
      </trkpt>
      <trkpt lat="45.00475" lon="2.70545">
        <ele>1340</ele>
        <time>2021-09-13T08:29:50.000Z</time>
      </trkpt>
      <trkpt lat="45.00477" lon="2.70555">
        <ele>1339.5</ele>
        <time>2021-09-13T08:29:57.000Z</time>
      </trkpt>
      <trkpt lat="45.00479" lon="2.70565">
        <ele>1339</ele>
        <time>2021-09-13T08:30:03.000Z</time>
      </trkpt>
      <trkpt lat="45.00482" lon="2.70577">
        <ele>1338.6</ele>
        <time>2021-09-13T08:30:09.000Z</time>
      </trkpt>
      <trkpt lat="45.00485" lon="2.70588">
        <ele>1338.4</ele>
        <time>2021-09-13T08:30:15.000Z</time>
      </trkpt>
      <trkpt lat="45.00489" lon="2.70599">
        <ele>1338.5</ele>
        <time>2021-09-13T08:30:21.000Z</time>
      </trkpt>
      <trkpt lat="45.00492" lon="2.70611">
        <ele>1338.4</ele>
        <time>2021-09-13T08:30:27.000Z</time>
      </trkpt>
      <trkpt lat="45.00494" lon="2.70623">
        <ele>1338.1</ele>
        <time>2021-09-13T08:30:33.000Z</time>
      </trkpt>
      <trkpt lat="45.00497" lon="2.70634">
        <ele>1338.1</ele>
        <time>2021-09-13T08:30:39.000Z</time>
      </trkpt>
      <trkpt lat="45.00499" lon="2.70644">
        <ele>1337.9</ele>
        <time>2021-09-13T08:30:45.000Z</time>
      </trkpt>
      <trkpt lat="45.005" lon="2.70656">
        <ele>1337.5</ele>
        <time>2021-09-13T08:30:51.000Z</time>
      </trkpt>
      <trkpt lat="45.00502" lon="2.70665">
        <ele>1337.2</ele>
        <time>2021-09-13T08:30:57.000Z</time>
      </trkpt>
      <trkpt lat="45.00505" lon="2.70674">
        <ele>1337.3</ele>
        <time>2021-09-13T08:31:03.000Z</time>
      </trkpt>
      <trkpt lat="45.0051" lon="2.70684">
        <ele>1337.7</ele>
        <time>2021-09-13T08:31:09.000Z</time>
      </trkpt>
      <trkpt lat="45.00513" lon="2.70692">
        <ele>1338.1</ele>
        <time>2021-09-13T08:31:17.000Z</time>
      </trkpt>
      <trkpt lat="45.00517" lon="2.70704">
        <ele>1338.6</ele>
        <time>2021-09-13T08:32:39.000Z</time>
      </trkpt>
      <trkpt lat="45.0052" lon="2.70714">
        <ele>1339</ele>
        <time>2021-09-13T08:33:53.000Z</time>
      </trkpt>
      <trkpt lat="45.00521" lon="2.70723">
        <ele>1339.3</ele>
        <time>2021-09-13T08:34:01.000Z</time>
      </trkpt>
      <trkpt lat="45.00524" lon="2.70733">
        <ele>1339.8</ele>
        <time>2021-09-13T08:34:09.000Z</time>
      </trkpt>
      <trkpt lat="45.00526" lon="2.70741">
        <ele>1340.2</ele>
        <time>2021-09-13T08:34:15.000Z</time>
      </trkpt>
      <trkpt lat="45.00529" lon="2.70753">
        <ele>1340.9</ele>
        <time>2021-09-13T08:34:21.000Z</time>
      </trkpt>
      <trkpt lat="45.00531" lon="2.70762">
        <ele>1341.5</ele>
        <time>2021-09-13T08:34:27.000Z</time>
      </trkpt>
      <trkpt lat="45.00533" lon="2.70772">
        <ele>1342.2</ele>
        <time>2021-09-13T08:34:33.000Z</time>
      </trkpt>
      <trkpt lat="45.00534" lon="2.70782">
        <ele>1342.7</ele>
        <time>2021-09-13T08:34:39.000Z</time>
      </trkpt>
      <trkpt lat="45.00536" lon="2.70791">
        <ele>1343.4</ele>
        <time>2021-09-13T08:34:46.000Z</time>
      </trkpt>
      <trkpt lat="45.0054" lon="2.70799">
        <ele>1344.3</ele>
        <time>2021-09-13T08:34:54.000Z</time>
      </trkpt>
      <trkpt lat="45.00542" lon="2.7081">
        <ele>1345.1</ele>
        <time>2021-09-13T08:35:03.000Z</time>
      </trkpt>
      <trkpt lat="45.00544" lon="2.7082">
        <ele>1345.8</ele>
        <time>2021-09-13T08:35:09.000Z</time>
      </trkpt>
      <trkpt lat="45.00546" lon="2.70829">
        <ele>1346.5</ele>
        <time>2021-09-13T08:35:15.000Z</time>
      </trkpt>
      <trkpt lat="45.00546" lon="2.7084">
        <ele>1346.7</ele>
        <time>2021-09-13T08:35:22.000Z</time>
      </trkpt>
      <trkpt lat="45.00547" lon="2.70849">
        <ele>1346.9</ele>
        <time>2021-09-13T08:35:29.000Z</time>
      </trkpt>
      <trkpt lat="45.00549" lon="2.70859">
        <ele>1347.2</ele>
        <time>2021-09-13T08:35:38.000Z</time>
      </trkpt>
      <trkpt lat="45.00551" lon="2.70868">
        <ele>1347.6</ele>
        <time>2021-09-13T08:35:47.000Z</time>
      </trkpt>
      <trkpt lat="45.00553" lon="2.70878">
        <ele>1348</ele>
        <time>2021-09-13T08:35:53.000Z</time>
      </trkpt>
      <trkpt lat="45.00555" lon="2.70889">
        <ele>1348.4</ele>
        <time>2021-09-13T08:35:59.000Z</time>
      </trkpt>
      <trkpt lat="45.00557" lon="2.70897">
        <ele>1348.9</ele>
        <time>2021-09-13T08:36:04.000Z</time>
      </trkpt>
      <trkpt lat="45.00559" lon="2.70908">
        <ele>1349.4</ele>
        <time>2021-09-13T08:36:09.000Z</time>
      </trkpt>
      <trkpt lat="45.0056" lon="2.7092">
        <ele>1349.6</ele>
        <time>2021-09-13T08:36:15.000Z</time>
      </trkpt>
      <trkpt lat="45.00561" lon="2.7093">
        <ele>1349.4</ele>
        <time>2021-09-13T08:36:21.000Z</time>
      </trkpt>
      <trkpt lat="45.00563" lon="2.70942">
        <ele>1349.5</ele>
        <time>2021-09-13T08:36:27.000Z</time>
      </trkpt>
      <trkpt lat="45.00564" lon="2.70951">
        <ele>1349.4</ele>
        <time>2021-09-13T08:36:33.000Z</time>
      </trkpt>
      <trkpt lat="45.00568" lon="2.7096">
        <ele>1349.9</ele>
        <time>2021-09-13T08:36:39.000Z</time>
      </trkpt>
      <trkpt lat="45.00572" lon="2.70968">
        <ele>1350.6</ele>
        <time>2021-09-13T08:36:46.000Z</time>
      </trkpt>
      <trkpt lat="45.00575" lon="2.70977">
        <ele>1350.9</ele>
        <time>2021-09-13T08:36:53.000Z</time>
      </trkpt>
      <trkpt lat="45.00577" lon="2.70987">
        <ele>1351</ele>
        <time>2021-09-13T08:37:00.000Z</time>
      </trkpt>
      <trkpt lat="45.00579" lon="2.70995">
        <ele>1351.2</ele>
        <time>2021-09-13T08:37:08.000Z</time>
      </trkpt>
      <trkpt lat="45.00581" lon="2.71004">
        <ele>1351.3</ele>
        <time>2021-09-13T08:37:16.000Z</time>
      </trkpt>
      <trkpt lat="45.00583" lon="2.71013">
        <ele>1351.3</ele>
        <time>2021-09-13T08:37:25.000Z</time>
      </trkpt>
      <trkpt lat="45.00585" lon="2.71023">
        <ele>1351.1</ele>
        <time>2021-09-13T08:37:31.000Z</time>
      </trkpt>
      <trkpt lat="45.00586" lon="2.71032">
        <ele>1350.9</ele>
        <time>2021-09-13T08:37:38.000Z</time>
      </trkpt>
      <trkpt lat="45.0059" lon="2.7104">
        <ele>1351.1</ele>
        <time>2021-09-13T08:37:45.000Z</time>
      </trkpt>
      <trkpt lat="45.00592" lon="2.71049">
        <ele>1351.1</ele>
        <time>2021-09-13T08:37:54.000Z</time>
      </trkpt>
      <trkpt lat="45.00597" lon="2.71057">
        <ele>1351.6</ele>
        <time>2021-09-13T08:37:59.000Z</time>
      </trkpt>
      <trkpt lat="45.00601" lon="2.71064">
        <ele>1352.1</ele>
        <time>2021-09-13T08:38:04.000Z</time>
      </trkpt>
      <trkpt lat="45.00606" lon="2.71073">
        <ele>1352.9</ele>
        <time>2021-09-13T08:38:09.000Z</time>
      </trkpt>
      <trkpt lat="45.0061" lon="2.71082">
        <ele>1353.5</ele>
        <time>2021-09-13T08:38:15.000Z</time>
      </trkpt>
      <trkpt lat="45.00615" lon="2.71091">
        <ele>1354</ele>
        <time>2021-09-13T08:38:21.000Z</time>
      </trkpt>
      <trkpt lat="45.00617" lon="2.711">
        <ele>1353.9</ele>
        <time>2021-09-13T08:38:43.000Z</time>
      </trkpt>
      <trkpt lat="45.00623" lon="2.71105">
        <ele>1354.9</ele>
        <time>2021-09-13T08:38:53.000Z</time>
      </trkpt>
      <trkpt lat="45.00626" lon="2.71113">
        <ele>1355.1</ele>
        <time>2021-09-13T08:39:11.000Z</time>
      </trkpt>
      <trkpt lat="45.00632" lon="2.71108">
        <ele>1356.7</ele>
        <time>2021-09-13T08:39:52.000Z</time>
      </trkpt>
      <trkpt lat="45.00639" lon="2.71107">
        <ele>1358.3</ele>
        <time>2021-09-13T08:40:00.000Z</time>
      </trkpt>
      <trkpt lat="45.00645" lon="2.71112">
        <ele>1359.4</ele>
        <time>2021-09-13T08:40:08.000Z</time>
      </trkpt>
      <trkpt lat="45.00648" lon="2.71121">
        <ele>1359.8</ele>
        <time>2021-09-13T08:40:16.000Z</time>
      </trkpt>
      <trkpt lat="45.00653" lon="2.71129">
        <ele>1360.7</ele>
        <time>2021-09-13T08:40:25.000Z</time>
      </trkpt>
      <trkpt lat="45.00656" lon="2.71137">
        <ele>1361.1</ele>
        <time>2021-09-13T08:40:34.000Z</time>
      </trkpt>
      <trkpt lat="45.00657" lon="2.71146">
        <ele>1361.1</ele>
        <time>2021-09-13T08:40:44.000Z</time>
      </trkpt>
      <trkpt lat="45.00656" lon="2.71155">
        <ele>1360.6</ele>
        <time>2021-09-13T08:40:54.000Z</time>
      </trkpt>
      <trkpt lat="45.00661" lon="2.71162">
        <ele>1361.6</ele>
        <time>2021-09-13T08:41:02.000Z</time>
      </trkpt>
      <trkpt lat="45.00667" lon="2.71167">
        <ele>1363</ele>
        <time>2021-09-13T08:41:09.000Z</time>
      </trkpt>
      <trkpt lat="45.00672" lon="2.71173">
        <ele>1363.5</ele>
        <time>2021-09-13T08:41:16.000Z</time>
      </trkpt>
      <trkpt lat="45.00678" lon="2.71178">
        <ele>1364.2</ele>
        <time>2021-09-13T08:41:34.000Z</time>
      </trkpt>
      <trkpt lat="45.00683" lon="2.71185">
        <ele>1364.7</ele>
        <time>2021-09-13T08:41:41.000Z</time>
      </trkpt>
      <trkpt lat="45.00689" lon="2.7119">
        <ele>1365.4</ele>
        <time>2021-09-13T08:41:47.000Z</time>
      </trkpt>
      <trkpt lat="45.00694" lon="2.71195">
        <ele>1366</ele>
        <time>2021-09-13T08:41:54.000Z</time>
      </trkpt>
      <trkpt lat="45.00701" lon="2.71201">
        <ele>1367</ele>
        <time>2021-09-13T08:42:00.000Z</time>
      </trkpt>
      <trkpt lat="45.00707" lon="2.71206">
        <ele>1367.8</ele>
        <time>2021-09-13T08:42:05.000Z</time>
      </trkpt>
      <trkpt lat="45.00712" lon="2.71212">
        <ele>1368.5</ele>
        <time>2021-09-13T08:42:34.000Z</time>
      </trkpt>
      <trkpt lat="45.00719" lon="2.71216">
        <ele>1369.6</ele>
        <time>2021-09-13T08:42:42.000Z</time>
      </trkpt>
      <trkpt lat="45.00725" lon="2.71221">
        <ele>1370.6</ele>
        <time>2021-09-13T08:42:49.000Z</time>
      </trkpt>
      <trkpt lat="45.0073" lon="2.71228">
        <ele>1371.4</ele>
        <time>2021-09-13T08:42:55.000Z</time>
      </trkpt>
      <trkpt lat="45.00736" lon="2.71234">
        <ele>1372.4</ele>
        <time>2021-09-13T08:43:01.000Z</time>
      </trkpt>
      <trkpt lat="45.00742" lon="2.7124">
        <ele>1373.5</ele>
        <time>2021-09-13T08:43:08.000Z</time>
      </trkpt>
      <trkpt lat="45.00747" lon="2.71247">
        <ele>1374.4</ele>
        <time>2021-09-13T08:43:15.000Z</time>
      </trkpt>
      <trkpt lat="45.00752" lon="2.71255">
        <ele>1374.8</ele>
        <time>2021-09-13T08:43:22.000Z</time>
      </trkpt>
      <trkpt lat="45.00759" lon="2.71259">
        <ele>1375.1</ele>
        <time>2021-09-13T08:43:28.000Z</time>
      </trkpt>
      <trkpt lat="45.00765" lon="2.71263">
        <ele>1375.4</ele>
        <time>2021-09-13T08:43:35.000Z</time>
      </trkpt>
      <trkpt lat="45.0077" lon="2.71271">
        <ele>1375.4</ele>
        <time>2021-09-13T08:43:43.000Z</time>
      </trkpt>
      <trkpt lat="45.00776" lon="2.71274">
        <ele>1375.9</ele>
        <time>2021-09-13T08:43:50.000Z</time>
      </trkpt>
      <trkpt lat="45.00784" lon="2.71277">
        <ele>1376.6</ele>
        <time>2021-09-13T08:43:55.000Z</time>
      </trkpt>
      <trkpt lat="45.0079" lon="2.7128">
        <ele>1377.2</ele>
        <time>2021-09-13T08:43:59.000Z</time>
      </trkpt>
      <trkpt lat="45.00796" lon="2.71284">
        <ele>1377.8</ele>
        <time>2021-09-13T08:44:04.000Z</time>
      </trkpt>
      <trkpt lat="45.00802" lon="2.71287">
        <ele>1378.5</ele>
        <time>2021-09-13T08:44:09.000Z</time>
      </trkpt>
      <trkpt lat="45.0081" lon="2.71292">
        <ele>1379.4</ele>
        <time>2021-09-13T08:44:15.000Z</time>
      </trkpt>
      <trkpt lat="45.00817" lon="2.71298">
        <ele>1380.3</ele>
        <time>2021-09-13T08:44:21.000Z</time>
      </trkpt>
      <trkpt lat="45.00822" lon="2.71306">
        <ele>1381</ele>
        <time>2021-09-13T08:44:27.000Z</time>
      </trkpt>
      <trkpt lat="45.00827" lon="2.71313">
        <ele>1381.8</ele>
        <time>2021-09-13T08:44:34.000Z</time>
      </trkpt>
      <trkpt lat="45.00833" lon="2.71319">
        <ele>1382.8</ele>
        <time>2021-09-13T08:44:41.000Z</time>
      </trkpt>
      <trkpt lat="45.00839" lon="2.71324">
        <ele>1383.3</ele>
        <time>2021-09-13T08:44:47.000Z</time>
      </trkpt>
      <trkpt lat="45.00845" lon="2.71328">
        <ele>1383.9</ele>
        <time>2021-09-13T08:44:52.000Z</time>
      </trkpt>
      <trkpt lat="45.00852" lon="2.71331">
        <ele>1384.5</ele>
        <time>2021-09-13T08:44:58.000Z</time>
      </trkpt>
      <trkpt lat="45.00859" lon="2.71334">
        <ele>1385.1</ele>
        <time>2021-09-13T08:45:04.000Z</time>
      </trkpt>
      <trkpt lat="45.00867" lon="2.71337">
        <ele>1385.7</ele>
        <time>2021-09-13T08:45:09.000Z</time>
      </trkpt>
      <trkpt lat="45.00875" lon="2.7134">
        <ele>1386.3</ele>
        <time>2021-09-13T08:45:15.000Z</time>
      </trkpt>
      <trkpt lat="45.00882" lon="2.71344">
        <ele>1386.7</ele>
        <time>2021-09-13T08:45:21.000Z</time>
      </trkpt>
      <trkpt lat="45.00889" lon="2.71349">
        <ele>1387.2</ele>
        <time>2021-09-13T08:45:27.000Z</time>
      </trkpt>
      <trkpt lat="45.00895" lon="2.71354">
        <ele>1387.7</ele>
        <time>2021-09-13T08:45:34.000Z</time>
      </trkpt>
      <trkpt lat="45.00902" lon="2.71358">
        <ele>1388.3</ele>
        <time>2021-09-13T08:45:41.000Z</time>
      </trkpt>
      <trkpt lat="45.00908" lon="2.71364">
        <ele>1388.8</ele>
        <time>2021-09-13T08:45:48.000Z</time>
      </trkpt>
      <trkpt lat="45.00914" lon="2.71369">
        <ele>1389.3</ele>
        <time>2021-09-13T08:45:54.000Z</time>
      </trkpt>
      <trkpt lat="45.00919" lon="2.71374">
        <ele>1389.6</ele>
        <time>2021-09-13T08:46:00.000Z</time>
      </trkpt>
      <trkpt lat="45.00926" lon="2.71379">
        <ele>1390</ele>
        <time>2021-09-13T08:46:06.000Z</time>
      </trkpt>
      <trkpt lat="45.00932" lon="2.71383">
        <ele>1390.4</ele>
        <time>2021-09-13T08:46:14.000Z</time>
      </trkpt>
      <trkpt lat="45.00938" lon="2.7139">
        <ele>1390.9</ele>
        <time>2021-09-13T08:46:23.000Z</time>
      </trkpt>
      <trkpt lat="45.00943" lon="2.71395">
        <ele>1391.3</ele>
        <time>2021-09-13T08:46:29.000Z</time>
      </trkpt>
      <trkpt lat="45.00949" lon="2.714">
        <ele>1391.8</ele>
        <time>2021-09-13T08:46:36.000Z</time>
      </trkpt>
      <trkpt lat="45.00955" lon="2.71404">
        <ele>1392.4</ele>
        <time>2021-09-13T08:46:43.000Z</time>
      </trkpt>
      <trkpt lat="45.00961" lon="2.7141">
        <ele>1393.1</ele>
        <time>2021-09-13T08:46:52.000Z</time>
      </trkpt>
      <trkpt lat="45.00968" lon="2.71416">
        <ele>1393.9</ele>
        <time>2021-09-13T08:46:59.000Z</time>
      </trkpt>
      <trkpt lat="45.00974" lon="2.71419">
        <ele>1394.4</ele>
        <time>2021-09-13T08:47:09.000Z</time>
      </trkpt>
      <trkpt lat="45.00981" lon="2.7142">
        <ele>1395.1</ele>
        <time>2021-09-13T08:47:16.000Z</time>
      </trkpt>
      <trkpt lat="45.00988" lon="2.71422">
        <ele>1395.7</ele>
        <time>2021-09-13T08:47:21.000Z</time>
      </trkpt>
      <trkpt lat="45.00994" lon="2.71424">
        <ele>1396.3</ele>
        <time>2021-09-13T08:47:27.000Z</time>
      </trkpt>
      <trkpt lat="45.01001" lon="2.71427">
        <ele>1396.9</ele>
        <time>2021-09-13T08:47:37.000Z</time>
      </trkpt>
      <trkpt lat="45.01008" lon="2.71431">
        <ele>1397.5</ele>
        <time>2021-09-13T08:47:43.000Z</time>
      </trkpt>
      <trkpt lat="45.01014" lon="2.71437">
        <ele>1398</ele>
        <time>2021-09-13T08:47:49.000Z</time>
      </trkpt>
      <trkpt lat="45.0102" lon="2.7144">
        <ele>1398.5</ele>
        <time>2021-09-13T08:48:24.000Z</time>
      </trkpt>
      <trkpt lat="45.01027" lon="2.71445">
        <ele>1399.3</ele>
        <time>2021-09-13T08:48:32.000Z</time>
      </trkpt>
      <trkpt lat="45.01034" lon="2.71449">
        <ele>1400.1</ele>
        <time>2021-09-13T08:48:39.000Z</time>
      </trkpt>
      <trkpt lat="45.0104" lon="2.71454">
        <ele>1400.9</ele>
        <time>2021-09-13T08:48:48.000Z</time>
      </trkpt>
      <trkpt lat="45.01045" lon="2.7146">
        <ele>1401.7</ele>
        <time>2021-09-13T08:48:58.000Z</time>
      </trkpt>
      <trkpt lat="45.01052" lon="2.71464">
        <ele>1402.7</ele>
        <time>2021-09-13T08:49:04.000Z</time>
      </trkpt>
      <trkpt lat="45.01058" lon="2.71467">
        <ele>1403.7</ele>
        <time>2021-09-13T08:49:10.000Z</time>
      </trkpt>
      <trkpt lat="45.01065" lon="2.71473">
        <ele>1405</ele>
        <time>2021-09-13T08:49:17.000Z</time>
      </trkpt>
      <trkpt lat="45.01071" lon="2.71477">
        <ele>1406.1</ele>
        <time>2021-09-13T08:49:25.000Z</time>
      </trkpt>
      <trkpt lat="45.01077" lon="2.71482">
        <ele>1407.4</ele>
        <time>2021-09-13T08:49:32.000Z</time>
      </trkpt>
      <trkpt lat="45.01082" lon="2.71489">
        <ele>1408.7</ele>
        <time>2021-09-13T08:49:39.000Z</time>
      </trkpt>
      <trkpt lat="45.01087" lon="2.71496">
        <ele>1409.8</ele>
        <time>2021-09-13T08:49:45.000Z</time>
      </trkpt>
      <trkpt lat="45.01092" lon="2.71505">
        <ele>1410.5</ele>
        <time>2021-09-13T08:49:51.000Z</time>
      </trkpt>
      <trkpt lat="45.01097" lon="2.71512">
        <ele>1410.8</ele>
        <time>2021-09-13T08:49:57.000Z</time>
      </trkpt>
      <trkpt lat="45.01102" lon="2.71517">
        <ele>1411.2</ele>
        <time>2021-09-13T08:50:06.000Z</time>
      </trkpt>
      <trkpt lat="45.01109" lon="2.7152">
        <ele>1411.7</ele>
        <time>2021-09-13T08:50:14.000Z</time>
      </trkpt>
      <trkpt lat="45.01116" lon="2.71523">
        <ele>1412.3</ele>
        <time>2021-09-13T08:50:22.000Z</time>
      </trkpt>
      <trkpt lat="45.01121" lon="2.71528">
        <ele>1412.8</ele>
        <time>2021-09-13T08:50:32.000Z</time>
      </trkpt>
      <trkpt lat="45.01124" lon="2.71537">
        <ele>1413.3</ele>
        <time>2021-09-13T08:50:43.000Z</time>
      </trkpt>
      <trkpt lat="45.01127" lon="2.71546">
        <ele>1413.8</ele>
        <time>2021-09-13T08:50:51.000Z</time>
      </trkpt>
      <trkpt lat="45.01132" lon="2.71554">
        <ele>1414.5</ele>
        <time>2021-09-13T08:50:59.000Z</time>
      </trkpt>
      <trkpt lat="45.01137" lon="2.71561">
        <ele>1415.3</ele>
        <time>2021-09-13T08:51:08.000Z</time>
      </trkpt>
      <trkpt lat="45.01143" lon="2.71566">
        <ele>1416.2</ele>
        <time>2021-09-13T08:51:14.000Z</time>
      </trkpt>
      <trkpt lat="45.01148" lon="2.71571">
        <ele>1417</ele>
        <time>2021-09-13T08:51:20.000Z</time>
      </trkpt>
      <trkpt lat="45.01154" lon="2.71576">
        <ele>1418</ele>
        <time>2021-09-13T08:51:32.000Z</time>
      </trkpt>
      <trkpt lat="45.01159" lon="2.71583">
        <ele>1419</ele>
        <time>2021-09-13T08:51:39.000Z</time>
      </trkpt>
      <trkpt lat="45.01165" lon="2.71589">
        <ele>1419.6</ele>
        <time>2021-09-13T08:51:47.000Z</time>
      </trkpt>
      <trkpt lat="45.01171" lon="2.71591">
        <ele>1420</ele>
        <time>2021-09-13T08:51:53.000Z</time>
      </trkpt>
      <trkpt lat="45.01178" lon="2.71591">
        <ele>1420.5</ele>
        <time>2021-09-13T08:52:09.000Z</time>
      </trkpt>
      <trkpt lat="45.01179" lon="2.71601">
        <ele>1420.3</ele>
        <time>2021-09-13T08:52:17.000Z</time>
      </trkpt>
      <trkpt lat="45.01181" lon="2.71611">
        <ele>1420.3</ele>
        <time>2021-09-13T08:52:24.000Z</time>
      </trkpt>
      <trkpt lat="45.01186" lon="2.71619">
        <ele>1420.6</ele>
        <time>2021-09-13T08:52:30.000Z</time>
      </trkpt>
      <trkpt lat="45.01191" lon="2.71627">
        <ele>1421</ele>
        <time>2021-09-13T08:52:35.000Z</time>
      </trkpt>
      <trkpt lat="45.01197" lon="2.71632">
        <ele>1421.6</ele>
        <time>2021-09-13T08:52:40.000Z</time>
      </trkpt>
      <trkpt lat="45.01202" lon="2.71639">
        <ele>1422.1</ele>
        <time>2021-09-13T08:52:45.000Z</time>
      </trkpt>
      <trkpt lat="45.01207" lon="2.71646">
        <ele>1422.7</ele>
        <time>2021-09-13T08:52:52.000Z</time>
      </trkpt>
      <trkpt lat="45.01212" lon="2.71654">
        <ele>1423.4</ele>
        <time>2021-09-13T08:52:58.000Z</time>
      </trkpt>
      <trkpt lat="45.01216" lon="2.71661">
        <ele>1424</ele>
        <time>2021-09-13T08:53:03.000Z</time>
      </trkpt>
      <trkpt lat="45.01221" lon="2.71669">
        <ele>1424.7</ele>
        <time>2021-09-13T08:53:09.000Z</time>
      </trkpt>
      <trkpt lat="45.01227" lon="2.71676">
        <ele>1425.4</ele>
        <time>2021-09-13T08:53:15.000Z</time>
      </trkpt>
      <trkpt lat="45.01234" lon="2.71683">
        <ele>1426.3</ele>
        <time>2021-09-13T08:53:21.000Z</time>
      </trkpt>
      <trkpt lat="45.0124" lon="2.7169">
        <ele>1427.1</ele>
        <time>2021-09-13T08:53:27.000Z</time>
      </trkpt>
      <trkpt lat="45.01244" lon="2.71699">
        <ele>1427.6</ele>
        <time>2021-09-13T08:53:35.000Z</time>
      </trkpt>
      <trkpt lat="45.01249" lon="2.71707">
        <ele>1428.3</ele>
        <time>2021-09-13T08:53:43.000Z</time>
      </trkpt>
      <trkpt lat="45.01255" lon="2.71713">
        <ele>1428.8</ele>
        <time>2021-09-13T08:53:49.000Z</time>
      </trkpt>
      <trkpt lat="45.01261" lon="2.71718">
        <ele>1429.2</ele>
        <time>2021-09-13T08:53:54.000Z</time>
      </trkpt>
      <trkpt lat="45.01268" lon="2.71724">
        <ele>1429.8</ele>
        <time>2021-09-13T08:54:01.000Z</time>
      </trkpt>
      <trkpt lat="45.01274" lon="2.71728">
        <ele>1430.4</ele>
        <time>2021-09-13T08:54:08.000Z</time>
      </trkpt>
      <trkpt lat="45.0128" lon="2.71735">
        <ele>1431.1</ele>
        <time>2021-09-13T08:54:16.000Z</time>
      </trkpt>
      <trkpt lat="45.01284" lon="2.71742">
        <ele>1431.8</ele>
        <time>2021-09-13T08:54:27.000Z</time>
      </trkpt>
      <trkpt lat="45.01289" lon="2.71749">
        <ele>1432.6</ele>
        <time>2021-09-13T08:54:37.000Z</time>
      </trkpt>
      <trkpt lat="45.01295" lon="2.71754">
        <ele>1433.3</ele>
        <time>2021-09-13T08:55:09.000Z</time>
      </trkpt>
      <trkpt lat="45.01299" lon="2.71763">
        <ele>1433.6</ele>
        <time>2021-09-13T08:55:16.000Z</time>
      </trkpt>
      <trkpt lat="45.01305" lon="2.71768">
        <ele>1434.4</ele>
        <time>2021-09-13T08:55:23.000Z</time>
      </trkpt>
      <trkpt lat="45.01311" lon="2.71773">
        <ele>1435.3</ele>
        <time>2021-09-13T08:55:32.000Z</time>
      </trkpt>
      <trkpt lat="45.01314" lon="2.71782">
        <ele>1435.9</ele>
        <time>2021-09-13T08:55:40.000Z</time>
      </trkpt>
      <trkpt lat="45.01318" lon="2.7179">
        <ele>1436.6</ele>
        <time>2021-09-13T08:56:10.000Z</time>
      </trkpt>
      <trkpt lat="45.01323" lon="2.71797">
        <ele>1437.7</ele>
        <time>2021-09-13T08:56:16.000Z</time>
      </trkpt>
      <trkpt lat="45.01328" lon="2.71805">
        <ele>1438.9</ele>
        <time>2021-09-13T08:56:22.000Z</time>
      </trkpt>
      <trkpt lat="45.01333" lon="2.71812">
        <ele>1440.2</ele>
        <time>2021-09-13T08:56:28.000Z</time>
      </trkpt>
      <trkpt lat="45.01339" lon="2.71819">
        <ele>1441.1</ele>
        <time>2021-09-13T08:56:34.000Z</time>
      </trkpt>
      <trkpt lat="45.01344" lon="2.71827">
        <ele>1442</ele>
        <time>2021-09-13T08:56:40.000Z</time>
      </trkpt>
      <trkpt lat="45.01348" lon="2.71833">
        <ele>1442.7</ele>
        <time>2021-09-13T08:56:48.000Z</time>
      </trkpt>
      <trkpt lat="45.01352" lon="2.71842">
        <ele>1443.1</ele>
        <time>2021-09-13T08:56:58.000Z</time>
      </trkpt>
      <trkpt lat="45.01356" lon="2.7185">
        <ele>1443.5</ele>
        <time>2021-09-13T08:57:05.000Z</time>
      </trkpt>
      <trkpt lat="45.01359" lon="2.71858">
        <ele>1443.8</ele>
        <time>2021-09-13T08:57:12.000Z</time>
      </trkpt>
      <trkpt lat="45.01364" lon="2.71866">
        <ele>1444.5</ele>
        <time>2021-09-13T08:57:18.000Z</time>
      </trkpt>
      <trkpt lat="45.01366" lon="2.71875">
        <ele>1444.8</ele>
        <time>2021-09-13T08:57:26.000Z</time>
      </trkpt>
      <trkpt lat="45.0137" lon="2.71883">
        <ele>1445.4</ele>
        <time>2021-09-13T08:57:33.000Z</time>
      </trkpt>
      <trkpt lat="45.01374" lon="2.71892">
        <ele>1446.2</ele>
        <time>2021-09-13T08:57:40.000Z</time>
      </trkpt>
      <trkpt lat="45.01378" lon="2.71899">
        <ele>1447</ele>
        <time>2021-09-13T08:57:46.000Z</time>
      </trkpt>
      <trkpt lat="45.01383" lon="2.71905">
        <ele>1448</ele>
        <time>2021-09-13T08:57:52.000Z</time>
      </trkpt>
      <trkpt lat="45.01389" lon="2.71912">
        <ele>1449.3</ele>
        <time>2021-09-13T08:57:59.000Z</time>
      </trkpt>
      <trkpt lat="45.01395" lon="2.71917">
        <ele>1450.6</ele>
        <time>2021-09-13T08:58:15.000Z</time>
      </trkpt>
      <trkpt lat="45.014" lon="2.71925">
        <ele>1451.6</ele>
        <time>2021-09-13T08:58:38.000Z</time>
      </trkpt>
      <trkpt lat="45.01407" lon="2.71929">
        <ele>1453.1</ele>
        <time>2021-09-13T08:58:43.000Z</time>
      </trkpt>
      <trkpt lat="45.01412" lon="2.71936">
        <ele>1454.2</ele>
        <time>2021-09-13T08:58:50.000Z</time>
      </trkpt>
      <trkpt lat="45.01417" lon="2.71943">
        <ele>1455.4</ele>
        <time>2021-09-13T08:58:58.000Z</time>
      </trkpt>
      <trkpt lat="45.01421" lon="2.71951">
        <ele>1455.9</ele>
        <time>2021-09-13T08:59:05.000Z</time>
      </trkpt>
      <trkpt lat="45.01424" lon="2.71959">
        <ele>1456.3</ele>
        <time>2021-09-13T08:59:12.000Z</time>
      </trkpt>
      <trkpt lat="45.01428" lon="2.71967">
        <ele>1457</ele>
        <time>2021-09-13T08:59:18.000Z</time>
      </trkpt>
      <trkpt lat="45.01433" lon="2.71974">
        <ele>1457.7</ele>
        <time>2021-09-13T08:59:27.000Z</time>
      </trkpt>
      <trkpt lat="45.01437" lon="2.71982">
        <ele>1458.4</ele>
        <time>2021-09-13T08:59:35.000Z</time>
      </trkpt>
      <trkpt lat="45.01442" lon="2.7199">
        <ele>1459.3</ele>
        <time>2021-09-13T08:59:42.000Z</time>
      </trkpt>
      <trkpt lat="45.01447" lon="2.71997">
        <ele>1460.3</ele>
        <time>2021-09-13T08:59:49.000Z</time>
      </trkpt>
      <trkpt lat="45.01451" lon="2.72004">
        <ele>1461</ele>
        <time>2021-09-13T08:59:56.000Z</time>
      </trkpt>
      <trkpt lat="45.01457" lon="2.7201">
        <ele>1462</ele>
        <time>2021-09-13T09:00:03.000Z</time>
      </trkpt>
      <trkpt lat="45.01461" lon="2.72017">
        <ele>1462.7</ele>
        <time>2021-09-13T09:00:10.000Z</time>
      </trkpt>
      <trkpt lat="45.01466" lon="2.72023">
        <ele>1463.6</ele>
        <time>2021-09-13T09:00:18.000Z</time>
      </trkpt>
      <trkpt lat="45.0147" lon="2.7203">
        <ele>1464.4</ele>
        <time>2021-09-13T09:00:27.000Z</time>
      </trkpt>
      <trkpt lat="45.01476" lon="2.72036">
        <ele>1465.5</ele>
        <time>2021-09-13T09:00:38.000Z</time>
      </trkpt>
      <trkpt lat="45.0148" lon="2.72044">
        <ele>1466.3</ele>
        <time>2021-09-13T09:00:46.000Z</time>
      </trkpt>
      <trkpt lat="45.01484" lon="2.72052">
        <ele>1467.2</ele>
        <time>2021-09-13T09:00:55.000Z</time>
      </trkpt>
      <trkpt lat="45.01488" lon="2.7206">
        <ele>1468.1</ele>
        <time>2021-09-13T09:01:05.000Z</time>
      </trkpt>
      <trkpt lat="45.01492" lon="2.72068">
        <ele>1469.1</ele>
        <time>2021-09-13T09:01:13.000Z</time>
      </trkpt>
      <trkpt lat="45.01494" lon="2.72077">
        <ele>1469.7</ele>
        <time>2021-09-13T09:01:21.000Z</time>
      </trkpt>
      <trkpt lat="45.01497" lon="2.72087">
        <ele>1470.6</ele>
        <time>2021-09-13T09:01:31.000Z</time>
      </trkpt>
      <trkpt lat="45.01499" lon="2.72095">
        <ele>1471.4</ele>
        <time>2021-09-13T09:01:39.000Z</time>
      </trkpt>
      <trkpt lat="45.01501" lon="2.72105">
        <ele>1472.2</ele>
        <time>2021-09-13T09:01:51.000Z</time>
      </trkpt>
      <trkpt lat="45.01506" lon="2.7211">
        <ele>1473.1</ele>
        <time>2021-09-13T09:02:32.000Z</time>
      </trkpt>
      <trkpt lat="45.01509" lon="2.72119">
        <ele>1474</ele>
        <time>2021-09-13T09:02:40.000Z</time>
      </trkpt>
      <trkpt lat="45.01514" lon="2.72125">
        <ele>1475</ele>
        <time>2021-09-13T09:02:49.000Z</time>
      </trkpt>
      <trkpt lat="45.0152" lon="2.7213">
        <ele>1476.1</ele>
        <time>2021-09-13T09:02:57.000Z</time>
      </trkpt>
      <trkpt lat="45.01524" lon="2.72137">
        <ele>1477.1</ele>
        <time>2021-09-13T09:03:05.000Z</time>
      </trkpt>
      <trkpt lat="45.01529" lon="2.72145">
        <ele>1478.3</ele>
        <time>2021-09-13T09:03:15.000Z</time>
      </trkpt>
      <trkpt lat="45.01533" lon="2.72153">
        <ele>1479.4</ele>
        <time>2021-09-13T09:03:24.000Z</time>
      </trkpt>
      <trkpt lat="45.01539" lon="2.72158">
        <ele>1480.6</ele>
        <time>2021-09-13T09:03:31.000Z</time>
      </trkpt>
      <trkpt lat="45.01545" lon="2.72161">
        <ele>1481.7</ele>
        <time>2021-09-13T09:03:39.000Z</time>
      </trkpt>
      <trkpt lat="45.01551" lon="2.72164">
        <ele>1482.8</ele>
        <time>2021-09-13T09:03:47.000Z</time>
      </trkpt>
      <trkpt lat="45.01557" lon="2.72169">
        <ele>1484</ele>
        <time>2021-09-13T09:03:54.000Z</time>
      </trkpt>
      <trkpt lat="45.01563" lon="2.72174">
        <ele>1485.1</ele>
        <time>2021-09-13T09:04:01.000Z</time>
      </trkpt>
      <trkpt lat="45.01568" lon="2.7218">
        <ele>1486.1</ele>
        <time>2021-09-13T09:04:10.000Z</time>
      </trkpt>
      <trkpt lat="45.01573" lon="2.72187">
        <ele>1487.2</ele>
        <time>2021-09-13T09:04:18.000Z</time>
      </trkpt>
      <trkpt lat="45.01578" lon="2.72193">
        <ele>1488.3</ele>
        <time>2021-09-13T09:04:28.000Z</time>
      </trkpt>
      <trkpt lat="45.01582" lon="2.72201">
        <ele>1489.4</ele>
        <time>2021-09-13T09:04:35.000Z</time>
      </trkpt>
      <trkpt lat="45.01587" lon="2.72208">
        <ele>1490.3</ele>
        <time>2021-09-13T09:05:10.000Z</time>
      </trkpt>
      <trkpt lat="45.01592" lon="2.72215">
        <ele>1491.2</ele>
        <time>2021-09-13T09:05:22.000Z</time>
      </trkpt>
      <trkpt lat="45.01598" lon="2.72221">
        <ele>1492.1</ele>
        <time>2021-09-13T09:05:28.000Z</time>
      </trkpt>
      <trkpt lat="45.01604" lon="2.72227">
        <ele>1493.1</ele>
        <time>2021-09-13T09:05:35.000Z</time>
      </trkpt>
      <trkpt lat="45.0161" lon="2.7223">
        <ele>1494</ele>
        <time>2021-09-13T09:05:43.000Z</time>
      </trkpt>
      <trkpt lat="45.01616" lon="2.72234">
        <ele>1495</ele>
        <time>2021-09-13T09:05:50.000Z</time>
      </trkpt>
      <trkpt lat="45.01622" lon="2.72238">
        <ele>1496.1</ele>
        <time>2021-09-13T09:06:20.000Z</time>
      </trkpt>
      <trkpt lat="45.01628" lon="2.72244">
        <ele>1497.3</ele>
        <time>2021-09-13T09:06:27.000Z</time>
      </trkpt>
      <trkpt lat="45.01633" lon="2.7225">
        <ele>1498.6</ele>
        <time>2021-09-13T09:06:33.000Z</time>
      </trkpt>
      <trkpt lat="45.01639" lon="2.72258">
        <ele>1499.1</ele>
        <time>2021-09-13T09:06:39.000Z</time>
      </trkpt>
      <trkpt lat="45.01646" lon="2.72264">
        <ele>1499.9</ele>
        <time>2021-09-13T09:06:45.000Z</time>
      </trkpt>
      <trkpt lat="45.01652" lon="2.72269">
        <ele>1500.5</ele>
        <time>2021-09-13T09:06:51.000Z</time>
      </trkpt>
      <trkpt lat="45.01658" lon="2.72275">
        <ele>1501.2</ele>
        <time>2021-09-13T09:06:58.000Z</time>
      </trkpt>
      <trkpt lat="45.01664" lon="2.7228">
        <ele>1501.9</ele>
        <time>2021-09-13T09:07:03.000Z</time>
      </trkpt>
      <trkpt lat="45.0167" lon="2.72285">
        <ele>1502.4</ele>
        <time>2021-09-13T09:07:09.000Z</time>
      </trkpt>
      <trkpt lat="45.01676" lon="2.72289">
        <ele>1502.8</ele>
        <time>2021-09-13T09:07:16.000Z</time>
      </trkpt>
      <trkpt lat="45.01683" lon="2.72293">
        <ele>1503.4</ele>
        <time>2021-09-13T09:07:24.000Z</time>
      </trkpt>
      <trkpt lat="45.01689" lon="2.72298">
        <ele>1503.9</ele>
        <time>2021-09-13T09:07:32.000Z</time>
      </trkpt>
      <trkpt lat="45.01695" lon="2.72303">
        <ele>1504.6</ele>
        <time>2021-09-13T09:07:38.000Z</time>
      </trkpt>
      <trkpt lat="45.017" lon="2.72311">
        <ele>1505.3</ele>
        <time>2021-09-13T09:07:46.000Z</time>
      </trkpt>
      <trkpt lat="45.01704" lon="2.7232">
        <ele>1506</ele>
        <time>2021-09-13T09:07:52.000Z</time>
      </trkpt>
      <trkpt lat="45.01708" lon="2.72327">
        <ele>1506.7</ele>
        <time>2021-09-13T09:07:58.000Z</time>
      </trkpt>
      <trkpt lat="45.01712" lon="2.72335">
        <ele>1507.5</ele>
        <time>2021-09-13T09:08:04.000Z</time>
      </trkpt>
      <trkpt lat="45.01716" lon="2.72343">
        <ele>1508.2</ele>
        <time>2021-09-13T09:08:10.000Z</time>
      </trkpt>
      <trkpt lat="45.01721" lon="2.72349">
        <ele>1508.9</ele>
        <time>2021-09-13T09:08:15.000Z</time>
      </trkpt>
      <trkpt lat="45.01727" lon="2.72356">
        <ele>1509.9</ele>
        <time>2021-09-13T09:08:21.000Z</time>
      </trkpt>
      <trkpt lat="45.01732" lon="2.72362">
        <ele>1510.7</ele>
        <time>2021-09-13T09:08:27.000Z</time>
      </trkpt>
      <trkpt lat="45.01738" lon="2.72369">
        <ele>1511.6</ele>
        <time>2021-09-13T09:08:33.000Z</time>
      </trkpt>
      <trkpt lat="45.01744" lon="2.72374">
        <ele>1512.6</ele>
        <time>2021-09-13T09:08:39.000Z</time>
      </trkpt>
      <trkpt lat="45.01749" lon="2.72381">
        <ele>1513.4</ele>
        <time>2021-09-13T09:08:47.000Z</time>
      </trkpt>
      <trkpt lat="45.01754" lon="2.72388">
        <ele>1513.9</ele>
        <time>2021-09-13T09:08:54.000Z</time>
      </trkpt>
      <trkpt lat="45.01758" lon="2.72396">
        <ele>1514.3</ele>
        <time>2021-09-13T09:09:01.000Z</time>
      </trkpt>
      <trkpt lat="45.01764" lon="2.72401">
        <ele>1514.9</ele>
        <time>2021-09-13T09:09:07.000Z</time>
      </trkpt>
      <trkpt lat="45.0177" lon="2.72399">
        <ele>1515.3</ele>
        <time>2021-09-13T09:09:18.000Z</time>
      </trkpt>
      <trkpt lat="45.01773" lon="2.72408">
        <ele>1515.9</ele>
        <time>2021-09-13T09:09:52.000Z</time>
      </trkpt>
      <trkpt lat="45.01776" lon="2.72418">
        <ele>1516.4</ele>
        <time>2021-09-13T09:10:12.000Z</time>
      </trkpt>
      <trkpt lat="45.01781" lon="2.72425">
        <ele>1516.3</ele>
        <time>2021-09-13T09:10:16.000Z</time>
      </trkpt>
      <trkpt lat="45.01786" lon="2.72434">
        <ele>1516.2</ele>
        <time>2021-09-13T09:10:21.000Z</time>
      </trkpt>
      <trkpt lat="45.01791" lon="2.72446">
        <ele>1515.8</ele>
        <time>2021-09-13T09:10:27.000Z</time>
      </trkpt>
      <trkpt lat="45.01796" lon="2.72457">
        <ele>1515.6</ele>
        <time>2021-09-13T09:10:33.000Z</time>
      </trkpt>
      <trkpt lat="45.018" lon="2.72468">
        <ele>1515.4</ele>
        <time>2021-09-13T09:10:39.000Z</time>
      </trkpt>
      <trkpt lat="45.01804" lon="2.72479">
        <ele>1515.1</ele>
        <time>2021-09-13T09:10:45.000Z</time>
      </trkpt>
      <trkpt lat="45.01809" lon="2.72489">
        <ele>1515.2</ele>
        <time>2021-09-13T09:10:51.000Z</time>
      </trkpt>
      <trkpt lat="45.01812" lon="2.72501">
        <ele>1514.9</ele>
        <time>2021-09-13T09:10:57.000Z</time>
      </trkpt>
      <trkpt lat="45.01816" lon="2.72514">
        <ele>1514.7</ele>
        <time>2021-09-13T09:11:03.000Z</time>
      </trkpt>
      <trkpt lat="45.0182" lon="2.72525">
        <ele>1514.7</ele>
        <time>2021-09-13T09:11:09.000Z</time>
      </trkpt>
      <trkpt lat="45.01824" lon="2.72533">
        <ele>1514.8</ele>
        <time>2021-09-13T09:11:15.000Z</time>
      </trkpt>
      <trkpt lat="45.01827" lon="2.72543">
        <ele>1514.6</ele>
        <time>2021-09-13T09:11:21.000Z</time>
      </trkpt>
      <trkpt lat="45.01829" lon="2.72555">
        <ele>1514.1</ele>
        <time>2021-09-13T09:11:27.000Z</time>
      </trkpt>
      <trkpt lat="45.01831" lon="2.72567">
        <ele>1513.7</ele>
        <time>2021-09-13T09:11:33.000Z</time>
      </trkpt>
      <trkpt lat="45.01834" lon="2.72577">
        <ele>1513.4</ele>
        <time>2021-09-13T09:11:39.000Z</time>
      </trkpt>
      <trkpt lat="45.01837" lon="2.72588">
        <ele>1513</ele>
        <time>2021-09-13T09:11:45.000Z</time>
      </trkpt>
      <trkpt lat="45.01841" lon="2.726">
        <ele>1512.7</ele>
        <time>2021-09-13T09:11:51.000Z</time>
      </trkpt>
      <trkpt lat="45.01845" lon="2.72611">
        <ele>1512.6</ele>
        <time>2021-09-13T09:11:57.000Z</time>
      </trkpt>
      <trkpt lat="45.01851" lon="2.72623">
        <ele>1512.5</ele>
        <time>2021-09-13T09:12:03.000Z</time>
      </trkpt>
      <trkpt lat="45.01855" lon="2.72634">
        <ele>1512.4</ele>
        <time>2021-09-13T09:12:09.000Z</time>
      </trkpt>
      <trkpt lat="45.01858" lon="2.72646">
        <ele>1512.3</ele>
        <time>2021-09-13T09:12:15.000Z</time>
      </trkpt>
      <trkpt lat="45.01862" lon="2.72657">
        <ele>1512.3</ele>
        <time>2021-09-13T09:12:21.000Z</time>
      </trkpt>
      <trkpt lat="45.01868" lon="2.72669">
        <ele>1512.5</ele>
        <time>2021-09-13T09:12:27.000Z</time>
      </trkpt>
      <trkpt lat="45.01873" lon="2.7268">
        <ele>1513</ele>
        <time>2021-09-13T09:12:33.000Z</time>
      </trkpt>
      <trkpt lat="45.01879" lon="2.72689">
        <ele>1513.5</ele>
        <time>2021-09-13T09:12:39.000Z</time>
      </trkpt>
      <trkpt lat="45.01885" lon="2.72698">
        <ele>1514</ele>
        <time>2021-09-13T09:12:45.000Z</time>
      </trkpt>
      <trkpt lat="45.01891" lon="2.72707">
        <ele>1514.5</ele>
        <time>2021-09-13T09:12:51.000Z</time>
      </trkpt>
      <trkpt lat="45.01897" lon="2.72717">
        <ele>1514.9</ele>
        <time>2021-09-13T09:12:57.000Z</time>
      </trkpt>
      <trkpt lat="45.01903" lon="2.72727">
        <ele>1515.3</ele>
        <time>2021-09-13T09:13:03.000Z</time>
      </trkpt>
      <trkpt lat="45.01907" lon="2.72736">
        <ele>1515.5</ele>
        <time>2021-09-13T09:13:09.000Z</time>
      </trkpt>
      <trkpt lat="45.01911" lon="2.72745">
        <ele>1515.7</ele>
        <time>2021-09-13T09:13:15.000Z</time>
      </trkpt>
      <trkpt lat="45.01916" lon="2.72754">
        <ele>1516.1</ele>
        <time>2021-09-13T09:13:21.000Z</time>
      </trkpt>
      <trkpt lat="45.01921" lon="2.72762">
        <ele>1516.6</ele>
        <time>2021-09-13T09:13:27.000Z</time>
      </trkpt>
      <trkpt lat="45.01926" lon="2.72772">
        <ele>1517.1</ele>
        <time>2021-09-13T09:13:33.000Z</time>
      </trkpt>
      <trkpt lat="45.01931" lon="2.7278">
        <ele>1517.6</ele>
        <time>2021-09-13T09:13:39.000Z</time>
      </trkpt>
      <trkpt lat="45.01936" lon="2.72787">
        <ele>1518.1</ele>
        <time>2021-09-13T09:13:45.000Z</time>
      </trkpt>
      <trkpt lat="45.0194" lon="2.72796">
        <ele>1518.7</ele>
        <time>2021-09-13T09:13:51.000Z</time>
      </trkpt>
      <trkpt lat="45.01946" lon="2.72803">
        <ele>1519.3</ele>
        <time>2021-09-13T09:13:57.000Z</time>
      </trkpt>
      <trkpt lat="45.0195" lon="2.72811">
        <ele>1519.9</ele>
        <time>2021-09-13T09:14:03.000Z</time>
      </trkpt>
      <trkpt lat="45.01954" lon="2.72818">
        <ele>1520.4</ele>
        <time>2021-09-13T09:14:10.000Z</time>
      </trkpt>
      <trkpt lat="45.0196" lon="2.72824">
        <ele>1521.1</ele>
        <time>2021-09-13T09:14:15.000Z</time>
      </trkpt>
      <trkpt lat="45.01967" lon="2.72832">
        <ele>1521.9</ele>
        <time>2021-09-13T09:14:21.000Z</time>
      </trkpt>
      <trkpt lat="45.01973" lon="2.72839">
        <ele>1522.7</ele>
        <time>2021-09-13T09:14:27.000Z</time>
      </trkpt>
      <trkpt lat="45.01979" lon="2.72846">
        <ele>1523.5</ele>
        <time>2021-09-13T09:14:35.000Z</time>
      </trkpt>
      <trkpt lat="45.01984" lon="2.72852">
        <ele>1524.2</ele>
        <time>2021-09-13T09:14:41.000Z</time>
      </trkpt>
      <trkpt lat="45.01989" lon="2.7286">
        <ele>1525</ele>
        <time>2021-09-13T09:14:48.000Z</time>
      </trkpt>
      <trkpt lat="45.01994" lon="2.72866">
        <ele>1525.6</ele>
        <time>2021-09-13T09:15:06.000Z</time>
      </trkpt>
      <trkpt lat="45.02001" lon="2.7287">
        <ele>1526.2</ele>
        <time>2021-09-13T09:15:15.000Z</time>
      </trkpt>
      <trkpt lat="45.02005" lon="2.72878">
        <ele>1526.5</ele>
        <time>2021-09-13T09:15:23.000Z</time>
      </trkpt>
      <trkpt lat="45.0201" lon="2.72884">
        <ele>1526.9</ele>
        <time>2021-09-13T09:15:30.000Z</time>
      </trkpt>
      <trkpt lat="45.02015" lon="2.72891">
        <ele>1527.3</ele>
        <time>2021-09-13T09:15:37.000Z</time>
      </trkpt>
      <trkpt lat="45.02021" lon="2.72897">
        <ele>1527.8</ele>
        <time>2021-09-13T09:15:43.000Z</time>
      </trkpt>
      <trkpt lat="45.02027" lon="2.72903">
        <ele>1528.3</ele>
        <time>2021-09-13T09:15:50.000Z</time>
      </trkpt>
      <trkpt lat="45.02033" lon="2.72909">
        <ele>1529</ele>
        <time>2021-09-13T09:15:57.000Z</time>
      </trkpt>
      <trkpt lat="45.02039" lon="2.72913">
        <ele>1529.5</ele>
        <time>2021-09-13T09:16:03.000Z</time>
      </trkpt>
      <trkpt lat="45.02045" lon="2.72919">
        <ele>1530.3</ele>
        <time>2021-09-13T09:16:10.000Z</time>
      </trkpt>
      <trkpt lat="45.0205" lon="2.72924">
        <ele>1530.8</ele>
        <time>2021-09-13T09:16:16.000Z</time>
      </trkpt>
      <trkpt lat="45.02056" lon="2.72929">
        <ele>1531.4</ele>
        <time>2021-09-13T09:16:21.000Z</time>
      </trkpt>
      <trkpt lat="45.02062" lon="2.72934">
        <ele>1531.9</ele>
        <time>2021-09-13T09:16:27.000Z</time>
      </trkpt>
      <trkpt lat="45.02068" lon="2.72939">
        <ele>1532.5</ele>
        <time>2021-09-13T09:16:34.000Z</time>
      </trkpt>
      <trkpt lat="45.02074" lon="2.72944">
        <ele>1533.1</ele>
        <time>2021-09-13T09:16:39.000Z</time>
      </trkpt>
      <trkpt lat="45.0208" lon="2.72949">
        <ele>1533.6</ele>
        <time>2021-09-13T09:16:45.000Z</time>
      </trkpt>
      <trkpt lat="45.02086" lon="2.72955">
        <ele>1534.2</ele>
        <time>2021-09-13T09:16:51.000Z</time>
      </trkpt>
      <trkpt lat="45.02092" lon="2.72963">
        <ele>1534.7</ele>
        <time>2021-09-13T09:16:57.000Z</time>
      </trkpt>
      <trkpt lat="45.02097" lon="2.72969">
        <ele>1535.2</ele>
        <time>2021-09-13T09:17:03.000Z</time>
      </trkpt>
      <trkpt lat="45.02103" lon="2.72977">
        <ele>1535.8</ele>
        <time>2021-09-13T09:17:09.000Z</time>
      </trkpt>
      <trkpt lat="45.02109" lon="2.72982">
        <ele>1536.1</ele>
        <time>2021-09-13T09:17:38.000Z</time>
      </trkpt>
      <trkpt lat="45.02114" lon="2.72988">
        <ele>1536.6</ele>
        <time>2021-09-13T09:17:45.000Z</time>
      </trkpt>
      <trkpt lat="45.02118" lon="2.72996">
        <ele>1537.2</ele>
        <time>2021-09-13T09:17:51.000Z</time>
      </trkpt>
      <trkpt lat="45.02124" lon="2.73002">
        <ele>1537.6</ele>
        <time>2021-09-13T09:17:59.000Z</time>
      </trkpt>
      <trkpt lat="45.02129" lon="2.73008">
        <ele>1537.8</ele>
        <time>2021-09-13T09:18:05.000Z</time>
      </trkpt>
      <trkpt lat="45.02134" lon="2.73016">
        <ele>1538.1</ele>
        <time>2021-09-13T09:18:12.000Z</time>
      </trkpt>
      <trkpt lat="45.0214" lon="2.73021">
        <ele>1538.2</ele>
        <time>2021-09-13T09:18:19.000Z</time>
      </trkpt>
      <trkpt lat="45.02146" lon="2.73027">
        <ele>1538.5</ele>
        <time>2021-09-13T09:18:25.000Z</time>
      </trkpt>
      <trkpt lat="45.02151" lon="2.73034">
        <ele>1538.7</ele>
        <time>2021-09-13T09:18:31.000Z</time>
      </trkpt>
      <trkpt lat="45.02155" lon="2.73042">
        <ele>1539.1</ele>
        <time>2021-09-13T09:18:36.000Z</time>
      </trkpt>
      <trkpt lat="45.02159" lon="2.7305">
        <ele>1539.4</ele>
        <time>2021-09-13T09:18:42.000Z</time>
      </trkpt>
      <trkpt lat="45.02166" lon="2.73056">
        <ele>1539.7</ele>
        <time>2021-09-13T09:18:49.000Z</time>
      </trkpt>
      <trkpt lat="45.02171" lon="2.73062">
        <ele>1540</ele>
        <time>2021-09-13T09:18:55.000Z</time>
      </trkpt>
      <trkpt lat="45.02177" lon="2.73069">
        <ele>1540.5</ele>
        <time>2021-09-13T09:19:01.000Z</time>
      </trkpt>
      <trkpt lat="45.02183" lon="2.73076">
        <ele>1541</ele>
        <time>2021-09-13T09:19:06.000Z</time>
      </trkpt>
      <trkpt lat="45.02188" lon="2.73083">
        <ele>1541.5</ele>
        <time>2021-09-13T09:19:12.000Z</time>
      </trkpt>
      <trkpt lat="45.02195" lon="2.73089">
        <ele>1541.8</ele>
        <time>2021-09-13T09:19:18.000Z</time>
      </trkpt>
      <trkpt lat="45.022" lon="2.73095">
        <ele>1542.1</ele>
        <time>2021-09-13T09:19:23.000Z</time>
      </trkpt>
      <trkpt lat="45.02205" lon="2.73101">
        <ele>1542.4</ele>
        <time>2021-09-13T09:19:29.000Z</time>
      </trkpt>
      <trkpt lat="45.02211" lon="2.73108">
        <ele>1542.8</ele>
        <time>2021-09-13T09:19:36.000Z</time>
      </trkpt>
      <trkpt lat="45.02217" lon="2.73113">
        <ele>1543.1</ele>
        <time>2021-09-13T09:19:42.000Z</time>
      </trkpt>
      <trkpt lat="45.02224" lon="2.73118">
        <ele>1543.5</ele>
        <time>2021-09-13T09:19:48.000Z</time>
      </trkpt>
      <trkpt lat="45.02231" lon="2.73122">
        <ele>1543.8</ele>
        <time>2021-09-13T09:20:07.000Z</time>
      </trkpt>
      <trkpt lat="45.02237" lon="2.73126">
        <ele>1544.1</ele>
        <time>2021-09-13T09:20:16.000Z</time>
      </trkpt>
      <trkpt lat="45.02243" lon="2.73132">
        <ele>1544.5</ele>
        <time>2021-09-13T09:20:21.000Z</time>
      </trkpt>
      <trkpt lat="45.0225" lon="2.73137">
        <ele>1544.9</ele>
        <time>2021-09-13T09:20:27.000Z</time>
      </trkpt>
      <trkpt lat="45.02256" lon="2.73141">
        <ele>1545.5</ele>
        <time>2021-09-13T09:20:33.000Z</time>
      </trkpt>
      <trkpt lat="45.02262" lon="2.73146">
        <ele>1546.1</ele>
        <time>2021-09-13T09:20:39.000Z</time>
      </trkpt>
      <trkpt lat="45.02269" lon="2.73151">
        <ele>1546.8</ele>
        <time>2021-09-13T09:20:45.000Z</time>
      </trkpt>
      <trkpt lat="45.02275" lon="2.73155">
        <ele>1547.4</ele>
        <time>2021-09-13T09:20:52.000Z</time>
      </trkpt>
      <trkpt lat="45.02282" lon="2.73157">
        <ele>1548</ele>
        <time>2021-09-13T09:20:59.000Z</time>
      </trkpt>
      <trkpt lat="45.02288" lon="2.73159">
        <ele>1548.5</ele>
        <time>2021-09-13T09:21:04.000Z</time>
      </trkpt>
      <trkpt lat="45.02295" lon="2.73162">
        <ele>1549.1</ele>
        <time>2021-09-13T09:21:10.000Z</time>
      </trkpt>
      <trkpt lat="45.02301" lon="2.73166">
        <ele>1549.6</ele>
        <time>2021-09-13T09:21:16.000Z</time>
      </trkpt>
      <trkpt lat="45.02306" lon="2.73172">
        <ele>1549.8</ele>
        <time>2021-09-13T09:21:25.000Z</time>
      </trkpt>
      <trkpt lat="45.02311" lon="2.73178">
        <ele>1549.8</ele>
        <time>2021-09-13T09:21:34.000Z</time>
      </trkpt>
      <trkpt lat="45.02317" lon="2.73182">
        <ele>1550.1</ele>
        <time>2021-09-13T09:21:40.000Z</time>
      </trkpt>
      <trkpt lat="45.02325" lon="2.73183">
        <ele>1550.6</ele>
        <time>2021-09-13T09:21:47.000Z</time>
      </trkpt>
      <trkpt lat="45.02332" lon="2.73187">
        <ele>1550.9</ele>
        <time>2021-09-13T09:21:54.000Z</time>
      </trkpt>
      <trkpt lat="45.02338" lon="2.73191">
        <ele>1551.1</ele>
        <time>2021-09-13T09:22:00.000Z</time>
      </trkpt>
      <trkpt lat="45.02345" lon="2.73193">
        <ele>1551.5</ele>
        <time>2021-09-13T09:22:08.000Z</time>
      </trkpt>
      <trkpt lat="45.02351" lon="2.73198">
        <ele>1551.7</ele>
        <time>2021-09-13T09:22:16.000Z</time>
      </trkpt>
      <trkpt lat="45.02357" lon="2.73203">
        <ele>1551.9</ele>
        <time>2021-09-13T09:22:22.000Z</time>
      </trkpt>
      <trkpt lat="45.02363" lon="2.73208">
        <ele>1552.1</ele>
        <time>2021-09-13T09:22:34.000Z</time>
      </trkpt>
      <trkpt lat="45.02369" lon="2.73211">
        <ele>1552.5</ele>
        <time>2021-09-13T09:22:42.000Z</time>
      </trkpt>
      <trkpt lat="45.02373" lon="2.7322">
        <ele>1552.6</ele>
        <time>2021-09-13T09:22:53.000Z</time>
      </trkpt>
      <trkpt lat="45.0237" lon="2.73228">
        <ele>1552.1</ele>
        <time>2021-09-13T09:23:03.000Z</time>
      </trkpt>
      <trkpt lat="45.02375" lon="2.73234">
        <ele>1552.4</ele>
        <time>2021-09-13T09:23:11.000Z</time>
      </trkpt>
      <trkpt lat="45.02381" lon="2.73238">
        <ele>1552.8</ele>
        <time>2021-09-13T09:23:21.000Z</time>
      </trkpt>
      <trkpt lat="45.02391" lon="2.73242">
        <ele>1553.7</ele>
        <time>2021-09-13T09:23:27.000Z</time>
      </trkpt>
      <trkpt lat="45.02404" lon="2.73248">
        <ele>1554.8</ele>
        <time>2021-09-13T09:23:33.000Z</time>
      </trkpt>
      <trkpt lat="45.02412" lon="2.73253">
        <ele>1555.1</ele>
        <time>2021-09-13T09:23:39.000Z</time>
      </trkpt>
      <trkpt lat="45.02419" lon="2.73252">
        <ele>1556</ele>
        <time>2021-09-13T09:23:47.000Z</time>
      </trkpt>
      <trkpt lat="45.02426" lon="2.73255">
        <ele>1556.3</ele>
        <time>2021-09-13T09:24:18.000Z</time>
      </trkpt>
      <trkpt lat="45.02427" lon="2.73245">
        <ele>1557.1</ele>
        <time>2021-09-13T09:25:52.000Z</time>
      </trkpt>
      <trkpt lat="45.02433" lon="2.73241">
        <ele>1557.7</ele>
        <time>2021-09-13T09:26:01.000Z</time>
      </trkpt>
      <trkpt lat="45.02439" lon="2.73235">
        <ele>1558.4</ele>
        <time>2021-09-13T09:26:12.000Z</time>
      </trkpt>
      <trkpt lat="45.02445" lon="2.73232">
        <ele>1559</ele>
        <time>2021-09-13T09:26:45.000Z</time>
      </trkpt>
      <trkpt lat="45.02452" lon="2.73228">
        <ele>1559.7</ele>
        <time>2021-09-13T09:26:52.000Z</time>
      </trkpt>
      <trkpt lat="45.02458" lon="2.73225">
        <ele>1560.3</ele>
        <time>2021-09-13T09:27:01.000Z</time>
      </trkpt>
      <trkpt lat="45.02465" lon="2.73224">
        <ele>1561</ele>
        <time>2021-09-13T09:27:22.000Z</time>
      </trkpt>
      <trkpt lat="45.02472" lon="2.73224">
        <ele>1561.8</ele>
        <time>2021-09-13T09:27:32.000Z</time>
      </trkpt>
      <trkpt lat="45.02478" lon="2.73229">
        <ele>1562.4</ele>
        <time>2021-09-13T09:27:42.000Z</time>
      </trkpt>
      <trkpt lat="45.02482" lon="2.73236">
        <ele>1562.9</ele>
        <time>2021-09-13T09:27:51.000Z</time>
      </trkpt>
      <trkpt lat="45.02488" lon="2.73242">
        <ele>1563.6</ele>
        <time>2021-09-13T09:27:59.000Z</time>
      </trkpt>
      <trkpt lat="45.02494" lon="2.73246">
        <ele>1564.3</ele>
        <time>2021-09-13T09:28:06.000Z</time>
      </trkpt>
      <trkpt lat="45.02502" lon="2.7325">
        <ele>1565.3</ele>
        <time>2021-09-13T09:28:27.000Z</time>
      </trkpt>
      <trkpt lat="45.02508" lon="2.73258">
        <ele>1565</ele>
        <time>2021-09-13T09:28:34.000Z</time>
      </trkpt>
      <trkpt lat="45.02514" lon="2.73265">
        <ele>1564.9</ele>
        <time>2021-09-13T09:28:40.000Z</time>
      </trkpt>
      <trkpt lat="45.02519" lon="2.73272">
        <ele>1564.7</ele>
        <time>2021-09-13T09:28:46.000Z</time>
      </trkpt>
      <trkpt lat="45.02523" lon="2.73279">
        <ele>1564.3</ele>
        <time>2021-09-13T09:28:53.000Z</time>
      </trkpt>
      <trkpt lat="45.02527" lon="2.73287">
        <ele>1563.8</ele>
        <time>2021-09-13T09:29:00.000Z</time>
      </trkpt>
      <trkpt lat="45.02533" lon="2.73293">
        <ele>1564</ele>
        <time>2021-09-13T09:29:08.000Z</time>
      </trkpt>
      <trkpt lat="45.0254" lon="2.73296">
        <ele>1564.7</ele>
        <time>2021-09-13T09:29:15.000Z</time>
      </trkpt>
      <trkpt lat="45.02546" lon="2.73301">
        <ele>1565</ele>
        <time>2021-09-13T09:29:21.000Z</time>
      </trkpt>
      <trkpt lat="45.02553" lon="2.73303">
        <ele>1565.8</ele>
        <time>2021-09-13T09:29:27.000Z</time>
      </trkpt>
      <trkpt lat="45.0256" lon="2.73305">
        <ele>1566.7</ele>
        <time>2021-09-13T09:29:33.000Z</time>
      </trkpt>
      <trkpt lat="45.02567" lon="2.73308">
        <ele>1567.4</ele>
        <time>2021-09-13T09:29:39.000Z</time>
      </trkpt>
      <trkpt lat="45.02574" lon="2.7331">
        <ele>1568.3</ele>
        <time>2021-09-13T09:29:47.000Z</time>
      </trkpt>
      <trkpt lat="45.0258" lon="2.73313">
        <ele>1568.9</ele>
        <time>2021-09-13T09:29:52.000Z</time>
      </trkpt>
      <trkpt lat="45.02586" lon="2.73315">
        <ele>1569.5</ele>
        <time>2021-09-13T09:29:58.000Z</time>
      </trkpt>
      <trkpt lat="45.02593" lon="2.7332">
        <ele>1569.8</ele>
        <time>2021-09-13T09:30:04.000Z</time>
      </trkpt>
      <trkpt lat="45.02599" lon="2.73326">
        <ele>1569.9</ele>
        <time>2021-09-13T09:30:10.000Z</time>
      </trkpt>
      <trkpt lat="45.02605" lon="2.73332">
        <ele>1570</ele>
        <time>2021-09-13T09:30:16.000Z</time>
      </trkpt>
      <trkpt lat="45.02611" lon="2.73337">
        <ele>1570.1</ele>
        <time>2021-09-13T09:30:22.000Z</time>
      </trkpt>
      <trkpt lat="45.02617" lon="2.73342">
        <ele>1570.2</ele>
        <time>2021-09-13T09:30:27.000Z</time>
      </trkpt>
      <trkpt lat="45.02624" lon="2.73344">
        <ele>1570.9</ele>
        <time>2021-09-13T09:30:33.000Z</time>
      </trkpt>
      <trkpt lat="45.02632" lon="2.73346">
        <ele>1571.7</ele>
        <time>2021-09-13T09:30:39.000Z</time>
      </trkpt>
      <trkpt lat="45.02638" lon="2.7335">
        <ele>1571.9</ele>
        <time>2021-09-13T09:30:46.000Z</time>
      </trkpt>
      <trkpt lat="45.02645" lon="2.73351">
        <ele>1572.8</ele>
        <time>2021-09-13T09:30:54.000Z</time>
      </trkpt>
      <trkpt lat="45.02651" lon="2.73351">
        <ele>1573.6</ele>
        <time>2021-09-13T09:31:17.000Z</time>
      </trkpt>
      <trkpt lat="45.02658" lon="2.73353">
        <ele>1574.2</ele>
        <time>2021-09-13T09:31:24.000Z</time>
      </trkpt>
      <trkpt lat="45.02664" lon="2.73358">
        <ele>1574.4</ele>
        <time>2021-09-13T09:31:30.000Z</time>
      </trkpt>
      <trkpt lat="45.02671" lon="2.7336">
        <ele>1575</ele>
        <time>2021-09-13T09:31:36.000Z</time>
      </trkpt>
      <trkpt lat="45.02677" lon="2.7336">
        <ele>1575.8</ele>
        <time>2021-09-13T09:31:49.000Z</time>
      </trkpt>
      <trkpt lat="45.02684" lon="2.73365">
        <ele>1576.1</ele>
        <time>2021-09-13T09:32:14.000Z</time>
      </trkpt>
      <trkpt lat="45.02689" lon="2.7337">
        <ele>1576.2</ele>
        <time>2021-09-13T09:32:19.000Z</time>
      </trkpt>
      <trkpt lat="45.02695" lon="2.73376">
        <ele>1576.3</ele>
        <time>2021-09-13T09:32:48.000Z</time>
      </trkpt>
      <trkpt lat="45.02702" lon="2.73381">
        <ele>1576.7</ele>
        <time>2021-09-13T09:32:54.000Z</time>
      </trkpt>
      <trkpt lat="45.02708" lon="2.73387">
        <ele>1576.8</ele>
        <time>2021-09-13T09:32:59.000Z</time>
      </trkpt>
      <trkpt lat="45.02714" lon="2.73392">
        <ele>1577.1</ele>
        <time>2021-09-13T09:33:04.000Z</time>
      </trkpt>
      <trkpt lat="45.0272" lon="2.73398">
        <ele>1577.4</ele>
        <time>2021-09-13T09:33:10.000Z</time>
      </trkpt>
      <trkpt lat="45.02726" lon="2.73403">
        <ele>1577.7</ele>
        <time>2021-09-13T09:33:15.000Z</time>
      </trkpt>
      <trkpt lat="45.02731" lon="2.73412">
        <ele>1577.5</ele>
        <time>2021-09-13T09:33:21.000Z</time>
      </trkpt>
      <trkpt lat="45.02736" lon="2.73419">
        <ele>1577.6</ele>
        <time>2021-09-13T09:33:27.000Z</time>
      </trkpt>
      <trkpt lat="45.02742" lon="2.73426">
        <ele>1577.7</ele>
        <time>2021-09-13T09:33:33.000Z</time>
      </trkpt>
      <trkpt lat="45.02749" lon="2.73433">
        <ele>1578.1</ele>
        <time>2021-09-13T09:33:39.000Z</time>
      </trkpt>
      <trkpt lat="45.02755" lon="2.73439">
        <ele>1578.1</ele>
        <time>2021-09-13T09:33:45.000Z</time>
      </trkpt>
      <trkpt lat="45.02763" lon="2.73445">
        <ele>1578.2</ele>
        <time>2021-09-13T09:33:51.000Z</time>
      </trkpt>
      <trkpt lat="45.0277" lon="2.73452">
        <ele>1578.3</ele>
        <time>2021-09-13T09:33:57.000Z</time>
      </trkpt>
      <trkpt lat="45.02778" lon="2.73456">
        <ele>1578.7</ele>
        <time>2021-09-13T09:34:03.000Z</time>
      </trkpt>
      <trkpt lat="45.02785" lon="2.7346">
        <ele>1579.1</ele>
        <time>2021-09-13T09:34:09.000Z</time>
      </trkpt>
      <trkpt lat="45.02792" lon="2.73462">
        <ele>1579.7</ele>
        <time>2021-09-13T09:34:16.000Z</time>
      </trkpt>
      <trkpt lat="45.02798" lon="2.73467">
        <ele>1580</ele>
        <time>2021-09-13T09:34:23.000Z</time>
      </trkpt>
      <trkpt lat="45.02804" lon="2.73474">
        <ele>1580.1</ele>
        <time>2021-09-13T09:34:29.000Z</time>
      </trkpt>
      <trkpt lat="45.02807" lon="2.73482">
        <ele>1579.9</ele>
        <time>2021-09-13T09:34:36.000Z</time>
      </trkpt>
      <trkpt lat="45.02811" lon="2.73489">
        <ele>1579.9</ele>
        <time>2021-09-13T09:34:42.000Z</time>
      </trkpt>
      <trkpt lat="45.02816" lon="2.73496">
        <ele>1580</ele>
        <time>2021-09-13T09:34:47.000Z</time>
      </trkpt>
      <trkpt lat="45.02821" lon="2.73503">
        <ele>1580.2</ele>
        <time>2021-09-13T09:34:53.000Z</time>
      </trkpt>
      <trkpt lat="45.02827" lon="2.73509">
        <ele>1580.7</ele>
        <time>2021-09-13T09:35:01.000Z</time>
      </trkpt>
      <trkpt lat="45.02833" lon="2.73515">
        <ele>1581.2</ele>
        <time>2021-09-13T09:35:07.000Z</time>
      </trkpt>
      <trkpt lat="45.02838" lon="2.73522">
        <ele>1581.2</ele>
        <time>2021-09-13T09:35:13.000Z</time>
      </trkpt>
      <trkpt lat="45.02843" lon="2.73528">
        <ele>1581.2</ele>
        <time>2021-09-13T09:35:18.000Z</time>
      </trkpt>
      <trkpt lat="45.02849" lon="2.73535">
        <ele>1581.4</ele>
        <time>2021-09-13T09:35:24.000Z</time>
      </trkpt>
      <trkpt lat="45.02855" lon="2.73539">
        <ele>1581.6</ele>
        <time>2021-09-13T09:35:30.000Z</time>
      </trkpt>
      <trkpt lat="45.02861" lon="2.73545">
        <ele>1581.9</ele>
        <time>2021-09-13T09:35:36.000Z</time>
      </trkpt>
      <trkpt lat="45.02867" lon="2.73548">
        <ele>1582.3</ele>
        <time>2021-09-13T09:35:44.000Z</time>
      </trkpt>
      <trkpt lat="45.02874" lon="2.73548">
        <ele>1582.8</ele>
        <time>2021-09-13T09:35:50.000Z</time>
      </trkpt>
      <trkpt lat="45.0288" lon="2.73551">
        <ele>1583.3</ele>
        <time>2021-09-13T09:35:59.000Z</time>
      </trkpt>
      <trkpt lat="45.02886" lon="2.73557">
        <ele>1583.8</ele>
        <time>2021-09-13T09:36:05.000Z</time>
      </trkpt>
      <trkpt lat="45.02891" lon="2.73562">
        <ele>1584.2</ele>
        <time>2021-09-13T09:36:13.000Z</time>
      </trkpt>
      <trkpt lat="45.02898" lon="2.73567">
        <ele>1584.9</ele>
        <time>2021-09-13T09:36:19.000Z</time>
      </trkpt>
      <trkpt lat="45.02904" lon="2.73571">
        <ele>1585.5</ele>
        <time>2021-09-13T09:36:24.000Z</time>
      </trkpt>
      <trkpt lat="45.02909" lon="2.73577">
        <ele>1586.1</ele>
        <time>2021-09-13T09:36:29.000Z</time>
      </trkpt>
      <trkpt lat="45.02915" lon="2.73582">
        <ele>1586.8</ele>
        <time>2021-09-13T09:36:35.000Z</time>
      </trkpt>
      <trkpt lat="45.02921" lon="2.73587">
        <ele>1587.2</ele>
        <time>2021-09-13T09:36:41.000Z</time>
      </trkpt>
      <trkpt lat="45.02928" lon="2.73591">
        <ele>1587.7</ele>
        <time>2021-09-13T09:36:47.000Z</time>
      </trkpt>
      <trkpt lat="45.02934" lon="2.73595">
        <ele>1588.1</ele>
        <time>2021-09-13T09:36:54.000Z</time>
      </trkpt>
      <trkpt lat="45.0294" lon="2.73601">
        <ele>1588.5</ele>
        <time>2021-09-13T09:37:03.000Z</time>
      </trkpt>
      <trkpt lat="45.02947" lon="2.73606">
        <ele>1589</ele>
        <time>2021-09-13T09:37:10.000Z</time>
      </trkpt>
      <trkpt lat="45.02953" lon="2.73609">
        <ele>1589.5</ele>
        <time>2021-09-13T09:37:17.000Z</time>
      </trkpt>
      <trkpt lat="45.02958" lon="2.73615">
        <ele>1590</ele>
        <time>2021-09-13T09:37:25.000Z</time>
      </trkpt>
      <trkpt lat="45.02965" lon="2.73618">
        <ele>1590.6</ele>
        <time>2021-09-13T09:37:32.000Z</time>
      </trkpt>
      <trkpt lat="45.02971" lon="2.73623">
        <ele>1591.2</ele>
        <time>2021-09-13T09:37:40.000Z</time>
      </trkpt>
      <trkpt lat="45.02977" lon="2.73628">
        <ele>1591.8</ele>
        <time>2021-09-13T09:37:50.000Z</time>
      </trkpt>
      <trkpt lat="45.02983" lon="2.73634">
        <ele>1592.5</ele>
        <time>2021-09-13T09:38:01.000Z</time>
      </trkpt>
      <trkpt lat="45.02989" lon="2.73637">
        <ele>1593.2</ele>
        <time>2021-09-13T09:38:08.000Z</time>
      </trkpt>
      <trkpt lat="45.02995" lon="2.73642">
        <ele>1593.9</ele>
        <time>2021-09-13T09:38:15.000Z</time>
      </trkpt>
      <trkpt lat="45.03002" lon="2.73646">
        <ele>1594.7</ele>
        <time>2021-09-13T09:38:23.000Z</time>
      </trkpt>
      <trkpt lat="45.03007" lon="2.73651">
        <ele>1595.2</ele>
        <time>2021-09-13T09:38:34.000Z</time>
      </trkpt>
      <trkpt lat="45.03014" lon="2.73655">
        <ele>1595.9</ele>
        <time>2021-09-13T09:38:42.000Z</time>
      </trkpt>
      <trkpt lat="45.03019" lon="2.73661">
        <ele>1596.6</ele>
        <time>2021-09-13T09:38:51.000Z</time>
      </trkpt>
      <trkpt lat="45.03025" lon="2.73666">
        <ele>1597.4</ele>
        <time>2021-09-13T09:38:58.000Z</time>
      </trkpt>
      <trkpt lat="45.03031" lon="2.73671">
        <ele>1598</ele>
        <time>2021-09-13T09:39:06.000Z</time>
      </trkpt>
      <trkpt lat="45.03037" lon="2.73676">
        <ele>1598.7</ele>
        <time>2021-09-13T09:39:14.000Z</time>
      </trkpt>
      <trkpt lat="45.03044" lon="2.73681">
        <ele>1599.4</ele>
        <time>2021-09-13T09:39:23.000Z</time>
      </trkpt>
      <trkpt lat="45.0305" lon="2.73684">
        <ele>1600</ele>
        <time>2021-09-13T09:39:34.000Z</time>
      </trkpt>
      <trkpt lat="45.03055" lon="2.7369">
        <ele>1600.6</ele>
        <time>2021-09-13T09:39:48.000Z</time>
      </trkpt>
      <trkpt lat="45.03061" lon="2.73694">
        <ele>1601.3</ele>
        <time>2021-09-13T09:39:56.000Z</time>
      </trkpt>
      <trkpt lat="45.03067" lon="2.73698">
        <ele>1602</ele>
        <time>2021-09-13T09:40:04.000Z</time>
      </trkpt>
      <trkpt lat="45.03073" lon="2.73703">
        <ele>1602.8</ele>
        <time>2021-09-13T09:40:12.000Z</time>
      </trkpt>
      <trkpt lat="45.03079" lon="2.73708">
        <ele>1603.5</ele>
        <time>2021-09-13T09:40:54.000Z</time>
      </trkpt>
      <trkpt lat="45.03085" lon="2.73712">
        <ele>1604.3</ele>
        <time>2021-09-13T09:41:02.000Z</time>
      </trkpt>
      <trkpt lat="45.03092" lon="2.73717">
        <ele>1605.1</ele>
        <time>2021-09-13T09:41:10.000Z</time>
      </trkpt>
      <trkpt lat="45.03098" lon="2.73722">
        <ele>1605.9</ele>
        <time>2021-09-13T09:41:18.000Z</time>
      </trkpt>
      <trkpt lat="45.03104" lon="2.73726">
        <ele>1606.7</ele>
        <time>2021-09-13T09:41:25.000Z</time>
      </trkpt>
      <trkpt lat="45.03109" lon="2.73732">
        <ele>1607.4</ele>
        <time>2021-09-13T09:41:32.000Z</time>
      </trkpt>
      <trkpt lat="45.03116" lon="2.73736">
        <ele>1608.4</ele>
        <time>2021-09-13T09:41:40.000Z</time>
      </trkpt>
      <trkpt lat="45.03123" lon="2.73738">
        <ele>1609.3</ele>
        <time>2021-09-13T09:41:48.000Z</time>
      </trkpt>
      <trkpt lat="45.03129" lon="2.73744">
        <ele>1610.2</ele>
        <time>2021-09-13T09:41:55.000Z</time>
      </trkpt>
      <trkpt lat="45.03134" lon="2.73749">
        <ele>1611</ele>
        <time>2021-09-13T09:42:20.000Z</time>
      </trkpt>
      <trkpt lat="45.03143" lon="2.73749">
        <ele>1612.1</ele>
        <time>2021-09-13T09:42:45.000Z</time>
      </trkpt>
      <trkpt lat="45.03148" lon="2.73754">
        <ele>1612.6</ele>
        <time>2021-09-13T09:42:53.000Z</time>
      </trkpt>
      <trkpt lat="45.03155" lon="2.73757">
        <ele>1613.4</ele>
        <time>2021-09-13T09:42:59.000Z</time>
      </trkpt>
      <trkpt lat="45.03161" lon="2.73761">
        <ele>1613.9</ele>
        <time>2021-09-13T09:43:05.000Z</time>
      </trkpt>
      <trkpt lat="45.03166" lon="2.73767">
        <ele>1614.3</ele>
        <time>2021-09-13T09:43:10.000Z</time>
      </trkpt>
      <trkpt lat="45.03171" lon="2.73774">
        <ele>1614.4</ele>
        <time>2021-09-13T09:43:15.000Z</time>
      </trkpt>
      <trkpt lat="45.03177" lon="2.7378">
        <ele>1614.6</ele>
        <time>2021-09-13T09:43:21.000Z</time>
      </trkpt>
      <trkpt lat="45.03184" lon="2.73784">
        <ele>1615</ele>
        <time>2021-09-13T09:43:27.000Z</time>
      </trkpt>
      <trkpt lat="45.0319" lon="2.73788">
        <ele>1615.3</ele>
        <time>2021-09-13T09:43:33.000Z</time>
      </trkpt>
      <trkpt lat="45.03196" lon="2.73793">
        <ele>1615.6</ele>
        <time>2021-09-13T09:43:39.000Z</time>
      </trkpt>
      <trkpt lat="45.03202" lon="2.73798">
        <ele>1615.9</ele>
        <time>2021-09-13T09:43:46.000Z</time>
      </trkpt>
      <trkpt lat="45.03209" lon="2.73801">
        <ele>1616.3</ele>
        <time>2021-09-13T09:43:53.000Z</time>
      </trkpt>
      <trkpt lat="45.03215" lon="2.73804">
        <ele>1616.7</ele>
        <time>2021-09-13T09:43:59.000Z</time>
      </trkpt>
      <trkpt lat="45.03222" lon="2.73809">
        <ele>1617.1</ele>
        <time>2021-09-13T09:44:05.000Z</time>
      </trkpt>
      <trkpt lat="45.03229" lon="2.73814">
        <ele>1617.6</ele>
        <time>2021-09-13T09:44:11.000Z</time>
      </trkpt>
      <trkpt lat="45.03235" lon="2.73818">
        <ele>1618</ele>
        <time>2021-09-13T09:44:17.000Z</time>
      </trkpt>
      <trkpt lat="45.03242" lon="2.73822">
        <ele>1618.5</ele>
        <time>2021-09-13T09:44:24.000Z</time>
      </trkpt>
      <trkpt lat="45.03248" lon="2.73826">
        <ele>1618.9</ele>
        <time>2021-09-13T09:44:31.000Z</time>
      </trkpt>
      <trkpt lat="45.03255" lon="2.73831">
        <ele>1619.1</ele>
        <time>2021-09-13T09:44:46.000Z</time>
      </trkpt>
      <trkpt lat="45.03261" lon="2.73836">
        <ele>1619.2</ele>
        <time>2021-09-13T09:44:52.000Z</time>
      </trkpt>
      <trkpt lat="45.03267" lon="2.73839">
        <ele>1619.3</ele>
        <time>2021-09-13T09:44:57.000Z</time>
      </trkpt>
      <trkpt lat="45.03275" lon="2.73841">
        <ele>1619.5</ele>
        <time>2021-09-13T09:45:03.000Z</time>
      </trkpt>
      <trkpt lat="45.03282" lon="2.73846">
        <ele>1619.6</ele>
        <time>2021-09-13T09:45:09.000Z</time>
      </trkpt>
      <trkpt lat="45.03288" lon="2.73851">
        <ele>1619.7</ele>
        <time>2021-09-13T09:45:18.000Z</time>
      </trkpt>
      <trkpt lat="45.03295" lon="2.73854">
        <ele>1619.9</ele>
        <time>2021-09-13T09:45:24.000Z</time>
      </trkpt>
      <trkpt lat="45.03302" lon="2.73859">
        <ele>1620</ele>
        <time>2021-09-13T09:45:30.000Z</time>
      </trkpt>
      <trkpt lat="45.03309" lon="2.73863">
        <ele>1620.2</ele>
        <time>2021-09-13T09:45:36.000Z</time>
      </trkpt>
      <trkpt lat="45.03315" lon="2.73868">
        <ele>1620.4</ele>
        <time>2021-09-13T09:45:43.000Z</time>
      </trkpt>
      <trkpt lat="45.03321" lon="2.73874">
        <ele>1620.6</ele>
        <time>2021-09-13T09:45:50.000Z</time>
      </trkpt>
      <trkpt lat="45.03327" lon="2.73878">
        <ele>1620.8</ele>
        <time>2021-09-13T09:45:56.000Z</time>
      </trkpt>
      <trkpt lat="45.03332" lon="2.73883">
        <ele>1620.9</ele>
        <time>2021-09-13T09:46:02.000Z</time>
      </trkpt>
      <trkpt lat="45.03339" lon="2.73886">
        <ele>1621.5</ele>
        <time>2021-09-13T09:46:08.000Z</time>
      </trkpt>
      <trkpt lat="45.03345" lon="2.7389">
        <ele>1622.1</ele>
        <time>2021-09-13T09:46:14.000Z</time>
      </trkpt>
      <trkpt lat="45.03352" lon="2.73895">
        <ele>1622.8</ele>
        <time>2021-09-13T09:46:19.000Z</time>
      </trkpt>
      <trkpt lat="45.03359" lon="2.739">
        <ele>1623.5</ele>
        <time>2021-09-13T09:46:24.000Z</time>
      </trkpt>
      <trkpt lat="45.03365" lon="2.73903">
        <ele>1624.2</ele>
        <time>2021-09-13T09:46:30.000Z</time>
      </trkpt>
      <trkpt lat="45.0337" lon="2.73908">
        <ele>1624.8</ele>
        <time>2021-09-13T09:46:36.000Z</time>
      </trkpt>
      <trkpt lat="45.03376" lon="2.73913">
        <ele>1625.5</ele>
        <time>2021-09-13T09:46:43.000Z</time>
      </trkpt>
      <trkpt lat="45.03383" lon="2.73916">
        <ele>1626.3</ele>
        <time>2021-09-13T09:46:50.000Z</time>
      </trkpt>
      <trkpt lat="45.03389" lon="2.73919">
        <ele>1627</ele>
        <time>2021-09-13T09:46:56.000Z</time>
      </trkpt>
      <trkpt lat="45.03395" lon="2.73924">
        <ele>1627.7</ele>
        <time>2021-09-13T09:47:04.000Z</time>
      </trkpt>
      <trkpt lat="45.03402" lon="2.73928">
        <ele>1628.6</ele>
        <time>2021-09-13T09:47:10.000Z</time>
      </trkpt>
      <trkpt lat="45.03409" lon="2.73931">
        <ele>1629.3</ele>
        <time>2021-09-13T09:47:16.000Z</time>
      </trkpt>
      <trkpt lat="45.03415" lon="2.73934">
        <ele>1630</ele>
        <time>2021-09-13T09:47:22.000Z</time>
      </trkpt>
      <trkpt lat="45.03421" lon="2.73936">
        <ele>1630.1</ele>
        <time>2021-09-13T09:47:31.000Z</time>
      </trkpt>
      <trkpt lat="45.03428" lon="2.73939">
        <ele>1630</ele>
        <time>2021-09-13T09:48:27.000Z</time>
      </trkpt>
      <trkpt lat="45.03433" lon="2.73945">
        <ele>1629.9</ele>
        <time>2021-09-13T09:48:59.000Z</time>
      </trkpt>
      <trkpt lat="45.03439" lon="2.73948">
        <ele>1629.7</ele>
        <time>2021-09-13T09:49:04.000Z</time>
      </trkpt>
      <trkpt lat="45.03445" lon="2.73953">
        <ele>1629.6</ele>
        <time>2021-09-13T09:49:09.000Z</time>
      </trkpt>
      <trkpt lat="45.03452" lon="2.73957">
        <ele>1629.4</ele>
        <time>2021-09-13T09:49:15.000Z</time>
      </trkpt>
      <trkpt lat="45.03458" lon="2.73965">
        <ele>1629.3</ele>
        <time>2021-09-13T09:49:21.000Z</time>
      </trkpt>
      <trkpt lat="45.03464" lon="2.73972">
        <ele>1629.2</ele>
        <time>2021-09-13T09:49:27.000Z</time>
      </trkpt>
      <trkpt lat="45.03472" lon="2.73979">
        <ele>1628.9</ele>
        <time>2021-09-13T09:49:33.000Z</time>
      </trkpt>
      <trkpt lat="45.03478" lon="2.73982">
        <ele>1628.7</ele>
        <time>2021-09-13T09:49:39.000Z</time>
      </trkpt>
      <trkpt lat="45.03486" lon="2.73985">
        <ele>1628.5</ele>
        <time>2021-09-13T09:49:48.000Z</time>
      </trkpt>
      <trkpt lat="45.03492" lon="2.7399">
        <ele>1628.3</ele>
        <time>2021-09-13T09:49:54.000Z</time>
      </trkpt>
      <trkpt lat="45.03497" lon="2.73996">
        <ele>1628.1</ele>
        <time>2021-09-13T09:49:59.000Z</time>
      </trkpt>
      <trkpt lat="45.03503" lon="2.73999">
        <ele>1627.6</ele>
        <time>2021-09-13T09:50:34.000Z</time>
      </trkpt>
      <trkpt lat="45.0351" lon="2.74001">
        <ele>1626.3</ele>
        <time>2021-09-13T09:51:15.000Z</time>
      </trkpt>
      <trkpt lat="45.03517" lon="2.74">
        <ele>1626</ele>
        <time>2021-09-13T09:51:35.000Z</time>
      </trkpt>
      <trkpt lat="45.03523" lon="2.74002">
        <ele>1624.4</ele>
        <time>2021-09-13T09:51:40.000Z</time>
      </trkpt>
      <trkpt lat="45.03529" lon="2.74007">
        <ele>1621.6</ele>
        <time>2021-09-13T09:51:45.000Z</time>
      </trkpt>
      <trkpt lat="45.03535" lon="2.7401">
        <ele>1619.7</ele>
        <time>2021-09-13T09:52:10.000Z</time>
      </trkpt>
      <trkpt lat="45.03542" lon="2.74009">
        <ele>1619.4</ele>
        <time>2021-09-13T09:52:19.000Z</time>
      </trkpt>
      <trkpt lat="45.03549" lon="2.74007">
        <ele>1619.5</ele>
        <time>2021-09-13T09:52:31.000Z</time>
      </trkpt>
      <trkpt lat="45.03556" lon="2.74006">
        <ele>1619.1</ele>
        <time>2021-09-13T09:52:41.000Z</time>
      </trkpt>
      <trkpt lat="45.03562" lon="2.74007">
        <ele>1618.1</ele>
        <time>2021-09-13T09:52:46.000Z</time>
      </trkpt>
      <trkpt lat="45.0357" lon="2.74011">
        <ele>1615.9</ele>
        <time>2021-09-13T09:52:51.000Z</time>
      </trkpt>
      <trkpt lat="45.03578" lon="2.74017">
        <ele>1613.2</ele>
        <time>2021-09-13T09:52:57.000Z</time>
      </trkpt>
      <trkpt lat="45.03585" lon="2.74024">
        <ele>1610.6</ele>
        <time>2021-09-13T09:53:03.000Z</time>
      </trkpt>
      <trkpt lat="45.03591" lon="2.7403">
        <ele>1609</ele>
        <time>2021-09-13T09:53:09.000Z</time>
      </trkpt>
      <trkpt lat="45.03595" lon="2.74038">
        <ele>1606.9</ele>
        <time>2021-09-13T09:53:30.000Z</time>
      </trkpt>
      <trkpt lat="45.03601" lon="2.74044">
        <ele>1605.8</ele>
        <time>2021-09-13T09:53:37.000Z</time>
      </trkpt>
      <trkpt lat="45.03608" lon="2.74048">
        <ele>1605.4</ele>
        <time>2021-09-13T09:53:44.000Z</time>
      </trkpt>
      <trkpt lat="45.03615" lon="2.74051">
        <ele>1605.4</ele>
        <time>2021-09-13T09:53:52.000Z</time>
      </trkpt>
      <trkpt lat="45.03622" lon="2.74052">
        <ele>1605.9</ele>
        <time>2021-09-13T09:54:02.000Z</time>
      </trkpt>
      <trkpt lat="45.03628" lon="2.74053">
        <ele>1606.3</ele>
        <time>2021-09-13T09:54:10.000Z</time>
      </trkpt>
      <trkpt lat="45.03635" lon="2.74053">
        <ele>1607.1</ele>
        <time>2021-09-13T09:54:17.000Z</time>
      </trkpt>
      <trkpt lat="45.03641" lon="2.74054">
        <ele>1607.6</ele>
        <time>2021-09-13T09:54:26.000Z</time>
      </trkpt>
      <trkpt lat="45.03648" lon="2.74058">
        <ele>1607.8</ele>
        <time>2021-09-13T09:54:33.000Z</time>
      </trkpt>
      <trkpt lat="45.03654" lon="2.74062">
        <ele>1608.1</ele>
        <time>2021-09-13T09:54:41.000Z</time>
      </trkpt>
      <trkpt lat="45.03661" lon="2.74065">
        <ele>1608.7</ele>
        <time>2021-09-13T09:54:51.000Z</time>
      </trkpt>
      <trkpt lat="45.03667" lon="2.74068">
        <ele>1609.4</ele>
        <time>2021-09-13T09:55:00.000Z</time>
      </trkpt>
      <trkpt lat="45.03673" lon="2.74072">
        <ele>1610.2</ele>
        <time>2021-09-13T09:55:09.000Z</time>
      </trkpt>
      <trkpt lat="45.03679" lon="2.74076">
        <ele>1611.2</ele>
        <time>2021-09-13T09:55:17.000Z</time>
      </trkpt>
      <trkpt lat="45.03685" lon="2.74081">
        <ele>1612.3</ele>
        <time>2021-09-13T09:55:26.000Z</time>
      </trkpt>
      <trkpt lat="45.03692" lon="2.74085">
        <ele>1613.3</ele>
        <time>2021-09-13T09:55:33.000Z</time>
      </trkpt>
      <trkpt lat="45.03698" lon="2.74091">
        <ele>1613</ele>
        <time>2021-09-13T09:55:40.000Z</time>
      </trkpt>
      <trkpt lat="45.03704" lon="2.74096">
        <ele>1613.2</ele>
        <time>2021-09-13T09:55:47.000Z</time>
      </trkpt>
      <trkpt lat="45.03711" lon="2.74102">
        <ele>1613.4</ele>
        <time>2021-09-13T09:55:55.000Z</time>
      </trkpt>
      <trkpt lat="45.03717" lon="2.74107">
        <ele>1613.7</ele>
        <time>2021-09-13T09:56:01.000Z</time>
      </trkpt>
      <trkpt lat="45.03723" lon="2.7411">
        <ele>1614.6</ele>
        <time>2021-09-13T09:56:07.000Z</time>
      </trkpt>
      <trkpt lat="45.03729" lon="2.74113">
        <ele>1615.5</ele>
        <time>2021-09-13T09:56:16.000Z</time>
      </trkpt>
      <trkpt lat="45.03736" lon="2.74115">
        <ele>1617</ele>
        <time>2021-09-13T09:56:23.000Z</time>
      </trkpt>
      <trkpt lat="45.03742" lon="2.74119">
        <ele>1617.9</ele>
        <time>2021-09-13T09:56:28.000Z</time>
      </trkpt>
      <trkpt lat="45.03748" lon="2.74123">
        <ele>1618.8</ele>
        <time>2021-09-13T09:56:34.000Z</time>
      </trkpt>
      <trkpt lat="45.03754" lon="2.7413">
        <ele>1618.8</ele>
        <time>2021-09-13T09:56:41.000Z</time>
      </trkpt>
      <trkpt lat="45.03758" lon="2.74136">
        <ele>1618.5</ele>
        <time>2021-09-13T09:56:49.000Z</time>
      </trkpt>
      <trkpt lat="45.03763" lon="2.74143">
        <ele>1618.4</ele>
        <time>2021-09-13T09:56:58.000Z</time>
      </trkpt>
      <trkpt lat="45.03769" lon="2.74148">
        <ele>1619</ele>
        <time>2021-09-13T09:57:07.000Z</time>
      </trkpt>
      <trkpt lat="45.03775" lon="2.74153">
        <ele>1619.8</ele>
        <time>2021-09-13T09:57:14.000Z</time>
      </trkpt>
      <trkpt lat="45.03781" lon="2.74158">
        <ele>1620.8</ele>
        <time>2021-09-13T09:57:21.000Z</time>
      </trkpt>
      <trkpt lat="45.03787" lon="2.74162">
        <ele>1622.1</ele>
        <time>2021-09-13T09:57:28.000Z</time>
      </trkpt>
      <trkpt lat="45.03793" lon="2.74167">
        <ele>1623.3</ele>
        <time>2021-09-13T09:57:37.000Z</time>
      </trkpt>
      <trkpt lat="45.03799" lon="2.74171">
        <ele>1623.7</ele>
        <time>2021-09-13T09:57:45.000Z</time>
      </trkpt>
      <trkpt lat="45.03806" lon="2.74176">
        <ele>1624.2</ele>
        <time>2021-09-13T09:57:54.000Z</time>
      </trkpt>
      <trkpt lat="45.03811" lon="2.74181">
        <ele>1624.2</ele>
        <time>2021-09-13T09:58:03.000Z</time>
      </trkpt>
      <trkpt lat="45.03817" lon="2.74186">
        <ele>1624.5</ele>
        <time>2021-09-13T09:58:10.000Z</time>
      </trkpt>
      <trkpt lat="45.03822" lon="2.74193">
        <ele>1624</ele>
        <time>2021-09-13T09:58:19.000Z</time>
      </trkpt>
      <trkpt lat="45.03828" lon="2.74196">
        <ele>1625.1</ele>
        <time>2021-09-13T09:58:27.000Z</time>
      </trkpt>
      <trkpt lat="45.03835" lon="2.74199">
        <ele>1626.4</ele>
        <time>2021-09-13T09:58:34.000Z</time>
      </trkpt>
      <trkpt lat="45.03841" lon="2.74201">
        <ele>1627</ele>
        <time>2021-09-13T09:58:40.000Z</time>
      </trkpt>
      <trkpt lat="45.03847" lon="2.74205">
        <ele>1627.2</ele>
        <time>2021-09-13T09:58:47.000Z</time>
      </trkpt>
      <trkpt lat="45.03854" lon="2.74208">
        <ele>1627.9</ele>
        <time>2021-09-13T09:58:54.000Z</time>
      </trkpt>
      <trkpt lat="45.03861" lon="2.74211">
        <ele>1628.7</ele>
        <time>2021-09-13T09:59:00.000Z</time>
      </trkpt>
      <trkpt lat="45.03867" lon="2.74215">
        <ele>1629.2</ele>
        <time>2021-09-13T09:59:06.000Z</time>
      </trkpt>
      <trkpt lat="45.03872" lon="2.7422">
        <ele>1629.4</ele>
        <time>2021-09-13T09:59:15.000Z</time>
      </trkpt>
      <trkpt lat="45.03878" lon="2.74226">
        <ele>1629.7</ele>
        <time>2021-09-13T09:59:23.000Z</time>
      </trkpt>
      <trkpt lat="45.03885" lon="2.74229">
        <ele>1631</ele>
        <time>2021-09-13T09:59:32.000Z</time>
      </trkpt>
      <trkpt lat="45.03892" lon="2.74232">
        <ele>1632.3</ele>
        <time>2021-09-13T09:59:40.000Z</time>
      </trkpt>
      <trkpt lat="45.03899" lon="2.74234">
        <ele>1633.8</ele>
        <time>2021-09-13T09:59:47.000Z</time>
      </trkpt>
      <trkpt lat="45.03905" lon="2.74236">
        <ele>1635.2</ele>
        <time>2021-09-13T09:59:54.000Z</time>
      </trkpt>
      <trkpt lat="45.03912" lon="2.74236">
        <ele>1637.1</ele>
        <time>2021-09-13T10:00:00.000Z</time>
      </trkpt>
      <trkpt lat="45.03918" lon="2.74237">
        <ele>1638.5</ele>
        <time>2021-09-13T10:00:04.000Z</time>
      </trkpt>
      <trkpt lat="45.03925" lon="2.74238">
        <ele>1639.7</ele>
        <time>2021-09-13T10:00:10.000Z</time>
      </trkpt>
      <trkpt lat="45.03927" lon="2.74247">
        <ele>1639.3</ele>
        <time>2021-09-13T10:00:21.000Z</time>
      </trkpt>
      <trkpt lat="45.03932" lon="2.74255">
        <ele>1638.4</ele>
        <time>2021-09-13T10:00:26.000Z</time>
      </trkpt>
      <trkpt lat="45.0394" lon="2.7426">
        <ele>1638.4</ele>
        <time>2021-09-13T10:00:32.000Z</time>
      </trkpt>
      <trkpt lat="45.03948" lon="2.74267">
        <ele>1637.9</ele>
        <time>2021-09-13T10:00:38.000Z</time>
      </trkpt>
      <trkpt lat="45.03955" lon="2.74273">
        <ele>1637.6</ele>
        <time>2021-09-13T10:00:44.000Z</time>
      </trkpt>
      <trkpt lat="45.03962" lon="2.74279">
        <ele>1637.6</ele>
        <time>2021-09-13T10:00:50.000Z</time>
      </trkpt>
      <trkpt lat="45.03968" lon="2.74285">
        <ele>1637.4</ele>
        <time>2021-09-13T10:00:56.000Z</time>
      </trkpt>
      <trkpt lat="45.03976" lon="2.74291">
        <ele>1637.9</ele>
        <time>2021-09-13T10:01:02.000Z</time>
      </trkpt>
      <trkpt lat="45.03984" lon="2.74298">
        <ele>1638.4</ele>
        <time>2021-09-13T10:01:08.000Z</time>
      </trkpt>
      <trkpt lat="45.03992" lon="2.74304">
        <ele>1639.2</ele>
        <time>2021-09-13T10:01:14.000Z</time>
      </trkpt>
      <trkpt lat="45.04001" lon="2.74309">
        <ele>1640.7</ele>
        <time>2021-09-13T10:01:20.000Z</time>
      </trkpt>
      <trkpt lat="45.04008" lon="2.74313">
        <ele>1641.3</ele>
        <time>2021-09-13T10:01:26.000Z</time>
      </trkpt>
      <trkpt lat="45.04015" lon="2.74318">
        <ele>1641.8</ele>
        <time>2021-09-13T10:01:57.000Z</time>
      </trkpt>
      <trkpt lat="45.04021" lon="2.74323">
        <ele>1642.3</ele>
        <time>2021-09-13T10:02:04.000Z</time>
      </trkpt>
      <trkpt lat="45.04026" lon="2.74329">
        <ele>1642.5</ele>
        <time>2021-09-13T10:02:09.000Z</time>
      </trkpt>
      <trkpt lat="45.04031" lon="2.74336">
        <ele>1642.5</ele>
        <time>2021-09-13T10:02:15.000Z</time>
      </trkpt>
      <trkpt lat="45.04037" lon="2.74341">
        <ele>1642.8</ele>
        <time>2021-09-13T10:02:20.000Z</time>
      </trkpt>
      <trkpt lat="45.04044" lon="2.74346">
        <ele>1643.5</ele>
        <time>2021-09-13T10:02:25.000Z</time>
      </trkpt>
      <trkpt lat="45.04048" lon="2.74353">
        <ele>1642.9</ele>
        <time>2021-09-13T10:02:31.000Z</time>
      </trkpt>
      <trkpt lat="45.04053" lon="2.74362">
        <ele>1642.3</ele>
        <time>2021-09-13T10:02:38.000Z</time>
      </trkpt>
      <trkpt lat="45.04057" lon="2.7437">
        <ele>1641.8</ele>
        <time>2021-09-13T10:02:46.000Z</time>
      </trkpt>
      <trkpt lat="45.04063" lon="2.74376">
        <ele>1642.5</ele>
        <time>2021-09-13T10:02:53.000Z</time>
      </trkpt>
      <trkpt lat="45.04068" lon="2.74382">
        <ele>1642.9</ele>
        <time>2021-09-13T10:02:58.000Z</time>
      </trkpt>
      <trkpt lat="45.04072" lon="2.7439">
        <ele>1642.7</ele>
        <time>2021-09-13T10:03:07.000Z</time>
      </trkpt>
      <trkpt lat="45.04073" lon="2.74399">
        <ele>1641.3</ele>
        <time>2021-09-13T10:05:00.000Z</time>
      </trkpt>
      <trkpt lat="45.04079" lon="2.74405">
        <ele>1642.4</ele>
        <time>2021-09-13T10:05:06.000Z</time>
      </trkpt>
      <trkpt lat="45.04084" lon="2.74411">
        <ele>1643.2</ele>
        <time>2021-09-13T10:05:12.000Z</time>
      </trkpt>
      <trkpt lat="45.0409" lon="2.74416">
        <ele>1644.3</ele>
        <time>2021-09-13T10:05:18.000Z</time>
      </trkpt>
      <trkpt lat="45.04096" lon="2.74422">
        <ele>1645.2</ele>
        <time>2021-09-13T10:05:24.000Z</time>
      </trkpt>
      <trkpt lat="45.04101" lon="2.74429">
        <ele>1645.6</ele>
        <time>2021-09-13T10:05:31.000Z</time>
      </trkpt>
      <trkpt lat="45.04105" lon="2.74437">
        <ele>1645.8</ele>
        <time>2021-09-13T10:05:40.000Z</time>
      </trkpt>
      <trkpt lat="45.04109" lon="2.74445">
        <ele>1646</ele>
        <time>2021-09-13T10:05:47.000Z</time>
      </trkpt>
      <trkpt lat="45.04113" lon="2.74454">
        <ele>1646.2</ele>
        <time>2021-09-13T10:05:56.000Z</time>
      </trkpt>
      <trkpt lat="45.04115" lon="2.74462">
        <ele>1645.9</ele>
        <time>2021-09-13T10:06:05.000Z</time>
      </trkpt>
      <trkpt lat="45.0412" lon="2.7447">
        <ele>1646.9</ele>
        <time>2021-09-13T10:06:16.000Z</time>
      </trkpt>
      <trkpt lat="45.04124" lon="2.74477">
        <ele>1647.8</ele>
        <time>2021-09-13T10:06:24.000Z</time>
      </trkpt>
      <trkpt lat="45.04128" lon="2.74485">
        <ele>1648.7</ele>
        <time>2021-09-13T10:06:30.000Z</time>
      </trkpt>
      <trkpt lat="45.04134" lon="2.74493">
        <ele>1650.6</ele>
        <time>2021-09-13T10:06:37.000Z</time>
      </trkpt>
      <trkpt lat="45.04138" lon="2.74499">
        <ele>1652</ele>
        <time>2021-09-13T10:06:45.000Z</time>
      </trkpt>
      <trkpt lat="45.04139" lon="2.7451">
        <ele>1652.1</ele>
        <time>2021-09-13T10:07:02.000Z</time>
      </trkpt>
      <trkpt lat="45.04145" lon="2.74515">
        <ele>1654.9</ele>
        <time>2021-09-13T10:07:10.000Z</time>
      </trkpt>
      <trkpt lat="45.0415" lon="2.74522">
        <ele>1657.2</ele>
        <time>2021-09-13T10:07:17.000Z</time>
      </trkpt>
      <trkpt lat="45.04156" lon="2.74526">
        <ele>1660</ele>
        <time>2021-09-13T10:07:25.000Z</time>
      </trkpt>
      <trkpt lat="45.04162" lon="2.74531">
        <ele>1662.9</ele>
        <time>2021-09-13T10:07:33.000Z</time>
      </trkpt>
      <trkpt lat="45.04168" lon="2.74535">
        <ele>1665.5</ele>
        <time>2021-09-13T10:07:48.000Z</time>
      </trkpt>
      <trkpt lat="45.04175" lon="2.74537">
        <ele>1667.5</ele>
        <time>2021-09-13T10:07:55.000Z</time>
      </trkpt>
      <trkpt lat="45.04181" lon="2.74538">
        <ele>1669.1</ele>
        <time>2021-09-13T10:08:11.000Z</time>
      </trkpt>
      <trkpt lat="45.04188" lon="2.74538">
        <ele>1671.1</ele>
        <time>2021-09-13T10:08:20.000Z</time>
      </trkpt>
      <trkpt lat="45.04195" lon="2.7454">
        <ele>1673.1</ele>
        <time>2021-09-13T10:08:26.000Z</time>
      </trkpt>
      <trkpt lat="45.04201" lon="2.74544">
        <ele>1674.9</ele>
        <time>2021-09-13T10:08:33.000Z</time>
      </trkpt>
      <trkpt lat="45.04206" lon="2.74551">
        <ele>1676.6</ele>
        <time>2021-09-13T10:08:43.000Z</time>
      </trkpt>
      <trkpt lat="45.04212" lon="2.74554">
        <ele>1678.6</ele>
        <time>2021-09-13T10:09:05.000Z</time>
      </trkpt>
      <trkpt lat="45.04215" lon="2.74563">
        <ele>1679.9</ele>
        <time>2021-09-13T10:09:42.000Z</time>
      </trkpt>
      <trkpt lat="45.0422" lon="2.7457">
        <ele>1681.9</ele>
        <time>2021-09-13T10:10:39.000Z</time>
      </trkpt>
      <trkpt lat="45.04222" lon="2.74579">
        <ele>1683</ele>
        <time>2021-09-13T10:10:45.000Z</time>
      </trkpt>
      <trkpt lat="45.04224" lon="2.74589">
        <ele>1684.5</ele>
        <time>2021-09-13T10:10:51.000Z</time>
      </trkpt>
      <trkpt lat="45.04228" lon="2.74598">
        <ele>1686.8</ele>
        <time>2021-09-13T10:10:57.000Z</time>
      </trkpt>
      <trkpt lat="45.04233" lon="2.74607">
        <ele>1689.4</ele>
        <time>2021-09-13T10:11:03.000Z</time>
      </trkpt>
      <trkpt lat="45.04234" lon="2.74619">
        <ele>1690.9</ele>
        <time>2021-09-13T10:11:09.000Z</time>
      </trkpt>
      <trkpt lat="45.04235" lon="2.74632">
        <ele>1692.5</ele>
        <time>2021-09-13T10:11:15.000Z</time>
      </trkpt>
      <trkpt lat="45.04235" lon="2.74643">
        <ele>1693.5</ele>
        <time>2021-09-13T10:11:21.000Z</time>
      </trkpt>
      <trkpt lat="45.04238" lon="2.74654">
        <ele>1695.6</ele>
        <time>2021-09-13T10:11:27.000Z</time>
      </trkpt>
      <trkpt lat="45.04243" lon="2.7466">
        <ele>1697.9</ele>
        <time>2021-09-13T10:11:33.000Z</time>
      </trkpt>
      <trkpt lat="45.0425" lon="2.74668">
        <ele>1701.1</ele>
        <time>2021-09-13T10:11:39.000Z</time>
      </trkpt>
      <trkpt lat="45.04255" lon="2.74677">
        <ele>1701.2</ele>
        <time>2021-09-13T10:11:45.000Z</time>
      </trkpt>
      <trkpt lat="45.0426" lon="2.74683">
        <ele>1701.1</ele>
        <time>2021-09-13T10:11:56.000Z</time>
      </trkpt>
      <trkpt lat="45.04267" lon="2.74686">
        <ele>1700.5</ele>
        <time>2021-09-13T10:12:03.000Z</time>
      </trkpt>
      <trkpt lat="45.04272" lon="2.74694">
        <ele>1700.9</ele>
        <time>2021-09-13T10:12:10.000Z</time>
      </trkpt>
      <trkpt lat="45.04276" lon="2.74703">
        <ele>1701.6</ele>
        <time>2021-09-13T10:12:18.000Z</time>
      </trkpt>
      <trkpt lat="45.04281" lon="2.74708">
        <ele>1701.9</ele>
        <time>2021-09-13T10:12:26.000Z</time>
      </trkpt>
      <trkpt lat="45.04288" lon="2.74711">
        <ele>1701.7</ele>
        <time>2021-09-13T10:13:04.000Z</time>
      </trkpt>
      <trkpt lat="45.04294" lon="2.74718">
        <ele>1702.4</ele>
        <time>2021-09-13T10:13:10.000Z</time>
      </trkpt>
      <trkpt lat="45.04299" lon="2.74725">
        <ele>1703.2</ele>
        <time>2021-09-13T10:13:17.000Z</time>
      </trkpt>
      <trkpt lat="45.04294" lon="2.7473">
        <ele>1704.3</ele>
        <time>2021-09-13T10:17:47.000Z</time>
      </trkpt>
      <trkpt lat="45.04299" lon="2.74735">
        <ele>1704.9</ele>
        <time>2021-09-13T10:18:18.000Z</time>
      </trkpt>
      <trkpt lat="45.04306" lon="2.7474">
        <ele>1705.5</ele>
        <time>2021-09-13T10:18:24.000Z</time>
      </trkpt>
      <trkpt lat="45.04312" lon="2.74745">
        <ele>1706.3</ele>
        <time>2021-09-13T10:18:29.000Z</time>
      </trkpt>
      <trkpt lat="45.04318" lon="2.74751">
        <ele>1707.3</ele>
        <time>2021-09-13T10:18:34.000Z</time>
      </trkpt>
      <trkpt lat="45.04325" lon="2.74759">
        <ele>1708.6</ele>
        <time>2021-09-13T10:18:39.000Z</time>
      </trkpt>
      <trkpt lat="45.04333" lon="2.74765">
        <ele>1709.7</ele>
        <time>2021-09-13T10:18:45.000Z</time>
      </trkpt>
      <trkpt lat="45.04341" lon="2.74775">
        <ele>1709.7</ele>
        <time>2021-09-13T10:18:51.000Z</time>
      </trkpt>
      <trkpt lat="45.04349" lon="2.74783">
        <ele>1709.4</ele>
        <time>2021-09-13T10:18:57.000Z</time>
      </trkpt>
      <trkpt lat="45.04354" lon="2.74791">
        <ele>1710</ele>
        <time>2021-09-13T10:19:03.000Z</time>
      </trkpt>
      <trkpt lat="45.0436" lon="2.748">
        <ele>1710.8</ele>
        <time>2021-09-13T10:19:09.000Z</time>
      </trkpt>
      <trkpt lat="45.04367" lon="2.7481">
        <ele>1711.9</ele>
        <time>2021-09-13T10:19:15.000Z</time>
      </trkpt>
      <trkpt lat="45.04375" lon="2.74817">
        <ele>1712.3</ele>
        <time>2021-09-13T10:19:21.000Z</time>
      </trkpt>
      <trkpt lat="45.04381" lon="2.74825">
        <ele>1713.5</ele>
        <time>2021-09-13T10:19:27.000Z</time>
      </trkpt>
      <trkpt lat="45.04388" lon="2.74831">
        <ele>1714.1</ele>
        <time>2021-09-13T10:19:33.000Z</time>
      </trkpt>
      <trkpt lat="45.04395" lon="2.74836">
        <ele>1714.4</ele>
        <time>2021-09-13T10:19:39.000Z</time>
      </trkpt>
      <trkpt lat="45.04403" lon="2.74841">
        <ele>1714.4</ele>
        <time>2021-09-13T10:19:45.000Z</time>
      </trkpt>
      <trkpt lat="45.04411" lon="2.74843">
        <ele>1713.9</ele>
        <time>2021-09-13T10:19:51.000Z</time>
      </trkpt>
      <trkpt lat="45.04419" lon="2.74841">
        <ele>1711.9</ele>
        <time>2021-09-13T10:19:57.000Z</time>
      </trkpt>
      <trkpt lat="45.04425" lon="2.74846">
        <ele>1710.8</ele>
        <time>2021-09-13T10:20:04.000Z</time>
      </trkpt>
      <trkpt lat="45.0443" lon="2.74853">
        <ele>1710.7</ele>
        <time>2021-09-13T10:20:14.000Z</time>
      </trkpt>
      <trkpt lat="45.04436" lon="2.74859">
        <ele>1710.2</ele>
        <time>2021-09-13T10:20:22.000Z</time>
      </trkpt>
      <trkpt lat="45.04442" lon="2.74865">
        <ele>1709.8</ele>
        <time>2021-09-13T10:20:30.000Z</time>
      </trkpt>
      <trkpt lat="45.04448" lon="2.74872">
        <ele>1709.9</ele>
        <time>2021-09-13T10:20:36.000Z</time>
      </trkpt>
      <trkpt lat="45.04453" lon="2.74878">
        <ele>1710.1</ele>
        <time>2021-09-13T10:20:41.000Z</time>
      </trkpt>
      <trkpt lat="45.0446" lon="2.74884">
        <ele>1709.8</ele>
        <time>2021-09-13T10:20:47.000Z</time>
      </trkpt>
      <trkpt lat="45.04466" lon="2.74889">
        <ele>1709.7</ele>
        <time>2021-09-13T10:20:54.000Z</time>
      </trkpt>
      <trkpt lat="45.04472" lon="2.74895">
        <ele>1710</ele>
        <time>2021-09-13T10:20:59.000Z</time>
      </trkpt>
      <trkpt lat="45.04476" lon="2.74902">
        <ele>1711.4</ele>
        <time>2021-09-13T10:21:05.000Z</time>
      </trkpt>
      <trkpt lat="45.04481" lon="2.74909">
        <ele>1712.6</ele>
        <time>2021-09-13T10:21:10.000Z</time>
      </trkpt>
      <trkpt lat="45.04488" lon="2.74912">
        <ele>1712</ele>
        <time>2021-09-13T10:21:17.000Z</time>
      </trkpt>
      <trkpt lat="45.04495" lon="2.74914">
        <ele>1711.1</ele>
        <time>2021-09-13T10:21:22.000Z</time>
      </trkpt>
      <trkpt lat="45.04502" lon="2.74915">
        <ele>1709.5</ele>
        <time>2021-09-13T10:21:29.000Z</time>
      </trkpt>
      <trkpt lat="45.04508" lon="2.74921">
        <ele>1709.3</ele>
        <time>2021-09-13T10:21:36.000Z</time>
      </trkpt>
      <trkpt lat="45.04513" lon="2.74927">
        <ele>1709.4</ele>
        <time>2021-09-13T10:21:41.000Z</time>
      </trkpt>
      <trkpt lat="45.04519" lon="2.74931">
        <ele>1708.5</ele>
        <time>2021-09-13T10:21:50.000Z</time>
      </trkpt>
      <trkpt lat="45.04523" lon="2.74939">
        <ele>1709.8</ele>
        <time>2021-09-13T10:22:00.000Z</time>
      </trkpt>
      <trkpt lat="45.04528" lon="2.74945">
        <ele>1710.1</ele>
        <time>2021-09-13T10:22:11.000Z</time>
      </trkpt>
      <trkpt lat="45.04535" lon="2.74948">
        <ele>1708.7</ele>
        <time>2021-09-13T10:22:18.000Z</time>
      </trkpt>
      <trkpt lat="45.04543" lon="2.74948">
        <ele>1705.9</ele>
        <time>2021-09-13T10:22:26.000Z</time>
      </trkpt>
      <trkpt lat="45.0455" lon="2.74946">
        <ele>1702.6</ele>
        <time>2021-09-13T10:22:32.000Z</time>
      </trkpt>
      <trkpt lat="45.04558" lon="2.74946">
        <ele>1699.7</ele>
        <time>2021-09-13T10:22:38.000Z</time>
      </trkpt>
      <trkpt lat="45.04565" lon="2.74944">
        <ele>1696.4</ele>
        <time>2021-09-13T10:22:44.000Z</time>
      </trkpt>
      <trkpt lat="45.04572" lon="2.74946">
        <ele>1694.7</ele>
        <time>2021-09-13T10:23:00.000Z</time>
      </trkpt>
      <trkpt lat="45.04579" lon="2.74949">
        <ele>1693.5</ele>
        <time>2021-09-13T10:23:07.000Z</time>
      </trkpt>
      <trkpt lat="45.04586" lon="2.74952">
        <ele>1692.6</ele>
        <time>2021-09-13T10:23:12.000Z</time>
      </trkpt>
      <trkpt lat="45.04593" lon="2.74955">
        <ele>1692.2</ele>
        <time>2021-09-13T10:23:16.000Z</time>
      </trkpt>
      <trkpt lat="45.046" lon="2.74959">
        <ele>1692.3</ele>
        <time>2021-09-13T10:23:21.000Z</time>
      </trkpt>
      <trkpt lat="45.04606" lon="2.74963">
        <ele>1692.6</ele>
        <time>2021-09-13T10:23:27.000Z</time>
      </trkpt>
      <trkpt lat="45.04613" lon="2.74964">
        <ele>1691.4</ele>
        <time>2021-09-13T10:23:34.000Z</time>
      </trkpt>
      <trkpt lat="45.0462" lon="2.74967">
        <ele>1691.1</ele>
        <time>2021-09-13T10:23:40.000Z</time>
      </trkpt>
      <trkpt lat="45.04627" lon="2.7497">
        <ele>1690.9</ele>
        <time>2021-09-13T10:23:46.000Z</time>
      </trkpt>
      <trkpt lat="45.04633" lon="2.74973">
        <ele>1690.8</ele>
        <time>2021-09-13T10:23:51.000Z</time>
      </trkpt>
      <trkpt lat="45.04641" lon="2.74976">
        <ele>1690.4</ele>
        <time>2021-09-13T10:23:57.000Z</time>
      </trkpt>
      <trkpt lat="45.04647" lon="2.74981">
        <ele>1691.3</ele>
        <time>2021-09-13T10:24:03.000Z</time>
      </trkpt>
      <trkpt lat="45.04656" lon="2.74985">
        <ele>1691.2</ele>
        <time>2021-09-13T10:24:09.000Z</time>
      </trkpt>
      <trkpt lat="45.04663" lon="2.74991">
        <ele>1692.5</ele>
        <time>2021-09-13T10:24:15.000Z</time>
      </trkpt>
      <trkpt lat="45.04671" lon="2.74995">
        <ele>1692.6</ele>
        <time>2021-09-13T10:24:21.000Z</time>
      </trkpt>
      <trkpt lat="45.04676" lon="2.75002">
        <ele>1694.7</ele>
        <time>2021-09-13T10:24:27.000Z</time>
      </trkpt>
      <trkpt lat="45.04684" lon="2.75005">
        <ele>1694</ele>
        <time>2021-09-13T10:24:33.000Z</time>
      </trkpt>
      <trkpt lat="45.04692" lon="2.75007">
        <ele>1693</ele>
        <time>2021-09-13T10:24:39.000Z</time>
      </trkpt>
      <trkpt lat="45.04699" lon="2.75012">
        <ele>1693.4</ele>
        <time>2021-09-13T10:24:45.000Z</time>
      </trkpt>
      <trkpt lat="45.04707" lon="2.75016">
        <ele>1693.1</ele>
        <time>2021-09-13T10:24:51.000Z</time>
      </trkpt>
      <trkpt lat="45.04713" lon="2.75024">
        <ele>1694.9</ele>
        <time>2021-09-13T10:24:57.000Z</time>
      </trkpt>
      <trkpt lat="45.04719" lon="2.75032">
        <ele>1696.6</ele>
        <time>2021-09-13T10:25:03.000Z</time>
      </trkpt>
      <trkpt lat="45.04724" lon="2.75039">
        <ele>1698.1</ele>
        <time>2021-09-13T10:25:09.000Z</time>
      </trkpt>
      <trkpt lat="45.04728" lon="2.75047">
        <ele>1700.2</ele>
        <time>2021-09-13T10:25:15.000Z</time>
      </trkpt>
      <trkpt lat="45.04733" lon="2.75056">
        <ele>1702.4</ele>
        <time>2021-09-13T10:25:21.000Z</time>
      </trkpt>
      <trkpt lat="45.04738" lon="2.75067">
        <ele>1705.3</ele>
        <time>2021-09-13T10:25:27.000Z</time>
      </trkpt>
      <trkpt lat="45.04742" lon="2.75076">
        <ele>1707.6</ele>
        <time>2021-09-13T10:25:33.000Z</time>
      </trkpt>
      <trkpt lat="45.04745" lon="2.75085">
        <ele>1709.9</ele>
        <time>2021-09-13T10:25:40.000Z</time>
      </trkpt>
      <trkpt lat="45.04747" lon="2.75095">
        <ele>1711.4</ele>
        <time>2021-09-13T10:25:46.000Z</time>
      </trkpt>
      <trkpt lat="45.04752" lon="2.75103">
        <ele>1711.4</ele>
        <time>2021-09-13T10:25:52.000Z</time>
      </trkpt>
      <trkpt lat="45.04758" lon="2.7511">
        <ele>1710.2</ele>
        <time>2021-09-13T10:25:57.000Z</time>
      </trkpt>
      <trkpt lat="45.04764" lon="2.75118">
        <ele>1709.4</ele>
        <time>2021-09-13T10:26:03.000Z</time>
      </trkpt>
      <trkpt lat="45.0477" lon="2.75127">
        <ele>1708.8</ele>
        <time>2021-09-13T10:26:09.000Z</time>
      </trkpt>
      <trkpt lat="45.04775" lon="2.75136">
        <ele>1708.7</ele>
        <time>2021-09-13T10:26:15.000Z</time>
      </trkpt>
      <trkpt lat="45.04779" lon="2.75145">
        <ele>1709.1</ele>
        <time>2021-09-13T10:26:21.000Z</time>
      </trkpt>
      <trkpt lat="45.04785" lon="2.75152">
        <ele>1708.3</ele>
        <time>2021-09-13T10:26:27.000Z</time>
      </trkpt>
      <trkpt lat="45.04791" lon="2.75158">
        <ele>1707.2</ele>
        <time>2021-09-13T10:26:33.000Z</time>
      </trkpt>
      <trkpt lat="45.04797" lon="2.75162">
        <ele>1705.7</ele>
        <time>2021-09-13T10:26:53.000Z</time>
      </trkpt>
      <trkpt lat="45.04803" lon="2.75168">
        <ele>1704.4</ele>
        <time>2021-09-13T10:26:59.000Z</time>
      </trkpt>
      <trkpt lat="45.04809" lon="2.75173">
        <ele>1702.3</ele>
        <time>2021-09-13T10:27:04.000Z</time>
      </trkpt>
      <trkpt lat="45.04816" lon="2.75177">
        <ele>1700</ele>
        <time>2021-09-13T10:27:10.000Z</time>
      </trkpt>
      <trkpt lat="45.04822" lon="2.75183">
        <ele>1698.5</ele>
        <time>2021-09-13T10:27:15.000Z</time>
      </trkpt>
      <trkpt lat="45.04829" lon="2.75189">
        <ele>1696.9</ele>
        <time>2021-09-13T10:27:21.000Z</time>
      </trkpt>
      <trkpt lat="45.04838" lon="2.75194">
        <ele>1694.9</ele>
        <time>2021-09-13T10:27:27.000Z</time>
      </trkpt>
      <trkpt lat="45.04845" lon="2.75197">
        <ele>1693.3</ele>
        <time>2021-09-13T10:27:33.000Z</time>
      </trkpt>
      <trkpt lat="45.04849" lon="2.75205">
        <ele>1693.6</ele>
        <time>2021-09-13T10:27:42.000Z</time>
      </trkpt>
      <trkpt lat="45.04855" lon="2.75212">
        <ele>1693.2</ele>
        <time>2021-09-13T10:27:48.000Z</time>
      </trkpt>
      <trkpt lat="45.04862" lon="2.75216">
        <ele>1692.2</ele>
        <time>2021-09-13T10:27:55.000Z</time>
      </trkpt>
      <trkpt lat="45.04868" lon="2.7522">
        <ele>1691.5</ele>
        <time>2021-09-13T10:28:01.000Z</time>
      </trkpt>
      <trkpt lat="45.04873" lon="2.75226">
        <ele>1691.5</ele>
        <time>2021-09-13T10:28:12.000Z</time>
      </trkpt>
      <trkpt lat="45.0488" lon="2.75229">
        <ele>1690.5</ele>
        <time>2021-09-13T10:28:53.000Z</time>
      </trkpt>
      <trkpt lat="45.04885" lon="2.75234">
        <ele>1690.5</ele>
        <time>2021-09-13T10:29:01.000Z</time>
      </trkpt>
      <trkpt lat="45.04892" lon="2.75239">
        <ele>1690.2</ele>
        <time>2021-09-13T10:29:07.000Z</time>
      </trkpt>
      <trkpt lat="45.04898" lon="2.75243">
        <ele>1689.9</ele>
        <time>2021-09-13T10:29:13.000Z</time>
      </trkpt>
      <trkpt lat="45.04905" lon="2.75247">
        <ele>1689.5</ele>
        <time>2021-09-13T10:29:20.000Z</time>
      </trkpt>
      <trkpt lat="45.04911" lon="2.75249">
        <ele>1688.9</ele>
        <time>2021-09-13T10:29:28.000Z</time>
      </trkpt>
      <trkpt lat="45.04918" lon="2.75253">
        <ele>1687.8</ele>
        <time>2021-09-13T10:29:37.000Z</time>
      </trkpt>
      <trkpt lat="45.04924" lon="2.75258">
        <ele>1687</ele>
        <time>2021-09-13T10:29:48.000Z</time>
      </trkpt>
      <trkpt lat="45.04928" lon="2.75266">
        <ele>1686.6</ele>
        <time>2021-09-13T10:29:57.000Z</time>
      </trkpt>
      <trkpt lat="45.04934" lon="2.75271">
        <ele>1686</ele>
        <time>2021-09-13T10:30:05.000Z</time>
      </trkpt>
      <trkpt lat="45.04941" lon="2.75275">
        <ele>1685.4</ele>
        <time>2021-09-13T10:30:13.000Z</time>
      </trkpt>
      <trkpt lat="45.04948" lon="2.75278">
        <ele>1684.8</ele>
        <time>2021-09-13T10:30:19.000Z</time>
      </trkpt>
      <trkpt lat="45.04954" lon="2.75283">
        <ele>1684.4</ele>
        <time>2021-09-13T10:30:26.000Z</time>
      </trkpt>
      <trkpt lat="45.04959" lon="2.75289">
        <ele>1684.3</ele>
        <time>2021-09-13T10:30:35.000Z</time>
      </trkpt>
      <trkpt lat="45.04965" lon="2.75294">
        <ele>1684.1</ele>
        <time>2021-09-13T10:30:48.000Z</time>
      </trkpt>
      <trkpt lat="45.04972" lon="2.75298">
        <ele>1683.9</ele>
        <time>2021-09-13T10:30:55.000Z</time>
      </trkpt>
      <trkpt lat="45.04978" lon="2.753">
        <ele>1683.6</ele>
        <time>2021-09-13T10:31:01.000Z</time>
      </trkpt>
      <trkpt lat="45.04984" lon="2.75304">
        <ele>1683.5</ele>
        <time>2021-09-13T10:31:11.000Z</time>
      </trkpt>
      <trkpt lat="45.04991" lon="2.75307">
        <ele>1683.4</ele>
        <time>2021-09-13T10:31:19.000Z</time>
      </trkpt>
      <trkpt lat="45.04998" lon="2.75309">
        <ele>1683.2</ele>
        <time>2021-09-13T10:31:28.000Z</time>
      </trkpt>
      <trkpt lat="45.05005" lon="2.7531">
        <ele>1683.3</ele>
        <time>2021-09-13T10:31:37.000Z</time>
      </trkpt>
      <trkpt lat="45.05011" lon="2.75313">
        <ele>1683.7</ele>
        <time>2021-09-13T10:31:45.000Z</time>
      </trkpt>
      <trkpt lat="45.05018" lon="2.75314">
        <ele>1684</ele>
        <time>2021-09-13T10:31:54.000Z</time>
      </trkpt>
      <trkpt lat="45.05025" lon="2.75316">
        <ele>1684.4</ele>
        <time>2021-09-13T10:32:03.000Z</time>
      </trkpt>
      <trkpt lat="45.05032" lon="2.75317">
        <ele>1684.7</ele>
        <time>2021-09-13T10:32:11.000Z</time>
      </trkpt>
      <trkpt lat="45.05036" lon="2.7531">
        <ele>1683.6</ele>
        <time>2021-09-13T10:32:19.000Z</time>
      </trkpt>
      <trkpt lat="45.05043" lon="2.75309">
        <ele>1683.6</ele>
        <time>2021-09-13T10:32:30.000Z</time>
      </trkpt>
      <trkpt lat="45.05051" lon="2.7531">
        <ele>1683.8</ele>
        <time>2021-09-13T10:32:36.000Z</time>
      </trkpt>
      <trkpt lat="45.05058" lon="2.75312">
        <ele>1684.3</ele>
        <time>2021-09-13T10:32:41.000Z</time>
      </trkpt>
      <trkpt lat="45.05065" lon="2.75312">
        <ele>1684.4</ele>
        <time>2021-09-13T10:32:48.000Z</time>
      </trkpt>
      <trkpt lat="45.05072" lon="2.75311">
        <ele>1684.3</ele>
        <time>2021-09-13T10:32:56.000Z</time>
      </trkpt>
      <trkpt lat="45.05078" lon="2.75316">
        <ele>1685.4</ele>
        <time>2021-09-13T10:33:09.000Z</time>
      </trkpt>
      <trkpt lat="45.05085" lon="2.75317">
        <ele>1686</ele>
        <time>2021-09-13T10:33:37.000Z</time>
      </trkpt>
      <trkpt lat="45.05093" lon="2.75318">
        <ele>1687.7</ele>
        <time>2021-09-13T10:33:51.000Z</time>
      </trkpt>
      <trkpt lat="45.05099" lon="2.75322">
        <ele>1689.7</ele>
        <time>2021-09-13T10:34:00.000Z</time>
      </trkpt>
      <trkpt lat="45.05106" lon="2.75322">
        <ele>1691.1</ele>
        <time>2021-09-13T10:34:07.000Z</time>
      </trkpt>
      <trkpt lat="45.05111" lon="2.75327">
        <ele>1693.4</ele>
        <time>2021-09-13T10:34:15.000Z</time>
      </trkpt>
      <trkpt lat="45.05117" lon="2.7533">
        <ele>1695.4</ele>
        <time>2021-09-13T10:34:26.000Z</time>
      </trkpt>
      <trkpt lat="45.05124" lon="2.75332">
        <ele>1697.4</ele>
        <time>2021-09-13T10:34:33.000Z</time>
      </trkpt>
      <trkpt lat="45.05131" lon="2.75335">
        <ele>1699.2</ele>
        <time>2021-09-13T10:34:43.000Z</time>
      </trkpt>
      <trkpt lat="45.05136" lon="2.7534">
        <ele>1700.1</ele>
        <time>2021-09-13T10:34:52.000Z</time>
      </trkpt>
      <trkpt lat="45.05143" lon="2.75344">
        <ele>1701.6</ele>
        <time>2021-09-13T10:35:01.000Z</time>
      </trkpt>
      <trkpt lat="45.05149" lon="2.75349">
        <ele>1703</ele>
        <time>2021-09-13T10:35:10.000Z</time>
      </trkpt>
      <trkpt lat="45.05154" lon="2.75356">
        <ele>1704.3</ele>
        <time>2021-09-13T10:35:19.000Z</time>
      </trkpt>
      <trkpt lat="45.05159" lon="2.75363">
        <ele>1705.8</ele>
        <time>2021-09-13T10:35:30.000Z</time>
      </trkpt>
      <trkpt lat="45.05164" lon="2.75371">
        <ele>1707.5</ele>
        <time>2021-09-13T10:35:39.000Z</time>
      </trkpt>
      <trkpt lat="45.05169" lon="2.75377">
        <ele>1708.8</ele>
        <time>2021-09-13T10:35:46.000Z</time>
      </trkpt>
      <trkpt lat="45.05174" lon="2.75383">
        <ele>1709.6</ele>
        <time>2021-09-13T10:35:55.000Z</time>
      </trkpt>
      <trkpt lat="45.05179" lon="2.7539">
        <ele>1710.7</ele>
        <time>2021-09-13T10:36:06.000Z</time>
      </trkpt>
      <trkpt lat="45.05185" lon="2.75395">
        <ele>1712</ele>
        <time>2021-09-13T10:36:12.000Z</time>
      </trkpt>
      <trkpt lat="45.05191" lon="2.75401">
        <ele>1713.7</ele>
        <time>2021-09-13T10:36:22.000Z</time>
      </trkpt>
      <trkpt lat="45.05197" lon="2.75404">
        <ele>1715.1</ele>
        <time>2021-09-13T10:36:30.000Z</time>
      </trkpt>
      <trkpt lat="45.05204" lon="2.75404">
        <ele>1716.4</ele>
        <time>2021-09-13T10:36:38.000Z</time>
      </trkpt>
      <trkpt lat="45.0521" lon="2.75408">
        <ele>1718.3</ele>
        <time>2021-09-13T10:36:45.000Z</time>
      </trkpt>
      <trkpt lat="45.05216" lon="2.75412">
        <ele>1720.3</ele>
        <time>2021-09-13T10:36:52.000Z</time>
      </trkpt>
      <trkpt lat="45.05223" lon="2.75414">
        <ele>1722.2</ele>
        <time>2021-09-13T10:36:58.000Z</time>
      </trkpt>
      <trkpt lat="45.0523" lon="2.7542">
        <ele>1723.7</ele>
        <time>2021-09-13T10:37:03.000Z</time>
      </trkpt>
      <trkpt lat="45.05237" lon="2.75426">
        <ele>1724.1</ele>
        <time>2021-09-13T10:37:09.000Z</time>
      </trkpt>
      <trkpt lat="45.05243" lon="2.75432">
        <ele>1724.4</ele>
        <time>2021-09-13T10:37:15.000Z</time>
      </trkpt>
      <trkpt lat="45.0525" lon="2.75431">
        <ele>1726.4</ele>
        <time>2021-09-13T10:37:25.000Z</time>
      </trkpt>
      <trkpt lat="45.05256" lon="2.75426">
        <ele>1727.8</ele>
        <time>2021-09-13T10:37:37.000Z</time>
      </trkpt>
      <trkpt lat="45.05263" lon="2.75425">
        <ele>1728.6</ele>
        <time>2021-09-13T10:37:44.000Z</time>
      </trkpt>
      <trkpt lat="45.05267" lon="2.75419">
        <ele>1729.7</ele>
        <time>2021-09-13T10:37:58.000Z</time>
      </trkpt>
      <trkpt lat="45.05274" lon="2.75419">
        <ele>1730.2</ele>
        <time>2021-09-13T10:38:07.000Z</time>
      </trkpt>
      <trkpt lat="45.0528" lon="2.75416">
        <ele>1730.6</ele>
        <time>2021-09-13T10:38:18.000Z</time>
      </trkpt>
      <trkpt lat="45.05287" lon="2.75416">
        <ele>1731</ele>
        <time>2021-09-13T10:38:26.000Z</time>
      </trkpt>
      <trkpt lat="45.05293" lon="2.75413">
        <ele>1730.2</ele>
        <time>2021-09-13T10:38:38.000Z</time>
      </trkpt>
      <trkpt lat="45.053" lon="2.7541">
        <ele>1729.4</ele>
        <time>2021-09-13T10:38:50.000Z</time>
      </trkpt>
      <trkpt lat="45.05306" lon="2.75411">
        <ele>1730.1</ele>
        <time>2021-09-13T10:38:56.000Z</time>
      </trkpt>
      <trkpt lat="45.0531" lon="2.75419">
        <ele>1732.6</ele>
        <time>2021-09-13T10:39:09.000Z</time>
      </trkpt>
      <trkpt lat="45.05315" lon="2.75426">
        <ele>1733.1</ele>
        <time>2021-09-13T10:39:19.000Z</time>
      </trkpt>
      <trkpt lat="45.05321" lon="2.75434">
        <ele>1733.9</ele>
        <time>2021-09-13T10:39:25.000Z</time>
      </trkpt>
      <trkpt lat="45.05328" lon="2.75436">
        <ele>1734.8</ele>
        <time>2021-09-13T10:39:35.000Z</time>
      </trkpt>
      <trkpt lat="45.05332" lon="2.75429">
        <ele>1734.8</ele>
        <time>2021-09-13T10:39:48.000Z</time>
      </trkpt>
      <trkpt lat="45.05337" lon="2.75422">
        <ele>1735.2</ele>
        <time>2021-09-13T10:40:01.000Z</time>
      </trkpt>
      <trkpt lat="45.05341" lon="2.75414">
        <ele>1734.4</ele>
        <time>2021-09-13T10:40:14.000Z</time>
      </trkpt>
      <trkpt lat="45.05346" lon="2.75421">
        <ele>1737</ele>
        <time>2021-09-13T10:40:21.000Z</time>
      </trkpt>
      <trkpt lat="45.05341" lon="2.75414">
        <ele>1734.4</ele>
        <time>2021-09-13T10:40:31.000Z</time>
      </trkpt>
      <trkpt lat="45.05351" lon="2.75416">
        <ele>1737.3</ele>
        <time>2021-09-13T10:40:45.000Z</time>
      </trkpt>
      <trkpt lat="45.05357" lon="2.75416">
        <ele>1738.5</ele>
        <time>2021-09-13T10:41:14.000Z</time>
      </trkpt>
      <trkpt lat="45.05363" lon="2.75421">
        <ele>1740.6</ele>
        <time>2021-09-13T10:41:27.000Z</time>
      </trkpt>
      <trkpt lat="45.05364" lon="2.75412">
        <ele>1738.2</ele>
        <time>2021-09-13T10:41:55.000Z</time>
      </trkpt>
      <trkpt lat="45.0537" lon="2.75414">
        <ele>1740.3</ele>
        <time>2021-09-13T10:42:02.000Z</time>
      </trkpt>
      <trkpt lat="45.05377" lon="2.7541">
        <ele>1740</ele>
        <time>2021-09-13T10:42:12.000Z</time>
      </trkpt>
      <trkpt lat="45.05384" lon="2.75409">
        <ele>1741</ele>
        <time>2021-09-13T10:42:21.000Z</time>
      </trkpt>
      <trkpt lat="45.0539" lon="2.75407">
        <ele>1741.4</ele>
        <time>2021-09-13T10:42:32.000Z</time>
      </trkpt>
      <trkpt lat="45.05397" lon="2.75405">
        <ele>1742</ele>
        <time>2021-09-13T10:42:43.000Z</time>
      </trkpt>
      <trkpt lat="45.05404" lon="2.75403">
        <ele>1742.6</ele>
        <time>2021-09-13T10:42:51.000Z</time>
      </trkpt>
      <trkpt lat="45.05411" lon="2.75405">
        <ele>1744.9</ele>
        <time>2021-09-13T10:43:37.000Z</time>
      </trkpt>
      <trkpt lat="45.05418" lon="2.75404">
        <ele>1746</ele>
        <time>2021-09-13T10:43:49.000Z</time>
      </trkpt>
      <trkpt lat="45.05425" lon="2.75405">
        <ele>1748.2</ele>
        <time>2021-09-13T10:44:03.000Z</time>
      </trkpt>
      <trkpt lat="45.05432" lon="2.75405">
        <ele>1749.9</ele>
        <time>2021-09-13T10:44:10.000Z</time>
      </trkpt>
      <trkpt lat="45.05438" lon="2.75409">
        <ele>1753</ele>
        <time>2021-09-13T10:44:22.000Z</time>
      </trkpt>
      <trkpt lat="45.05442" lon="2.75416">
        <ele>1756.8</ele>
        <time>2021-09-13T10:44:30.000Z</time>
      </trkpt>
      <trkpt lat="45.05444" lon="2.75425">
        <ele>1759.3</ele>
        <time>2021-09-13T10:44:50.000Z</time>
      </trkpt>
      <trkpt lat="45.05448" lon="2.75432">
        <ele>1761.6</ele>
        <time>2021-09-13T10:44:58.000Z</time>
      </trkpt>
      <trkpt lat="45.05452" lon="2.7544">
        <ele>1764.2</ele>
        <time>2021-09-13T10:45:11.000Z</time>
      </trkpt>
      <trkpt lat="45.05453" lon="2.75449">
        <ele>1766.3</ele>
        <time>2021-09-13T10:45:37.000Z</time>
      </trkpt>
      <trkpt lat="45.0546" lon="2.7546">
        <ele>1770.2</ele>
        <time>2021-09-13T10:46:32.000Z</time>
      </trkpt>
      <trkpt lat="45.05454" lon="2.7546">
        <ele>1768.8</ele>
        <time>2021-09-13T10:46:46.000Z</time>
      </trkpt>
      <trkpt lat="45.05456" lon="2.75469">
        <ele>1771.1</ele>
        <time>2021-09-13T10:46:53.000Z</time>
      </trkpt>
      <trkpt lat="45.05455" lon="2.75478">
        <ele>1772.7</ele>
        <time>2021-09-13T10:46:59.000Z</time>
      </trkpt>
      <trkpt lat="45.05455" lon="2.75488">
        <ele>1774.8</ele>
        <time>2021-09-13T10:47:05.000Z</time>
      </trkpt>
      <trkpt lat="45.05457" lon="2.75497">
        <ele>1777.1</ele>
        <time>2021-09-13T10:47:11.000Z</time>
      </trkpt>
      <trkpt lat="45.05457" lon="2.75506">
        <ele>1776.4</ele>
        <time>2021-09-13T10:47:15.000Z</time>
      </trkpt>
      <trkpt lat="45.05459" lon="2.75516">
        <ele>1774.7</ele>
        <time>2021-09-13T10:47:22.000Z</time>
      </trkpt>
      <trkpt lat="45.05461" lon="2.75525">
        <ele>1773.3</ele>
        <time>2021-09-13T10:47:27.000Z</time>
      </trkpt>
      <trkpt lat="45.05464" lon="2.75536">
        <ele>1771.8</ele>
        <time>2021-09-13T10:47:36.000Z</time>
      </trkpt>
      <trkpt lat="45.05465" lon="2.75545">
        <ele>1770.1</ele>
        <time>2021-09-13T10:47:42.000Z</time>
      </trkpt>
      <trkpt lat="45.05467" lon="2.75555">
        <ele>1768.6</ele>
        <time>2021-09-13T10:47:47.000Z</time>
      </trkpt>
      <trkpt lat="45.05468" lon="2.75565">
        <ele>1766.8</ele>
        <time>2021-09-13T10:47:53.000Z</time>
      </trkpt>
      <trkpt lat="45.05471" lon="2.75573">
        <ele>1766.1</ele>
        <time>2021-09-13T10:47:58.000Z</time>
      </trkpt>
      <trkpt lat="45.05473" lon="2.75587">
        <ele>1763.6</ele>
        <time>2021-09-13T10:48:03.000Z</time>
      </trkpt>
      <trkpt lat="45.05476" lon="2.75599">
        <ele>1761.3</ele>
        <time>2021-09-13T10:48:09.000Z</time>
      </trkpt>
      <trkpt lat="45.05479" lon="2.75608">
        <ele>1759.8</ele>
        <time>2021-09-13T10:48:15.000Z</time>
      </trkpt>
      <trkpt lat="45.0548" lon="2.7562">
        <ele>1756.9</ele>
        <time>2021-09-13T10:48:21.000Z</time>
      </trkpt>
      <trkpt lat="45.05485" lon="2.75631">
        <ele>1755.5</ele>
        <time>2021-09-13T10:48:27.000Z</time>
      </trkpt>
      <trkpt lat="45.05489" lon="2.75641">
        <ele>1754.2</ele>
        <time>2021-09-13T10:48:33.000Z</time>
      </trkpt>
      <trkpt lat="45.05492" lon="2.75653">
        <ele>1752</ele>
        <time>2021-09-13T10:48:39.000Z</time>
      </trkpt>
      <trkpt lat="45.05497" lon="2.75663">
        <ele>1751</ele>
        <time>2021-09-13T10:48:45.000Z</time>
      </trkpt>
      <trkpt lat="45.05502" lon="2.75671">
        <ele>1750.5</ele>
        <time>2021-09-13T10:48:52.000Z</time>
      </trkpt>
      <trkpt lat="45.05505" lon="2.7568">
        <ele>1749.3</ele>
        <time>2021-09-13T10:48:58.000Z</time>
      </trkpt>
      <trkpt lat="45.05508" lon="2.75688">
        <ele>1748.6</ele>
        <time>2021-09-13T10:49:04.000Z</time>
      </trkpt>
      <trkpt lat="45.05511" lon="2.75696">
        <ele>1748.1</ele>
        <time>2021-09-13T10:49:11.000Z</time>
      </trkpt>
      <trkpt lat="45.05513" lon="2.75706">
        <ele>1747.1</ele>
        <time>2021-09-13T10:49:19.000Z</time>
      </trkpt>
      <trkpt lat="45.05512" lon="2.75715">
        <ele>1745.2</ele>
        <time>2021-09-13T10:49:31.000Z</time>
      </trkpt>
      <trkpt lat="45.05514" lon="2.75726">
        <ele>1744.2</ele>
        <time>2021-09-13T10:49:46.000Z</time>
      </trkpt>
      <trkpt lat="45.05521" lon="2.75728">
        <ele>1747</ele>
        <time>2021-09-13T10:49:54.000Z</time>
      </trkpt>
      <trkpt lat="45.05525" lon="2.75736">
        <ele>1747.8</ele>
        <time>2021-09-13T10:50:03.000Z</time>
      </trkpt>
      <trkpt lat="45.0553" lon="2.75744">
        <ele>1749.4</ele>
        <time>2021-09-13T10:50:11.000Z</time>
      </trkpt>
      <trkpt lat="45.05532" lon="2.75752">
        <ele>1749.8</ele>
        <time>2021-09-13T10:50:17.000Z</time>
      </trkpt>
      <trkpt lat="45.05538" lon="2.75759">
        <ele>1752.7</ele>
        <time>2021-09-13T10:50:25.000Z</time>
      </trkpt>
      <trkpt lat="45.05544" lon="2.75764">
        <ele>1755.8</ele>
        <time>2021-09-13T10:50:31.000Z</time>
      </trkpt>
      <trkpt lat="45.05546" lon="2.75773">
        <ele>1756.6</ele>
        <time>2021-09-13T10:50:44.000Z</time>
      </trkpt>
      <trkpt lat="45.05549" lon="2.75782">
        <ele>1758.1</ele>
        <time>2021-09-13T10:50:55.000Z</time>
      </trkpt>
      <trkpt lat="45.0555" lon="2.75792">
        <ele>1758.4</ele>
        <time>2021-09-13T10:51:04.000Z</time>
      </trkpt>
      <trkpt lat="45.05552" lon="2.75801">
        <ele>1759.4</ele>
        <time>2021-09-13T10:51:15.000Z</time>
      </trkpt>
      <trkpt lat="45.05557" lon="2.75809">
        <ele>1762.3</ele>
        <time>2021-09-13T10:51:24.000Z</time>
      </trkpt>
      <trkpt lat="45.05561" lon="2.75816">
        <ele>1764.7</ele>
        <time>2021-09-13T10:51:36.000Z</time>
      </trkpt>
      <trkpt lat="45.05564" lon="2.75825">
        <ele>1766.5</ele>
        <time>2021-09-13T10:51:47.000Z</time>
      </trkpt>
      <trkpt lat="45.0557" lon="2.75831">
        <ele>1770.3</ele>
        <time>2021-09-13T10:51:54.000Z</time>
      </trkpt>
      <trkpt lat="45.05576" lon="2.75837">
        <ele>1774.3</ele>
        <time>2021-09-13T10:52:00.000Z</time>
      </trkpt>
      <trkpt lat="45.05582" lon="2.75841">
        <ele>1778.1</ele>
        <time>2021-09-13T10:52:05.000Z</time>
      </trkpt>
      <trkpt lat="45.05588" lon="2.75846">
        <ele>1779.9</ele>
        <time>2021-09-13T10:52:11.000Z</time>
      </trkpt>
      <trkpt lat="45.05592" lon="2.75855">
        <ele>1780.9</ele>
        <time>2021-09-13T10:52:18.000Z</time>
      </trkpt>
      <trkpt lat="45.05595" lon="2.75863">
        <ele>1781.9</ele>
        <time>2021-09-13T10:52:25.000Z</time>
      </trkpt>
      <trkpt lat="45.05598" lon="2.75872">
        <ele>1782.9</ele>
        <time>2021-09-13T10:52:31.000Z</time>
      </trkpt>
      <trkpt lat="45.056" lon="2.75882">
        <ele>1783.9</ele>
        <time>2021-09-13T10:52:37.000Z</time>
      </trkpt>
      <trkpt lat="45.05603" lon="2.75892">
        <ele>1785.3</ele>
        <time>2021-09-13T10:52:44.000Z</time>
      </trkpt>
      <trkpt lat="45.05608" lon="2.75897">
        <ele>1787.2</ele>
        <time>2021-09-13T10:52:51.000Z</time>
      </trkpt>
      <trkpt lat="45.05608" lon="2.75907">
        <ele>1787.9</ele>
        <time>2021-09-13T10:52:59.000Z</time>
      </trkpt>
      <trkpt lat="45.05611" lon="2.75916">
        <ele>1789.6</ele>
        <time>2021-09-13T10:53:07.000Z</time>
      </trkpt>
      <trkpt lat="45.05613" lon="2.75925">
        <ele>1790.3</ele>
        <time>2021-09-13T10:53:16.000Z</time>
      </trkpt>
      <trkpt lat="45.05618" lon="2.75932">
        <ele>1792.3</ele>
        <time>2021-09-13T10:53:30.000Z</time>
      </trkpt>
      <trkpt lat="45.05623" lon="2.75938">
        <ele>1794.3</ele>
        <time>2021-09-13T10:53:38.000Z</time>
      </trkpt>
      <trkpt lat="45.05624" lon="2.75947">
        <ele>1794.8</ele>
        <time>2021-09-13T10:53:50.000Z</time>
      </trkpt>
      <trkpt lat="45.05624" lon="2.75957">
        <ele>1794.8</ele>
        <time>2021-09-13T10:53:56.000Z</time>
      </trkpt>
      <trkpt lat="45.05626" lon="2.75965">
        <ele>1795.7</ele>
        <time>2021-09-13T10:54:03.000Z</time>
      </trkpt>
      <trkpt lat="45.05624" lon="2.75976">
        <ele>1794.9</ele>
        <time>2021-09-13T10:54:11.000Z</time>
      </trkpt>
      <trkpt lat="45.05621" lon="2.75984">
        <ele>1793.6</ele>
        <time>2021-09-13T10:54:17.000Z</time>
      </trkpt>
      <trkpt lat="45.05624" lon="2.75994">
        <ele>1795</ele>
        <time>2021-09-13T10:54:28.000Z</time>
      </trkpt>
      <trkpt lat="45.05628" lon="2.76001">
        <ele>1796.9</ele>
        <time>2021-09-13T10:54:35.000Z</time>
      </trkpt>
      <trkpt lat="45.05635" lon="2.76004">
        <ele>1800</ele>
        <time>2021-09-13T10:54:40.000Z</time>
      </trkpt>
      <trkpt lat="45.0564" lon="2.7601">
        <ele>1802</ele>
        <time>2021-09-13T10:54:45.000Z</time>
      </trkpt>
      <trkpt lat="45.05647" lon="2.76019">
        <ele>1804.6</ele>
        <time>2021-09-13T10:54:51.000Z</time>
      </trkpt>
      <trkpt lat="45.05654" lon="2.76029">
        <ele>1807.2</ele>
        <time>2021-09-13T10:54:57.000Z</time>
      </trkpt>
      <trkpt lat="45.05658" lon="2.7604">
        <ele>1808.3</ele>
        <time>2021-09-13T10:55:03.000Z</time>
      </trkpt>
      <trkpt lat="45.05664" lon="2.76048">
        <ele>1810.4</ele>
        <time>2021-09-13T10:55:09.000Z</time>
      </trkpt>
      <trkpt lat="45.05667" lon="2.76057">
        <ele>1810.9</ele>
        <time>2021-09-13T10:55:15.000Z</time>
      </trkpt>
      <trkpt lat="45.05673" lon="2.76065">
        <ele>1810.5</ele>
        <time>2021-09-13T10:55:21.000Z</time>
      </trkpt>
      <trkpt lat="45.05675" lon="2.76074">
        <ele>1810.2</ele>
        <time>2021-09-13T10:55:28.000Z</time>
      </trkpt>
      <trkpt lat="45.0568" lon="2.76083">
        <ele>1810.3</ele>
        <time>2021-09-13T10:55:43.000Z</time>
      </trkpt>
      <trkpt lat="45.05687" lon="2.76084">
        <ele>1810.9</ele>
        <time>2021-09-13T10:55:53.000Z</time>
      </trkpt>
      <trkpt lat="45.05694" lon="2.76086">
        <ele>1811.5</ele>
        <time>2021-09-13T10:55:58.000Z</time>
      </trkpt>
      <trkpt lat="45.057" lon="2.76091">
        <ele>1811.8</ele>
        <time>2021-09-13T10:56:07.000Z</time>
      </trkpt>
      <trkpt lat="45.05706" lon="2.76092">
        <ele>1812.3</ele>
        <time>2021-09-13T10:56:16.000Z</time>
      </trkpt>
      <trkpt lat="45.05712" lon="2.76096">
        <ele>1812.7</ele>
        <time>2021-09-13T10:56:24.000Z</time>
      </trkpt>
      <trkpt lat="45.05719" lon="2.76098">
        <ele>1813.3</ele>
        <time>2021-09-13T10:56:30.000Z</time>
      </trkpt>
      <trkpt lat="45.05726" lon="2.76102">
        <ele>1813.7</ele>
        <time>2021-09-13T10:56:37.000Z</time>
      </trkpt>
      <trkpt lat="45.05733" lon="2.76105">
        <ele>1814.3</ele>
        <time>2021-09-13T10:56:44.000Z</time>
      </trkpt>
      <trkpt lat="45.05739" lon="2.76107">
        <ele>1814.8</ele>
        <time>2021-09-13T10:56:50.000Z</time>
      </trkpt>
      <trkpt lat="45.05745" lon="2.76113">
        <ele>1815.1</ele>
        <time>2021-09-13T10:56:56.000Z</time>
      </trkpt>
      <trkpt lat="45.05747" lon="2.76121">
        <ele>1814.9</ele>
        <time>2021-09-13T10:57:04.000Z</time>
      </trkpt>
      <trkpt lat="45.05752" lon="2.76128">
        <ele>1814.7</ele>
        <time>2021-09-13T10:57:13.000Z</time>
      </trkpt>
      <trkpt lat="45.05758" lon="2.76132">
        <ele>1814.3</ele>
        <time>2021-09-13T10:57:20.000Z</time>
      </trkpt>
      <trkpt lat="45.05765" lon="2.76137">
        <ele>1813.9</ele>
        <time>2021-09-13T10:57:27.000Z</time>
      </trkpt>
      <trkpt lat="45.05771" lon="2.76142">
        <ele>1813.6</ele>
        <time>2021-09-13T10:57:33.000Z</time>
      </trkpt>
      <trkpt lat="45.05777" lon="2.76147">
        <ele>1813.5</ele>
        <time>2021-09-13T10:57:40.000Z</time>
      </trkpt>
      <trkpt lat="45.05783" lon="2.76151">
        <ele>1813.5</ele>
        <time>2021-09-13T10:57:45.000Z</time>
      </trkpt>
      <trkpt lat="45.05789" lon="2.76156">
        <ele>1813.6</ele>
        <time>2021-09-13T10:57:52.000Z</time>
      </trkpt>
      <trkpt lat="45.05796" lon="2.76156">
        <ele>1813.6</ele>
        <time>2021-09-13T10:58:01.000Z</time>
      </trkpt>
      <trkpt lat="45.05802" lon="2.76158">
        <ele>1813.8</ele>
        <time>2021-09-13T10:58:15.000Z</time>
      </trkpt>
      <trkpt lat="45.05809" lon="2.76161">
        <ele>1814</ele>
        <time>2021-09-13T10:58:32.000Z</time>
      </trkpt>
      <trkpt lat="45.05816" lon="2.76161">
        <ele>1814.1</ele>
        <time>2021-09-13T10:58:45.000Z</time>
      </trkpt>
      <trkpt lat="45.0582" lon="2.76169">
        <ele>1814.2</ele>
        <time>2021-09-13T10:58:54.000Z</time>
      </trkpt>
      <trkpt lat="45.05826" lon="2.76173">
        <ele>1813.6</ele>
        <time>2021-09-13T10:59:01.000Z</time>
      </trkpt>
      <trkpt lat="45.05833" lon="2.76174">
        <ele>1813.5</ele>
        <time>2021-09-13T10:59:11.000Z</time>
      </trkpt>
      <trkpt lat="45.0584" lon="2.76175">
        <ele>1814.3</ele>
        <time>2021-09-13T10:59:19.000Z</time>
      </trkpt>
      <trkpt lat="45.05847" lon="2.76176">
        <ele>1815.2</ele>
        <time>2021-09-13T10:59:34.000Z</time>
      </trkpt>
      <trkpt lat="45.05853" lon="2.76179">
        <ele>1815.3</ele>
        <time>2021-09-13T10:59:42.000Z</time>
      </trkpt>
      <trkpt lat="45.05859" lon="2.76185">
        <ele>1814.7</ele>
        <time>2021-09-13T10:59:51.000Z</time>
      </trkpt>
      <trkpt lat="45.05865" lon="2.76181">
        <ele>1816.5</ele>
        <time>2021-09-13T10:59:59.000Z</time>
      </trkpt>
      <trkpt lat="45.05872" lon="2.7618">
        <ele>1817.8</ele>
        <time>2021-09-13T11:00:06.000Z</time>
      </trkpt>
      <trkpt lat="45.05878" lon="2.76182">
        <ele>1818.1</ele>
        <time>2021-09-13T11:00:36.000Z</time>
      </trkpt>
      <trkpt lat="45.05885" lon="2.76184">
        <ele>1818.5</ele>
        <time>2021-09-13T11:00:51.000Z</time>
      </trkpt>
      <trkpt lat="45.05891" lon="2.76181">
        <ele>1820.2</ele>
        <time>2021-09-13T11:01:02.000Z</time>
      </trkpt>
      <trkpt lat="45.05901" lon="2.76175">
        <ele>1823.6</ele>
        <time>2021-09-13T11:01:32.000Z</time>
      </trkpt>
      <trkpt lat="45.05902" lon="2.76165">
        <ele>1826.2</ele>
        <time>2021-09-13T11:01:38.000Z</time>
      </trkpt>
      <trkpt lat="45.05902" lon="2.76155">
        <ele>1824.4</ele>
        <time>2021-09-13T11:01:51.000Z</time>
      </trkpt>
      <trkpt lat="45.05898" lon="2.76146">
        <ele>1822.2</ele>
        <time>2021-09-13T11:01:59.000Z</time>
      </trkpt>
      <trkpt lat="45.05891" lon="2.76142">
        <ele>1820.5</ele>
        <time>2021-09-13T11:02:50.000Z</time>
      </trkpt>
      <trkpt lat="45.05885" lon="2.76139">
        <ele>1819.1</ele>
        <time>2021-09-13T11:03:17.000Z</time>
      </trkpt>
      <trkpt lat="45.05878" lon="2.76138">
        <ele>1818</ele>
        <time>2021-09-13T11:03:26.000Z</time>
      </trkpt>
      <trkpt lat="45.05882" lon="2.7613">
        <ele>1817.2</ele>
        <time>2021-09-13T11:03:33.000Z</time>
      </trkpt>
      <trkpt lat="45.05888" lon="2.76126">
        <ele>1817.4</ele>
        <time>2021-09-13T11:03:39.000Z</time>
      </trkpt>
      <trkpt lat="45.05894" lon="2.76131">
        <ele>1819</ele>
        <time>2021-09-13T11:04:30.000Z</time>
      </trkpt>
      <trkpt lat="45.05901" lon="2.76131">
        <ele>1820</ele>
        <time>2021-09-13T11:04:37.000Z</time>
      </trkpt>
      <trkpt lat="45.05909" lon="2.76132">
        <ele>1821.3</ele>
        <time>2021-09-13T11:04:42.000Z</time>
      </trkpt>
      <trkpt lat="45.05915" lon="2.76134">
        <ele>1822.5</ele>
        <time>2021-09-13T11:04:48.000Z</time>
      </trkpt>
      <trkpt lat="45.05909" lon="2.76133">
        <ele>1821.5</ele>
        <time>2021-09-13T11:06:08.000Z</time>
      </trkpt>
      <trkpt lat="45.05903" lon="2.76137">
        <ele>1821.4</ele>
        <time>2021-09-13T11:06:37.000Z</time>
      </trkpt>
      <trkpt lat="45.05909" lon="2.76134">
        <ele>1821.7</ele>
        <time>2021-09-13T11:07:58.000Z</time>
      </trkpt>
      <trkpt lat="45.05903" lon="2.76138">
        <ele>1821.5</ele>
        <time>2021-09-13T11:08:25.000Z</time>
      </trkpt>
      <trkpt lat="45.0591" lon="2.76137">
        <ele>1822.4</ele>
        <time>2021-09-13T11:08:59.000Z</time>
      </trkpt>
      <trkpt lat="45.05915" lon="2.76131">
        <ele>1821.9</ele>
        <time>2021-09-13T11:09:07.000Z</time>
      </trkpt>
      <trkpt lat="45.0591" lon="2.76136">
        <ele>1822.2</ele>
        <time>2021-09-13T11:09:44.000Z</time>
      </trkpt>
      <trkpt lat="45.05906" lon="2.76144">
        <ele>1823.1</ele>
        <time>2021-09-13T11:09:57.000Z</time>
      </trkpt>
      <trkpt lat="45.059" lon="2.76141">
        <ele>1821.6</ele>
        <time>2021-09-13T11:10:27.000Z</time>
      </trkpt>
      <trkpt lat="45.05896" lon="2.76149">
        <ele>1822.5</ele>
        <time>2021-09-13T11:10:37.000Z</time>
      </trkpt>
      <trkpt lat="45.05896" lon="2.76159">
        <ele>1824.2</ele>
        <time>2021-09-13T11:10:42.000Z</time>
      </trkpt>
      <trkpt lat="45.05899" lon="2.76168">
        <ele>1825.6</ele>
        <time>2021-09-13T11:10:48.000Z</time>
      </trkpt>
      <trkpt lat="45.05905" lon="2.76174">
        <ele>1824.6</ele>
        <time>2021-09-13T11:10:56.000Z</time>
      </trkpt>
      <trkpt lat="45.05909" lon="2.76181">
        <ele>1822.8</ele>
        <time>2021-09-13T11:11:06.000Z</time>
      </trkpt>
      <trkpt lat="45.05915" lon="2.76187">
        <ele>1821.5</ele>
        <time>2021-09-13T11:11:14.000Z</time>
      </trkpt>
      <trkpt lat="45.05921" lon="2.76193">
        <ele>1819.6</ele>
        <time>2021-09-13T11:11:22.000Z</time>
      </trkpt>
      <trkpt lat="45.05927" lon="2.76195">
        <ele>1819.1</ele>
        <time>2021-09-13T11:11:30.000Z</time>
      </trkpt>
      <trkpt lat="45.05934" lon="2.76194">
        <ele>1819.6</ele>
        <time>2021-09-13T11:11:38.000Z</time>
      </trkpt>
      <trkpt lat="45.05939" lon="2.76188">
        <ele>1821.7</ele>
        <time>2021-09-13T11:11:48.000Z</time>
      </trkpt>
      <trkpt lat="45.05942" lon="2.76179">
        <ele>1824.8</ele>
        <time>2021-09-13T11:11:59.000Z</time>
      </trkpt>
      <trkpt lat="45.05947" lon="2.76173">
        <ele>1826.9</ele>
        <time>2021-09-13T11:12:07.000Z</time>
      </trkpt>
      <trkpt lat="45.05954" lon="2.76173">
        <ele>1826.9</ele>
        <time>2021-09-13T11:12:15.000Z</time>
      </trkpt>
      <trkpt lat="45.05961" lon="2.76174">
        <ele>1826.6</ele>
        <time>2021-09-13T11:12:22.000Z</time>
      </trkpt>
      <trkpt lat="45.05968" lon="2.76174">
        <ele>1826.7</ele>
        <time>2021-09-13T11:12:30.000Z</time>
      </trkpt>
      <trkpt lat="45.05974" lon="2.76175">
        <ele>1826.4</ele>
        <time>2021-09-13T11:12:40.000Z</time>
      </trkpt>
      <trkpt lat="45.05981" lon="2.76177">
        <ele>1825.9</ele>
        <time>2021-09-13T11:12:52.000Z</time>
      </trkpt>
      <trkpt lat="45.05987" lon="2.76181">
        <ele>1824.7</ele>
        <time>2021-09-13T11:13:01.000Z</time>
      </trkpt>
      <trkpt lat="45.05993" lon="2.76186">
        <ele>1823.3</ele>
        <time>2021-09-13T11:13:09.000Z</time>
      </trkpt>
      <trkpt lat="45.06" lon="2.76187">
        <ele>1823.1</ele>
        <time>2021-09-13T11:13:15.000Z</time>
      </trkpt>
      <trkpt lat="45.06007" lon="2.76188">
        <ele>1822.1</ele>
        <time>2021-09-13T11:13:21.000Z</time>
      </trkpt>
      <trkpt lat="45.06014" lon="2.7619">
        <ele>1820.9</ele>
        <time>2021-09-13T11:13:27.000Z</time>
      </trkpt>
      <trkpt lat="45.0602" lon="2.76191">
        <ele>1820</ele>
        <time>2021-09-13T11:13:35.000Z</time>
      </trkpt>
      <trkpt lat="45.06027" lon="2.76186">
        <ele>1820.5</ele>
        <time>2021-09-13T11:14:02.000Z</time>
      </trkpt>
      <trkpt lat="45.06032" lon="2.76181">
        <ele>1821.1</ele>
        <time>2021-09-13T11:14:08.000Z</time>
      </trkpt>
      <trkpt lat="45.06039" lon="2.76178">
        <ele>1820.9</ele>
        <time>2021-09-13T11:14:14.000Z</time>
      </trkpt>
      <trkpt lat="45.06046" lon="2.76177">
        <ele>1820.3</ele>
        <time>2021-09-13T11:14:20.000Z</time>
      </trkpt>
      <trkpt lat="45.06053" lon="2.76176">
        <ele>1819.6</ele>
        <time>2021-09-13T11:14:25.000Z</time>
      </trkpt>
      <trkpt lat="45.0606" lon="2.76174">
        <ele>1819.1</ele>
        <time>2021-09-13T11:14:30.000Z</time>
      </trkpt>
      <trkpt lat="45.06067" lon="2.76172">
        <ele>1818.5</ele>
        <time>2021-09-13T11:14:35.000Z</time>
      </trkpt>
      <trkpt lat="45.06073" lon="2.76169">
        <ele>1818.1</ele>
        <time>2021-09-13T11:14:40.000Z</time>
      </trkpt>
      <trkpt lat="45.06081" lon="2.76165">
        <ele>1817.2</ele>
        <time>2021-09-13T11:14:45.000Z</time>
      </trkpt>
      <trkpt lat="45.06092" lon="2.76163">
        <ele>1816</ele>
        <time>2021-09-13T11:14:51.000Z</time>
      </trkpt>
      <trkpt lat="45.06099" lon="2.76163">
        <ele>1815.4</ele>
        <time>2021-09-13T11:14:58.000Z</time>
      </trkpt>
      <trkpt lat="45.06105" lon="2.76162">
        <ele>1814.8</ele>
        <time>2021-09-13T11:15:03.000Z</time>
      </trkpt>
      <trkpt lat="45.06113" lon="2.76159">
        <ele>1813.9</ele>
        <time>2021-09-13T11:15:09.000Z</time>
      </trkpt>
      <trkpt lat="45.0612" lon="2.76158">
        <ele>1813.2</ele>
        <time>2021-09-13T11:15:15.000Z</time>
      </trkpt>
      <trkpt lat="45.06128" lon="2.76156">
        <ele>1812.4</ele>
        <time>2021-09-13T11:15:21.000Z</time>
      </trkpt>
      <trkpt lat="45.06136" lon="2.76153">
        <ele>1811.5</ele>
        <time>2021-09-13T11:15:27.000Z</time>
      </trkpt>
      <trkpt lat="45.06144" lon="2.7615">
        <ele>1810.6</ele>
        <time>2021-09-13T11:15:33.000Z</time>
      </trkpt>
      <trkpt lat="45.06151" lon="2.76146">
        <ele>1809.8</ele>
        <time>2021-09-13T11:15:39.000Z</time>
      </trkpt>
      <trkpt lat="45.06158" lon="2.76141">
        <ele>1808.8</ele>
        <time>2021-09-13T11:15:46.000Z</time>
      </trkpt>
      <trkpt lat="45.06164" lon="2.76136">
        <ele>1808</ele>
        <time>2021-09-13T11:15:51.000Z</time>
      </trkpt>
      <trkpt lat="45.0617" lon="2.76129">
        <ele>1807</ele>
        <time>2021-09-13T11:15:57.000Z</time>
      </trkpt>
      <trkpt lat="45.06177" lon="2.76125">
        <ele>1806.3</ele>
        <time>2021-09-13T11:16:03.000Z</time>
      </trkpt>
      <trkpt lat="45.06185" lon="2.76122">
        <ele>1805.5</ele>
        <time>2021-09-13T11:16:09.000Z</time>
      </trkpt>
      <trkpt lat="45.06194" lon="2.76124">
        <ele>1805</ele>
        <time>2021-09-13T11:16:15.000Z</time>
      </trkpt>
      <trkpt lat="45.06202" lon="2.76127">
        <ele>1804.5</ele>
        <time>2021-09-13T11:16:21.000Z</time>
      </trkpt>
      <trkpt lat="45.06208" lon="2.7613">
        <ele>1804.2</ele>
        <time>2021-09-13T11:16:27.000Z</time>
      </trkpt>
      <trkpt lat="45.06215" lon="2.76133">
        <ele>1803.8</ele>
        <time>2021-09-13T11:16:33.000Z</time>
      </trkpt>
      <trkpt lat="45.06222" lon="2.76133">
        <ele>1803.2</ele>
        <time>2021-09-13T11:16:39.000Z</time>
      </trkpt>
      <trkpt lat="45.0623" lon="2.76133">
        <ele>1802.6</ele>
        <time>2021-09-13T11:16:45.000Z</time>
      </trkpt>
      <trkpt lat="45.06237" lon="2.76133">
        <ele>1802</ele>
        <time>2021-09-13T11:16:51.000Z</time>
      </trkpt>
      <trkpt lat="45.06244" lon="2.76134">
        <ele>1801.5</ele>
        <time>2021-09-13T11:16:58.000Z</time>
      </trkpt>
      <trkpt lat="45.06251" lon="2.76132">
        <ele>1800.9</ele>
        <time>2021-09-13T11:17:05.000Z</time>
      </trkpt>
      <trkpt lat="45.06258" lon="2.76129">
        <ele>1800.4</ele>
        <time>2021-09-13T11:17:11.000Z</time>
      </trkpt>
      <trkpt lat="45.06264" lon="2.76124">
        <ele>1800.1</ele>
        <time>2021-09-13T11:17:18.000Z</time>
      </trkpt>
      <trkpt lat="45.06272" lon="2.76122">
        <ele>1799.6</ele>
        <time>2021-09-13T11:17:25.000Z</time>
      </trkpt>
      <trkpt lat="45.06278" lon="2.7612">
        <ele>1799.3</ele>
        <time>2021-09-13T11:17:30.000Z</time>
      </trkpt>
      <trkpt lat="45.06285" lon="2.76117">
        <ele>1799</ele>
        <time>2021-09-13T11:17:35.000Z</time>
      </trkpt>
      <trkpt lat="45.06293" lon="2.76115">
        <ele>1798.6</ele>
        <time>2021-09-13T11:17:40.000Z</time>
      </trkpt>
      <trkpt lat="45.063" lon="2.76113">
        <ele>1798.3</ele>
        <time>2021-09-13T11:17:45.000Z</time>
      </trkpt>
      <trkpt lat="45.06311" lon="2.76107">
        <ele>1798.1</ele>
        <time>2021-09-13T11:17:51.000Z</time>
      </trkpt>
      <trkpt lat="45.06321" lon="2.76097">
        <ele>1798.3</ele>
        <time>2021-09-13T11:17:57.000Z</time>
      </trkpt>
      <trkpt lat="45.06327" lon="2.76086">
        <ele>1798.9</ele>
        <time>2021-09-13T11:18:03.000Z</time>
      </trkpt>
      <trkpt lat="45.0633" lon="2.76077">
        <ele>1798.5</ele>
        <time>2021-09-13T11:18:10.000Z</time>
      </trkpt>
      <trkpt lat="45.06334" lon="2.76069">
        <ele>1797.8</ele>
        <time>2021-09-13T11:18:17.000Z</time>
      </trkpt>
      <trkpt lat="45.06322" lon="2.76096">
        <ele>1798.4</ele>
        <time>2021-09-13T11:22:08.000Z</time>
      </trkpt>
      <trkpt lat="45.06331" lon="2.76075">
        <ele>1798.3</ele>
        <time>2021-09-13T11:22:14.000Z</time>
      </trkpt>
      <trkpt lat="45.06325" lon="2.76079">
        <ele>1798.8</ele>
        <time>2021-09-13T11:27:01.000Z</time>
      </trkpt>
      <trkpt lat="45.0633" lon="2.76073">
        <ele>1798.1</ele>
        <time>2021-09-13T11:28:46.000Z</time>
      </trkpt>
      <trkpt lat="45.06337" lon="2.76071">
        <ele>1797.8</ele>
        <time>2021-09-13T11:29:30.000Z</time>
      </trkpt>
      <trkpt lat="45.06343" lon="2.76069">
        <ele>1797.4</ele>
        <time>2021-09-13T11:29:37.000Z</time>
      </trkpt>
      <trkpt lat="45.0635" lon="2.76066">
        <ele>1796.8</ele>
        <time>2021-09-13T11:29:41.000Z</time>
      </trkpt>
      <trkpt lat="45.06359" lon="2.76067">
        <ele>1796.5</ele>
        <time>2021-09-13T11:29:48.000Z</time>
      </trkpt>
      <trkpt lat="45.06353" lon="2.76058">
        <ele>1795.9</ele>
        <time>2021-09-13T11:29:58.000Z</time>
      </trkpt>
      <trkpt lat="45.06344" lon="2.76056">
        <ele>1796.2</ele>
        <time>2021-09-13T11:30:01.000Z</time>
      </trkpt>
      <trkpt lat="45.06336" lon="2.76063">
        <ele>1797.2</ele>
        <time>2021-09-13T11:30:06.000Z</time>
      </trkpt>
      <trkpt lat="45.06326" lon="2.7607">
        <ele>1797.9</ele>
        <time>2021-09-13T11:30:11.000Z</time>
      </trkpt>
      <trkpt lat="45.06334" lon="2.76075">
        <ele>1798.3</ele>
        <time>2021-09-13T11:30:17.000Z</time>
      </trkpt>
      <trkpt lat="45.06341" lon="2.76083">
        <ele>1798.7</ele>
        <time>2021-09-13T11:30:23.000Z</time>
      </trkpt>
      <trkpt lat="45.06357" lon="2.76082">
        <ele>1798</ele>
        <time>2021-09-13T11:30:29.000Z</time>
      </trkpt>
      <trkpt lat="45.06362" lon="2.76072">
        <ele>1796.9</ele>
        <time>2021-09-13T11:30:40.000Z</time>
      </trkpt>
      <trkpt lat="45.06352" lon="2.76072">
        <ele>1797.3</ele>
        <time>2021-09-13T11:30:41.000Z</time>
      </trkpt>
      <trkpt lat="45.06334" lon="2.76086">
        <ele>1798.8</ele>
        <time>2021-09-13T11:30:47.000Z</time>
      </trkpt>
      <trkpt lat="45.0633" lon="2.76095">
        <ele>1798.1</ele>
        <time>2021-09-13T11:30:53.000Z</time>
      </trkpt>
      <trkpt lat="45.06333" lon="2.76103">
        <ele>1797.4</ele>
        <time>2021-09-13T11:31:06.000Z</time>
      </trkpt>
      <trkpt lat="45.06336" lon="2.76112">
        <ele>1796.5</ele>
        <time>2021-09-13T11:31:18.000Z</time>
      </trkpt>
      <trkpt lat="45.0634" lon="2.7612">
        <ele>1795.7</ele>
        <time>2021-09-13T11:31:42.000Z</time>
      </trkpt>
      <trkpt lat="45.06342" lon="2.76129">
        <ele>1794.9</ele>
        <time>2021-09-13T11:31:49.000Z</time>
      </trkpt>
      <trkpt lat="45.06345" lon="2.76138">
        <ele>1794.1</ele>
        <time>2021-09-13T11:31:55.000Z</time>
      </trkpt>
      <trkpt lat="45.0635" lon="2.76145">
        <ele>1793.4</ele>
        <time>2021-09-13T11:32:00.000Z</time>
      </trkpt>
      <trkpt lat="45.06356" lon="2.76151">
        <ele>1792.7</ele>
        <time>2021-09-13T11:32:05.000Z</time>
      </trkpt>
      <trkpt lat="45.06361" lon="2.76157">
        <ele>1792.1</ele>
        <time>2021-09-13T11:32:51.000Z</time>
      </trkpt>
      <trkpt lat="45.06367" lon="2.76165">
        <ele>1791.3</ele>
        <time>2021-09-13T11:32:58.000Z</time>
      </trkpt>
      <trkpt lat="45.06372" lon="2.7617">
        <ele>1790.7</ele>
        <time>2021-09-13T11:33:04.000Z</time>
      </trkpt>
      <trkpt lat="45.06378" lon="2.76177">
        <ele>1789.7</ele>
        <time>2021-09-13T11:33:10.000Z</time>
      </trkpt>
      <trkpt lat="45.06384" lon="2.76178">
        <ele>1789.4</ele>
        <time>2021-09-13T11:33:27.000Z</time>
      </trkpt>
      <trkpt lat="45.0639" lon="2.76183">
        <ele>1788.7</ele>
        <time>2021-09-13T11:33:41.000Z</time>
      </trkpt>
      <trkpt lat="45.06396" lon="2.76188">
        <ele>1787.9</ele>
        <time>2021-09-13T11:33:49.000Z</time>
      </trkpt>
      <trkpt lat="45.064" lon="2.76195">
        <ele>1787</ele>
        <time>2021-09-13T11:33:56.000Z</time>
      </trkpt>
      <trkpt lat="45.06404" lon="2.76204">
        <ele>1785.8</ele>
        <time>2021-09-13T11:34:04.000Z</time>
      </trkpt>
      <trkpt lat="45.06409" lon="2.76211">
        <ele>1784.9</ele>
        <time>2021-09-13T11:34:09.000Z</time>
      </trkpt>
      <trkpt lat="45.06416" lon="2.7622">
        <ele>1783.6</ele>
        <time>2021-09-13T11:34:15.000Z</time>
      </trkpt>
      <trkpt lat="45.06425" lon="2.76228">
        <ele>1782.1</ele>
        <time>2021-09-13T11:34:21.000Z</time>
      </trkpt>
      <trkpt lat="45.06432" lon="2.76235">
        <ele>1780.8</ele>
        <time>2021-09-13T11:34:27.000Z</time>
      </trkpt>
      <trkpt lat="45.06439" lon="2.76242">
        <ele>1779.7</ele>
        <time>2021-09-13T11:34:33.000Z</time>
      </trkpt>
      <trkpt lat="45.06445" lon="2.76251">
        <ele>1778.5</ele>
        <time>2021-09-13T11:34:39.000Z</time>
      </trkpt>
      <trkpt lat="45.0645" lon="2.76258">
        <ele>1777.2</ele>
        <time>2021-09-13T11:34:45.000Z</time>
      </trkpt>
      <trkpt lat="45.06454" lon="2.76265">
        <ele>1776.1</ele>
        <time>2021-09-13T11:34:53.000Z</time>
      </trkpt>
      <trkpt lat="45.06461" lon="2.76269">
        <ele>1775.3</ele>
        <time>2021-09-13T11:35:06.000Z</time>
      </trkpt>
      <trkpt lat="45.06467" lon="2.76273">
        <ele>1774.6</ele>
        <time>2021-09-13T11:35:11.000Z</time>
      </trkpt>
      <trkpt lat="45.06474" lon="2.76277">
        <ele>1773.8</ele>
        <time>2021-09-13T11:35:16.000Z</time>
      </trkpt>
      <trkpt lat="45.0648" lon="2.76282">
        <ele>1773</ele>
        <time>2021-09-13T11:35:21.000Z</time>
      </trkpt>
      <trkpt lat="45.06486" lon="2.76288">
        <ele>1772.2</ele>
        <time>2021-09-13T11:35:27.000Z</time>
      </trkpt>
      <trkpt lat="45.06493" lon="2.76294">
        <ele>1771.4</ele>
        <time>2021-09-13T11:35:33.000Z</time>
      </trkpt>
      <trkpt lat="45.06495" lon="2.76303">
        <ele>1770.3</ele>
        <time>2021-09-13T11:35:40.000Z</time>
      </trkpt>
      <trkpt lat="45.065" lon="2.7631">
        <ele>1769.5</ele>
        <time>2021-09-13T11:35:45.000Z</time>
      </trkpt>
      <trkpt lat="45.06508" lon="2.76313">
        <ele>1769.4</ele>
        <time>2021-09-13T11:35:51.000Z</time>
      </trkpt>
      <trkpt lat="45.06516" lon="2.76317">
        <ele>1769.2</ele>
        <time>2021-09-13T11:35:57.000Z</time>
      </trkpt>
      <trkpt lat="45.06522" lon="2.76324">
        <ele>1768.8</ele>
        <time>2021-09-13T11:36:03.000Z</time>
      </trkpt>
      <trkpt lat="45.06528" lon="2.76334">
        <ele>1768.2</ele>
        <time>2021-09-13T11:36:09.000Z</time>
      </trkpt>
      <trkpt lat="45.06533" lon="2.76343">
        <ele>1767.2</ele>
        <time>2021-09-13T11:36:15.000Z</time>
      </trkpt>
      <trkpt lat="45.06535" lon="2.76354">
        <ele>1765.8</ele>
        <time>2021-09-13T11:36:21.000Z</time>
      </trkpt>
      <trkpt lat="45.06539" lon="2.76362">
        <ele>1765</ele>
        <time>2021-09-13T11:36:46.000Z</time>
      </trkpt>
      <trkpt lat="45.06545" lon="2.76369">
        <ele>1764.6</ele>
        <time>2021-09-13T11:36:51.000Z</time>
      </trkpt>
      <trkpt lat="45.0655" lon="2.76378">
        <ele>1763.9</ele>
        <time>2021-09-13T11:36:57.000Z</time>
      </trkpt>
      <trkpt lat="45.06556" lon="2.76386">
        <ele>1763.6</ele>
        <time>2021-09-13T11:37:03.000Z</time>
      </trkpt>
      <trkpt lat="45.0656" lon="2.76395">
        <ele>1763</ele>
        <time>2021-09-13T11:37:09.000Z</time>
      </trkpt>
      <trkpt lat="45.06564" lon="2.76405">
        <ele>1762.5</ele>
        <time>2021-09-13T11:37:15.000Z</time>
      </trkpt>
      <trkpt lat="45.0657" lon="2.76413">
        <ele>1762.4</ele>
        <time>2021-09-13T11:37:21.000Z</time>
      </trkpt>
      <trkpt lat="45.06575" lon="2.76423">
        <ele>1761.3</ele>
        <time>2021-09-13T11:37:27.000Z</time>
      </trkpt>
      <trkpt lat="45.06583" lon="2.76431">
        <ele>1760.7</ele>
        <time>2021-09-13T11:37:33.000Z</time>
      </trkpt>
      <trkpt lat="45.06589" lon="2.76439">
        <ele>1759.5</ele>
        <time>2021-09-13T11:37:39.000Z</time>
      </trkpt>
      <trkpt lat="45.06593" lon="2.76447">
        <ele>1758.2</ele>
        <time>2021-09-13T11:37:45.000Z</time>
      </trkpt>
      <trkpt lat="45.06595" lon="2.76458">
        <ele>1756.2</ele>
        <time>2021-09-13T11:37:52.000Z</time>
      </trkpt>
      <trkpt lat="45.06601" lon="2.76465">
        <ele>1755.6</ele>
        <time>2021-09-13T11:37:58.000Z</time>
      </trkpt>
      <trkpt lat="45.06605" lon="2.76471">
        <ele>1755</ele>
        <time>2021-09-13T11:38:04.000Z</time>
      </trkpt>
      <trkpt lat="45.06611" lon="2.76476">
        <ele>1755.1</ele>
        <time>2021-09-13T11:38:09.000Z</time>
      </trkpt>
      <trkpt lat="45.06618" lon="2.76483">
        <ele>1755</ele>
        <time>2021-09-13T11:38:15.000Z</time>
      </trkpt>
      <trkpt lat="45.06626" lon="2.76491">
        <ele>1755.1</ele>
        <time>2021-09-13T11:38:21.000Z</time>
      </trkpt>
      <trkpt lat="45.06632" lon="2.765">
        <ele>1754.9</ele>
        <time>2021-09-13T11:38:27.000Z</time>
      </trkpt>
      <trkpt lat="45.06634" lon="2.7651">
        <ele>1753.4</ele>
        <time>2021-09-13T11:38:34.000Z</time>
      </trkpt>
      <trkpt lat="45.06637" lon="2.7652">
        <ele>1752.1</ele>
        <time>2021-09-13T11:38:40.000Z</time>
      </trkpt>
      <trkpt lat="45.06638" lon="2.7653">
        <ele>1750.4</ele>
        <time>2021-09-13T11:38:51.000Z</time>
      </trkpt>
      <trkpt lat="45.0664" lon="2.76541">
        <ele>1748.7</ele>
        <time>2021-09-13T11:39:00.000Z</time>
      </trkpt>
      <trkpt lat="45.06642" lon="2.76551">
        <ele>1747.3</ele>
        <time>2021-09-13T11:39:07.000Z</time>
      </trkpt>
      <trkpt lat="45.06644" lon="2.7656">
        <ele>1746.1</ele>
        <time>2021-09-13T11:39:12.000Z</time>
      </trkpt>
      <trkpt lat="45.06646" lon="2.7657">
        <ele>1744.8</ele>
        <time>2021-09-13T11:39:18.000Z</time>
      </trkpt>
      <trkpt lat="45.06648" lon="2.76579">
        <ele>1743.6</ele>
        <time>2021-09-13T11:39:24.000Z</time>
      </trkpt>
      <trkpt lat="45.06652" lon="2.76587">
        <ele>1743.2</ele>
        <time>2021-09-13T11:39:30.000Z</time>
      </trkpt>
      <trkpt lat="45.06657" lon="2.76595">
        <ele>1743.1</ele>
        <time>2021-09-13T11:39:36.000Z</time>
      </trkpt>
      <trkpt lat="45.06661" lon="2.76604">
        <ele>1742.5</ele>
        <time>2021-09-13T11:39:42.000Z</time>
      </trkpt>
      <trkpt lat="45.06664" lon="2.76613">
        <ele>1741.6</ele>
        <time>2021-09-13T11:39:48.000Z</time>
      </trkpt>
      <trkpt lat="45.06665" lon="2.76622">
        <ele>1740.1</ele>
        <time>2021-09-13T11:39:53.000Z</time>
      </trkpt>
      <trkpt lat="45.06666" lon="2.76632">
        <ele>1738.5</ele>
        <time>2021-09-13T11:39:59.000Z</time>
      </trkpt>
      <trkpt lat="45.06669" lon="2.76642">
        <ele>1737.1</ele>
        <time>2021-09-13T11:40:07.000Z</time>
      </trkpt>
      <trkpt lat="45.06671" lon="2.76651">
        <ele>1735.8</ele>
        <time>2021-09-13T11:40:14.000Z</time>
      </trkpt>
      <trkpt lat="45.06676" lon="2.76658">
        <ele>1735.5</ele>
        <time>2021-09-13T11:40:21.000Z</time>
      </trkpt>
      <trkpt lat="45.0668" lon="2.76667">
        <ele>1734.8</ele>
        <time>2021-09-13T11:40:27.000Z</time>
      </trkpt>
      <trkpt lat="45.06683" lon="2.76679">
        <ele>1734.2</ele>
        <time>2021-09-13T11:40:33.000Z</time>
      </trkpt>
      <trkpt lat="45.06685" lon="2.76689">
        <ele>1733.6</ele>
        <time>2021-09-13T11:40:39.000Z</time>
      </trkpt>
      <trkpt lat="45.06688" lon="2.76698">
        <ele>1733.4</ele>
        <time>2021-09-13T11:40:46.000Z</time>
      </trkpt>
      <trkpt lat="45.06689" lon="2.7671">
        <ele>1732.5</ele>
        <time>2021-09-13T11:40:53.000Z</time>
      </trkpt>
      <trkpt lat="45.06691" lon="2.7672">
        <ele>1732.1</ele>
        <time>2021-09-13T11:41:11.000Z</time>
      </trkpt>
      <trkpt lat="45.06694" lon="2.76729">
        <ele>1732.1</ele>
        <time>2021-09-13T11:41:18.000Z</time>
      </trkpt>
      <trkpt lat="45.06697" lon="2.76738">
        <ele>1732.3</ele>
        <time>2021-09-13T11:41:24.000Z</time>
      </trkpt>
      <trkpt lat="45.06702" lon="2.76746">
        <ele>1733.2</ele>
        <time>2021-09-13T11:41:31.000Z</time>
      </trkpt>
      <trkpt lat="45.06708" lon="2.76752">
        <ele>1734.7</ele>
        <time>2021-09-13T11:41:37.000Z</time>
      </trkpt>
      <trkpt lat="45.06714" lon="2.76755">
        <ele>1736.4</ele>
        <time>2021-09-13T11:41:44.000Z</time>
      </trkpt>
      <trkpt lat="45.06719" lon="2.76761">
        <ele>1737.6</ele>
        <time>2021-09-13T11:42:11.000Z</time>
      </trkpt>
      <trkpt lat="45.06727" lon="2.76763">
        <ele>1740.2</ele>
        <time>2021-09-13T11:42:21.000Z</time>
      </trkpt>
      <trkpt lat="45.06736" lon="2.76763">
        <ele>1743.3</ele>
        <time>2021-09-13T11:42:27.000Z</time>
      </trkpt>
      <trkpt lat="45.06745" lon="2.76764">
        <ele>1746.3</ele>
        <time>2021-09-13T11:42:33.000Z</time>
      </trkpt>
      <trkpt lat="45.06753" lon="2.76768">
        <ele>1748.2</ele>
        <time>2021-09-13T11:42:39.000Z</time>
      </trkpt>
      <trkpt lat="45.06759" lon="2.76774">
        <ele>1748.8</ele>
        <time>2021-09-13T11:42:48.000Z</time>
      </trkpt>
      <trkpt lat="45.06763" lon="2.7678">
        <ele>1749</ele>
        <time>2021-09-13T11:42:56.000Z</time>
      </trkpt>
      <trkpt lat="45.06769" lon="2.76785">
        <ele>1749.8</ele>
        <time>2021-09-13T11:43:04.000Z</time>
      </trkpt>
      <trkpt lat="45.06774" lon="2.76792">
        <ele>1750.3</ele>
        <time>2021-09-13T11:43:11.000Z</time>
      </trkpt>
      <trkpt lat="45.06779" lon="2.76798">
        <ele>1750.9</ele>
        <time>2021-09-13T11:43:20.000Z</time>
      </trkpt>
      <trkpt lat="45.06785" lon="2.76803">
        <ele>1751.8</ele>
        <time>2021-09-13T11:43:29.000Z</time>
      </trkpt>
      <trkpt lat="45.06791" lon="2.76807">
        <ele>1752.8</ele>
        <time>2021-09-13T11:43:37.000Z</time>
      </trkpt>
      <trkpt lat="45.06797" lon="2.76811">
        <ele>1753.9</ele>
        <time>2021-09-13T11:43:46.000Z</time>
      </trkpt>
      <trkpt lat="45.06803" lon="2.76816">
        <ele>1754.9</ele>
        <time>2021-09-13T11:43:53.000Z</time>
      </trkpt>
      <trkpt lat="45.06809" lon="2.76821">
        <ele>1756</ele>
        <time>2021-09-13T11:44:05.000Z</time>
      </trkpt>
      <trkpt lat="45.06815" lon="2.76825">
        <ele>1757.2</ele>
        <time>2021-09-13T11:44:11.000Z</time>
      </trkpt>
      <trkpt lat="45.06821" lon="2.76832">
        <ele>1758.4</ele>
        <time>2021-09-13T11:44:18.000Z</time>
      </trkpt>
      <trkpt lat="45.06827" lon="2.76837">
        <ele>1759.6</ele>
        <time>2021-09-13T11:44:26.000Z</time>
      </trkpt>
      <trkpt lat="45.06832" lon="2.76843">
        <ele>1760.6</ele>
        <time>2021-09-13T11:44:48.000Z</time>
      </trkpt>
      <trkpt lat="45.06838" lon="2.7685">
        <ele>1761.5</ele>
        <time>2021-09-13T11:44:56.000Z</time>
      </trkpt>
      <trkpt lat="45.06844" lon="2.76856">
        <ele>1762.4</ele>
        <time>2021-09-13T11:45:04.000Z</time>
      </trkpt>
      <trkpt lat="45.0685" lon="2.76861">
        <ele>1763.5</ele>
        <time>2021-09-13T11:45:12.000Z</time>
      </trkpt>
      <trkpt lat="45.06856" lon="2.76866">
        <ele>1764.6</ele>
        <time>2021-09-13T11:45:19.000Z</time>
      </trkpt>
      <trkpt lat="45.06862" lon="2.76869">
        <ele>1765.7</ele>
        <time>2021-09-13T11:45:29.000Z</time>
      </trkpt>
      <trkpt lat="45.06869" lon="2.76876">
        <ele>1767.2</ele>
        <time>2021-09-13T11:45:50.000Z</time>
      </trkpt>
      <trkpt lat="45.06875" lon="2.76881">
        <ele>1768.5</ele>
        <time>2021-09-13T11:46:02.000Z</time>
      </trkpt>
      <trkpt lat="45.06881" lon="2.76886">
        <ele>1769.9</ele>
        <time>2021-09-13T11:46:14.000Z</time>
      </trkpt>
      <trkpt lat="45.06887" lon="2.76889">
        <ele>1771.3</ele>
        <time>2021-09-13T11:46:23.000Z</time>
      </trkpt>
      <trkpt lat="45.06892" lon="2.76894">
        <ele>1772.6</ele>
        <time>2021-09-13T11:46:31.000Z</time>
      </trkpt>
      <trkpt lat="45.06899" lon="2.76899">
        <ele>1774.5</ele>
        <time>2021-09-13T11:46:39.000Z</time>
      </trkpt>
      <trkpt lat="45.06904" lon="2.76904">
        <ele>1776</ele>
        <time>2021-09-13T11:46:46.000Z</time>
      </trkpt>
      <trkpt lat="45.06911" lon="2.76908">
        <ele>1777.9</ele>
        <time>2021-09-13T11:46:55.000Z</time>
      </trkpt>
      <trkpt lat="45.06918" lon="2.76912">
        <ele>1779.8</ele>
        <time>2021-09-13T11:47:04.000Z</time>
      </trkpt>
      <trkpt lat="45.06924" lon="2.76916">
        <ele>1781.2</ele>
        <time>2021-09-13T11:47:11.000Z</time>
      </trkpt>
      <trkpt lat="45.06929" lon="2.76921">
        <ele>1782.1</ele>
        <time>2021-09-13T11:47:18.000Z</time>
      </trkpt>
      <trkpt lat="45.06936" lon="2.76926">
        <ele>1783.1</ele>
        <time>2021-09-13T11:47:25.000Z</time>
      </trkpt>
      <trkpt lat="45.06942" lon="2.76932">
        <ele>1783.9</ele>
        <time>2021-09-13T11:47:32.000Z</time>
      </trkpt>
      <trkpt lat="45.06948" lon="2.76936">
        <ele>1784.6</ele>
        <time>2021-09-13T11:47:41.000Z</time>
      </trkpt>
      <trkpt lat="45.06952" lon="2.76944">
        <ele>1784.8</ele>
        <time>2021-09-13T11:47:50.000Z</time>
      </trkpt>
      <trkpt lat="45.06957" lon="2.7695">
        <ele>1785.1</ele>
        <time>2021-09-13T11:47:59.000Z</time>
      </trkpt>
      <trkpt lat="45.06963" lon="2.76946">
        <ele>1786.2</ele>
        <time>2021-09-13T11:48:12.000Z</time>
      </trkpt>
      <trkpt lat="45.0697" lon="2.76945">
        <ele>1787.3</ele>
        <time>2021-09-13T11:48:27.000Z</time>
      </trkpt>
      <trkpt lat="45.06976" lon="2.76944">
        <ele>1788.3</ele>
        <time>2021-09-13T11:48:38.000Z</time>
      </trkpt>
      <trkpt lat="45.06982" lon="2.76939">
        <ele>1789.6</ele>
        <time>2021-09-13T11:48:53.000Z</time>
      </trkpt>
      <trkpt lat="45.06986" lon="2.76931">
        <ele>1791</ele>
        <time>2021-09-13T11:49:03.000Z</time>
      </trkpt>
      <trkpt lat="45.06991" lon="2.76924">
        <ele>1792.6</ele>
        <time>2021-09-13T11:49:10.000Z</time>
      </trkpt>
      <trkpt lat="45.06995" lon="2.76917">
        <ele>1794.1</ele>
        <time>2021-09-13T11:49:17.000Z</time>
      </trkpt>
      <trkpt lat="45.07001" lon="2.76912">
        <ele>1794.1</ele>
        <time>2021-09-13T11:49:22.000Z</time>
      </trkpt>
      <trkpt lat="45.07008" lon="2.76908">
        <ele>1793.6</ele>
        <time>2021-09-13T11:49:28.000Z</time>
      </trkpt>
      <trkpt lat="45.07014" lon="2.76904">
        <ele>1793.1</ele>
        <time>2021-09-13T11:49:34.000Z</time>
      </trkpt>
      <trkpt lat="45.0702" lon="2.76901">
        <ele>1792.9</ele>
        <time>2021-09-13T11:49:40.000Z</time>
      </trkpt>
      <trkpt lat="45.07026" lon="2.76896">
        <ele>1792.2</ele>
        <time>2021-09-13T11:49:46.000Z</time>
      </trkpt>
      <trkpt lat="45.07031" lon="2.76888">
        <ele>1790.8</ele>
        <time>2021-09-13T11:49:53.000Z</time>
      </trkpt>
      <trkpt lat="45.07037" lon="2.76882">
        <ele>1789.9</ele>
        <time>2021-09-13T11:51:10.000Z</time>
      </trkpt>
      <trkpt lat="45.07042" lon="2.76889">
        <ele>1791.7</ele>
        <time>2021-09-13T11:51:41.000Z</time>
      </trkpt>
      <trkpt lat="45.0705" lon="2.76889">
        <ele>1792.2</ele>
        <time>2021-09-13T11:51:48.000Z</time>
      </trkpt>
      <trkpt lat="45.07057" lon="2.76888">
        <ele>1792.5</ele>
        <time>2021-09-13T11:51:55.000Z</time>
      </trkpt>
      <trkpt lat="45.07065" lon="2.76885">
        <ele>1792.4</ele>
        <time>2021-09-13T11:52:01.000Z</time>
      </trkpt>
      <trkpt lat="45.07071" lon="2.76882">
        <ele>1792.1</ele>
        <time>2021-09-13T11:52:09.000Z</time>
      </trkpt>
      <trkpt lat="45.0707" lon="2.76891">
        <ele>1793.9</ele>
        <time>2021-09-13T11:53:08.000Z</time>
      </trkpt>
      <trkpt lat="45.07073" lon="2.769">
        <ele>1796</ele>
        <time>2021-09-13T11:53:25.000Z</time>
      </trkpt>
      <trkpt lat="45.07072" lon="2.76891">
        <ele>1794</ele>
        <time>2021-09-13T11:53:59.000Z</time>
      </trkpt>
      <trkpt lat="45.07074" lon="2.76882">
        <ele>1792.3</ele>
        <time>2021-09-13T11:54:12.000Z</time>
      </trkpt>
      <trkpt lat="45.0708" lon="2.76879">
        <ele>1792.1</ele>
        <time>2021-09-13T11:55:06.000Z</time>
      </trkpt>
      <trkpt lat="45.07085" lon="2.76871">
        <ele>1790.7</ele>
        <time>2021-09-13T11:55:16.000Z</time>
      </trkpt>
      <trkpt lat="45.07091" lon="2.76868">
        <ele>1790</ele>
        <time>2021-09-13T11:55:24.000Z</time>
      </trkpt>
      <trkpt lat="45.07098" lon="2.76863">
        <ele>1789.1</ele>
        <time>2021-09-13T11:55:30.000Z</time>
      </trkpt>
      <trkpt lat="45.07103" lon="2.76857">
        <ele>1788.1</ele>
        <time>2021-09-13T11:55:38.000Z</time>
      </trkpt>
      <trkpt lat="45.07109" lon="2.76851">
        <ele>1787.2</ele>
        <time>2021-09-13T11:55:46.000Z</time>
      </trkpt>
      <trkpt lat="45.07116" lon="2.76849">
        <ele>1787.1</ele>
        <time>2021-09-13T11:55:54.000Z</time>
      </trkpt>
      <trkpt lat="45.07122" lon="2.7685">
        <ele>1787.4</ele>
        <time>2021-09-13T11:56:05.000Z</time>
      </trkpt>
      <trkpt lat="45.07129" lon="2.76846">
        <ele>1787.2</ele>
        <time>2021-09-13T11:56:50.000Z</time>
      </trkpt>
      <trkpt lat="45.07135" lon="2.76841">
        <ele>1786.9</ele>
        <time>2021-09-13T11:57:04.000Z</time>
      </trkpt>
      <trkpt lat="45.07142" lon="2.76839">
        <ele>1787</ele>
        <time>2021-09-13T11:57:10.000Z</time>
      </trkpt>
      <trkpt lat="45.07149" lon="2.76835">
        <ele>1787.1</ele>
        <time>2021-09-13T11:57:16.000Z</time>
      </trkpt>
      <trkpt lat="45.07156" lon="2.7683">
        <ele>1786.3</ele>
        <time>2021-09-13T11:57:24.000Z</time>
      </trkpt>
      <trkpt lat="45.07161" lon="2.76825">
        <ele>1785.1</ele>
        <time>2021-09-13T11:57:29.000Z</time>
      </trkpt>
      <trkpt lat="45.07168" lon="2.76822">
        <ele>1784.6</ele>
        <time>2021-09-13T11:57:35.000Z</time>
      </trkpt>
      <trkpt lat="45.07162" lon="2.76828">
        <ele>1786.1</ele>
        <time>2021-09-13T11:57:58.000Z</time>
      </trkpt>
      <trkpt lat="45.07155" lon="2.76832">
        <ele>1786.9</ele>
        <time>2021-09-13T11:58:04.000Z</time>
      </trkpt>
      <trkpt lat="45.07149" lon="2.76834">
        <ele>1787</ele>
        <time>2021-09-13T11:58:16.000Z</time>
      </trkpt>
      <trkpt lat="45.07143" lon="2.7684">
        <ele>1787.1</ele>
        <time>2021-09-13T11:58:22.000Z</time>
      </trkpt>
      <trkpt lat="45.07136" lon="2.76841">
        <ele>1786.9</ele>
        <time>2021-09-13T11:58:30.000Z</time>
      </trkpt>
      <trkpt lat="45.07131" lon="2.76846">
        <ele>1787.2</ele>
        <time>2021-09-13T11:58:44.000Z</time>
      </trkpt>
      <trkpt lat="45.07124" lon="2.7685">
        <ele>1787.5</ele>
        <time>2021-09-13T11:59:07.000Z</time>
      </trkpt>
      <trkpt lat="45.07117" lon="2.7685">
        <ele>1787.3</ele>
        <time>2021-09-13T11:59:28.000Z</time>
      </trkpt>
      <trkpt lat="45.0711" lon="2.76854">
        <ele>1787.7</ele>
        <time>2021-09-13T11:59:35.000Z</time>
      </trkpt>
      <trkpt lat="45.07103" lon="2.76857">
        <ele>1788.1</ele>
        <time>2021-09-13T11:59:42.000Z</time>
      </trkpt>
      <trkpt lat="45.07098" lon="2.76863">
        <ele>1789.1</ele>
        <time>2021-09-13T11:59:50.000Z</time>
      </trkpt>
      <trkpt lat="45.07092" lon="2.76869">
        <ele>1790.2</ele>
        <time>2021-09-13T12:00:12.000Z</time>
      </trkpt>
      <trkpt lat="45.07087" lon="2.76873">
        <ele>1791</ele>
        <time>2021-09-13T12:00:25.000Z</time>
      </trkpt>
      <trkpt lat="45.07081" lon="2.76877">
        <ele>1791.8</ele>
        <time>2021-09-13T12:00:34.000Z</time>
      </trkpt>
      <trkpt lat="45.07075" lon="2.76882">
        <ele>1792.4</ele>
        <time>2021-09-13T12:00:45.000Z</time>
      </trkpt>
      <trkpt lat="45.07067" lon="2.76884">
        <ele>1792.3</ele>
        <time>2021-09-13T12:01:39.000Z</time>
      </trkpt>
      <trkpt lat="45.07059" lon="2.76886">
        <ele>1792.2</ele>
        <time>2021-09-13T12:01:45.000Z</time>
      </trkpt>
      <trkpt lat="45.07051" lon="2.76886">
        <ele>1791.7</ele>
        <time>2021-09-13T12:01:51.000Z</time>
      </trkpt>
      <trkpt lat="45.07043" lon="2.76887">
        <ele>1791.4</ele>
        <time>2021-09-13T12:01:57.000Z</time>
      </trkpt>
      <trkpt lat="45.07036" lon="2.76888">
        <ele>1791.1</ele>
        <time>2021-09-13T12:02:05.000Z</time>
      </trkpt>
      <trkpt lat="45.07029" lon="2.76894">
        <ele>1791.9</ele>
        <time>2021-09-13T12:02:11.000Z</time>
      </trkpt>
      <trkpt lat="45.07023" lon="2.76898">
        <ele>1792.4</ele>
        <time>2021-09-13T12:02:39.000Z</time>
      </trkpt>
      <trkpt lat="45.07016" lon="2.76901">
        <ele>1792.6</ele>
        <time>2021-09-13T12:02:48.000Z</time>
      </trkpt>
      <trkpt lat="45.07009" lon="2.76907">
        <ele>1793.5</ele>
        <time>2021-09-13T12:02:53.000Z</time>
      </trkpt>
      <trkpt lat="45.07003" lon="2.76912">
        <ele>1794.2</ele>
        <time>2021-09-13T12:02:57.000Z</time>
      </trkpt>
      <trkpt lat="45.06997" lon="2.76919">
        <ele>1794.2</ele>
        <time>2021-09-13T12:03:02.000Z</time>
      </trkpt>
      <trkpt lat="45.06991" lon="2.76928">
        <ele>1792.2</ele>
        <time>2021-09-13T12:03:08.000Z</time>
      </trkpt>
      <trkpt lat="45.06985" lon="2.76934">
        <ele>1790.6</ele>
        <time>2021-09-13T12:03:14.000Z</time>
      </trkpt>
      <trkpt lat="45.0698" lon="2.76941">
        <ele>1789.1</ele>
        <time>2021-09-13T12:03:28.000Z</time>
      </trkpt>
      <trkpt lat="45.06974" lon="2.76944">
        <ele>1788</ele>
        <time>2021-09-13T12:03:36.000Z</time>
      </trkpt>
      <trkpt lat="45.06967" lon="2.76946">
        <ele>1786.8</ele>
        <time>2021-09-13T12:03:44.000Z</time>
      </trkpt>
      <trkpt lat="45.06963" lon="2.76954">
        <ele>1785.7</ele>
        <time>2021-09-13T12:03:53.000Z</time>
      </trkpt>
      <trkpt lat="45.06963" lon="2.76964">
        <ele>1784.9</ele>
        <time>2021-09-13T12:04:06.000Z</time>
      </trkpt>
      <trkpt lat="45.0696" lon="2.76972">
        <ele>1784</ele>
        <time>2021-09-13T12:04:41.000Z</time>
      </trkpt>
      <trkpt lat="45.06963" lon="2.76964">
        <ele>1784.9</ele>
        <time>2021-09-13T12:06:05.000Z</time>
      </trkpt>
      <trkpt lat="45.06958" lon="2.76972">
        <ele>1783.8</ele>
        <time>2021-09-13T12:06:25.000Z</time>
      </trkpt>
      <trkpt lat="45.06954" lon="2.7698">
        <ele>1782.9</ele>
        <time>2021-09-13T12:06:31.000Z</time>
      </trkpt>
      <trkpt lat="45.06947" lon="2.76983">
        <ele>1782.1</ele>
        <time>2021-09-13T12:06:43.000Z</time>
      </trkpt>
      <trkpt lat="45.06941" lon="2.7699">
        <ele>1781.2</ele>
        <time>2021-09-13T12:06:50.000Z</time>
      </trkpt>
      <trkpt lat="45.06935" lon="2.76998">
        <ele>1780.4</ele>
        <time>2021-09-13T12:06:56.000Z</time>
      </trkpt>
      <trkpt lat="45.0693" lon="2.77004">
        <ele>1779.6</ele>
        <time>2021-09-13T12:07:01.000Z</time>
      </trkpt>
      <trkpt lat="45.06923" lon="2.7701">
        <ele>1778.7</ele>
        <time>2021-09-13T12:07:07.000Z</time>
      </trkpt>
      <trkpt lat="45.06917" lon="2.77017">
        <ele>1778</ele>
        <time>2021-09-13T12:07:13.000Z</time>
      </trkpt>
      <trkpt lat="45.06911" lon="2.77024">
        <ele>1776.3</ele>
        <time>2021-09-13T12:07:19.000Z</time>
      </trkpt>
      <trkpt lat="45.06904" lon="2.7703">
        <ele>1774.4</ele>
        <time>2021-09-13T12:07:25.000Z</time>
      </trkpt>
      <trkpt lat="45.06898" lon="2.77036">
        <ele>1772.8</ele>
        <time>2021-09-13T12:07:31.000Z</time>
      </trkpt>
      <trkpt lat="45.06893" lon="2.77044">
        <ele>1771.4</ele>
        <time>2021-09-13T12:07:37.000Z</time>
      </trkpt>
      <trkpt lat="45.06888" lon="2.7705">
        <ele>1770.2</ele>
        <time>2021-09-13T12:07:43.000Z</time>
      </trkpt>
      <trkpt lat="45.06883" lon="2.77055">
        <ele>1769</ele>
        <time>2021-09-13T12:07:52.000Z</time>
      </trkpt>
      <trkpt lat="45.06877" lon="2.77061">
        <ele>1767.6</ele>
        <time>2021-09-13T12:08:10.000Z</time>
      </trkpt>
      <trkpt lat="45.06872" lon="2.77068">
        <ele>1766.4</ele>
        <time>2021-09-13T12:08:18.000Z</time>
      </trkpt>
      <trkpt lat="45.06866" lon="2.77075">
        <ele>1765.1</ele>
        <time>2021-09-13T12:08:26.000Z</time>
      </trkpt>
      <trkpt lat="45.06861" lon="2.77083">
        <ele>1764</ele>
        <time>2021-09-13T12:08:33.000Z</time>
      </trkpt>
      <trkpt lat="45.06856" lon="2.77091">
        <ele>1762.2</ele>
        <time>2021-09-13T12:08:42.000Z</time>
      </trkpt>
      <trkpt lat="45.06853" lon="2.771">
        <ele>1760.7</ele>
        <time>2021-09-13T12:08:51.000Z</time>
      </trkpt>
      <trkpt lat="45.06848" lon="2.77107">
        <ele>1759.2</ele>
        <time>2021-09-13T12:08:58.000Z</time>
      </trkpt>
      <trkpt lat="45.06845" lon="2.77116">
        <ele>1757.9</ele>
        <time>2021-09-13T12:10:11.000Z</time>
      </trkpt>
      <trkpt lat="45.06839" lon="2.77123">
        <ele>1756.4</ele>
        <time>2021-09-13T12:10:18.000Z</time>
      </trkpt>
      <trkpt lat="45.06834" lon="2.77129">
        <ele>1755.2</ele>
        <time>2021-09-13T12:10:24.000Z</time>
      </trkpt>
      <trkpt lat="45.06831" lon="2.77138">
        <ele>1753.6</ele>
        <time>2021-09-13T12:10:31.000Z</time>
      </trkpt>
      <trkpt lat="45.06828" lon="2.77147">
        <ele>1751.7</ele>
        <time>2021-09-13T12:10:38.000Z</time>
      </trkpt>
      <trkpt lat="45.06823" lon="2.77153">
        <ele>1749.5</ele>
        <time>2021-09-13T12:10:44.000Z</time>
      </trkpt>
      <trkpt lat="45.0682" lon="2.77162">
        <ele>1747.7</ele>
        <time>2021-09-13T12:10:53.000Z</time>
      </trkpt>
      <trkpt lat="45.06816" lon="2.7717">
        <ele>1745.7</ele>
        <time>2021-09-13T12:11:01.000Z</time>
      </trkpt>
      <trkpt lat="45.06814" lon="2.77179">
        <ele>1744.4</ele>
        <time>2021-09-13T12:11:09.000Z</time>
      </trkpt>
      <trkpt lat="45.06812" lon="2.77188">
        <ele>1743.1</ele>
        <time>2021-09-13T12:11:17.000Z</time>
      </trkpt>
      <trkpt lat="45.0681" lon="2.77198">
        <ele>1741.8</ele>
        <time>2021-09-13T12:11:26.000Z</time>
      </trkpt>
      <trkpt lat="45.06809" lon="2.77207">
        <ele>1740.9</ele>
        <time>2021-09-13T12:11:33.000Z</time>
      </trkpt>
      <trkpt lat="45.06806" lon="2.77216">
        <ele>1739.3</ele>
        <time>2021-09-13T12:11:41.000Z</time>
      </trkpt>
      <trkpt lat="45.06802" lon="2.77223">
        <ele>1737.6</ele>
        <time>2021-09-13T12:11:47.000Z</time>
      </trkpt>
      <trkpt lat="45.06799" lon="2.77232">
        <ele>1736.2</ele>
        <time>2021-09-13T12:11:53.000Z</time>
      </trkpt>
      <trkpt lat="45.06796" lon="2.77241">
        <ele>1734.8</ele>
        <time>2021-09-13T12:12:08.000Z</time>
      </trkpt>
      <trkpt lat="45.06796" lon="2.77251">
        <ele>1734.2</ele>
        <time>2021-09-13T12:12:14.000Z</time>
      </trkpt>
      <trkpt lat="45.06793" lon="2.7726">
        <ele>1732.7</ele>
        <time>2021-09-13T12:12:22.000Z</time>
      </trkpt>
      <trkpt lat="45.06789" lon="2.77268">
        <ele>1731.1</ele>
        <time>2021-09-13T12:12:29.000Z</time>
      </trkpt>
      <trkpt lat="45.06786" lon="2.77277">
        <ele>1729.7</ele>
        <time>2021-09-13T12:12:36.000Z</time>
      </trkpt>
      <trkpt lat="45.06783" lon="2.77286">
        <ele>1728.3</ele>
        <time>2021-09-13T12:12:41.000Z</time>
      </trkpt>
      <trkpt lat="45.0678" lon="2.77295">
        <ele>1726.9</ele>
        <time>2021-09-13T12:12:47.000Z</time>
      </trkpt>
      <trkpt lat="45.06779" lon="2.77305">
        <ele>1726</ele>
        <time>2021-09-13T12:12:53.000Z</time>
      </trkpt>
      <trkpt lat="45.06775" lon="2.77314">
        <ele>1724.4</ele>
        <time>2021-09-13T12:12:59.000Z</time>
      </trkpt>
      <trkpt lat="45.06773" lon="2.77324">
        <ele>1723.3</ele>
        <time>2021-09-13T12:13:06.000Z</time>
      </trkpt>
      <trkpt lat="45.0677" lon="2.77332">
        <ele>1722.1</ele>
        <time>2021-09-13T12:13:12.000Z</time>
      </trkpt>
      <trkpt lat="45.06768" lon="2.77341">
        <ele>1720.3</ele>
        <time>2021-09-13T12:13:18.000Z</time>
      </trkpt>
      <trkpt lat="45.06765" lon="2.7735">
        <ele>1718.1</ele>
        <time>2021-09-13T12:13:26.000Z</time>
      </trkpt>
      <trkpt lat="45.06762" lon="2.77358">
        <ele>1716.2</ele>
        <time>2021-09-13T12:13:34.000Z</time>
      </trkpt>
      <trkpt lat="45.06757" lon="2.77365">
        <ele>1714</ele>
        <time>2021-09-13T12:13:41.000Z</time>
      </trkpt>
      <trkpt lat="45.06752" lon="2.77372">
        <ele>1711.9</ele>
        <time>2021-09-13T12:13:48.000Z</time>
      </trkpt>
      <trkpt lat="45.06747" lon="2.77379">
        <ele>1709.6</ele>
        <time>2021-09-13T12:13:56.000Z</time>
      </trkpt>
      <trkpt lat="45.06742" lon="2.77385">
        <ele>1707.3</ele>
        <time>2021-09-13T12:14:02.000Z</time>
      </trkpt>
      <trkpt lat="45.06736" lon="2.7739">
        <ele>1705.1</ele>
        <time>2021-09-13T12:14:09.000Z</time>
      </trkpt>
      <trkpt lat="45.06731" lon="2.77398">
        <ele>1702.8</ele>
        <time>2021-09-13T12:14:19.000Z</time>
      </trkpt>
      <trkpt lat="45.06727" lon="2.77407">
        <ele>1700.8</ele>
        <time>2021-09-13T12:14:27.000Z</time>
      </trkpt>
      <trkpt lat="45.06721" lon="2.77412">
        <ele>1698.8</ele>
        <time>2021-09-13T12:14:34.000Z</time>
      </trkpt>
      <trkpt lat="45.06717" lon="2.7742">
        <ele>1697.2</ele>
        <time>2021-09-13T12:14:40.000Z</time>
      </trkpt>
      <trkpt lat="45.06713" lon="2.77427">
        <ele>1695.7</ele>
        <time>2021-09-13T12:14:51.000Z</time>
      </trkpt>
      <trkpt lat="45.06711" lon="2.77439">
        <ele>1694.2</ele>
        <time>2021-09-13T12:15:24.000Z</time>
      </trkpt>
      <trkpt lat="45.06709" lon="2.77449">
        <ele>1692.9</ele>
        <time>2021-09-13T12:15:35.000Z</time>
      </trkpt>
      <trkpt lat="45.06707" lon="2.77458">
        <ele>1691.7</ele>
        <time>2021-09-13T12:15:45.000Z</time>
      </trkpt>
      <trkpt lat="45.06704" lon="2.77466">
        <ele>1690.3</ele>
        <time>2021-09-13T12:16:29.000Z</time>
      </trkpt>
      <trkpt lat="45.067" lon="2.77474">
        <ele>1688.6</ele>
        <time>2021-09-13T12:17:10.000Z</time>
      </trkpt>
      <trkpt lat="45.06698" lon="2.77483">
        <ele>1687.4</ele>
        <time>2021-09-13T12:17:44.000Z</time>
      </trkpt>
      <trkpt lat="45.06703" lon="2.7749">
        <ele>1688</ele>
        <time>2021-09-13T12:18:08.000Z</time>
      </trkpt>
      <trkpt lat="45.06703" lon="2.775">
        <ele>1687.2</ele>
        <time>2021-09-13T12:18:17.000Z</time>
      </trkpt>
      <trkpt lat="45.06704" lon="2.7751">
        <ele>1686.4</ele>
        <time>2021-09-13T12:18:23.000Z</time>
      </trkpt>
      <trkpt lat="45.06702" lon="2.77519">
        <ele>1684.9</ele>
        <time>2021-09-13T12:18:32.000Z</time>
      </trkpt>
      <trkpt lat="45.06701" lon="2.77528">
        <ele>1683.7</ele>
        <time>2021-09-13T12:18:39.000Z</time>
      </trkpt>
      <trkpt lat="45.067" lon="2.77537">
        <ele>1682.5</ele>
        <time>2021-09-13T12:18:46.000Z</time>
      </trkpt>
      <trkpt lat="45.06697" lon="2.77547">
        <ele>1680.6</ele>
        <time>2021-09-13T12:19:10.000Z</time>
      </trkpt>
      <trkpt lat="45.06695" lon="2.77558">
        <ele>1678.9</ele>
        <time>2021-09-13T12:19:16.000Z</time>
      </trkpt>
      <trkpt lat="45.06695" lon="2.77569">
        <ele>1677.7</ele>
        <time>2021-09-13T12:19:21.000Z</time>
      </trkpt>
      <trkpt lat="45.06695" lon="2.77578">
        <ele>1676.7</ele>
        <time>2021-09-13T12:19:28.000Z</time>
      </trkpt>
      <trkpt lat="45.06694" lon="2.77587">
        <ele>1675.3</ele>
        <time>2021-09-13T12:19:34.000Z</time>
      </trkpt>
      <trkpt lat="45.06694" lon="2.77597">
        <ele>1673.8</ele>
        <time>2021-09-13T12:19:41.000Z</time>
      </trkpt>
      <trkpt lat="45.06695" lon="2.77606">
        <ele>1672.7</ele>
        <time>2021-09-13T12:19:47.000Z</time>
      </trkpt>
      <trkpt lat="45.06697" lon="2.77615">
        <ele>1671.9</ele>
        <time>2021-09-13T12:20:01.000Z</time>
      </trkpt>
      <trkpt lat="45.06697" lon="2.77624">
        <ele>1670.5</ele>
        <time>2021-09-13T12:20:09.000Z</time>
      </trkpt>
      <trkpt lat="45.06697" lon="2.77635">
        <ele>1668.8</ele>
        <time>2021-09-13T12:20:15.000Z</time>
      </trkpt>
      <trkpt lat="45.06697" lon="2.77649">
        <ele>1666.6</ele>
        <time>2021-09-13T12:20:21.000Z</time>
      </trkpt>
      <trkpt lat="45.06696" lon="2.77662">
        <ele>1664.4</ele>
        <time>2021-09-13T12:20:27.000Z</time>
      </trkpt>
      <trkpt lat="45.06695" lon="2.77673">
        <ele>1662.7</ele>
        <time>2021-09-13T12:20:33.000Z</time>
      </trkpt>
      <trkpt lat="45.06696" lon="2.77687">
        <ele>1661.3</ele>
        <time>2021-09-13T12:20:39.000Z</time>
      </trkpt>
      <trkpt lat="45.06697" lon="2.77696">
        <ele>1660.5</ele>
        <time>2021-09-13T12:20:45.000Z</time>
      </trkpt>
      <trkpt lat="45.06699" lon="2.77705">
        <ele>1659.9</ele>
        <time>2021-09-13T12:20:52.000Z</time>
      </trkpt>
      <trkpt lat="45.06701" lon="2.77714">
        <ele>1659.2</ele>
        <time>2021-09-13T12:20:58.000Z</time>
      </trkpt>
      <trkpt lat="45.06702" lon="2.77724">
        <ele>1658.3</ele>
        <time>2021-09-13T12:21:06.000Z</time>
      </trkpt>
      <trkpt lat="45.06704" lon="2.77734">
        <ele>1657.5</ele>
        <time>2021-09-13T12:21:16.000Z</time>
      </trkpt>
      <trkpt lat="45.06702" lon="2.77743">
        <ele>1656</ele>
        <time>2021-09-13T12:21:23.000Z</time>
      </trkpt>
      <trkpt lat="45.06701" lon="2.77753">
        <ele>1654.6</ele>
        <time>2021-09-13T12:21:30.000Z</time>
      </trkpt>
      <trkpt lat="45.06703" lon="2.77762">
        <ele>1653.9</ele>
        <time>2021-09-13T12:21:39.000Z</time>
      </trkpt>
      <trkpt lat="45.06703" lon="2.77772">
        <ele>1652.6</ele>
        <time>2021-09-13T12:21:47.000Z</time>
      </trkpt>
      <trkpt lat="45.06704" lon="2.77781">
        <ele>1651.7</ele>
        <time>2021-09-13T12:21:55.000Z</time>
      </trkpt>
      <trkpt lat="45.06704" lon="2.77791">
        <ele>1650.4</ele>
        <time>2021-09-13T12:22:06.000Z</time>
      </trkpt>
      <trkpt lat="45.06706" lon="2.77799">
        <ele>1649.8</ele>
        <time>2021-09-13T12:22:21.000Z</time>
      </trkpt>
      <trkpt lat="45.06707" lon="2.77809">
        <ele>1648.8</ele>
        <time>2021-09-13T12:22:31.000Z</time>
      </trkpt>
      <trkpt lat="45.06707" lon="2.77818">
        <ele>1647.6</ele>
        <time>2021-09-13T12:22:42.000Z</time>
      </trkpt>
      <trkpt lat="45.06709" lon="2.77828">
        <ele>1646.8</ele>
        <time>2021-09-13T12:22:52.000Z</time>
      </trkpt>
      <trkpt lat="45.0671" lon="2.77837">
        <ele>1645.7</ele>
        <time>2021-09-13T12:23:00.000Z</time>
      </trkpt>
      <trkpt lat="45.06712" lon="2.77846">
        <ele>1644.6</ele>
        <time>2021-09-13T12:23:09.000Z</time>
      </trkpt>
      <trkpt lat="45.06713" lon="2.77856">
        <ele>1643</ele>
        <time>2021-09-13T12:23:15.000Z</time>
      </trkpt>
      <trkpt lat="45.06713" lon="2.77865">
        <ele>1641.5</ele>
        <time>2021-09-13T12:23:21.000Z</time>
      </trkpt>
      <trkpt lat="45.06712" lon="2.77877">
        <ele>1639.2</ele>
        <time>2021-09-13T12:23:27.000Z</time>
      </trkpt>
      <trkpt lat="45.06716" lon="2.77885">
        <ele>1638.6</ele>
        <time>2021-09-13T12:23:34.000Z</time>
      </trkpt>
      <trkpt lat="45.06717" lon="2.77895">
        <ele>1637.1</ele>
        <time>2021-09-13T12:23:40.000Z</time>
      </trkpt>
      <trkpt lat="45.06721" lon="2.77903">
        <ele>1636.5</ele>
        <time>2021-09-13T12:23:46.000Z</time>
      </trkpt>
      <trkpt lat="45.06723" lon="2.77911">
        <ele>1635.5</ele>
        <time>2021-09-13T12:23:59.000Z</time>
      </trkpt>
      <trkpt lat="45.06727" lon="2.7792">
        <ele>1634.6</ele>
        <time>2021-09-13T12:24:07.000Z</time>
      </trkpt>
      <trkpt lat="45.0673" lon="2.77929">
        <ele>1633.5</ele>
        <time>2021-09-13T12:24:40.000Z</time>
      </trkpt>
      <trkpt lat="45.06735" lon="2.77936">
        <ele>1633.2</ele>
        <time>2021-09-13T12:24:49.000Z</time>
      </trkpt>
      <trkpt lat="45.0674" lon="2.77952">
        <ele>1631.3</ele>
        <time>2021-09-13T12:27:45.000Z</time>
      </trkpt>
      <trkpt lat="45.06741" lon="2.77963">
        <ele>1629.5</ele>
        <time>2021-09-13T12:27:51.000Z</time>
      </trkpt>
      <trkpt lat="45.06742" lon="2.7798">
        <ele>1626.5</ele>
        <time>2021-09-13T12:27:57.000Z</time>
      </trkpt>
      <trkpt lat="45.06742" lon="2.77997">
        <ele>1623.4</ele>
        <time>2021-09-13T12:28:03.000Z</time>
      </trkpt>
      <trkpt lat="45.06742" lon="2.78008">
        <ele>1621</ele>
        <time>2021-09-13T12:28:09.000Z</time>
      </trkpt>
      <trkpt lat="45.06744" lon="2.78018">
        <ele>1619.3</ele>
        <time>2021-09-13T12:28:15.000Z</time>
      </trkpt>
      <trkpt lat="45.06745" lon="2.78027">
        <ele>1617.5</ele>
        <time>2021-09-13T12:28:21.000Z</time>
      </trkpt>
      <trkpt lat="45.06748" lon="2.78037">
        <ele>1616</ele>
        <time>2021-09-13T12:28:27.000Z</time>
      </trkpt>
      <trkpt lat="45.0675" lon="2.78046">
        <ele>1614.5</ele>
        <time>2021-09-13T12:28:33.000Z</time>
      </trkpt>
      <trkpt lat="45.06751" lon="2.78055">
        <ele>1612.6</ele>
        <time>2021-09-13T12:28:41.000Z</time>
      </trkpt>
      <trkpt lat="45.06751" lon="2.78065">
        <ele>1610.4</ele>
        <time>2021-09-13T12:28:49.000Z</time>
      </trkpt>
      <trkpt lat="45.06752" lon="2.78074">
        <ele>1608.5</ele>
        <time>2021-09-13T12:28:55.000Z</time>
      </trkpt>
      <trkpt lat="45.06755" lon="2.78083">
        <ele>1607.2</ele>
        <time>2021-09-13T12:29:01.000Z</time>
      </trkpt>
      <trkpt lat="45.06758" lon="2.78092">
        <ele>1606.7</ele>
        <time>2021-09-13T12:29:06.000Z</time>
      </trkpt>
      <trkpt lat="45.0676" lon="2.78101">
        <ele>1606</ele>
        <time>2021-09-13T12:29:12.000Z</time>
      </trkpt>
      <trkpt lat="45.06763" lon="2.78111">
        <ele>1605.5</ele>
        <time>2021-09-13T12:29:20.000Z</time>
      </trkpt>
      <trkpt lat="45.06767" lon="2.78119">
        <ele>1605.6</ele>
        <time>2021-09-13T12:29:29.000Z</time>
      </trkpt>
      <trkpt lat="45.0677" lon="2.78127">
        <ele>1605.4</ele>
        <time>2021-09-13T12:29:40.000Z</time>
      </trkpt>
      <trkpt lat="45.06776" lon="2.78133">
        <ele>1606.4</ele>
        <time>2021-09-13T12:29:49.000Z</time>
      </trkpt>
      <trkpt lat="45.06782" lon="2.78137">
        <ele>1607.6</ele>
        <time>2021-09-13T12:29:57.000Z</time>
      </trkpt>
      <trkpt lat="45.06786" lon="2.78146">
        <ele>1607.8</ele>
        <time>2021-09-13T12:30:05.000Z</time>
      </trkpt>
      <trkpt lat="45.0679" lon="2.78153">
        <ele>1608.3</ele>
        <time>2021-09-13T12:30:13.000Z</time>
      </trkpt>
      <trkpt lat="45.06795" lon="2.78161">
        <ele>1609</ele>
        <time>2021-09-13T12:30:23.000Z</time>
      </trkpt>
      <trkpt lat="45.06801" lon="2.78164">
        <ele>1610.5</ele>
        <time>2021-09-13T12:30:32.000Z</time>
      </trkpt>
      <trkpt lat="45.06807" lon="2.78169">
        <ele>1612</ele>
        <time>2021-09-13T12:30:49.000Z</time>
      </trkpt>
      <trkpt lat="45.06813" lon="2.78172">
        <ele>1613.7</ele>
        <time>2021-09-13T12:31:15.000Z</time>
      </trkpt>
      <trkpt lat="45.06815" lon="2.78185">
        <ele>1613.9</ele>
        <time>2021-09-13T12:31:35.000Z</time>
      </trkpt>
      <trkpt lat="45.06816" lon="2.78196">
        <ele>1613.9</ele>
        <time>2021-09-13T12:31:55.000Z</time>
      </trkpt>
      <trkpt lat="45.06814" lon="2.78206">
        <ele>1613</ele>
        <time>2021-09-13T12:32:45.000Z</time>
      </trkpt>
      <trkpt lat="45.06818" lon="2.78215">
        <ele>1613.9</ele>
        <time>2021-09-13T12:32:54.000Z</time>
      </trkpt>
      <trkpt lat="45.06821" lon="2.78223">
        <ele>1614.5</ele>
        <time>2021-09-13T12:33:01.000Z</time>
      </trkpt>
      <trkpt lat="45.06825" lon="2.7823">
        <ele>1615.4</ele>
        <time>2021-09-13T12:33:09.000Z</time>
      </trkpt>
      <trkpt lat="45.06832" lon="2.78229">
        <ele>1617.4</ele>
        <time>2021-09-13T12:33:16.000Z</time>
      </trkpt>
      <trkpt lat="45.06839" lon="2.78229">
        <ele>1618.4</ele>
        <time>2021-09-13T12:33:51.000Z</time>
      </trkpt>
      <trkpt lat="45.06845" lon="2.78235">
        <ele>1619.1</ele>
        <time>2021-09-13T12:33:57.000Z</time>
      </trkpt>
      <trkpt lat="45.0685" lon="2.78241">
        <ele>1619.7</ele>
        <time>2021-09-13T12:34:42.000Z</time>
      </trkpt>
      <trkpt lat="45.06854" lon="2.78249">
        <ele>1620.2</ele>
        <time>2021-09-13T12:34:48.000Z</time>
      </trkpt>
      <trkpt lat="45.06855" lon="2.78259">
        <ele>1620.1</ele>
        <time>2021-09-13T12:35:10.000Z</time>
      </trkpt>
      <trkpt lat="45.06857" lon="2.78269">
        <ele>1620</ele>
        <time>2021-09-13T12:35:16.000Z</time>
      </trkpt>
      <trkpt lat="45.0686" lon="2.78278">
        <ele>1620.2</ele>
        <time>2021-09-13T12:35:22.000Z</time>
      </trkpt>
      <trkpt lat="45.06863" lon="2.78288">
        <ele>1620.3</ele>
        <time>2021-09-13T12:35:29.000Z</time>
      </trkpt>
      <trkpt lat="45.06864" lon="2.78298">
        <ele>1620.1</ele>
        <time>2021-09-13T12:35:36.000Z</time>
      </trkpt>
      <trkpt lat="45.06869" lon="2.78305">
        <ele>1620.6</ele>
        <time>2021-09-13T12:35:44.000Z</time>
      </trkpt>
      <trkpt lat="45.06872" lon="2.78314">
        <ele>1620.7</ele>
        <time>2021-09-13T12:35:53.000Z</time>
      </trkpt>
      <trkpt lat="45.06877" lon="2.78321">
        <ele>1621.3</ele>
        <time>2021-09-13T12:36:01.000Z</time>
      </trkpt>
      <trkpt lat="45.06882" lon="2.78326">
        <ele>1621.9</ele>
        <time>2021-09-13T12:36:13.000Z</time>
      </trkpt>
      <trkpt lat="45.06876" lon="2.78328">
        <ele>1620.8</ele>
        <time>2021-09-13T12:37:18.000Z</time>
      </trkpt>
      <trkpt lat="45.0687" lon="2.78333">
        <ele>1619.7</ele>
        <time>2021-09-13T12:37:28.000Z</time>
      </trkpt>
      <trkpt lat="45.06864" lon="2.78339">
        <ele>1618</ele>
        <time>2021-09-13T12:37:34.000Z</time>
      </trkpt>
      <trkpt lat="45.06858" lon="2.78345">
        <ele>1616.5</ele>
        <time>2021-09-13T12:37:40.000Z</time>
      </trkpt>
      <trkpt lat="45.06855" lon="2.78354">
        <ele>1615.2</ele>
        <time>2021-09-13T12:39:49.000Z</time>
      </trkpt>
      <trkpt lat="45.06848" lon="2.78355">
        <ele>1614.5</ele>
        <time>2021-09-13T12:39:55.000Z</time>
      </trkpt>
      <trkpt lat="45.06842" lon="2.78358">
        <ele>1613.8</ele>
        <time>2021-09-13T12:40:00.000Z</time>
      </trkpt>
      <trkpt lat="45.06835" lon="2.78364">
        <ele>1613</ele>
        <time>2021-09-13T12:40:05.000Z</time>
      </trkpt>
      <trkpt lat="45.06829" lon="2.78368">
        <ele>1611.6</ele>
        <time>2021-09-13T12:40:11.000Z</time>
      </trkpt>
      <trkpt lat="45.06823" lon="2.78372">
        <ele>1610</ele>
        <time>2021-09-13T12:40:16.000Z</time>
      </trkpt>
      <trkpt lat="45.06817" lon="2.78377">
        <ele>1608.2</ele>
        <time>2021-09-13T12:40:22.000Z</time>
      </trkpt>
      <trkpt lat="45.06811" lon="2.78384">
        <ele>1606.3</ele>
        <time>2021-09-13T12:40:28.000Z</time>
      </trkpt>
      <trkpt lat="45.06804" lon="2.78388">
        <ele>1604.3</ele>
        <time>2021-09-13T12:40:36.000Z</time>
      </trkpt>
      <trkpt lat="45.06798" lon="2.78393">
        <ele>1602.5</ele>
        <time>2021-09-13T12:40:42.000Z</time>
      </trkpt>
      <trkpt lat="45.06792" lon="2.78399">
        <ele>1600.5</ele>
        <time>2021-09-13T12:40:48.000Z</time>
      </trkpt>
      <trkpt lat="45.06785" lon="2.78402">
        <ele>1598.5</ele>
        <time>2021-09-13T12:40:55.000Z</time>
      </trkpt>
      <trkpt lat="45.0678" lon="2.78408">
        <ele>1596.8</ele>
        <time>2021-09-13T12:41:01.000Z</time>
      </trkpt>
      <trkpt lat="45.06773" lon="2.78409">
        <ele>1594.8</ele>
        <time>2021-09-13T12:41:17.000Z</time>
      </trkpt>
      <trkpt lat="45.06766" lon="2.7841">
        <ele>1592.8</ele>
        <time>2021-09-13T12:41:50.000Z</time>
      </trkpt>
      <trkpt lat="45.06767" lon="2.78419">
        <ele>1592.5</ele>
        <time>2021-09-13T12:41:57.000Z</time>
      </trkpt>
      <trkpt lat="45.06765" lon="2.78428">
        <ele>1591.3</ele>
        <time>2021-09-13T12:42:06.000Z</time>
      </trkpt>
      <trkpt lat="45.0676" lon="2.78436">
        <ele>1589.5</ele>
        <time>2021-09-13T12:42:15.000Z</time>
      </trkpt>
      <trkpt lat="45.06759" lon="2.78445">
        <ele>1588.7</ele>
        <time>2021-09-13T12:42:23.000Z</time>
      </trkpt>
      <trkpt lat="45.06754" lon="2.78454">
        <ele>1587.1</ele>
        <time>2021-09-13T12:43:15.000Z</time>
      </trkpt>
      <trkpt lat="45.06753" lon="2.78465">
        <ele>1586.3</ele>
        <time>2021-09-13T12:43:21.000Z</time>
      </trkpt>
      <trkpt lat="45.06751" lon="2.78474">
        <ele>1585.4</ele>
        <time>2021-09-13T12:43:27.000Z</time>
      </trkpt>
      <trkpt lat="45.06752" lon="2.78484">
        <ele>1585.1</ele>
        <time>2021-09-13T12:43:33.000Z</time>
      </trkpt>
      <trkpt lat="45.06753" lon="2.78493">
        <ele>1584.8</ele>
        <time>2021-09-13T12:43:42.000Z</time>
      </trkpt>
      <trkpt lat="45.06756" lon="2.78502">
        <ele>1584.6</ele>
        <time>2021-09-13T12:43:52.000Z</time>
      </trkpt>
      <trkpt lat="45.06749" lon="2.78503">
        <ele>1583.3</ele>
        <time>2021-09-13T12:45:53.000Z</time>
      </trkpt>
      <trkpt lat="45.06742" lon="2.78505">
        <ele>1580.4</ele>
        <time>2021-09-13T12:46:02.000Z</time>
      </trkpt>
      <trkpt lat="45.06737" lon="2.78511">
        <ele>1577.8</ele>
        <time>2021-09-13T12:46:10.000Z</time>
      </trkpt>
      <trkpt lat="45.06733" lon="2.78518">
        <ele>1575.5</ele>
        <time>2021-09-13T12:46:19.000Z</time>
      </trkpt>
      <trkpt lat="45.06728" lon="2.78525">
        <ele>1572.9</ele>
        <time>2021-09-13T12:46:33.000Z</time>
      </trkpt>
      <trkpt lat="45.06721" lon="2.78528">
        <ele>1570.1</ele>
        <time>2021-09-13T12:46:43.000Z</time>
      </trkpt>
      <trkpt lat="45.06717" lon="2.78535">
        <ele>1568</ele>
        <time>2021-09-13T12:46:50.000Z</time>
      </trkpt>
      <trkpt lat="45.06712" lon="2.78543">
        <ele>1565.4</ele>
        <time>2021-09-13T12:46:56.000Z</time>
      </trkpt>
      <trkpt lat="45.06708" lon="2.78551">
        <ele>1563.3</ele>
        <time>2021-09-13T12:47:02.000Z</time>
      </trkpt>
      <trkpt lat="45.06705" lon="2.7856">
        <ele>1561.5</ele>
        <time>2021-09-13T12:47:09.000Z</time>
      </trkpt>
      <trkpt lat="45.067" lon="2.78567">
        <ele>1559.2</ele>
        <time>2021-09-13T12:47:16.000Z</time>
      </trkpt>
      <trkpt lat="45.06697" lon="2.78576">
        <ele>1557.4</ele>
        <time>2021-09-13T12:47:24.000Z</time>
      </trkpt>
      <trkpt lat="45.06692" lon="2.78581">
        <ele>1555.4</ele>
        <time>2021-09-13T12:47:38.000Z</time>
      </trkpt>
      <trkpt lat="45.06688" lon="2.78589">
        <ele>1553.3</ele>
        <time>2021-09-13T12:47:47.000Z</time>
      </trkpt>
      <trkpt lat="45.06685" lon="2.78598">
        <ele>1551.4</ele>
        <time>2021-09-13T12:47:55.000Z</time>
      </trkpt>
      <trkpt lat="45.0668" lon="2.78606">
        <ele>1549.3</ele>
        <time>2021-09-13T12:48:02.000Z</time>
      </trkpt>
      <trkpt lat="45.06679" lon="2.78616">
        <ele>1548.2</ele>
        <time>2021-09-13T12:48:09.000Z</time>
      </trkpt>
      <trkpt lat="45.06677" lon="2.78625">
        <ele>1547</ele>
        <time>2021-09-13T12:48:20.000Z</time>
      </trkpt>
      <trkpt lat="45.06672" lon="2.78631">
        <ele>1545.6</ele>
        <time>2021-09-13T12:48:29.000Z</time>
      </trkpt>
      <trkpt lat="45.06665" lon="2.78633">
        <ele>1544.1</ele>
        <time>2021-09-13T12:48:44.000Z</time>
      </trkpt>
      <trkpt lat="45.06659" lon="2.78637">
        <ele>1541.9</ele>
        <time>2021-09-13T12:48:55.000Z</time>
      </trkpt>
      <trkpt lat="45.06652" lon="2.7864">
        <ele>1539.4</ele>
        <time>2021-09-13T12:49:03.000Z</time>
      </trkpt>
      <trkpt lat="45.06645" lon="2.78644">
        <ele>1536.9</ele>
        <time>2021-09-13T12:49:11.000Z</time>
      </trkpt>
      <trkpt lat="45.06641" lon="2.78651">
        <ele>1535.2</ele>
        <time>2021-09-13T12:49:17.000Z</time>
      </trkpt>
      <trkpt lat="45.06637" lon="2.7866">
        <ele>1533.4</ele>
        <time>2021-09-13T12:49:24.000Z</time>
      </trkpt>
      <trkpt lat="45.06633" lon="2.78668">
        <ele>1531.6</ele>
        <time>2021-09-13T12:49:32.000Z</time>
      </trkpt>
      <trkpt lat="45.06629" lon="2.78676">
        <ele>1529.8</ele>
        <time>2021-09-13T12:49:38.000Z</time>
      </trkpt>
      <trkpt lat="45.06623" lon="2.78682">
        <ele>1527.5</ele>
        <time>2021-09-13T12:49:44.000Z</time>
      </trkpt>
      <trkpt lat="45.06617" lon="2.78688">
        <ele>1525.2</ele>
        <time>2021-09-13T12:49:50.000Z</time>
      </trkpt>
      <trkpt lat="45.06612" lon="2.78693">
        <ele>1523.3</ele>
        <time>2021-09-13T12:49:57.000Z</time>
      </trkpt>
      <trkpt lat="45.06606" lon="2.787">
        <ele>1520.9</ele>
        <time>2021-09-13T12:50:34.000Z</time>
      </trkpt>
      <trkpt lat="45.06601" lon="2.78706">
        <ele>1518.9</ele>
        <time>2021-09-13T12:50:39.000Z</time>
      </trkpt>
      <trkpt lat="45.06609" lon="2.78699">
        <ele>1522</ele>
        <time>2021-09-13T12:51:25.000Z</time>
      </trkpt>
      <trkpt lat="45.06604" lon="2.78707">
        <ele>1519.9</ele>
        <time>2021-09-13T12:51:40.000Z</time>
      </trkpt>
      <trkpt lat="45.06602" lon="2.78715">
        <ele>1518.8</ele>
        <time>2021-09-13T12:51:47.000Z</time>
      </trkpt>
      <trkpt lat="45.06599" lon="2.78725">
        <ele>1517.3</ele>
        <time>2021-09-13T12:51:54.000Z</time>
      </trkpt>
      <trkpt lat="45.06596" lon="2.78733">
        <ele>1516</ele>
        <time>2021-09-13T12:52:02.000Z</time>
      </trkpt>
      <trkpt lat="45.06589" lon="2.78741">
        <ele>1513.3</ele>
        <time>2021-09-13T12:52:33.000Z</time>
      </trkpt>
      <trkpt lat="45.06584" lon="2.78746">
        <ele>1511.4</ele>
        <time>2021-09-13T12:53:44.000Z</time>
      </trkpt>
      <trkpt lat="45.06573" lon="2.78758">
        <ele>1507.7</ele>
        <time>2021-09-13T12:55:40.000Z</time>
      </trkpt>
      <trkpt lat="45.06571" lon="2.78768">
        <ele>1506.2</ele>
        <time>2021-09-13T12:55:55.000Z</time>
      </trkpt>
      <trkpt lat="45.0657" lon="2.78782">
        <ele>1504.4</ele>
        <time>2021-09-13T12:56:16.000Z</time>
      </trkpt>
      <trkpt lat="45.06568" lon="2.78797">
        <ele>1502.4</ele>
        <time>2021-09-13T12:56:29.000Z</time>
      </trkpt>
      <trkpt lat="45.06575" lon="2.78813">
        <ele>1501.9</ele>
        <time>2021-09-13T12:57:13.000Z</time>
      </trkpt>
      <trkpt lat="45.06582" lon="2.78809">
        <ele>1503.7</ele>
        <time>2021-09-13T12:57:23.000Z</time>
      </trkpt>
      <trkpt lat="45.06589" lon="2.78821">
        <ele>1503.7</ele>
        <time>2021-09-13T12:57:43.000Z</time>
      </trkpt>
      <trkpt lat="45.06594" lon="2.78815">
        <ele>1505.7</ele>
        <time>2021-09-13T12:58:00.000Z</time>
      </trkpt>
      <trkpt lat="45.066" lon="2.78809">
        <ele>1507.9</ele>
        <time>2021-09-13T12:58:34.000Z</time>
      </trkpt>
      <trkpt lat="45.06595" lon="2.78819">
        <ele>1505.3</ele>
        <time>2021-09-13T12:58:41.000Z</time>
      </trkpt>
      <trkpt lat="45.06589" lon="2.78813">
        <ele>1504.8</ele>
        <time>2021-09-13T12:59:29.000Z</time>
      </trkpt>
      <trkpt lat="45.06583" lon="2.78809">
        <ele>1503.9</ele>
        <time>2021-09-13T12:59:48.000Z</time>
      </trkpt>
      <trkpt lat="45.06579" lon="2.78817">
        <ele>1502.2</ele>
        <time>2021-09-13T13:00:18.000Z</time>
      </trkpt>
      <trkpt lat="45.06586" lon="2.7883">
        <ele>1502</ele>
        <time>2021-09-13T13:00:34.000Z</time>
      </trkpt>
      <trkpt lat="45.06591" lon="2.78824">
        <ele>1503.8</ele>
        <time>2021-09-13T13:00:44.000Z</time>
      </trkpt>
      <trkpt lat="45.06591" lon="2.78815">
        <ele>1505</ele>
        <time>2021-09-13T13:01:20.000Z</time>
      </trkpt>
      <trkpt lat="45.06589" lon="2.78806">
        <ele>1505.7</ele>
        <time>2021-09-13T13:01:48.000Z</time>
      </trkpt>
      <trkpt lat="45.06595" lon="2.78809">
        <ele>1506.7</ele>
        <time>2021-09-13T13:03:16.000Z</time>
      </trkpt>
      <trkpt lat="45.06601" lon="2.78814">
        <ele>1507.4</ele>
        <time>2021-09-13T13:03:56.000Z</time>
      </trkpt>
      <trkpt lat="45.06608" lon="2.78817">
        <ele>1508.6</ele>
        <time>2021-09-13T13:04:46.000Z</time>
      </trkpt>
      <trkpt lat="45.06611" lon="2.78826">
        <ele>1507.8</ele>
        <time>2021-09-13T13:04:58.000Z</time>
      </trkpt>
      <trkpt lat="45.06613" lon="2.78835">
        <ele>1506.8</ele>
        <time>2021-09-13T13:05:33.000Z</time>
      </trkpt>
      <trkpt lat="45.06617" lon="2.78844">
        <ele>1506.3</ele>
        <time>2021-09-13T13:05:55.000Z</time>
      </trkpt>
      <trkpt lat="45.06621" lon="2.78852">
        <ele>1505.8</ele>
        <time>2021-09-13T13:07:22.000Z</time>
      </trkpt>
      <trkpt lat="45.06627" lon="2.78856">
        <ele>1506.3</ele>
        <time>2021-09-13T13:08:06.000Z</time>
      </trkpt>
      <trkpt lat="45.06634" lon="2.78857">
        <ele>1507.5</ele>
        <time>2021-09-13T13:08:15.000Z</time>
      </trkpt>
      <trkpt lat="45.06641" lon="2.7886">
        <ele>1508.2</ele>
        <time>2021-09-13T13:08:27.000Z</time>
      </trkpt>
      <trkpt lat="45.06648" lon="2.7886">
        <ele>1509.5</ele>
        <time>2021-09-13T13:08:39.000Z</time>
      </trkpt>
      <trkpt lat="45.06651" lon="2.78868">
        <ele>1508.6</ele>
        <time>2021-09-13T13:08:58.000Z</time>
      </trkpt>
      <trkpt lat="45.06657" lon="2.78874">
        <ele>1508.6</ele>
        <time>2021-09-13T13:09:27.000Z</time>
      </trkpt>
      <trkpt lat="45.06663" lon="2.78876">
        <ele>1509.2</ele>
        <time>2021-09-13T13:09:34.000Z</time>
      </trkpt>
      <trkpt lat="45.06669" lon="2.7888">
        <ele>1508.8</ele>
        <time>2021-09-13T13:09:40.000Z</time>
      </trkpt>
      <trkpt lat="45.06675" lon="2.78885">
        <ele>1507.1</ele>
        <time>2021-09-13T13:09:49.000Z</time>
      </trkpt>
      <trkpt lat="45.06682" lon="2.78883">
        <ele>1506.7</ele>
        <time>2021-09-13T13:09:54.000Z</time>
      </trkpt>
      <trkpt lat="45.06687" lon="2.78878">
        <ele>1506.9</ele>
        <time>2021-09-13T13:10:02.000Z</time>
      </trkpt>
      <trkpt lat="45.06691" lon="2.78886">
        <ele>1505.1</ele>
        <time>2021-09-13T13:10:42.000Z</time>
      </trkpt>
      <trkpt lat="45.06697" lon="2.78893">
        <ele>1503.3</ele>
        <time>2021-09-13T13:10:48.000Z</time>
      </trkpt>
      <trkpt lat="45.06704" lon="2.78896">
        <ele>1502.1</ele>
        <time>2021-09-13T13:10:53.000Z</time>
      </trkpt>
      <trkpt lat="45.06711" lon="2.78899">
        <ele>1500.9</ele>
        <time>2021-09-13T13:10:57.000Z</time>
      </trkpt>
      <trkpt lat="45.06718" lon="2.78902">
        <ele>1499.7</ele>
        <time>2021-09-13T13:11:03.000Z</time>
      </trkpt>
      <trkpt lat="45.06723" lon="2.78909">
        <ele>1498.3</ele>
        <time>2021-09-13T13:11:09.000Z</time>
      </trkpt>
      <trkpt lat="45.06726" lon="2.78919">
        <ele>1496.7</ele>
        <time>2021-09-13T13:11:15.000Z</time>
      </trkpt>
      <trkpt lat="45.06725" lon="2.78928">
        <ele>1495.6</ele>
        <time>2021-09-13T13:11:29.000Z</time>
      </trkpt>
      <trkpt lat="45.06723" lon="2.78937">
        <ele>1494.7</ele>
        <time>2021-09-13T13:11:45.000Z</time>
      </trkpt>
      <trkpt lat="45.06721" lon="2.78947">
        <ele>1493.6</ele>
        <time>2021-09-13T13:11:51.000Z</time>
      </trkpt>
      <trkpt lat="45.06719" lon="2.78956">
        <ele>1492.6</ele>
        <time>2021-09-13T13:11:57.000Z</time>
      </trkpt>
      <trkpt lat="45.06716" lon="2.78965">
        <ele>1491.7</ele>
        <time>2021-09-13T13:12:10.000Z</time>
      </trkpt>
      <trkpt lat="45.06713" lon="2.78975">
        <ele>1490.7</ele>
        <time>2021-09-13T13:12:15.000Z</time>
      </trkpt>
      <trkpt lat="45.06711" lon="2.78988">
        <ele>1489.3</ele>
        <time>2021-09-13T13:12:21.000Z</time>
      </trkpt>
      <trkpt lat="45.06708" lon="2.78999">
        <ele>1488.2</ele>
        <time>2021-09-13T13:12:27.000Z</time>
      </trkpt>
      <trkpt lat="45.06705" lon="2.7901">
        <ele>1487.3</ele>
        <time>2021-09-13T13:12:33.000Z</time>
      </trkpt>
      <trkpt lat="45.06703" lon="2.79021">
        <ele>1486.4</ele>
        <time>2021-09-13T13:12:39.000Z</time>
      </trkpt>
      <trkpt lat="45.067" lon="2.79033">
        <ele>1485.4</ele>
        <time>2021-09-13T13:12:45.000Z</time>
      </trkpt>
      <trkpt lat="45.06696" lon="2.79042">
        <ele>1484.8</ele>
        <time>2021-09-13T13:12:51.000Z</time>
      </trkpt>
      <trkpt lat="45.06694" lon="2.79053">
        <ele>1483.9</ele>
        <time>2021-09-13T13:12:58.000Z</time>
      </trkpt>
      <trkpt lat="45.06692" lon="2.79062">
        <ele>1483.1</ele>
        <time>2021-09-13T13:13:04.000Z</time>
      </trkpt>
      <trkpt lat="45.06693" lon="2.79072">
        <ele>1482</ele>
        <time>2021-09-13T13:13:11.000Z</time>
      </trkpt>
      <trkpt lat="45.06691" lon="2.79081">
        <ele>1481.2</ele>
        <time>2021-09-13T13:13:17.000Z</time>
      </trkpt>
      <trkpt lat="45.0669" lon="2.7909">
        <ele>1480.4</ele>
        <time>2021-09-13T13:13:22.000Z</time>
      </trkpt>
      <trkpt lat="45.0669" lon="2.791">
        <ele>1479.6</ele>
        <time>2021-09-13T13:13:28.000Z</time>
      </trkpt>
      <trkpt lat="45.06688" lon="2.79109">
        <ele>1478.9</ele>
        <time>2021-09-13T13:13:35.000Z</time>
      </trkpt>
      <trkpt lat="45.06686" lon="2.79118">
        <ele>1478.2</ele>
        <time>2021-09-13T13:13:39.000Z</time>
      </trkpt>
      <trkpt lat="45.06681" lon="2.79131">
        <ele>1477.4</ele>
        <time>2021-09-13T13:13:45.000Z</time>
      </trkpt>
      <trkpt lat="45.06678" lon="2.79142">
        <ele>1476.6</ele>
        <time>2021-09-13T13:13:51.000Z</time>
      </trkpt>
      <trkpt lat="45.06673" lon="2.79152">
        <ele>1476</ele>
        <time>2021-09-13T13:13:57.000Z</time>
      </trkpt>
      <trkpt lat="45.06674" lon="2.79161">
        <ele>1475.1</ele>
        <time>2021-09-13T13:14:04.000Z</time>
      </trkpt>
      <trkpt lat="45.0667" lon="2.7917">
        <ele>1474.5</ele>
        <time>2021-09-13T13:14:14.000Z</time>
      </trkpt>
      <trkpt lat="45.06668" lon="2.79179">
        <ele>1473.9</ele>
        <time>2021-09-13T13:14:22.000Z</time>
      </trkpt>
      <trkpt lat="45.06668" lon="2.79188">
        <ele>1473.1</ele>
        <time>2021-09-13T13:14:31.000Z</time>
      </trkpt>
      <trkpt lat="45.06665" lon="2.79196">
        <ele>1472.4</ele>
        <time>2021-09-13T13:14:36.000Z</time>
      </trkpt>
      <trkpt lat="45.06659" lon="2.79204">
        <ele>1471.4</ele>
        <time>2021-09-13T13:14:41.000Z</time>
      </trkpt>
      <trkpt lat="45.06654" lon="2.7921">
        <ele>1470.6</ele>
        <time>2021-09-13T13:14:46.000Z</time>
      </trkpt>
      <trkpt lat="45.06651" lon="2.79219">
        <ele>1469.6</ele>
        <time>2021-09-13T13:14:52.000Z</time>
      </trkpt>
      <trkpt lat="45.06649" lon="2.79229">
        <ele>1468.5</ele>
        <time>2021-09-13T13:14:58.000Z</time>
      </trkpt>
      <trkpt lat="45.06648" lon="2.79238">
        <ele>1467.6</ele>
        <time>2021-09-13T13:15:03.000Z</time>
      </trkpt>
      <trkpt lat="45.06648" lon="2.79249">
        <ele>1466.5</ele>
        <time>2021-09-13T13:15:09.000Z</time>
      </trkpt>
      <trkpt lat="45.06646" lon="2.7926">
        <ele>1465.3</ele>
        <time>2021-09-13T13:15:15.000Z</time>
      </trkpt>
      <trkpt lat="45.06645" lon="2.7927">
        <ele>1464.3</ele>
        <time>2021-09-13T13:15:21.000Z</time>
      </trkpt>
      <trkpt lat="45.06644" lon="2.79279">
        <ele>1463.4</ele>
        <time>2021-09-13T13:15:27.000Z</time>
      </trkpt>
      <trkpt lat="45.06644" lon="2.7929">
        <ele>1462.3</ele>
        <time>2021-09-13T13:15:34.000Z</time>
      </trkpt>
      <trkpt lat="45.06647" lon="2.79299">
        <ele>1461.8</ele>
        <time>2021-09-13T13:15:40.000Z</time>
      </trkpt>
      <trkpt lat="45.06645" lon="2.79309">
        <ele>1460.7</ele>
        <time>2021-09-13T13:15:46.000Z</time>
      </trkpt>
      <trkpt lat="45.06644" lon="2.7932">
        <ele>1459.5</ele>
        <time>2021-09-13T13:15:53.000Z</time>
      </trkpt>
      <trkpt lat="45.06645" lon="2.79329">
        <ele>1458.8</ele>
        <time>2021-09-13T13:15:57.000Z</time>
      </trkpt>
      <trkpt lat="45.0663" lon="2.79348">
        <ele>1455.9</ele>
        <time>2021-09-13T13:16:03.000Z</time>
      </trkpt>
      <trkpt lat="45.06625" lon="2.79357">
        <ele>1454.9</ele>
        <time>2021-09-13T13:16:09.000Z</time>
      </trkpt>
      <trkpt lat="45.06623" lon="2.79366">
        <ele>1454.2</ele>
        <time>2021-09-13T13:16:16.000Z</time>
      </trkpt>
      <trkpt lat="45.0662" lon="2.79376">
        <ele>1453.4</ele>
        <time>2021-09-13T13:16:27.000Z</time>
      </trkpt>
      <trkpt lat="45.06616" lon="2.79383">
        <ele>1452.7</ele>
        <time>2021-09-13T13:16:33.000Z</time>
      </trkpt>
      <trkpt lat="45.06609" lon="2.79391">
        <ele>1451.6</ele>
        <time>2021-09-13T13:16:39.000Z</time>
      </trkpt>
      <trkpt lat="45.06603" lon="2.79397">
        <ele>1450.7</ele>
        <time>2021-09-13T13:16:45.000Z</time>
      </trkpt>
      <trkpt lat="45.06599" lon="2.79406">
        <ele>1449.9</ele>
        <time>2021-09-13T13:16:51.000Z</time>
      </trkpt>
      <trkpt lat="45.06592" lon="2.79415">
        <ele>1448.9</ele>
        <time>2021-09-13T13:16:57.000Z</time>
      </trkpt>
      <trkpt lat="45.06586" lon="2.79422">
        <ele>1447.8</ele>
        <time>2021-09-13T13:17:03.000Z</time>
      </trkpt>
      <trkpt lat="45.06576" lon="2.79434">
        <ele>1445.4</ele>
        <time>2021-09-13T13:17:09.000Z</time>
      </trkpt>
      <trkpt lat="45.06569" lon="2.79438">
        <ele>1444</ele>
        <time>2021-09-13T13:17:15.000Z</time>
      </trkpt>
      <trkpt lat="45.06562" lon="2.79441">
        <ele>1442.6</ele>
        <time>2021-09-13T13:17:24.000Z</time>
      </trkpt>
      <trkpt lat="45.06555" lon="2.79444">
        <ele>1441.2</ele>
        <time>2021-09-13T13:17:29.000Z</time>
      </trkpt>
      <trkpt lat="45.06548" lon="2.79449">
        <ele>1439.5</ele>
        <time>2021-09-13T13:17:34.000Z</time>
      </trkpt>
      <trkpt lat="45.06541" lon="2.7945">
        <ele>1438.2</ele>
        <time>2021-09-13T13:17:40.000Z</time>
      </trkpt>
      <trkpt lat="45.06535" lon="2.79448">
        <ele>1437.5</ele>
        <time>2021-09-13T13:17:47.000Z</time>
      </trkpt>
      <trkpt lat="45.06527" lon="2.79445">
        <ele>1436.6</ele>
        <time>2021-09-13T13:17:53.000Z</time>
      </trkpt>
      <trkpt lat="45.06521" lon="2.79444">
        <ele>1435.8</ele>
        <time>2021-09-13T13:17:57.000Z</time>
      </trkpt>
      <trkpt lat="45.06511" lon="2.79444">
        <ele>1434.2</ele>
        <time>2021-09-13T13:18:03.000Z</time>
      </trkpt>
      <trkpt lat="45.06503" lon="2.79444">
        <ele>1432.9</ele>
        <time>2021-09-13T13:18:09.000Z</time>
      </trkpt>
      <trkpt lat="45.06492" lon="2.79443">
        <ele>1431.4</ele>
        <time>2021-09-13T13:18:15.000Z</time>
      </trkpt>
      <trkpt lat="45.06483" lon="2.79443">
        <ele>1430.1</ele>
        <time>2021-09-13T13:18:21.000Z</time>
      </trkpt>
      <trkpt lat="45.06475" lon="2.79442">
        <ele>1429.1</ele>
        <time>2021-09-13T13:18:27.000Z</time>
      </trkpt>
      <trkpt lat="45.06467" lon="2.7944">
        <ele>1428.3</ele>
        <time>2021-09-13T13:18:33.000Z</time>
      </trkpt>
      <trkpt lat="45.06461" lon="2.79435">
        <ele>1428.3</ele>
        <time>2021-09-13T13:18:39.000Z</time>
      </trkpt>
      <trkpt lat="45.06456" lon="2.79428">
        <ele>1428.8</ele>
        <time>2021-09-13T13:18:45.000Z</time>
      </trkpt>
      <trkpt lat="45.06451" lon="2.79421">
        <ele>1429.2</ele>
        <time>2021-09-13T13:18:51.000Z</time>
      </trkpt>
      <trkpt lat="45.06447" lon="2.79413">
        <ele>1429.7</ele>
        <time>2021-09-13T13:18:57.000Z</time>
      </trkpt>
      <trkpt lat="45.06443" lon="2.79403">
        <ele>1430.1</ele>
        <time>2021-09-13T13:19:03.000Z</time>
      </trkpt>
      <trkpt lat="45.06435" lon="2.79395">
        <ele>1429.7</ele>
        <time>2021-09-13T13:19:09.000Z</time>
      </trkpt>
      <trkpt lat="45.06428" lon="2.79391">
        <ele>1429.1</ele>
        <time>2021-09-13T13:19:15.000Z</time>
      </trkpt>
      <trkpt lat="45.06421" lon="2.79388">
        <ele>1428.4</ele>
        <time>2021-09-13T13:19:28.000Z</time>
      </trkpt>
      <trkpt lat="45.06414" lon="2.7939">
        <ele>1427.1</ele>
        <time>2021-09-13T13:19:33.000Z</time>
      </trkpt>
      <trkpt lat="45.06406" lon="2.79391">
        <ele>1425.5</ele>
        <time>2021-09-13T13:19:39.000Z</time>
      </trkpt>
      <trkpt lat="45.06396" lon="2.7939">
        <ele>1423.8</ele>
        <time>2021-09-13T13:19:45.000Z</time>
      </trkpt>
      <trkpt lat="45.06387" lon="2.79389">
        <ele>1422.3</ele>
        <time>2021-09-13T13:19:51.000Z</time>
      </trkpt>
      <trkpt lat="45.0638" lon="2.79389">
        <ele>1421.1</ele>
        <time>2021-09-13T13:19:57.000Z</time>
      </trkpt>
      <trkpt lat="45.06373" lon="2.79387">
        <ele>1420</ele>
        <time>2021-09-13T13:20:03.000Z</time>
      </trkpt>
      <trkpt lat="45.06366" lon="2.79383">
        <ele>1419.1</ele>
        <time>2021-09-13T13:20:09.000Z</time>
      </trkpt>
      <trkpt lat="45.06361" lon="2.79377">
        <ele>1418.8</ele>
        <time>2021-09-13T13:20:16.000Z</time>
      </trkpt>
      <trkpt lat="45.06355" lon="2.79371">
        <ele>1418.3</ele>
        <time>2021-09-13T13:20:24.000Z</time>
      </trkpt>
      <trkpt lat="45.0635" lon="2.79365">
        <ele>1418</ele>
        <time>2021-09-13T13:20:31.000Z</time>
      </trkpt>
      <trkpt lat="45.06345" lon="2.79359">
        <ele>1417.6</ele>
        <time>2021-09-13T13:20:36.000Z</time>
      </trkpt>
      <trkpt lat="45.06352" lon="2.79356">
        <ele>1419.2</ele>
        <time>2021-09-13T13:20:53.000Z</time>
      </trkpt>
      <trkpt lat="45.06358" lon="2.79351">
        <ele>1420.7</ele>
        <time>2021-09-13T13:20:59.000Z</time>
      </trkpt>
      <trkpt lat="45.06357" lon="2.79342">
        <ele>1421.4</ele>
        <time>2021-09-13T13:21:04.000Z</time>
      </trkpt>
      <trkpt lat="45.06351" lon="2.79328">
        <ele>1421.5</ele>
        <time>2021-09-13T13:21:09.000Z</time>
      </trkpt>
      <trkpt lat="45.06346" lon="2.79319">
        <ele>1421.2</ele>
        <time>2021-09-13T13:21:15.000Z</time>
      </trkpt>
      <trkpt lat="45.06343" lon="2.79309">
        <ele>1421.3</ele>
        <time>2021-09-13T13:21:21.000Z</time>
      </trkpt>
      <trkpt lat="45.06334" lon="2.793">
        <ele>1420.1</ele>
        <time>2021-09-13T13:21:27.000Z</time>
      </trkpt>
      <trkpt lat="45.06326" lon="2.79289">
        <ele>1419.5</ele>
        <time>2021-09-13T13:21:33.000Z</time>
      </trkpt>
      <trkpt lat="45.06321" lon="2.79279">
        <ele>1419.4</ele>
        <time>2021-09-13T13:21:39.000Z</time>
      </trkpt>
      <trkpt lat="45.06313" lon="2.7927">
        <ele>1418.9</ele>
        <time>2021-09-13T13:21:45.000Z</time>
      </trkpt>
      <trkpt lat="45.06307" lon="2.79261">
        <ele>1418.7</ele>
        <time>2021-09-13T13:21:51.000Z</time>
      </trkpt>
      <trkpt lat="45.063" lon="2.79251">
        <ele>1418.5</ele>
        <time>2021-09-13T13:21:57.000Z</time>
      </trkpt>
      <trkpt lat="45.06295" lon="2.79243">
        <ele>1418.5</ele>
        <time>2021-09-13T13:22:03.000Z</time>
      </trkpt>
      <trkpt lat="45.0629" lon="2.79235">
        <ele>1418.4</ele>
        <time>2021-09-13T13:22:09.000Z</time>
      </trkpt>
      <trkpt lat="45.06285" lon="2.79226">
        <ele>1418.3</ele>
        <time>2021-09-13T13:22:16.000Z</time>
      </trkpt>
      <trkpt lat="45.06281" lon="2.79218">
        <ele>1418.3</ele>
        <time>2021-09-13T13:22:22.000Z</time>
      </trkpt>
      <trkpt lat="45.06276" lon="2.79211">
        <ele>1418.1</ele>
        <time>2021-09-13T13:22:27.000Z</time>
      </trkpt>
      <trkpt lat="45.0627" lon="2.792">
        <ele>1417.9</ele>
        <time>2021-09-13T13:22:33.000Z</time>
      </trkpt>
      <trkpt lat="45.06265" lon="2.7919">
        <ele>1417.8</ele>
        <time>2021-09-13T13:22:39.000Z</time>
      </trkpt>
      <trkpt lat="45.06262" lon="2.79177">
        <ele>1418.2</ele>
        <time>2021-09-13T13:22:45.000Z</time>
      </trkpt>
      <trkpt lat="45.06258" lon="2.79165">
        <ele>1418.4</ele>
        <time>2021-09-13T13:22:51.000Z</time>
      </trkpt>
      <trkpt lat="45.06257" lon="2.79154">
        <ele>1419.6</ele>
        <time>2021-09-13T13:22:57.000Z</time>
      </trkpt>
      <trkpt lat="45.06256" lon="2.79142">
        <ele>1420.8</ele>
        <time>2021-09-13T13:23:03.000Z</time>
      </trkpt>
      <trkpt lat="45.06254" lon="2.7913">
        <ele>1421.9</ele>
        <time>2021-09-13T13:23:09.000Z</time>
      </trkpt>
      <trkpt lat="45.06252" lon="2.79119">
        <ele>1423</ele>
        <time>2021-09-13T13:23:15.000Z</time>
      </trkpt>
      <trkpt lat="45.06251" lon="2.79108">
        <ele>1424.2</ele>
        <time>2021-09-13T13:23:21.000Z</time>
      </trkpt>
      <trkpt lat="45.06248" lon="2.79098">
        <ele>1425</ele>
        <time>2021-09-13T13:23:27.000Z</time>
      </trkpt>
      <trkpt lat="45.0624" lon="2.7909">
        <ele>1424.8</ele>
        <time>2021-09-13T13:23:33.000Z</time>
      </trkpt>
      <trkpt lat="45.06231" lon="2.79091">
        <ele>1423.4</ele>
        <time>2021-09-13T13:23:39.000Z</time>
      </trkpt>
      <trkpt lat="45.06223" lon="2.79099">
        <ele>1421.4</ele>
        <time>2021-09-13T13:23:45.000Z</time>
      </trkpt>
      <trkpt lat="45.06217" lon="2.79109">
        <ele>1419.4</ele>
        <time>2021-09-13T13:23:51.000Z</time>
      </trkpt>
      <trkpt lat="45.06212" lon="2.79118">
        <ele>1417.7</ele>
        <time>2021-09-13T13:23:57.000Z</time>
      </trkpt>
      <trkpt lat="45.06207" lon="2.79127">
        <ele>1416.1</ele>
        <time>2021-09-13T13:24:03.000Z</time>
      </trkpt>
      <trkpt lat="45.06202" lon="2.79135">
        <ele>1414.6</ele>
        <time>2021-09-13T13:25:09.000Z</time>
      </trkpt>
      <trkpt lat="45.06197" lon="2.79143">
        <ele>1413.1</ele>
        <time>2021-09-13T13:25:15.000Z</time>
      </trkpt>
      <trkpt lat="45.06194" lon="2.79152">
        <ele>1411.8</ele>
        <time>2021-09-13T13:25:22.000Z</time>
      </trkpt>
      <trkpt lat="45.06195" lon="2.79161">
        <ele>1411</ele>
        <time>2021-09-13T13:25:29.000Z</time>
      </trkpt>
      <trkpt lat="45.062" lon="2.79169">
        <ele>1410.8</ele>
        <time>2021-09-13T13:25:36.000Z</time>
      </trkpt>
      <trkpt lat="45.06203" lon="2.79177">
        <ele>1410.6</ele>
        <time>2021-09-13T13:25:48.000Z</time>
      </trkpt>
      <trkpt lat="45.06206" lon="2.79187">
        <ele>1410.2</ele>
        <time>2021-09-13T13:25:54.000Z</time>
      </trkpt>
      <trkpt lat="45.06209" lon="2.79195">
        <ele>1410</ele>
        <time>2021-09-13T13:25:59.000Z</time>
      </trkpt>
      <trkpt lat="45.06214" lon="2.79204">
        <ele>1410.1</ele>
        <time>2021-09-13T13:26:04.000Z</time>
      </trkpt>
      <trkpt lat="45.06217" lon="2.79214">
        <ele>1409.8</ele>
        <time>2021-09-13T13:26:09.000Z</time>
      </trkpt>
      <trkpt lat="45.06222" lon="2.79223">
        <ele>1409.8</ele>
        <time>2021-09-13T13:26:15.000Z</time>
      </trkpt>
      <trkpt lat="45.06227" lon="2.79233">
        <ele>1409.8</ele>
        <time>2021-09-13T13:26:21.000Z</time>
      </trkpt>
      <trkpt lat="45.06232" lon="2.79243">
        <ele>1409.9</ele>
        <time>2021-09-13T13:26:27.000Z</time>
      </trkpt>
      <trkpt lat="45.06236" lon="2.79254">
        <ele>1409.4</ele>
        <time>2021-09-13T13:26:33.000Z</time>
      </trkpt>
      <trkpt lat="45.0624" lon="2.79266">
        <ele>1408.5</ele>
        <time>2021-09-13T13:26:39.000Z</time>
      </trkpt>
      <trkpt lat="45.06244" lon="2.79277">
        <ele>1407.9</ele>
        <time>2021-09-13T13:26:45.000Z</time>
      </trkpt>
      <trkpt lat="45.06247" lon="2.79287">
        <ele>1407.3</ele>
        <time>2021-09-13T13:26:51.000Z</time>
      </trkpt>
      <trkpt lat="45.0625" lon="2.79299">
        <ele>1406.7</ele>
        <time>2021-09-13T13:26:57.000Z</time>
      </trkpt>
      <trkpt lat="45.06253" lon="2.79308">
        <ele>1406.2</ele>
        <time>2021-09-13T13:27:03.000Z</time>
      </trkpt>
      <trkpt lat="45.06257" lon="2.79318">
        <ele>1405.9</ele>
        <time>2021-09-13T13:27:09.000Z</time>
      </trkpt>
      <trkpt lat="45.0626" lon="2.79326">
        <ele>1405.5</ele>
        <time>2021-09-13T13:27:15.000Z</time>
      </trkpt>
      <trkpt lat="45.06262" lon="2.79335">
        <ele>1404.8</ele>
        <time>2021-09-13T13:27:21.000Z</time>
      </trkpt>
      <trkpt lat="45.06266" lon="2.79345">
        <ele>1403.4</ele>
        <time>2021-09-13T13:27:27.000Z</time>
      </trkpt>
      <trkpt lat="45.06269" lon="2.79355">
        <ele>1401.9</ele>
        <time>2021-09-13T13:27:33.000Z</time>
      </trkpt>
      <trkpt lat="45.06274" lon="2.79365">
        <ele>1401</ele>
        <time>2021-09-13T13:27:39.000Z</time>
      </trkpt>
      <trkpt lat="45.06278" lon="2.79375">
        <ele>1400.1</ele>
        <time>2021-09-13T13:27:45.000Z</time>
      </trkpt>
      <trkpt lat="45.0628" lon="2.79386">
        <ele>1398.5</ele>
        <time>2021-09-13T13:27:52.000Z</time>
      </trkpt>
      <trkpt lat="45.06281" lon="2.79396">
        <ele>1396.9</ele>
        <time>2021-09-13T13:27:58.000Z</time>
      </trkpt>
      <trkpt lat="45.06287" lon="2.79406">
        <ele>1396.9</ele>
        <time>2021-09-13T13:28:38.000Z</time>
      </trkpt>
      <trkpt lat="45.06282" lon="2.79413">
        <ele>1394</ele>
        <time>2021-09-13T13:28:46.000Z</time>
      </trkpt>
      <trkpt lat="45.06274" lon="2.79417">
        <ele>1390.7</ele>
        <time>2021-09-13T13:28:51.000Z</time>
      </trkpt>
      <trkpt lat="45.06265" lon="2.79413">
        <ele>1388.6</ele>
        <time>2021-09-13T13:28:57.000Z</time>
      </trkpt>
      <trkpt lat="45.06268" lon="2.79421">
        <ele>1387.7</ele>
        <time>2021-09-13T13:29:19.000Z</time>
      </trkpt>
      <trkpt lat="45.06267" lon="2.79431">
        <ele>1384.7</ele>
        <time>2021-09-13T13:29:51.000Z</time>
      </trkpt>
      <trkpt lat="45.06272" lon="2.79438">
        <ele>1384.5</ele>
        <time>2021-09-13T13:29:57.000Z</time>
      </trkpt>
      <trkpt lat="45.06277" lon="2.79445">
        <ele>1384.5</ele>
        <time>2021-09-13T13:30:03.000Z</time>
      </trkpt>
      <trkpt lat="45.06282" lon="2.79454">
        <ele>1384</ele>
        <time>2021-09-13T13:30:09.000Z</time>
      </trkpt>
      <trkpt lat="45.06288" lon="2.7946">
        <ele>1384.7</ele>
        <time>2021-09-13T13:30:15.000Z</time>
      </trkpt>
      <trkpt lat="45.06292" lon="2.79467">
        <ele>1384.5</ele>
        <time>2021-09-13T13:30:22.000Z</time>
      </trkpt>
      <trkpt lat="45.06296" lon="2.79475">
        <ele>1384.2</ele>
        <time>2021-09-13T13:30:28.000Z</time>
      </trkpt>
      <trkpt lat="45.06302" lon="2.79483">
        <ele>1384.7</ele>
        <time>2021-09-13T13:30:33.000Z</time>
      </trkpt>
      <trkpt lat="45.06309" lon="2.7949">
        <ele>1386</ele>
        <time>2021-09-13T13:30:39.000Z</time>
      </trkpt>
      <trkpt lat="45.06313" lon="2.79497">
        <ele>1386.1</ele>
        <time>2021-09-13T13:30:46.000Z</time>
      </trkpt>
      <trkpt lat="45.06319" lon="2.79503">
        <ele>1387.2</ele>
        <time>2021-09-13T13:30:56.000Z</time>
      </trkpt>
      <trkpt lat="45.06324" lon="2.79508">
        <ele>1388.1</ele>
        <time>2021-09-13T13:31:06.000Z</time>
      </trkpt>
      <trkpt lat="45.0633" lon="2.79514">
        <ele>1389.2</ele>
        <time>2021-09-13T13:31:16.000Z</time>
      </trkpt>
      <trkpt lat="45.06335" lon="2.7952">
        <ele>1389.5</ele>
        <time>2021-09-13T13:31:23.000Z</time>
      </trkpt>
      <trkpt lat="45.06342" lon="2.79521">
        <ele>1390.8</ele>
        <time>2021-09-13T13:31:47.000Z</time>
      </trkpt>
      <trkpt lat="45.06338" lon="2.79529">
        <ele>1388</ele>
        <time>2021-09-13T13:32:10.000Z</time>
      </trkpt>
      <trkpt lat="45.06344" lon="2.79534">
        <ele>1388.1</ele>
        <time>2021-09-13T13:32:27.000Z</time>
      </trkpt>
      <trkpt lat="45.06344" lon="2.79544">
        <ele>1385.8</ele>
        <time>2021-09-13T13:32:43.000Z</time>
      </trkpt>
      <trkpt lat="45.06349" lon="2.79551">
        <ele>1385.2</ele>
        <time>2021-09-13T13:32:50.000Z</time>
      </trkpt>
      <trkpt lat="45.06356" lon="2.79553">
        <ele>1386.2</ele>
        <time>2021-09-13T13:32:59.000Z</time>
      </trkpt>
      <trkpt lat="45.06362" lon="2.7956">
        <ele>1385.9</ele>
        <time>2021-09-13T13:33:05.000Z</time>
      </trkpt>
      <trkpt lat="45.06368" lon="2.79564">
        <ele>1386.4</ele>
        <time>2021-09-13T13:33:11.000Z</time>
      </trkpt>
      <trkpt lat="45.0637" lon="2.79573">
        <ele>1384.7</ele>
        <time>2021-09-13T13:33:18.000Z</time>
      </trkpt>
      <trkpt lat="45.06372" lon="2.79582">
        <ele>1383.1</ele>
        <time>2021-09-13T13:33:53.000Z</time>
      </trkpt>
      <trkpt lat="45.06381" lon="2.79591">
        <ele>1382.7</ele>
        <time>2021-09-13T13:34:20.000Z</time>
      </trkpt>
      <trkpt lat="45.06387" lon="2.79595">
        <ele>1383</ele>
        <time>2021-09-13T13:34:28.000Z</time>
      </trkpt>
      <trkpt lat="45.06393" lon="2.79603">
        <ele>1382.4</ele>
        <time>2021-09-13T13:34:51.000Z</time>
      </trkpt>
      <trkpt lat="45.06394" lon="2.79613">
        <ele>1380</ele>
        <time>2021-09-13T13:35:10.000Z</time>
      </trkpt>
      <trkpt lat="45.06395" lon="2.79624">
        <ele>1377.4</ele>
        <time>2021-09-13T13:35:18.000Z</time>
      </trkpt>
      <trkpt lat="45.06396" lon="2.79636">
        <ele>1374.6</ele>
        <time>2021-09-13T13:35:21.000Z</time>
      </trkpt>
      <trkpt lat="45.06409" lon="2.79646">
        <ele>1376.2</ele>
        <time>2021-09-13T13:35:27.000Z</time>
      </trkpt>
      <trkpt lat="45.06414" lon="2.79653">
        <ele>1376.2</ele>
        <time>2021-09-13T13:35:34.000Z</time>
      </trkpt>
      <trkpt lat="45.06418" lon="2.7966">
        <ele>1375.8</ele>
        <time>2021-09-13T13:35:42.000Z</time>
      </trkpt>
      <trkpt lat="45.06418" lon="2.7967">
        <ele>1373.5</ele>
        <time>2021-09-13T13:35:49.000Z</time>
      </trkpt>
      <trkpt lat="45.06425" lon="2.79675">
        <ele>1373.9</ele>
        <time>2021-09-13T13:35:56.000Z</time>
      </trkpt>
      <trkpt lat="45.06431" lon="2.79672">
        <ele>1375.9</ele>
        <time>2021-09-13T13:36:02.000Z</time>
      </trkpt>
      <trkpt lat="45.06438" lon="2.79667">
        <ele>1378.5</ele>
        <time>2021-09-13T13:36:07.000Z</time>
      </trkpt>
      <trkpt lat="45.06444" lon="2.79662">
        <ele>1380.9</ele>
        <time>2021-09-13T13:36:15.000Z</time>
      </trkpt>
      <trkpt lat="45.06451" lon="2.79663">
        <ele>1382.2</ele>
        <time>2021-09-13T13:36:22.000Z</time>
      </trkpt>
      <trkpt lat="45.06458" lon="2.79662">
        <ele>1383.9</ele>
        <time>2021-09-13T13:36:31.000Z</time>
      </trkpt>
      <trkpt lat="45.06463" lon="2.79668">
        <ele>1383.7</ele>
        <time>2021-09-13T13:36:40.000Z</time>
      </trkpt>
      <trkpt lat="45.06465" lon="2.79677">
        <ele>1382.4</ele>
        <time>2021-09-13T13:36:46.000Z</time>
      </trkpt>
      <trkpt lat="45.06471" lon="2.79681">
        <ele>1383</ele>
        <time>2021-09-13T13:36:51.000Z</time>
      </trkpt>
      <trkpt lat="45.0648" lon="2.7968">
        <ele>1385.2</ele>
        <time>2021-09-13T13:36:57.000Z</time>
      </trkpt>
      <trkpt lat="45.06487" lon="2.79687">
        <ele>1385.6</ele>
        <time>2021-09-13T13:37:03.000Z</time>
      </trkpt>
      <trkpt lat="45.06496" lon="2.79694">
        <ele>1386.5</ele>
        <time>2021-09-13T13:37:09.000Z</time>
      </trkpt>
      <trkpt lat="45.06504" lon="2.79695">
        <ele>1387.7</ele>
        <time>2021-09-13T13:37:15.000Z</time>
      </trkpt>
      <trkpt lat="45.06514" lon="2.79697">
        <ele>1388.6</ele>
        <time>2021-09-13T13:37:21.000Z</time>
      </trkpt>
      <trkpt lat="45.06522" lon="2.797">
        <ele>1389</ele>
        <time>2021-09-13T13:37:27.000Z</time>
      </trkpt>
      <trkpt lat="45.06529" lon="2.79706">
        <ele>1388.7</ele>
        <time>2021-09-13T13:37:33.000Z</time>
      </trkpt>
      <trkpt lat="45.06535" lon="2.79711">
        <ele>1388.5</ele>
        <time>2021-09-13T13:37:44.000Z</time>
      </trkpt>
      <trkpt lat="45.06535" lon="2.79721">
        <ele>1386.7</ele>
        <time>2021-09-13T13:37:53.000Z</time>
      </trkpt>
      <trkpt lat="45.06534" lon="2.7973">
        <ele>1384.9</ele>
        <time>2021-09-13T13:37:57.000Z</time>
      </trkpt>
      <trkpt lat="45.0653" lon="2.79739">
        <ele>1382.9</ele>
        <time>2021-09-13T13:38:05.000Z</time>
      </trkpt>
      <trkpt lat="45.06527" lon="2.79749">
        <ele>1380.8</ele>
        <time>2021-09-13T13:38:11.000Z</time>
      </trkpt>
      <trkpt lat="45.06522" lon="2.79758">
        <ele>1378.6</ele>
        <time>2021-09-13T13:38:15.000Z</time>
      </trkpt>
      <trkpt lat="45.06516" lon="2.79775">
        <ele>1374.7</ele>
        <time>2021-09-13T13:38:21.000Z</time>
      </trkpt>
      <trkpt lat="45.0651" lon="2.79778">
        <ele>1373.4</ele>
        <time>2021-09-13T13:38:28.000Z</time>
      </trkpt>
      <trkpt lat="45.06504" lon="2.79782">
        <ele>1371.9</ele>
        <time>2021-09-13T13:38:35.000Z</time>
      </trkpt>
      <trkpt lat="45.06499" lon="2.79788">
        <ele>1370</ele>
        <time>2021-09-13T13:38:49.000Z</time>
      </trkpt>
      <trkpt lat="45.06492" lon="2.79792">
        <ele>1367.2</ele>
        <time>2021-09-13T13:38:56.000Z</time>
      </trkpt>
      <trkpt lat="45.06486" lon="2.79796">
        <ele>1364.8</ele>
        <time>2021-09-13T13:39:01.000Z</time>
      </trkpt>
      <trkpt lat="45.0648" lon="2.798">
        <ele>1362.3</ele>
        <time>2021-09-13T13:39:05.000Z</time>
      </trkpt>
      <trkpt lat="45.06474" lon="2.79805">
        <ele>1359.6</ele>
        <time>2021-09-13T13:39:09.000Z</time>
      </trkpt>
      <trkpt lat="45.06466" lon="2.7981">
        <ele>1356.4</ele>
        <time>2021-09-13T13:39:15.000Z</time>
      </trkpt>
      <trkpt lat="45.06458" lon="2.7981">
        <ele>1354.2</ele>
        <time>2021-09-13T13:39:21.000Z</time>
      </trkpt>
      <trkpt lat="45.06449" lon="2.79812">
        <ele>1351.3</ele>
        <time>2021-09-13T13:39:27.000Z</time>
      </trkpt>
      <trkpt lat="45.06442" lon="2.79809">
        <ele>1350</ele>
        <time>2021-09-13T13:39:35.000Z</time>
      </trkpt>
      <trkpt lat="45.06436" lon="2.79808">
        <ele>1348.5</ele>
        <time>2021-09-13T13:39:42.000Z</time>
      </trkpt>
      <trkpt lat="45.06431" lon="2.79801">
        <ele>1348.6</ele>
        <time>2021-09-13T13:39:57.000Z</time>
      </trkpt>
      <trkpt lat="45.06425" lon="2.79797">
        <ele>1347.7</ele>
        <time>2021-09-13T13:40:07.000Z</time>
      </trkpt>
      <trkpt lat="45.06419" lon="2.79793">
        <ele>1346.9</ele>
        <time>2021-09-13T13:40:13.000Z</time>
      </trkpt>
      <trkpt lat="45.06412" lon="2.79786">
        <ele>1346</ele>
        <time>2021-09-13T13:40:17.000Z</time>
      </trkpt>
      <trkpt lat="45.06404" lon="2.79786">
        <ele>1343.1</ele>
        <time>2021-09-13T13:40:22.000Z</time>
      </trkpt>
      <trkpt lat="45.06401" lon="2.79794">
        <ele>1340.6</ele>
        <time>2021-09-13T13:40:33.000Z</time>
      </trkpt>
      <trkpt lat="45.06398" lon="2.79802">
        <ele>1338.2</ele>
        <time>2021-09-13T13:40:40.000Z</time>
      </trkpt>
      <trkpt lat="45.06396" lon="2.79815">
        <ele>1335.2</ele>
        <time>2021-09-13T13:40:47.000Z</time>
      </trkpt>
      <trkpt lat="45.06393" lon="2.79824">
        <ele>1332.8</ele>
        <time>2021-09-13T13:40:53.000Z</time>
      </trkpt>
      <trkpt lat="45.06392" lon="2.79833">
        <ele>1331</ele>
        <time>2021-09-13T13:40:59.000Z</time>
      </trkpt>
      <trkpt lat="45.06399" lon="2.79829">
        <ele>1333.7</ele>
        <time>2021-09-13T13:41:08.000Z</time>
      </trkpt>
      <trkpt lat="45.06407" lon="2.79827">
        <ele>1336.4</ele>
        <time>2021-09-13T13:41:12.000Z</time>
      </trkpt>
      <trkpt lat="45.06412" lon="2.79835">
        <ele>1336.5</ele>
        <time>2021-09-13T13:41:17.000Z</time>
      </trkpt>
      <trkpt lat="45.06411" lon="2.79846">
        <ele>1335.4</ele>
        <time>2021-09-13T13:41:22.000Z</time>
      </trkpt>
      <trkpt lat="45.06409" lon="2.79856">
        <ele>1334.1</ele>
        <time>2021-09-13T13:41:27.000Z</time>
      </trkpt>
      <trkpt lat="45.06409" lon="2.79867">
        <ele>1333.3</ele>
        <time>2021-09-13T13:41:34.000Z</time>
      </trkpt>
      <trkpt lat="45.06408" lon="2.79876">
        <ele>1332.3</ele>
        <time>2021-09-13T13:41:39.000Z</time>
      </trkpt>
      <trkpt lat="45.06404" lon="2.79892">
        <ele>1329.9</ele>
        <time>2021-09-13T13:41:45.000Z</time>
      </trkpt>
      <trkpt lat="45.06404" lon="2.79904">
        <ele>1329</ele>
        <time>2021-09-13T13:41:51.000Z</time>
      </trkpt>
      <trkpt lat="45.06404" lon="2.79913">
        <ele>1328.3</ele>
        <time>2021-09-13T13:42:09.000Z</time>
      </trkpt>
      <trkpt lat="45.06403" lon="2.79922">
        <ele>1327.4</ele>
        <time>2021-09-13T13:42:17.000Z</time>
      </trkpt>
      <trkpt lat="45.06402" lon="2.79932">
        <ele>1326.4</ele>
        <time>2021-09-13T13:42:24.000Z</time>
      </trkpt>
      <trkpt lat="45.06402" lon="2.79941">
        <ele>1325.8</ele>
        <time>2021-09-13T13:42:32.000Z</time>
      </trkpt>
      <trkpt lat="45.06404" lon="2.7995">
        <ele>1325.9</ele>
        <time>2021-09-13T13:42:36.000Z</time>
      </trkpt>
      <trkpt lat="45.06403" lon="2.79961">
        <ele>1324.8</ele>
        <time>2021-09-13T13:42:41.000Z</time>
      </trkpt>
      <trkpt lat="45.064" lon="2.7997">
        <ele>1323.2</ele>
        <time>2021-09-13T13:42:47.000Z</time>
      </trkpt>
      <trkpt lat="45.06395" lon="2.79978">
        <ele>1321</ele>
        <time>2021-09-13T13:42:52.000Z</time>
      </trkpt>
      <trkpt lat="45.0639" lon="2.79986">
        <ele>1318.7</ele>
        <time>2021-09-13T13:42:58.000Z</time>
      </trkpt>
      <trkpt lat="45.06386" lon="2.79994">
        <ele>1316.8</ele>
        <time>2021-09-13T13:43:03.000Z</time>
      </trkpt>
      <trkpt lat="45.06385" lon="2.80004">
        <ele>1315.5</ele>
        <time>2021-09-13T13:43:09.000Z</time>
      </trkpt>
      <trkpt lat="45.06386" lon="2.80014">
        <ele>1314.6</ele>
        <time>2021-09-13T13:43:15.000Z</time>
      </trkpt>
      <trkpt lat="45.0638" lon="2.8001">
        <ele>1313.1</ele>
        <time>2021-09-13T13:43:43.000Z</time>
      </trkpt>
      <trkpt lat="45.06375" lon="2.80002">
        <ele>1312.3</ele>
        <time>2021-09-13T13:43:50.000Z</time>
      </trkpt>
      <trkpt lat="45.06367" lon="2.79999">
        <ele>1309.8</ele>
        <time>2021-09-13T13:43:56.000Z</time>
      </trkpt>
      <trkpt lat="45.06361" lon="2.79994">
        <ele>1308.1</ele>
        <time>2021-09-13T13:44:03.000Z</time>
      </trkpt>
      <trkpt lat="45.06356" lon="2.79986">
        <ele>1307.1</ele>
        <time>2021-09-13T13:44:09.000Z</time>
      </trkpt>
      <trkpt lat="45.06355" lon="2.79972">
        <ele>1308</ele>
        <time>2021-09-13T13:44:15.000Z</time>
      </trkpt>
      <trkpt lat="45.0635" lon="2.79965">
        <ele>1306.9</ele>
        <time>2021-09-13T13:44:21.000Z</time>
      </trkpt>
      <trkpt lat="45.06344" lon="2.79958">
        <ele>1305.6</ele>
        <time>2021-09-13T13:44:31.000Z</time>
      </trkpt>
      <trkpt lat="45.06341" lon="2.79948">
        <ele>1305.5</ele>
        <time>2021-09-13T13:44:37.000Z</time>
      </trkpt>
      <trkpt lat="45.06338" lon="2.79935">
        <ele>1305.7</ele>
        <time>2021-09-13T13:44:41.000Z</time>
      </trkpt>
      <trkpt lat="45.06332" lon="2.79918">
        <ele>1305.5</ele>
        <time>2021-09-13T13:44:45.000Z</time>
      </trkpt>
      <trkpt lat="45.06326" lon="2.79903">
        <ele>1305.4</ele>
        <time>2021-09-13T13:44:51.000Z</time>
      </trkpt>
      <trkpt lat="45.06327" lon="2.79893">
        <ele>1306.7</ele>
        <time>2021-09-13T13:45:09.000Z</time>
      </trkpt>
      <trkpt lat="45.06317" lon="2.79879">
        <ele>1305.4</ele>
        <time>2021-09-13T13:45:15.000Z</time>
      </trkpt>
      <trkpt lat="45.06308" lon="2.7987">
        <ele>1303.9</ele>
        <time>2021-09-13T13:45:21.000Z</time>
      </trkpt>
      <trkpt lat="45.06302" lon="2.79863">
        <ele>1303</ele>
        <time>2021-09-13T13:45:27.000Z</time>
      </trkpt>
      <trkpt lat="45.06295" lon="2.79854">
        <ele>1302</ele>
        <time>2021-09-13T13:45:33.000Z</time>
      </trkpt>
      <trkpt lat="45.06288" lon="2.79847">
        <ele>1300.8</ele>
        <time>2021-09-13T13:45:39.000Z</time>
      </trkpt>
      <trkpt lat="45.06282" lon="2.7984">
        <ele>1299.9</ele>
        <time>2021-09-13T13:45:45.000Z</time>
      </trkpt>
      <trkpt lat="45.06278" lon="2.79833">
        <ele>1299.4</ele>
        <time>2021-09-13T13:45:51.000Z</time>
      </trkpt>
      <trkpt lat="45.06272" lon="2.79825">
        <ele>1298.3</ele>
        <time>2021-09-13T13:45:57.000Z</time>
      </trkpt>
      <trkpt lat="45.06266" lon="2.7981">
        <ele>1297.5</ele>
        <time>2021-09-13T13:46:03.000Z</time>
      </trkpt>
      <trkpt lat="45.06262" lon="2.79796">
        <ele>1297.2</ele>
        <time>2021-09-13T13:46:09.000Z</time>
      </trkpt>
      <trkpt lat="45.06257" lon="2.79786">
        <ele>1296.3</ele>
        <time>2021-09-13T13:46:15.000Z</time>
      </trkpt>
      <trkpt lat="45.06255" lon="2.79776">
        <ele>1296.2</ele>
        <time>2021-09-13T13:46:21.000Z</time>
      </trkpt>
      <trkpt lat="45.06255" lon="2.79762">
        <ele>1296.9</ele>
        <time>2021-09-13T13:46:27.000Z</time>
      </trkpt>
      <trkpt lat="45.06253" lon="2.79752">
        <ele>1296.8</ele>
        <time>2021-09-13T13:46:33.000Z</time>
      </trkpt>
      <trkpt lat="45.0625" lon="2.79743">
        <ele>1296.9</ele>
        <time>2021-09-13T13:46:39.000Z</time>
      </trkpt>
      <trkpt lat="45.06245" lon="2.79736">
        <ele>1297.1</ele>
        <time>2021-09-13T13:46:46.000Z</time>
      </trkpt>
      <trkpt lat="45.0624" lon="2.79726">
        <ele>1297.5</ele>
        <time>2021-09-13T13:46:51.000Z</time>
      </trkpt>
      <trkpt lat="45.06237" lon="2.79715">
        <ele>1298.3</ele>
        <time>2021-09-13T13:46:57.000Z</time>
      </trkpt>
      <trkpt lat="45.0623" lon="2.79705">
        <ele>1298.2</ele>
        <time>2021-09-13T13:47:03.000Z</time>
      </trkpt>
      <trkpt lat="45.06225" lon="2.79699">
        <ele>1297.8</ele>
        <time>2021-09-13T13:47:09.000Z</time>
      </trkpt>
      <trkpt lat="45.06221" lon="2.79691">
        <ele>1297.9</ele>
        <time>2021-09-13T13:47:15.000Z</time>
      </trkpt>
      <trkpt lat="45.06214" lon="2.79687">
        <ele>1296.8</ele>
        <time>2021-09-13T13:47:21.000Z</time>
      </trkpt>
      <trkpt lat="45.06209" lon="2.7968">
        <ele>1296.4</ele>
        <time>2021-09-13T13:47:27.000Z</time>
      </trkpt>
      <trkpt lat="45.06203" lon="2.79669">
        <ele>1296.1</ele>
        <time>2021-09-13T13:47:33.000Z</time>
      </trkpt>
      <trkpt lat="45.062" lon="2.79648">
        <ele>1300.3</ele>
        <time>2021-09-13T13:47:39.000Z</time>
      </trkpt>
      <trkpt lat="45.06189" lon="2.79633">
        <ele>1301</ele>
        <time>2021-09-13T13:47:45.000Z</time>
      </trkpt>
      <trkpt lat="45.06173" lon="2.79613">
        <ele>1300.9</ele>
        <time>2021-09-13T13:47:51.000Z</time>
      </trkpt>
      <trkpt lat="45.06163" lon="2.79594">
        <ele>1302.3</ele>
        <time>2021-09-13T13:47:57.000Z</time>
      </trkpt>
      <trkpt lat="45.06157" lon="2.79598">
        <ele>1300.7</ele>
        <time>2021-09-13T13:48:07.000Z</time>
      </trkpt>
      <trkpt lat="45.0615" lon="2.79592">
        <ele>1300.8</ele>
        <time>2021-09-13T13:48:13.000Z</time>
      </trkpt>
      <trkpt lat="45.06146" lon="2.79584">
        <ele>1301.7</ele>
        <time>2021-09-13T13:48:18.000Z</time>
      </trkpt>
      <trkpt lat="45.06141" lon="2.79577">
        <ele>1302.3</ele>
        <time>2021-09-13T13:48:22.000Z</time>
      </trkpt>
      <trkpt lat="45.06132" lon="2.79569">
        <ele>1302.4</ele>
        <time>2021-09-13T13:48:27.000Z</time>
      </trkpt>
      <trkpt lat="45.06126" lon="2.79561">
        <ele>1302.8</ele>
        <time>2021-09-13T13:48:33.000Z</time>
      </trkpt>
      <trkpt lat="45.0612" lon="2.79557">
        <ele>1302.5</ele>
        <time>2021-09-13T13:48:39.000Z</time>
      </trkpt>
      <trkpt lat="45.06111" lon="2.79545">
        <ele>1302.9</ele>
        <time>2021-09-13T13:48:45.000Z</time>
      </trkpt>
      <trkpt lat="45.06104" lon="2.79538">
        <ele>1302.7</ele>
        <time>2021-09-13T13:48:51.000Z</time>
      </trkpt>
      <trkpt lat="45.06097" lon="2.79533">
        <ele>1302.1</ele>
        <time>2021-09-13T13:48:57.000Z</time>
      </trkpt>
      <trkpt lat="45.06091" lon="2.7953">
        <ele>1301.3</ele>
        <time>2021-09-13T13:49:03.000Z</time>
      </trkpt>
      <trkpt lat="45.06084" lon="2.79524">
        <ele>1300.7</ele>
        <time>2021-09-13T13:49:09.000Z</time>
      </trkpt>
      <trkpt lat="45.06076" lon="2.79523">
        <ele>1300.5</ele>
        <time>2021-09-13T13:49:15.000Z</time>
      </trkpt>
      <trkpt lat="45.06068" lon="2.79518">
        <ele>1301</ele>
        <time>2021-09-13T13:49:21.000Z</time>
      </trkpt>
      <trkpt lat="45.0606" lon="2.79517">
        <ele>1301</ele>
        <time>2021-09-13T13:49:27.000Z</time>
      </trkpt>
      <trkpt lat="45.06053" lon="2.79519">
        <ele>1300.5</ele>
        <time>2021-09-13T13:49:35.000Z</time>
      </trkpt>
      <trkpt lat="45.06051" lon="2.79509">
        <ele>1301.9</ele>
        <time>2021-09-13T13:49:45.000Z</time>
      </trkpt>
      <trkpt lat="45.06045" lon="2.79505">
        <ele>1302.4</ele>
        <time>2021-09-13T13:49:51.000Z</time>
      </trkpt>
      <trkpt lat="45.06037" lon="2.79504">
        <ele>1302.3</ele>
        <time>2021-09-13T13:49:57.000Z</time>
      </trkpt>
      <trkpt lat="45.06031" lon="2.79496">
        <ele>1303.9</ele>
        <time>2021-09-13T13:50:04.000Z</time>
      </trkpt>
      <trkpt lat="45.06027" lon="2.79488">
        <ele>1306</ele>
        <time>2021-09-13T13:50:09.000Z</time>
      </trkpt>
      <trkpt lat="45.06021" lon="2.7948">
        <ele>1308.1</ele>
        <time>2021-09-13T13:50:15.000Z</time>
      </trkpt>
      <trkpt lat="45.06014" lon="2.79471">
        <ele>1310.6</ele>
        <time>2021-09-13T13:50:21.000Z</time>
      </trkpt>
      <trkpt lat="45.06005" lon="2.79469">
        <ele>1311</ele>
        <time>2021-09-13T13:50:27.000Z</time>
      </trkpt>
      <trkpt lat="45.05994" lon="2.7947">
        <ele>1310.6</ele>
        <time>2021-09-13T13:50:33.000Z</time>
      </trkpt>
      <trkpt lat="45.05984" lon="2.79466">
        <ele>1311.7</ele>
        <time>2021-09-13T13:50:39.000Z</time>
      </trkpt>
      <trkpt lat="45.05975" lon="2.7946">
        <ele>1313.3</ele>
        <time>2021-09-13T13:50:45.000Z</time>
      </trkpt>
      <trkpt lat="45.05967" lon="2.79457">
        <ele>1313.9</ele>
        <time>2021-09-13T13:50:51.000Z</time>
      </trkpt>
      <trkpt lat="45.05959" lon="2.79456">
        <ele>1314.1</ele>
        <time>2021-09-13T13:50:58.000Z</time>
      </trkpt>
      <trkpt lat="45.05953" lon="2.79453">
        <ele>1314.8</ele>
        <time>2021-09-13T13:51:04.000Z</time>
      </trkpt>
      <trkpt lat="45.05946" lon="2.79452">
        <ele>1314.9</ele>
        <time>2021-09-13T13:51:11.000Z</time>
      </trkpt>
      <trkpt lat="45.05938" lon="2.79448">
        <ele>1315.7</ele>
        <time>2021-09-13T13:51:20.000Z</time>
      </trkpt>
      <trkpt lat="45.05932" lon="2.79445">
        <ele>1316.2</ele>
        <time>2021-09-13T13:51:27.000Z</time>
      </trkpt>
      <trkpt lat="45.05926" lon="2.7944">
        <ele>1317.2</ele>
        <time>2021-09-13T13:51:33.000Z</time>
      </trkpt>
      <trkpt lat="45.05919" lon="2.7943">
        <ele>1319.2</ele>
        <time>2021-09-13T13:51:39.000Z</time>
      </trkpt>
      <trkpt lat="45.05911" lon="2.79426">
        <ele>1320.7</ele>
        <time>2021-09-13T13:51:45.000Z</time>
      </trkpt>
      <trkpt lat="45.05903" lon="2.79425">
        <ele>1321.9</ele>
        <time>2021-09-13T13:51:51.000Z</time>
      </trkpt>
      <trkpt lat="45.05893" lon="2.79427">
        <ele>1322.7</ele>
        <time>2021-09-13T13:51:57.000Z</time>
      </trkpt>
      <trkpt lat="45.05885" lon="2.79431">
        <ele>1323</ele>
        <time>2021-09-13T13:52:03.000Z</time>
      </trkpt>
      <trkpt lat="45.05877" lon="2.79433">
        <ele>1323.8</ele>
        <time>2021-09-13T13:52:09.000Z</time>
      </trkpt>
      <trkpt lat="45.05871" lon="2.79438">
        <ele>1323.9</ele>
        <time>2021-09-13T13:52:17.000Z</time>
      </trkpt>
      <trkpt lat="45.05866" lon="2.79446">
        <ele>1323.5</ele>
        <time>2021-09-13T13:52:30.000Z</time>
      </trkpt>
      <trkpt lat="45.05856" lon="2.79448">
        <ele>1324.8</ele>
        <time>2021-09-13T13:52:44.000Z</time>
      </trkpt>
      <trkpt lat="45.05849" lon="2.79452">
        <ele>1325.5</ele>
        <time>2021-09-13T13:52:47.000Z</time>
      </trkpt>
      <trkpt lat="45.05842" lon="2.79458">
        <ele>1326</ele>
        <time>2021-09-13T13:52:52.000Z</time>
      </trkpt>
      <trkpt lat="45.05831" lon="2.79465">
        <ele>1327.6</ele>
        <time>2021-09-13T13:52:57.000Z</time>
      </trkpt>
      <trkpt lat="45.05821" lon="2.79471">
        <ele>1329.7</ele>
        <time>2021-09-13T13:53:03.000Z</time>
      </trkpt>
      <trkpt lat="45.05812" lon="2.79478">
        <ele>1331.7</ele>
        <time>2021-09-13T13:53:09.000Z</time>
      </trkpt>
      <trkpt lat="45.05806" lon="2.79479">
        <ele>1333.2</ele>
        <time>2021-09-13T13:53:18.000Z</time>
      </trkpt>
      <trkpt lat="45.05798" lon="2.79486">
        <ele>1335</ele>
        <time>2021-09-13T13:53:22.000Z</time>
      </trkpt>
      <trkpt lat="45.05791" lon="2.79492">
        <ele>1336.6</ele>
        <time>2021-09-13T13:53:27.000Z</time>
      </trkpt>
      <trkpt lat="45.05784" lon="2.79493">
        <ele>1338.5</ele>
        <time>2021-09-13T13:53:34.000Z</time>
      </trkpt>
      <trkpt lat="45.05777" lon="2.79496">
        <ele>1340.4</ele>
        <time>2021-09-13T13:54:38.000Z</time>
      </trkpt>
      <trkpt lat="45.05773" lon="2.79505">
        <ele>1341</ele>
        <time>2021-09-13T13:54:52.000Z</time>
      </trkpt>
      <trkpt lat="45.05771" lon="2.79516">
        <ele>1340.8</ele>
        <time>2021-09-13T13:55:09.000Z</time>
      </trkpt>
      <trkpt lat="45.05765" lon="2.79527">
        <ele>1341.7</ele>
        <time>2021-09-13T13:55:28.000Z</time>
      </trkpt>
      <trkpt lat="45.05764" lon="2.7954">
        <ele>1341</ele>
        <time>2021-09-13T13:55:42.000Z</time>
      </trkpt>
      <trkpt lat="45.05761" lon="2.79549">
        <ele>1341.2</ele>
        <time>2021-09-13T13:55:49.000Z</time>
      </trkpt>
      <trkpt lat="45.0576" lon="2.79559">
        <ele>1340.8</ele>
        <time>2021-09-13T13:55:59.000Z</time>
      </trkpt>
      <trkpt lat="45.05757" lon="2.79568">
        <ele>1341</ele>
        <time>2021-09-13T13:56:12.000Z</time>
      </trkpt>
      <trkpt lat="45.05753" lon="2.79575">
        <ele>1341.7</ele>
        <time>2021-09-13T13:56:54.000Z</time>
      </trkpt>
      <trkpt lat="45.05751" lon="2.79584">
        <ele>1341.7</ele>
        <time>2021-09-13T13:57:01.000Z</time>
      </trkpt>
      <trkpt lat="45.05746" lon="2.79591">
        <ele>1342.8</ele>
        <time>2021-09-13T13:57:12.000Z</time>
      </trkpt>
      <trkpt lat="45.05741" lon="2.79585">
        <ele>1343.7</ele>
        <time>2021-09-13T13:57:41.000Z</time>
      </trkpt>
      <trkpt lat="45.05734" lon="2.79582">
        <ele>1345.1</ele>
        <time>2021-09-13T13:57:46.000Z</time>
      </trkpt>
      <trkpt lat="45.05726" lon="2.79583">
        <ele>1346.6</ele>
        <time>2021-09-13T13:57:51.000Z</time>
      </trkpt>
      <trkpt lat="45.05719" lon="2.79581">
        <ele>1348</ele>
        <time>2021-09-13T13:57:58.000Z</time>
      </trkpt>
      <trkpt lat="45.05715" lon="2.79588">
        <ele>1348.8</ele>
        <time>2021-09-13T13:59:12.000Z</time>
      </trkpt>
      <trkpt lat="45.05712" lon="2.79597">
        <ele>1349.7</ele>
        <time>2021-09-13T13:59:19.000Z</time>
      </trkpt>
      <trkpt lat="45.05702" lon="2.79609">
        <ele>1352.1</ele>
        <time>2021-09-13T13:59:32.000Z</time>
      </trkpt>
      <trkpt lat="45.05697" lon="2.79617">
        <ele>1353.5</ele>
        <time>2021-09-13T13:59:44.000Z</time>
      </trkpt>
      <trkpt lat="45.05689" lon="2.79629">
        <ele>1355.7</ele>
        <time>2021-09-13T14:00:09.000Z</time>
      </trkpt>
      <trkpt lat="45.0568" lon="2.79636">
        <ele>1358.1</ele>
        <time>2021-09-13T14:00:19.000Z</time>
      </trkpt>
      <trkpt lat="45.05672" lon="2.79637">
        <ele>1360</ele>
        <time>2021-09-13T14:00:21.000Z</time>
      </trkpt>
      <trkpt lat="45.05665" lon="2.79643">
        <ele>1362.1</ele>
        <time>2021-09-13T14:00:27.000Z</time>
      </trkpt>
      <trkpt lat="45.05659" lon="2.79646">
        <ele>1364.2</ele>
        <time>2021-09-13T14:00:52.000Z</time>
      </trkpt>
      <trkpt lat="45.05652" lon="2.79635">
        <ele>1365.7</ele>
        <time>2021-09-13T14:01:29.000Z</time>
      </trkpt>
      <trkpt lat="45.05658" lon="2.79639">
        <ele>1364.1</ele>
        <time>2021-09-13T14:01:42.000Z</time>
      </trkpt>
      <trkpt lat="45.05661" lon="2.7963">
        <ele>1362.6</ele>
        <time>2021-09-13T14:01:52.000Z</time>
      </trkpt>
      <trkpt lat="45.05659" lon="2.79621">
        <ele>1362.6</ele>
        <time>2021-09-13T14:02:15.000Z</time>
      </trkpt>
      <trkpt lat="45.05653" lon="2.79614">
        <ele>1364.1</ele>
        <time>2021-09-13T14:02:25.000Z</time>
      </trkpt>
      <trkpt lat="45.05657" lon="2.79605">
        <ele>1362.3</ele>
        <time>2021-09-13T14:02:47.000Z</time>
      </trkpt>
      <trkpt lat="45.0566" lon="2.79597">
        <ele>1360.8</ele>
        <time>2021-09-13T14:02:55.000Z</time>
      </trkpt>
      <trkpt lat="45.05665" lon="2.79588">
        <ele>1358.8</ele>
        <time>2021-09-13T14:03:08.000Z</time>
      </trkpt>
      <trkpt lat="45.05662" lon="2.79579">
        <ele>1359.3</ele>
        <time>2021-09-13T14:03:27.000Z</time>
      </trkpt>
      <trkpt lat="45.05655" lon="2.79574">
        <ele>1361.3</ele>
        <time>2021-09-13T14:03:38.000Z</time>
      </trkpt>
      <trkpt lat="45.05647" lon="2.79561">
        <ele>1363.2</ele>
        <time>2021-09-13T14:03:42.000Z</time>
      </trkpt>
      <trkpt lat="45.05642" lon="2.79541">
        <ele>1363.8</ele>
        <time>2021-09-13T14:03:48.000Z</time>
      </trkpt>
      <trkpt lat="45.05639" lon="2.79531">
        <ele>1364.2</ele>
        <time>2021-09-13T14:03:54.000Z</time>
      </trkpt>
      <trkpt lat="45.05634" lon="2.79523">
        <ele>1365.1</ele>
        <time>2021-09-13T14:04:09.000Z</time>
      </trkpt>
      <trkpt lat="45.05629" lon="2.79518">
        <ele>1366</ele>
        <time>2021-09-13T14:04:15.000Z</time>
      </trkpt>
      <trkpt lat="45.05623" lon="2.79524">
        <ele>1367.8</ele>
        <time>2021-09-13T14:04:21.000Z</time>
      </trkpt>
      <trkpt lat="45.05616" lon="2.79528">
        <ele>1369.7</ele>
        <time>2021-09-13T14:04:27.000Z</time>
      </trkpt>
      <trkpt lat="45.05609" lon="2.7953">
        <ele>1371.6</ele>
        <time>2021-09-13T14:04:41.000Z</time>
      </trkpt>
      <trkpt lat="45.05608" lon="2.7954">
        <ele>1372.5</ele>
        <time>2021-09-13T14:05:00.000Z</time>
      </trkpt>
      <trkpt lat="45.05608" lon="2.79549">
        <ele>1373.2</ele>
        <time>2021-09-13T14:05:12.000Z</time>
      </trkpt>
      <trkpt lat="45.056" lon="2.79564">
        <ele>1376.5</ele>
        <time>2021-09-13T14:05:17.000Z</time>
      </trkpt>
      <trkpt lat="45.05595" lon="2.79578">
        <ele>1379.1</ele>
        <time>2021-09-13T14:05:23.000Z</time>
      </trkpt>
      <trkpt lat="45.05594" lon="2.79588">
        <ele>1380.2</ele>
        <time>2021-09-13T14:05:37.000Z</time>
      </trkpt>
      <trkpt lat="45.05592" lon="2.79597">
        <ele>1381.5</ele>
        <time>2021-09-13T14:05:43.000Z</time>
      </trkpt>
      <trkpt lat="45.0559" lon="2.79606">
        <ele>1382.9</ele>
        <time>2021-09-13T14:05:49.000Z</time>
      </trkpt>
      <trkpt lat="45.0559" lon="2.79615">
        <ele>1383.6</ele>
        <time>2021-09-13T14:05:54.000Z</time>
      </trkpt>
      <trkpt lat="45.05593" lon="2.79624">
        <ele>1383.4</ele>
        <time>2021-09-13T14:06:00.000Z</time>
      </trkpt>
      <trkpt lat="45.05591" lon="2.79634">
        <ele>1384.8</ele>
        <time>2021-09-13T14:06:08.000Z</time>
      </trkpt>
      <trkpt lat="45.0559" lon="2.79645">
        <ele>1386.1</ele>
        <time>2021-09-13T14:06:14.000Z</time>
      </trkpt>
      <trkpt lat="45.05594" lon="2.79654">
        <ele>1385.5</ele>
        <time>2021-09-13T14:06:20.000Z</time>
      </trkpt>
      <trkpt lat="45.05598" lon="2.79662">
        <ele>1384.9</ele>
        <time>2021-09-13T14:06:25.000Z</time>
      </trkpt>
      <trkpt lat="45.05602" lon="2.7967">
        <ele>1384.2</ele>
        <time>2021-09-13T14:06:29.000Z</time>
      </trkpt>
      <trkpt lat="45.05602" lon="2.79682">
        <ele>1385.1</ele>
        <time>2021-09-13T14:06:33.000Z</time>
      </trkpt>
      <trkpt lat="45.05606" lon="2.79695">
        <ele>1384.9</ele>
        <time>2021-09-13T14:06:39.000Z</time>
      </trkpt>
      <trkpt lat="45.05612" lon="2.79704">
        <ele>1383.7</ele>
        <time>2021-09-13T14:06:45.000Z</time>
      </trkpt>
      <trkpt lat="45.05616" lon="2.79713">
        <ele>1383.2</ele>
        <time>2021-09-13T14:06:51.000Z</time>
      </trkpt>
      <trkpt lat="45.05622" lon="2.79721">
        <ele>1382</ele>
        <time>2021-09-13T14:06:57.000Z</time>
      </trkpt>
      <trkpt lat="45.05627" lon="2.79729">
        <ele>1381.1</ele>
        <time>2021-09-13T14:07:03.000Z</time>
      </trkpt>
      <trkpt lat="45.05632" lon="2.79738">
        <ele>1380.4</ele>
        <time>2021-09-13T14:07:09.000Z</time>
      </trkpt>
      <trkpt lat="45.05639" lon="2.79746">
        <ele>1378.9</ele>
        <time>2021-09-13T14:07:15.000Z</time>
      </trkpt>
      <trkpt lat="45.05645" lon="2.79755">
        <ele>1378.1</ele>
        <time>2021-09-13T14:07:21.000Z</time>
      </trkpt>
      <trkpt lat="45.05651" lon="2.79765">
        <ele>1377.6</ele>
        <time>2021-09-13T14:07:27.000Z</time>
      </trkpt>
      <trkpt lat="45.05656" lon="2.7977">
        <ele>1376.7</ele>
        <time>2021-09-13T14:07:33.000Z</time>
      </trkpt>
      <trkpt lat="45.05657" lon="2.79782">
        <ele>1378</ele>
        <time>2021-09-13T14:07:39.000Z</time>
      </trkpt>
      <trkpt lat="45.05664" lon="2.79792">
        <ele>1377.3</ele>
        <time>2021-09-13T14:07:45.000Z</time>
      </trkpt>
      <trkpt lat="45.05673" lon="2.798">
        <ele>1376.1</ele>
        <time>2021-09-13T14:07:51.000Z</time>
      </trkpt>
      <trkpt lat="45.05679" lon="2.79805">
        <ele>1375.3</ele>
        <time>2021-09-13T14:07:57.000Z</time>
      </trkpt>
      <trkpt lat="45.05688" lon="2.79812">
        <ele>1374.2</ele>
        <time>2021-09-13T14:08:03.000Z</time>
      </trkpt>
      <trkpt lat="45.05692" lon="2.7982">
        <ele>1374.5</ele>
        <time>2021-09-13T14:08:11.000Z</time>
      </trkpt>
      <trkpt lat="45.05699" lon="2.79824">
        <ele>1373.6</ele>
        <time>2021-09-13T14:08:17.000Z</time>
      </trkpt>
      <trkpt lat="45.05706" lon="2.79827">
        <ele>1372.5</ele>
        <time>2021-09-13T14:08:22.000Z</time>
      </trkpt>
      <trkpt lat="45.05714" lon="2.79831">
        <ele>1371.4</ele>
        <time>2021-09-13T14:08:27.000Z</time>
      </trkpt>
      <trkpt lat="45.05723" lon="2.79837">
        <ele>1370.4</ele>
        <time>2021-09-13T14:08:33.000Z</time>
      </trkpt>
      <trkpt lat="45.05734" lon="2.79838">
        <ele>1368.2</ele>
        <time>2021-09-13T14:08:39.000Z</time>
      </trkpt>
      <trkpt lat="45.05738" lon="2.79846">
        <ele>1368.6</ele>
        <time>2021-09-13T14:08:46.000Z</time>
      </trkpt>
      <trkpt lat="45.05743" lon="2.79854">
        <ele>1368.8</ele>
        <time>2021-09-13T14:08:53.000Z</time>
      </trkpt>
      <trkpt lat="45.05748" lon="2.79862">
        <ele>1368.9</ele>
        <time>2021-09-13T14:09:00.000Z</time>
      </trkpt>
      <trkpt lat="45.05753" lon="2.79868">
        <ele>1368.6</ele>
        <time>2021-09-13T14:09:05.000Z</time>
      </trkpt>
      <trkpt lat="45.05757" lon="2.79876">
        <ele>1368.9</ele>
        <time>2021-09-13T14:09:11.000Z</time>
      </trkpt>
      <trkpt lat="45.05761" lon="2.79885">
        <ele>1369.2</ele>
        <time>2021-09-13T14:09:18.000Z</time>
      </trkpt>
      <trkpt lat="45.05767" lon="2.79892">
        <ele>1368.8</ele>
        <time>2021-09-13T14:09:24.000Z</time>
      </trkpt>
      <trkpt lat="45.05771" lon="2.79899">
        <ele>1368.9</ele>
        <time>2021-09-13T14:09:29.000Z</time>
      </trkpt>
      <trkpt lat="45.05777" lon="2.79906">
        <ele>1368.5</ele>
        <time>2021-09-13T14:09:34.000Z</time>
      </trkpt>
      <trkpt lat="45.05783" lon="2.7991">
        <ele>1367.6</ele>
        <time>2021-09-13T14:09:39.000Z</time>
      </trkpt>
      <trkpt lat="45.05794" lon="2.79911">
        <ele>1365</ele>
        <time>2021-09-13T14:09:45.000Z</time>
      </trkpt>
      <trkpt lat="45.0581" lon="2.79913">
        <ele>1361.3</ele>
        <time>2021-09-13T14:09:51.000Z</time>
      </trkpt>
      <trkpt lat="45.05821" lon="2.7992">
        <ele>1359.8</ele>
        <time>2021-09-13T14:09:57.000Z</time>
      </trkpt>
      <trkpt lat="45.0583" lon="2.79928">
        <ele>1359.1</ele>
        <time>2021-09-13T14:10:03.000Z</time>
      </trkpt>
      <trkpt lat="45.05835" lon="2.79937">
        <ele>1359.7</ele>
        <time>2021-09-13T14:10:09.000Z</time>
      </trkpt>
      <trkpt lat="45.05844" lon="2.79944">
        <ele>1358.8</ele>
        <time>2021-09-13T14:10:15.000Z</time>
      </trkpt>
      <trkpt lat="45.0585" lon="2.79953">
        <ele>1359</ele>
        <time>2021-09-13T14:10:21.000Z</time>
      </trkpt>
      <trkpt lat="45.05858" lon="2.79962">
        <ele>1358.5</ele>
        <time>2021-09-13T14:10:27.000Z</time>
      </trkpt>
      <trkpt lat="45.05863" lon="2.79968">
        <ele>1358.3</ele>
        <time>2021-09-13T14:10:33.000Z</time>
      </trkpt>
      <trkpt lat="45.05869" lon="2.79975">
        <ele>1358</ele>
        <time>2021-09-13T14:10:39.000Z</time>
      </trkpt>
      <trkpt lat="45.05875" lon="2.79982">
        <ele>1357.7</ele>
        <time>2021-09-13T14:10:45.000Z</time>
      </trkpt>
      <trkpt lat="45.05879" lon="2.79989">
        <ele>1357.8</ele>
        <time>2021-09-13T14:10:51.000Z</time>
      </trkpt>
      <trkpt lat="45.05885" lon="2.79997">
        <ele>1357.6</ele>
        <time>2021-09-13T14:10:57.000Z</time>
      </trkpt>
      <trkpt lat="45.05889" lon="2.80005">
        <ele>1357.6</ele>
        <time>2021-09-13T14:11:03.000Z</time>
      </trkpt>
      <trkpt lat="45.05892" lon="2.80013">
        <ele>1357.8</ele>
        <time>2021-09-13T14:11:09.000Z</time>
      </trkpt>
      <trkpt lat="45.05894" lon="2.80023">
        <ele>1358.6</ele>
        <time>2021-09-13T14:11:15.000Z</time>
      </trkpt>
      <trkpt lat="45.05897" lon="2.80033">
        <ele>1359</ele>
        <time>2021-09-13T14:11:21.000Z</time>
      </trkpt>
      <trkpt lat="45.05902" lon="2.8004">
        <ele>1358.5</ele>
        <time>2021-09-13T14:11:29.000Z</time>
      </trkpt>
      <trkpt lat="45.05908" lon="2.80042">
        <ele>1357</ele>
        <time>2021-09-13T14:11:34.000Z</time>
      </trkpt>
      <trkpt lat="45.05921" lon="2.80052">
        <ele>1354.8</ele>
        <time>2021-09-13T14:11:56.000Z</time>
      </trkpt>
      <trkpt lat="45.05927" lon="2.80058">
        <ele>1354.1</ele>
        <time>2021-09-13T14:12:13.000Z</time>
      </trkpt>
      <trkpt lat="45.05932" lon="2.80064">
        <ele>1353.6</ele>
        <time>2021-09-13T14:12:20.000Z</time>
      </trkpt>
      <trkpt lat="45.05939" lon="2.8007">
        <ele>1352.6</ele>
        <time>2021-09-13T14:12:26.000Z</time>
      </trkpt>
      <trkpt lat="45.05944" lon="2.80075">
        <ele>1352</ele>
        <time>2021-09-13T14:12:32.000Z</time>
      </trkpt>
      <trkpt lat="45.05949" lon="2.80082">
        <ele>1351.7</ele>
        <time>2021-09-13T14:12:37.000Z</time>
      </trkpt>
      <trkpt lat="45.05953" lon="2.80089">
        <ele>1351.2</ele>
        <time>2021-09-13T14:12:43.000Z</time>
      </trkpt>
      <trkpt lat="45.05959" lon="2.80097">
        <ele>1350.1</ele>
        <time>2021-09-13T14:12:49.000Z</time>
      </trkpt>
      <trkpt lat="45.05963" lon="2.80106">
        <ele>1349.7</ele>
        <time>2021-09-13T14:12:55.000Z</time>
      </trkpt>
      <trkpt lat="45.05969" lon="2.80113">
        <ele>1348.5</ele>
        <time>2021-09-13T14:13:00.000Z</time>
      </trkpt>
      <trkpt lat="45.05975" lon="2.80121">
        <ele>1347.4</ele>
        <time>2021-09-13T14:13:06.000Z</time>
      </trkpt>
      <trkpt lat="45.05978" lon="2.8013">
        <ele>1347.1</ele>
        <time>2021-09-13T14:13:12.000Z</time>
      </trkpt>
      <trkpt lat="45.05983" lon="2.80138">
        <ele>1346.2</ele>
        <time>2021-09-13T14:13:18.000Z</time>
      </trkpt>
      <trkpt lat="45.05985" lon="2.80147">
        <ele>1346.1</ele>
        <time>2021-09-13T14:13:24.000Z</time>
      </trkpt>
      <trkpt lat="45.05987" lon="2.80157">
        <ele>1346.1</ele>
        <time>2021-09-13T14:13:30.000Z</time>
      </trkpt>
      <trkpt lat="45.05993" lon="2.80163">
        <ele>1344.7</ele>
        <time>2021-09-13T14:13:35.000Z</time>
      </trkpt>
      <trkpt lat="45.05999" lon="2.80169">
        <ele>1343.4</ele>
        <time>2021-09-13T14:13:41.000Z</time>
      </trkpt>
      <trkpt lat="45.06001" lon="2.80179">
        <ele>1343.3</ele>
        <time>2021-09-13T14:13:46.000Z</time>
      </trkpt>
      <trkpt lat="45.06005" lon="2.80188">
        <ele>1342.8</ele>
        <time>2021-09-13T14:13:52.000Z</time>
      </trkpt>
      <trkpt lat="45.06008" lon="2.80197">
        <ele>1342.6</ele>
        <time>2021-09-13T14:13:57.000Z</time>
      </trkpt>
      <trkpt lat="45.0601" lon="2.80212">
        <ele>1342.8</ele>
        <time>2021-09-13T14:14:03.000Z</time>
      </trkpt>
      <trkpt lat="45.06012" lon="2.80223">
        <ele>1342.9</ele>
        <time>2021-09-13T14:14:09.000Z</time>
      </trkpt>
      <trkpt lat="45.06015" lon="2.80236">
        <ele>1342.9</ele>
        <time>2021-09-13T14:14:15.000Z</time>
      </trkpt>
      <trkpt lat="45.06024" lon="2.80248">
        <ele>1341.9</ele>
        <time>2021-09-13T14:14:21.000Z</time>
      </trkpt>
      <trkpt lat="45.06025" lon="2.80263">
        <ele>1342</ele>
        <time>2021-09-13T14:14:27.000Z</time>
      </trkpt>
      <trkpt lat="45.06028" lon="2.80274">
        <ele>1341.7</ele>
        <time>2021-09-13T14:14:33.000Z</time>
      </trkpt>
      <trkpt lat="45.06032" lon="2.80282">
        <ele>1341.2</ele>
        <time>2021-09-13T14:14:39.000Z</time>
      </trkpt>
      <trkpt lat="45.06036" lon="2.80292">
        <ele>1340.7</ele>
        <time>2021-09-13T14:14:45.000Z</time>
      </trkpt>
      <trkpt lat="45.06043" lon="2.80313">
        <ele>1339.9</ele>
        <time>2021-09-13T14:14:51.000Z</time>
      </trkpt>
      <trkpt lat="45.06053" lon="2.80332">
        <ele>1338.7</ele>
        <time>2021-09-13T14:14:57.000Z</time>
      </trkpt>
      <trkpt lat="45.06051" lon="2.80347">
        <ele>1338.6</ele>
        <time>2021-09-13T14:15:03.000Z</time>
      </trkpt>
      <trkpt lat="45.06052" lon="2.80358">
        <ele>1338.1</ele>
        <time>2021-09-13T14:15:09.000Z</time>
      </trkpt>
      <trkpt lat="45.06048" lon="2.80367">
        <ele>1338.5</ele>
        <time>2021-09-13T14:15:15.000Z</time>
      </trkpt>
      <trkpt lat="45.06049" lon="2.80378">
        <ele>1338</ele>
        <time>2021-09-13T14:15:21.000Z</time>
      </trkpt>
      <trkpt lat="45.06054" lon="2.8039">
        <ele>1336.8</ele>
        <time>2021-09-13T14:15:27.000Z</time>
      </trkpt>
      <trkpt lat="45.06061" lon="2.80401">
        <ele>1335.3</ele>
        <time>2021-09-13T14:15:33.000Z</time>
      </trkpt>
      <trkpt lat="45.06065" lon="2.80412">
        <ele>1334.2</ele>
        <time>2021-09-13T14:15:39.000Z</time>
      </trkpt>
      <trkpt lat="45.0607" lon="2.80422">
        <ele>1333.2</ele>
        <time>2021-09-13T14:15:45.000Z</time>
      </trkpt>
      <trkpt lat="45.06078" lon="2.8043">
        <ele>1331.9</ele>
        <time>2021-09-13T14:15:51.000Z</time>
      </trkpt>
      <trkpt lat="45.06089" lon="2.80435">
        <ele>1330</ele>
        <time>2021-09-13T14:15:57.000Z</time>
      </trkpt>
      <trkpt lat="45.06105" lon="2.80427">
        <ele>1327.2</ele>
        <time>2021-09-13T14:16:03.000Z</time>
      </trkpt>
      <trkpt lat="45.06102" lon="2.80437">
        <ele>1327.5</ele>
        <time>2021-09-13T14:16:14.000Z</time>
      </trkpt>
      <trkpt lat="45.06105" lon="2.80446">
        <ele>1326.8</ele>
        <time>2021-09-13T14:16:19.000Z</time>
      </trkpt>
      <trkpt lat="45.06108" lon="2.80457">
        <ele>1326</ele>
        <time>2021-09-13T14:16:23.000Z</time>
      </trkpt>
      <trkpt lat="45.06111" lon="2.80478">
        <ele>1324.9</ele>
        <time>2021-09-13T14:16:27.000Z</time>
      </trkpt>
      <trkpt lat="45.06118" lon="2.80499">
        <ele>1322.7</ele>
        <time>2021-09-13T14:16:33.000Z</time>
      </trkpt>
      <trkpt lat="45.0613" lon="2.80513">
        <ele>1318.8</ele>
        <time>2021-09-13T14:16:39.000Z</time>
      </trkpt>
      <trkpt lat="45.06138" lon="2.80522">
        <ele>1316.2</ele>
        <time>2021-09-13T14:16:44.000Z</time>
      </trkpt>
      <trkpt lat="45.06137" lon="2.80534">
        <ele>1315.5</ele>
        <time>2021-09-13T14:16:50.000Z</time>
      </trkpt>
      <trkpt lat="45.06144" lon="2.80543">
        <ele>1313.2</ele>
        <time>2021-09-13T14:16:56.000Z</time>
      </trkpt>
      <trkpt lat="45.06157" lon="2.80545">
        <ele>1310</ele>
        <time>2021-09-13T14:17:02.000Z</time>
      </trkpt>
      <trkpt lat="45.06167" lon="2.80548">
        <ele>1307.5</ele>
        <time>2021-09-13T14:17:08.000Z</time>
      </trkpt>
      <trkpt lat="45.06173" lon="2.80552">
        <ele>1305.8</ele>
        <time>2021-09-13T14:17:19.000Z</time>
      </trkpt>
      <trkpt lat="45.06176" lon="2.80561">
        <ele>1304.5</ele>
        <time>2021-09-13T14:17:26.000Z</time>
      </trkpt>
      <trkpt lat="45.06176" lon="2.8057">
        <ele>1303.8</ele>
        <time>2021-09-13T14:17:31.000Z</time>
      </trkpt>
      <trkpt lat="45.06183" lon="2.80577">
        <ele>1301.7</ele>
        <time>2021-09-13T14:17:36.000Z</time>
      </trkpt>
      <trkpt lat="45.06195" lon="2.80583">
        <ele>1298.6</ele>
        <time>2021-09-13T14:17:42.000Z</time>
      </trkpt>
      <trkpt lat="45.06212" lon="2.80591">
        <ele>1294.2</ele>
        <time>2021-09-13T14:17:48.000Z</time>
      </trkpt>
      <trkpt lat="45.06219" lon="2.80601">
        <ele>1291.9</ele>
        <time>2021-09-13T14:17:54.000Z</time>
      </trkpt>
      <trkpt lat="45.06226" lon="2.80609">
        <ele>1289.7</ele>
        <time>2021-09-13T14:18:00.000Z</time>
      </trkpt>
      <trkpt lat="45.06232" lon="2.80617">
        <ele>1287.8</ele>
        <time>2021-09-13T14:18:06.000Z</time>
      </trkpt>
      <trkpt lat="45.06235" lon="2.80626">
        <ele>1286.4</ele>
        <time>2021-09-13T14:18:12.000Z</time>
      </trkpt>
      <trkpt lat="45.0624" lon="2.80639">
        <ele>1284.4</ele>
        <time>2021-09-13T14:18:18.000Z</time>
      </trkpt>
      <trkpt lat="45.06244" lon="2.80647">
        <ele>1282.8</ele>
        <time>2021-09-13T14:18:26.000Z</time>
      </trkpt>
      <trkpt lat="45.0625" lon="2.80654">
        <ele>1280.9</ele>
        <time>2021-09-13T14:19:11.000Z</time>
      </trkpt>
      <trkpt lat="45.06252" lon="2.80664">
        <ele>1280</ele>
        <time>2021-09-13T14:19:19.000Z</time>
      </trkpt>
      <trkpt lat="45.06254" lon="2.80673">
        <ele>1278.9</ele>
        <time>2021-09-13T14:19:27.000Z</time>
      </trkpt>
      <trkpt lat="45.06255" lon="2.80683">
        <ele>1277.7</ele>
        <time>2021-09-13T14:19:59.000Z</time>
      </trkpt>
      <trkpt lat="45.06262" lon="2.80686">
        <ele>1276.6</ele>
        <time>2021-09-13T14:21:07.000Z</time>
      </trkpt>
      <trkpt lat="45.06261" lon="2.80696">
        <ele>1275.7</ele>
        <time>2021-09-13T14:21:36.000Z</time>
      </trkpt>
      <trkpt lat="45.06261" lon="2.80706">
        <ele>1274.7</ele>
        <time>2021-09-13T14:21:42.000Z</time>
      </trkpt>
      <trkpt lat="45.06256" lon="2.80712">
        <ele>1274.5</ele>
        <time>2021-09-13T14:21:53.000Z</time>
      </trkpt>
      <trkpt lat="45.06257" lon="2.80721">
        <ele>1273.5</ele>
        <time>2021-09-13T14:22:02.000Z</time>
      </trkpt>
      <trkpt lat="45.06265" lon="2.80729">
        <ele>1272</ele>
        <time>2021-09-13T14:22:06.000Z</time>
      </trkpt>
      <trkpt lat="45.06273" lon="2.80734">
        <ele>1270.9</ele>
        <time>2021-09-13T14:22:11.000Z</time>
      </trkpt>
      <trkpt lat="45.06274" lon="2.80743">
        <ele>1269.9</ele>
        <time>2021-09-13T14:22:17.000Z</time>
      </trkpt>
      <trkpt lat="45.06278" lon="2.80754">
        <ele>1268.6</ele>
        <time>2021-09-13T14:22:23.000Z</time>
      </trkpt>
      <trkpt lat="45.06281" lon="2.80763">
        <ele>1267.3</ele>
        <time>2021-09-13T14:22:29.000Z</time>
      </trkpt>
      <trkpt lat="45.06283" lon="2.80772">
        <ele>1266.2</ele>
        <time>2021-09-13T14:22:35.000Z</time>
      </trkpt>
      <trkpt lat="45.06278" lon="2.80784">
        <ele>1265.3</ele>
        <time>2021-09-13T14:22:41.000Z</time>
      </trkpt>
      <trkpt lat="45.06284" lon="2.8079">
        <ele>1264.1</ele>
        <time>2021-09-13T14:22:51.000Z</time>
      </trkpt>
      <trkpt lat="45.06289" lon="2.80796">
        <ele>1263</ele>
        <time>2021-09-13T14:22:57.000Z</time>
      </trkpt>
      <trkpt lat="45.06295" lon="2.808">
        <ele>1262</ele>
        <time>2021-09-13T14:23:01.000Z</time>
      </trkpt>
      <trkpt lat="45.06304" lon="2.80804">
        <ele>1260.7</ele>
        <time>2021-09-13T14:23:05.000Z</time>
      </trkpt>
      <trkpt lat="45.06312" lon="2.8081">
        <ele>1259.2</ele>
        <time>2021-09-13T14:23:11.000Z</time>
      </trkpt>
      <trkpt lat="45.06317" lon="2.80823">
        <ele>1257.1</ele>
        <time>2021-09-13T14:23:17.000Z</time>
      </trkpt>
      <trkpt lat="45.06321" lon="2.80831">
        <ele>1255.6</ele>
        <time>2021-09-13T14:23:24.000Z</time>
      </trkpt>
      <trkpt lat="45.06325" lon="2.80839">
        <ele>1253.9</ele>
        <time>2021-09-13T14:23:30.000Z</time>
      </trkpt>
      <trkpt lat="45.0633" lon="2.80845">
        <ele>1252.3</ele>
        <time>2021-09-13T14:23:36.000Z</time>
      </trkpt>
      <trkpt lat="45.06334" lon="2.80855">
        <ele>1250.1</ele>
        <time>2021-09-13T14:23:42.000Z</time>
      </trkpt>
      <trkpt lat="45.06335" lon="2.80865">
        <ele>1248.2</ele>
        <time>2021-09-13T14:23:48.000Z</time>
      </trkpt>
      <trkpt lat="45.06339" lon="2.80873">
        <ele>1246.5</ele>
        <time>2021-09-13T14:23:55.000Z</time>
      </trkpt>
      <trkpt lat="45.06344" lon="2.80881">
        <ele>1244.9</ele>
        <time>2021-09-13T14:24:02.000Z</time>
      </trkpt>
      <trkpt lat="45.06345" lon="2.80891">
        <ele>1243.1</ele>
        <time>2021-09-13T14:24:09.000Z</time>
      </trkpt>
      <trkpt lat="45.06346" lon="2.80901">
        <ele>1241.4</ele>
        <time>2021-09-13T14:24:15.000Z</time>
      </trkpt>
      <trkpt lat="45.06345" lon="2.80912">
        <ele>1239.5</ele>
        <time>2021-09-13T14:24:18.000Z</time>
      </trkpt>
      <trkpt lat="45.06347" lon="2.80923">
        <ele>1237.9</ele>
        <time>2021-09-13T14:24:23.000Z</time>
      </trkpt>
      <trkpt lat="45.06353" lon="2.80923">
        <ele>1237.7</ele>
        <time>2021-09-13T14:24:41.000Z</time>
      </trkpt>
      <trkpt lat="45.06354" lon="2.80934">
        <ele>1236.3</ele>
        <time>2021-09-13T14:24:47.000Z</time>
      </trkpt>
      <trkpt lat="45.06355" lon="2.80943">
        <ele>1235.2</ele>
        <time>2021-09-13T14:24:52.000Z</time>
      </trkpt>
      <trkpt lat="45.06357" lon="2.80953">
        <ele>1233.9</ele>
        <time>2021-09-13T14:24:58.000Z</time>
      </trkpt>
      <trkpt lat="45.06362" lon="2.8096">
        <ele>1232.9</ele>
        <time>2021-09-13T14:25:06.000Z</time>
      </trkpt>
      <trkpt lat="45.06366" lon="2.80967">
        <ele>1232</ele>
        <time>2021-09-13T14:25:14.000Z</time>
      </trkpt>
      <trkpt lat="45.06367" lon="2.80977">
        <ele>1230.8</ele>
        <time>2021-09-13T14:25:24.000Z</time>
      </trkpt>
      <trkpt lat="45.06368" lon="2.80987">
        <ele>1229.6</ele>
        <time>2021-09-13T14:25:31.000Z</time>
      </trkpt>
      <trkpt lat="45.06367" lon="2.81">
        <ele>1228</ele>
        <time>2021-09-13T14:25:38.000Z</time>
      </trkpt>
      <trkpt lat="45.06365" lon="2.8101">
        <ele>1227.1</ele>
        <time>2021-09-13T14:25:44.000Z</time>
      </trkpt>
      <trkpt lat="45.06359" lon="2.81019">
        <ele>1226.3</ele>
        <time>2021-09-13T14:25:52.000Z</time>
      </trkpt>
      <trkpt lat="45.06361" lon="2.81028">
        <ele>1225.4</ele>
        <time>2021-09-13T14:26:04.000Z</time>
      </trkpt>
      <trkpt lat="45.06367" lon="2.81033">
        <ele>1224.9</ele>
        <time>2021-09-13T14:26:10.000Z</time>
      </trkpt>
      <trkpt lat="45.06368" lon="2.81043">
        <ele>1224</ele>
        <time>2021-09-13T14:26:18.000Z</time>
      </trkpt>
      <trkpt lat="45.0637" lon="2.81053">
        <ele>1223</ele>
        <time>2021-09-13T14:26:27.000Z</time>
      </trkpt>
      <trkpt lat="45.06371" lon="2.81062">
        <ele>1222.1</ele>
        <time>2021-09-13T14:26:34.000Z</time>
      </trkpt>
      <trkpt lat="45.06375" lon="2.81071">
        <ele>1221.2</ele>
        <time>2021-09-13T14:26:41.000Z</time>
      </trkpt>
      <trkpt lat="45.06376" lon="2.81081">
        <ele>1220.2</ele>
        <time>2021-09-13T14:26:48.000Z</time>
      </trkpt>
      <trkpt lat="45.06377" lon="2.8109">
        <ele>1219.4</ele>
        <time>2021-09-13T14:27:01.000Z</time>
      </trkpt>
      <trkpt lat="45.06374" lon="2.81099">
        <ele>1218.8</ele>
        <time>2021-09-13T14:27:12.000Z</time>
      </trkpt>
      <trkpt lat="45.06373" lon="2.81109">
        <ele>1218</ele>
        <time>2021-09-13T14:27:18.000Z</time>
      </trkpt>
      <trkpt lat="45.06373" lon="2.81118">
        <ele>1217.3</ele>
        <time>2021-09-13T14:27:24.000Z</time>
      </trkpt>
      <trkpt lat="45.06374" lon="2.8113">
        <ele>1216.4</ele>
        <time>2021-09-13T14:28:08.000Z</time>
      </trkpt>
      <trkpt lat="45.06374" lon="2.8114">
        <ele>1215.6</ele>
        <time>2021-09-13T14:28:14.000Z</time>
      </trkpt>
      <trkpt lat="45.06374" lon="2.8115">
        <ele>1214.8</ele>
        <time>2021-09-13T14:28:27.000Z</time>
      </trkpt>
      <trkpt lat="45.06377" lon="2.81159">
        <ele>1214.1</ele>
        <time>2021-09-13T14:28:33.000Z</time>
      </trkpt>
      <trkpt lat="45.06381" lon="2.81167">
        <ele>1213.4</ele>
        <time>2021-09-13T14:28:41.000Z</time>
      </trkpt>
      <trkpt lat="45.06385" lon="2.81176">
        <ele>1212.3</ele>
        <time>2021-09-13T14:28:49.000Z</time>
      </trkpt>
      <trkpt lat="45.06389" lon="2.81184">
        <ele>1211.4</ele>
        <time>2021-09-13T14:28:55.000Z</time>
      </trkpt>
      <trkpt lat="45.06393" lon="2.81192">
        <ele>1210.5</ele>
        <time>2021-09-13T14:29:01.000Z</time>
      </trkpt>
      <trkpt lat="45.06394" lon="2.81203">
        <ele>1209.2</ele>
        <time>2021-09-13T14:29:05.000Z</time>
      </trkpt>
      <trkpt lat="45.06396" lon="2.81216">
        <ele>1207.8</ele>
        <time>2021-09-13T14:29:09.000Z</time>
      </trkpt>
      <trkpt lat="45.06395" lon="2.81232">
        <ele>1206</ele>
        <time>2021-09-13T14:29:15.000Z</time>
      </trkpt>
      <trkpt lat="45.06392" lon="2.81241">
        <ele>1205</ele>
        <time>2021-09-13T14:29:27.000Z</time>
      </trkpt>
      <trkpt lat="45.06389" lon="2.81249">
        <ele>1204.1</ele>
        <time>2021-09-13T14:29:36.000Z</time>
      </trkpt>
      <trkpt lat="45.06387" lon="2.8126">
        <ele>1202.9</ele>
        <time>2021-09-13T14:29:43.000Z</time>
      </trkpt>
      <trkpt lat="45.06387" lon="2.8127">
        <ele>1201.9</ele>
        <time>2021-09-13T14:29:49.000Z</time>
      </trkpt>
      <trkpt lat="45.06388" lon="2.8128">
        <ele>1200.8</ele>
        <time>2021-09-13T14:29:55.000Z</time>
      </trkpt>
      <trkpt lat="45.06389" lon="2.81291">
        <ele>1199.6</ele>
        <time>2021-09-13T14:30:01.000Z</time>
      </trkpt>
      <trkpt lat="45.06391" lon="2.81303">
        <ele>1198.2</ele>
        <time>2021-09-13T14:30:07.000Z</time>
      </trkpt>
      <trkpt lat="45.06392" lon="2.81313">
        <ele>1197</ele>
        <time>2021-09-13T14:30:13.000Z</time>
      </trkpt>
      <trkpt lat="45.06394" lon="2.81322">
        <ele>1195.9</ele>
        <time>2021-09-13T14:30:19.000Z</time>
      </trkpt>
      <trkpt lat="45.06393" lon="2.81331">
        <ele>1195</ele>
        <time>2021-09-13T14:30:36.000Z</time>
      </trkpt>
      <trkpt lat="45.06389" lon="2.81339">
        <ele>1194.6</ele>
        <time>2021-09-13T14:30:43.000Z</time>
      </trkpt>
      <trkpt lat="45.06384" lon="2.81346">
        <ele>1194.6</ele>
        <time>2021-09-13T14:31:03.000Z</time>
      </trkpt>
      <trkpt lat="45.06379" lon="2.81353">
        <ele>1194.5</ele>
        <time>2021-09-13T14:31:15.000Z</time>
      </trkpt>
      <trkpt lat="45.06375" lon="2.81364">
        <ele>1194.2</ele>
        <time>2021-09-13T14:31:28.000Z</time>
      </trkpt>
      <trkpt lat="45.06371" lon="2.81371">
        <ele>1194.1</ele>
        <time>2021-09-13T14:31:31.000Z</time>
      </trkpt>
      <trkpt lat="45.06373" lon="2.8138">
        <ele>1193.4</ele>
        <time>2021-09-13T14:31:38.000Z</time>
      </trkpt>
      <trkpt lat="45.06378" lon="2.81387">
        <ele>1192.5</ele>
        <time>2021-09-13T14:31:42.000Z</time>
      </trkpt>
      <trkpt lat="45.06378" lon="2.81397">
        <ele>1191.9</ele>
        <time>2021-09-13T14:31:47.000Z</time>
      </trkpt>
      <trkpt lat="45.06377" lon="2.81409">
        <ele>1191.3</ele>
        <time>2021-09-13T14:31:54.000Z</time>
      </trkpt>
      <trkpt lat="45.06377" lon="2.81419">
        <ele>1190.6</ele>
        <time>2021-09-13T14:31:59.000Z</time>
      </trkpt>
      <trkpt lat="45.06374" lon="2.81433">
        <ele>1189.9</ele>
        <time>2021-09-13T14:32:05.000Z</time>
      </trkpt>
      <trkpt lat="45.06373" lon="2.81443">
        <ele>1189.3</ele>
        <time>2021-09-13T14:32:11.000Z</time>
      </trkpt>
      <trkpt lat="45.06369" lon="2.8145">
        <ele>1189.3</ele>
        <time>2021-09-13T14:32:23.000Z</time>
      </trkpt>
      <trkpt lat="45.06364" lon="2.81457">
        <ele>1189.4</ele>
        <time>2021-09-13T14:32:30.000Z</time>
      </trkpt>
      <trkpt lat="45.0636" lon="2.81465">
        <ele>1189.4</ele>
        <time>2021-09-13T14:32:35.000Z</time>
      </trkpt>
      <trkpt lat="45.06352" lon="2.81478">
        <ele>1189.6</ele>
        <time>2021-09-13T14:32:41.000Z</time>
      </trkpt>
      <trkpt lat="45.06343" lon="2.81487">
        <ele>1190.3</ele>
        <time>2021-09-13T14:32:48.000Z</time>
      </trkpt>
      <trkpt lat="45.06338" lon="2.81494">
        <ele>1190.6</ele>
        <time>2021-09-13T14:32:53.000Z</time>
      </trkpt>
      <trkpt lat="45.06334" lon="2.81504">
        <ele>1191</ele>
        <time>2021-09-13T14:33:02.000Z</time>
      </trkpt>
      <trkpt lat="45.06331" lon="2.81513">
        <ele>1192.1</ele>
        <time>2021-09-13T14:33:07.000Z</time>
      </trkpt>
      <trkpt lat="45.06335" lon="2.81522">
        <ele>1191.3</ele>
        <time>2021-09-13T14:33:15.000Z</time>
      </trkpt>
      <trkpt lat="45.06335" lon="2.81534">
        <ele>1191.5</ele>
        <time>2021-09-13T14:33:21.000Z</time>
      </trkpt>
      <trkpt lat="45.06337" lon="2.81544">
        <ele>1191.4</ele>
        <time>2021-09-13T14:33:31.000Z</time>
      </trkpt>
      <trkpt lat="45.0634" lon="2.81554">
        <ele>1191.1</ele>
        <time>2021-09-13T14:33:37.000Z</time>
      </trkpt>
      <trkpt lat="45.06344" lon="2.81562">
        <ele>1190.5</ele>
        <time>2021-09-13T14:33:43.000Z</time>
      </trkpt>
      <trkpt lat="45.06348" lon="2.81571">
        <ele>1189.8</ele>
        <time>2021-09-13T14:33:49.000Z</time>
      </trkpt>
      <trkpt lat="45.0635" lon="2.8158">
        <ele>1189.6</ele>
        <time>2021-09-13T14:33:55.000Z</time>
      </trkpt>
      <trkpt lat="45.06354" lon="2.8159">
        <ele>1188.6</ele>
        <time>2021-09-13T14:34:01.000Z</time>
      </trkpt>
      <trkpt lat="45.06359" lon="2.81597">
        <ele>1187.5</ele>
        <time>2021-09-13T14:34:07.000Z</time>
      </trkpt>
      <trkpt lat="45.06361" lon="2.81607">
        <ele>1187</ele>
        <time>2021-09-13T14:34:17.000Z</time>
      </trkpt>
      <trkpt lat="45.06362" lon="2.81618">
        <ele>1186.6</ele>
        <time>2021-09-13T14:34:26.000Z</time>
      </trkpt>
      <trkpt lat="45.06359" lon="2.81626">
        <ele>1187</ele>
        <time>2021-09-13T14:35:03.000Z</time>
      </trkpt>
      <trkpt lat="45.06366" lon="2.81629">
        <ele>1185.8</ele>
        <time>2021-09-13T14:36:12.000Z</time>
      </trkpt>
      <trkpt lat="45.06364" lon="2.81639">
        <ele>1186</ele>
        <time>2021-09-13T14:36:38.000Z</time>
      </trkpt>
      <trkpt lat="45.06371" lon="2.81641">
        <ele>1184.8</ele>
        <time>2021-09-13T14:36:51.000Z</time>
      </trkpt>
      <trkpt lat="45.06378" lon="2.81643">
        <ele>1183.7</ele>
        <time>2021-09-13T14:37:03.000Z</time>
      </trkpt>
      <trkpt lat="45.06384" lon="2.81647">
        <ele>1182.7</ele>
        <time>2021-09-13T14:37:10.000Z</time>
      </trkpt>
      <trkpt lat="45.06385" lon="2.81656">
        <ele>1182.5</ele>
        <time>2021-09-13T14:37:17.000Z</time>
      </trkpt>
      <trkpt lat="45.06391" lon="2.8166">
        <ele>1181.7</ele>
        <time>2021-09-13T14:37:30.000Z</time>
      </trkpt>
      <trkpt lat="45.06397" lon="2.81654">
        <ele>1180.7</ele>
        <time>2021-09-13T14:37:51.000Z</time>
      </trkpt>
      <trkpt lat="45.06389" lon="2.81656">
        <ele>1181.9</ele>
        <time>2021-09-13T14:38:51.000Z</time>
      </trkpt>
      <trkpt lat="45.06392" lon="2.81641">
        <ele>1181.4</ele>
        <time>2021-09-13T14:39:00.000Z</time>
      </trkpt>
      <trkpt lat="45.06395" lon="2.81632">
        <ele>1180.8</ele>
        <time>2021-09-13T14:39:12.000Z</time>
      </trkpt>
      <trkpt lat="45.06396" lon="2.81642">
        <ele>1180.8</ele>
        <time>2021-09-13T14:39:35.000Z</time>
      </trkpt>
      <trkpt lat="45.06393" lon="2.8165">
        <ele>1181.3</ele>
        <time>2021-09-13T14:39:44.000Z</time>
      </trkpt>
      <trkpt lat="45.06387" lon="2.81652">
        <ele>1182.2</ele>
        <time>2021-09-13T14:39:53.000Z</time>
      </trkpt>
      <trkpt lat="45.06386" lon="2.81662">
        <ele>1182.4</ele>
        <time>2021-09-13T14:40:00.000Z</time>
      </trkpt>
      <trkpt lat="45.0639" lon="2.81669">
        <ele>1181.7</ele>
        <time>2021-09-13T14:40:15.000Z</time>
      </trkpt>
      <trkpt lat="45.06387" lon="2.81678">
        <ele>1181.4</ele>
        <time>2021-09-13T14:40:30.000Z</time>
      </trkpt>
      <trkpt lat="45.0639" lon="2.81688">
        <ele>1180.2</ele>
        <time>2021-09-13T14:40:41.000Z</time>
      </trkpt>
      <trkpt lat="45.0639" lon="2.81698">
        <ele>1179.4</ele>
        <time>2021-09-13T14:40:47.000Z</time>
      </trkpt>
      <trkpt lat="45.06388" lon="2.81707">
        <ele>1179.1</ele>
        <time>2021-09-13T14:40:52.000Z</time>
      </trkpt>
      <trkpt lat="45.06392" lon="2.81716">
        <ele>1177.8</ele>
        <time>2021-09-13T14:41:01.000Z</time>
      </trkpt>
      <trkpt lat="45.06393" lon="2.81726">
        <ele>1176.8</ele>
        <time>2021-09-13T14:41:11.000Z</time>
      </trkpt>
      <trkpt lat="45.0639" lon="2.81735">
        <ele>1176.6</ele>
        <time>2021-09-13T14:41:15.000Z</time>
      </trkpt>
      <trkpt lat="45.06389" lon="2.81744">
        <ele>1176.1</ele>
        <time>2021-09-13T14:41:22.000Z</time>
      </trkpt>
      <trkpt lat="45.06393" lon="2.81752">
        <ele>1174.8</ele>
        <time>2021-09-13T14:41:27.000Z</time>
      </trkpt>
      <trkpt lat="45.06399" lon="2.81761">
        <ele>1173.2</ele>
        <time>2021-09-13T14:41:33.000Z</time>
      </trkpt>
      <trkpt lat="45.06404" lon="2.8177">
        <ele>1171.6</ele>
        <time>2021-09-13T14:41:39.000Z</time>
      </trkpt>
      <trkpt lat="45.06411" lon="2.81777">
        <ele>1169.8</ele>
        <time>2021-09-13T14:41:45.000Z</time>
      </trkpt>
      <trkpt lat="45.06417" lon="2.81783">
        <ele>1168.1</ele>
        <time>2021-09-13T14:41:51.000Z</time>
      </trkpt>
      <trkpt lat="45.06421" lon="2.81792">
        <ele>1166.5</ele>
        <time>2021-09-13T14:41:58.000Z</time>
      </trkpt>
      <trkpt lat="45.06422" lon="2.81803">
        <ele>1165.4</ele>
        <time>2021-09-13T14:42:03.000Z</time>
      </trkpt>
      <trkpt lat="45.06425" lon="2.81812">
        <ele>1164</ele>
        <time>2021-09-13T14:42:10.000Z</time>
      </trkpt>
      <trkpt lat="45.06429" lon="2.8182">
        <ele>1162.6</ele>
        <time>2021-09-13T14:42:16.000Z</time>
      </trkpt>
      <trkpt lat="45.06429" lon="2.81831">
        <ele>1161.8</ele>
        <time>2021-09-13T14:42:22.000Z</time>
      </trkpt>
      <trkpt lat="45.06427" lon="2.8184">
        <ele>1161.8</ele>
        <time>2021-09-13T14:42:27.000Z</time>
      </trkpt>
      <trkpt lat="45.06427" lon="2.81851">
        <ele>1161.6</ele>
        <time>2021-09-13T14:42:33.000Z</time>
      </trkpt>
      <trkpt lat="45.06432" lon="2.8186">
        <ele>1160.4</ele>
        <time>2021-09-13T14:42:39.000Z</time>
      </trkpt>
      <trkpt lat="45.06437" lon="2.8187">
        <ele>1159.1</ele>
        <time>2021-09-13T14:42:45.000Z</time>
      </trkpt>
      <trkpt lat="45.06442" lon="2.81879">
        <ele>1157.9</ele>
        <time>2021-09-13T14:42:52.000Z</time>
      </trkpt>
      <trkpt lat="45.06447" lon="2.81887">
        <ele>1156.7</ele>
        <time>2021-09-13T14:42:58.000Z</time>
      </trkpt>
      <trkpt lat="45.06451" lon="2.81896">
        <ele>1155.6</ele>
        <time>2021-09-13T14:43:04.000Z</time>
      </trkpt>
      <trkpt lat="45.06458" lon="2.81905">
        <ele>1153.9</ele>
        <time>2021-09-13T14:43:09.000Z</time>
      </trkpt>
      <trkpt lat="45.06461" lon="2.81913">
        <ele>1153.1</ele>
        <time>2021-09-13T14:43:15.000Z</time>
      </trkpt>
      <trkpt lat="45.06464" lon="2.81924">
        <ele>1152.3</ele>
        <time>2021-09-13T14:43:21.000Z</time>
      </trkpt>
      <trkpt lat="45.0647" lon="2.81932">
        <ele>1150.8</ele>
        <time>2021-09-13T14:43:27.000Z</time>
      </trkpt>
      <trkpt lat="45.06472" lon="2.81941">
        <ele>1150.2</ele>
        <time>2021-09-13T14:43:34.000Z</time>
      </trkpt>
      <trkpt lat="45.06473" lon="2.8195">
        <ele>1149.8</ele>
        <time>2021-09-13T14:43:42.000Z</time>
      </trkpt>
      <trkpt lat="45.06471" lon="2.8196">
        <ele>1150.1</ele>
        <time>2021-09-13T14:47:36.000Z</time>
      </trkpt>
      <trkpt lat="45.06469" lon="2.81969">
        <ele>1150.4</ele>
        <time>2021-09-13T14:48:04.000Z</time>
      </trkpt>
      <trkpt lat="45.06467" lon="2.81978">
        <ele>1150.8</ele>
        <time>2021-09-13T14:48:09.000Z</time>
      </trkpt>
      <trkpt lat="45.06469" lon="2.81988">
        <ele>1150.1</ele>
        <time>2021-09-13T14:48:15.000Z</time>
      </trkpt>
      <trkpt lat="45.06473" lon="2.81994">
        <ele>1148.9</ele>
        <time>2021-09-13T14:48:22.000Z</time>
      </trkpt>
      <trkpt lat="45.06479" lon="2.82001">
        <ele>1147.1</ele>
        <time>2021-09-13T14:48:30.000Z</time>
      </trkpt>
      <trkpt lat="45.06485" lon="2.82005">
        <ele>1145.6</ele>
        <time>2021-09-13T14:48:35.000Z</time>
      </trkpt>
      <trkpt lat="45.06494" lon="2.82008">
        <ele>1143</ele>
        <time>2021-09-13T14:48:39.000Z</time>
      </trkpt>
      <trkpt lat="45.065" lon="2.82013">
        <ele>1141.3</ele>
        <time>2021-09-13T14:48:47.000Z</time>
      </trkpt>
      <trkpt lat="45.06509" lon="2.82013">
        <ele>1140.3</ele>
        <time>2021-09-13T14:49:05.000Z</time>
      </trkpt>
      <trkpt lat="45.06505" lon="2.82021">
        <ele>1140.9</ele>
        <time>2021-09-13T14:49:22.000Z</time>
      </trkpt>
      <trkpt lat="45.0651" lon="2.82027">
        <ele>1140.4</ele>
        <time>2021-09-13T14:49:31.000Z</time>
      </trkpt>
      <trkpt lat="45.06517" lon="2.82024">
        <ele>1139.5</ele>
        <time>2021-09-13T14:49:40.000Z</time>
      </trkpt>
      <trkpt lat="45.06521" lon="2.82031">
        <ele>1139.1</ele>
        <time>2021-09-13T14:50:04.000Z</time>
      </trkpt>
      <trkpt lat="45.06527" lon="2.82038">
        <ele>1138.4</ele>
        <time>2021-09-13T14:50:12.000Z</time>
      </trkpt>
      <trkpt lat="45.06531" lon="2.82047">
        <ele>1137.9</ele>
        <time>2021-09-13T14:50:17.000Z</time>
      </trkpt>
      <trkpt lat="45.06535" lon="2.82056">
        <ele>1137.4</ele>
        <time>2021-09-13T14:50:22.000Z</time>
      </trkpt>
      <trkpt lat="45.06539" lon="2.82066">
        <ele>1136.9</ele>
        <time>2021-09-13T14:50:27.000Z</time>
      </trkpt>
      <trkpt lat="45.06544" lon="2.82075">
        <ele>1136.1</ele>
        <time>2021-09-13T14:50:33.000Z</time>
      </trkpt>
      <trkpt lat="45.06547" lon="2.82082">
        <ele>1135.7</ele>
        <time>2021-09-13T14:50:39.000Z</time>
      </trkpt>
      <trkpt lat="45.06549" lon="2.82092">
        <ele>1135.6</ele>
        <time>2021-09-13T14:50:56.000Z</time>
      </trkpt>
      <trkpt lat="45.06543" lon="2.82095">
        <ele>1136.7</ele>
        <time>2021-09-13T14:51:06.000Z</time>
      </trkpt>
      <trkpt lat="45.06536" lon="2.82094">
        <ele>1137.9</ele>
        <time>2021-09-13T14:51:14.000Z</time>
      </trkpt>
      <trkpt lat="45.0653" lon="2.82098">
        <ele>1139.1</ele>
        <time>2021-09-13T14:51:26.000Z</time>
      </trkpt>
      <trkpt lat="45.06526" lon="2.82106">
        <ele>1140.4</ele>
        <time>2021-09-13T14:51:37.000Z</time>
      </trkpt>
      <trkpt lat="45.06525" lon="2.82117">
        <ele>1141.3</ele>
        <time>2021-09-13T14:51:49.000Z</time>
      </trkpt>
      <trkpt lat="45.06526" lon="2.82126">
        <ele>1141.6</ele>
        <time>2021-09-13T14:51:54.000Z</time>
      </trkpt>
      <trkpt lat="45.06529" lon="2.82138">
        <ele>1141.6</ele>
        <time>2021-09-13T14:51:58.000Z</time>
      </trkpt>
      <trkpt lat="45.06533" lon="2.82154">
        <ele>1141.5</ele>
        <time>2021-09-13T14:52:03.000Z</time>
      </trkpt>
      <trkpt lat="45.06536" lon="2.82167">
        <ele>1141.2</ele>
        <time>2021-09-13T14:52:09.000Z</time>
      </trkpt>
      <trkpt lat="45.0654" lon="2.82176">
        <ele>1140.9</ele>
        <time>2021-09-13T14:52:15.000Z</time>
      </trkpt>
      <trkpt lat="45.06544" lon="2.82184">
        <ele>1140.3</ele>
        <time>2021-09-13T14:52:26.000Z</time>
      </trkpt>
      <trkpt lat="45.06549" lon="2.82192">
        <ele>1139.4</ele>
        <time>2021-09-13T14:52:33.000Z</time>
      </trkpt>
      <trkpt lat="45.06554" lon="2.82198">
        <ele>1138.2</ele>
        <time>2021-09-13T14:52:40.000Z</time>
      </trkpt>
      <trkpt lat="45.06558" lon="2.82205">
        <ele>1137.4</ele>
        <time>2021-09-13T14:52:47.000Z</time>
      </trkpt>
      <trkpt lat="45.06563" lon="2.82211">
        <ele>1136.1</ele>
        <time>2021-09-13T14:52:55.000Z</time>
      </trkpt>
      <trkpt lat="45.06569" lon="2.82215">
        <ele>1134.3</ele>
        <time>2021-09-13T14:53:00.000Z</time>
      </trkpt>
      <trkpt lat="45.06575" lon="2.8222">
        <ele>1132.5</ele>
        <time>2021-09-13T14:53:05.000Z</time>
      </trkpt>
      <trkpt lat="45.06583" lon="2.82223">
        <ele>1129.8</ele>
        <time>2021-09-13T14:53:11.000Z</time>
      </trkpt>
      <trkpt lat="45.0659" lon="2.82225">
        <ele>1129.2</ele>
        <time>2021-09-13T14:53:18.000Z</time>
      </trkpt>
      <trkpt lat="45.066" lon="2.82226">
        <ele>1128.3</ele>
        <time>2021-09-13T14:53:27.000Z</time>
      </trkpt>
      <trkpt lat="45.06609" lon="2.82228">
        <ele>1127.6</ele>
        <time>2021-09-13T14:53:33.000Z</time>
      </trkpt>
      <trkpt lat="45.06619" lon="2.82224">
        <ele>1126.6</ele>
        <time>2021-09-13T14:53:49.000Z</time>
      </trkpt>
      <trkpt lat="45.06626" lon="2.82221">
        <ele>1125.9</ele>
        <time>2021-09-13T14:54:00.000Z</time>
      </trkpt>
      <trkpt lat="45.06633" lon="2.82218">
        <ele>1125.2</ele>
        <time>2021-09-13T14:54:05.000Z</time>
      </trkpt>
      <trkpt lat="45.06641" lon="2.82219">
        <ele>1124.6</ele>
        <time>2021-09-13T14:54:11.000Z</time>
      </trkpt>
      <trkpt lat="45.06648" lon="2.82219">
        <ele>1124</ele>
        <time>2021-09-13T14:54:15.000Z</time>
      </trkpt>
      <trkpt lat="45.06655" lon="2.82219">
        <ele>1123.4</ele>
        <time>2021-09-13T14:54:22.000Z</time>
      </trkpt>
      <trkpt lat="45.06657" lon="2.82229">
        <ele>1123.1</ele>
        <time>2021-09-13T14:54:59.000Z</time>
      </trkpt>
      <trkpt lat="45.06664" lon="2.82234">
        <ele>1122.4</ele>
        <time>2021-09-13T14:55:10.000Z</time>
      </trkpt>
      <trkpt lat="45.06665" lon="2.82243">
        <ele>1122.3</ele>
        <time>2021-09-13T14:55:20.000Z</time>
      </trkpt>
      <trkpt lat="45.06656" lon="2.82254">
        <ele>1123.3</ele>
        <time>2021-09-13T14:55:37.000Z</time>
      </trkpt>
      <trkpt lat="45.06651" lon="2.8226">
        <ele>1124.2</ele>
        <time>2021-09-13T14:55:43.000Z</time>
      </trkpt>
      <trkpt lat="45.06646" lon="2.82267">
        <ele>1125.2</ele>
        <time>2021-09-13T14:55:49.000Z</time>
      </trkpt>
      <trkpt lat="45.06637" lon="2.82258">
        <ele>1125.8</ele>
        <time>2021-09-13T14:56:28.000Z</time>
      </trkpt>
      <trkpt lat="45.06634" lon="2.8225">
        <ele>1125.5</ele>
        <time>2021-09-13T14:56:33.000Z</time>
      </trkpt>
      <trkpt lat="45.06638" lon="2.82257">
        <ele>1125.6</ele>
        <time>2021-09-13T14:56:43.000Z</time>
      </trkpt>
      <trkpt lat="45.06646" lon="2.82262">
        <ele>1124.9</ele>
        <time>2021-09-13T14:56:46.000Z</time>
      </trkpt>
      <trkpt lat="45.0665" lon="2.82269">
        <ele>1124.8</ele>
        <time>2021-09-13T14:56:53.000Z</time>
      </trkpt>
      <trkpt lat="45.06643" lon="2.82273">
        <ele>1126</ele>
        <time>2021-09-13T14:56:57.000Z</time>
      </trkpt>
      <trkpt lat="45.06636" lon="2.82271">
        <ele>1126.8</ele>
        <time>2021-09-13T14:57:03.000Z</time>
      </trkpt>
      <trkpt lat="45.06643" lon="2.82269">
        <ele>1125.8</ele>
        <time>2021-09-13T14:57:17.000Z</time>
      </trkpt>
      <trkpt lat="45.0665" lon="2.82263">
        <ele>1124.5</ele>
        <time>2021-09-13T14:57:23.000Z</time>
      </trkpt>
      <trkpt lat="45.06654" lon="2.82255">
        <ele>1123.6</ele>
        <time>2021-09-13T14:57:27.000Z</time>
      </trkpt>
      <trkpt lat="45.06659" lon="2.82246">
        <ele>1122.9</ele>
        <time>2021-09-13T14:57:35.000Z</time>
      </trkpt>
      <trkpt lat="45.06661" lon="2.82237">
        <ele>1122.7</ele>
        <time>2021-09-13T14:57:44.000Z</time>
      </trkpt>
      <trkpt lat="45.06659" lon="2.82228">
        <ele>1123</ele>
        <time>2021-09-13T14:58:14.000Z</time>
      </trkpt>
      <trkpt lat="45.06668" lon="2.8222">
        <ele>1122.3</ele>
        <time>2021-09-13T14:58:44.000Z</time>
      </trkpt>
      <trkpt lat="45.06662" lon="2.82219">
        <ele>1122.8</ele>
        <time>2021-09-13T14:59:12.000Z</time>
      </trkpt>
      <trkpt lat="45.06656" lon="2.82225">
        <ele>1123.3</ele>
        <time>2021-09-13T14:59:29.000Z</time>
      </trkpt>
      <trkpt lat="45.06649" lon="2.82228">
        <ele>1123.9</ele>
        <time>2021-09-13T14:59:37.000Z</time>
      </trkpt>
      <trkpt lat="45.06644" lon="2.82233">
        <ele>1124.4</ele>
        <time>2021-09-13T14:59:45.000Z</time>
      </trkpt>
      <trkpt lat="45.06638" lon="2.82236">
        <ele>1125</ele>
        <time>2021-09-13T14:59:55.000Z</time>
      </trkpt>
      <trkpt lat="45.06632" lon="2.82241">
        <ele>1125.6</ele>
        <time>2021-09-13T15:00:03.000Z</time>
      </trkpt>
      <trkpt lat="45.06624" lon="2.82242">
        <ele>1126.5</ele>
        <time>2021-09-13T15:00:10.000Z</time>
      </trkpt>
      <trkpt lat="45.06617" lon="2.82238">
        <ele>1127.1</ele>
        <time>2021-09-13T15:00:16.000Z</time>
      </trkpt>
      <trkpt lat="45.06608" lon="2.82227">
        <ele>1127.6</ele>
        <time>2021-09-13T15:00:21.000Z</time>
      </trkpt>
      <trkpt lat="45.06602" lon="2.82217">
        <ele>1127.8</ele>
        <time>2021-09-13T15:00:27.000Z</time>
      </trkpt>
      <trkpt lat="45.06594" lon="2.82214">
        <ele>1128.4</ele>
        <time>2021-09-13T15:00:33.000Z</time>
      </trkpt>
      <trkpt lat="45.06589" lon="2.82223">
        <ele>1129.2</ele>
        <time>2021-09-13T15:00:39.000Z</time>
      </trkpt>
      <trkpt lat="45.06582" lon="2.82227">
        <ele>1130.4</ele>
        <time>2021-09-13T15:00:45.000Z</time>
      </trkpt>
      <trkpt lat="45.06574" lon="2.8222">
        <ele>1132.9</ele>
        <time>2021-09-13T15:00:51.000Z</time>
      </trkpt>
      <trkpt lat="45.06563" lon="2.82212">
        <ele>1136.2</ele>
        <time>2021-09-13T15:00:57.000Z</time>
      </trkpt>
      <trkpt lat="45.06554" lon="2.82203">
        <ele>1138.6</ele>
        <time>2021-09-13T15:01:03.000Z</time>
      </trkpt>
      <trkpt lat="45.06548" lon="2.82198">
        <ele>1140.2</ele>
        <time>2021-09-13T15:01:09.000Z</time>
      </trkpt>
      <trkpt lat="45.06542" lon="2.8219">
        <ele>1141.5</ele>
        <time>2021-09-13T15:01:15.000Z</time>
      </trkpt>
      <trkpt lat="45.06536" lon="2.82178">
        <ele>1142.3</ele>
        <time>2021-09-13T15:01:21.000Z</time>
      </trkpt>
      <trkpt lat="45.06532" lon="2.82167">
        <ele>1142.4</ele>
        <time>2021-09-13T15:01:27.000Z</time>
      </trkpt>
      <trkpt lat="45.06529" lon="2.82152">
        <ele>1142.5</ele>
        <time>2021-09-13T15:01:33.000Z</time>
      </trkpt>
      <trkpt lat="45.06526" lon="2.82139">
        <ele>1142.5</ele>
        <time>2021-09-13T15:01:39.000Z</time>
      </trkpt>
      <trkpt lat="45.06526" lon="2.82123">
        <ele>1141.4</ele>
        <time>2021-09-13T15:01:45.000Z</time>
      </trkpt>
      <trkpt lat="45.06523" lon="2.82114">
        <ele>1141.5</ele>
        <time>2021-09-13T15:01:51.000Z</time>
      </trkpt>
      <trkpt lat="45.06523" lon="2.82104">
        <ele>1140.8</ele>
        <time>2021-09-13T15:01:58.000Z</time>
      </trkpt>
      <trkpt lat="45.06527" lon="2.82096">
        <ele>1139.6</ele>
        <time>2021-09-13T15:02:08.000Z</time>
      </trkpt>
      <trkpt lat="45.06532" lon="2.82091">
        <ele>1138.4</ele>
        <time>2021-09-13T15:02:12.000Z</time>
      </trkpt>
      <trkpt lat="45.0653" lon="2.82079">
        <ele>1138.3</ele>
        <time>2021-09-13T15:02:22.000Z</time>
      </trkpt>
      <trkpt lat="45.06524" lon="2.82083">
        <ele>1139.3</ele>
        <time>2021-09-13T15:02:56.000Z</time>
      </trkpt>
      <trkpt lat="45.06517" lon="2.8208">
        <ele>1140.3</ele>
        <time>2021-09-13T15:03:05.000Z</time>
      </trkpt>
      <trkpt lat="45.06511" lon="2.82084">
        <ele>1141.3</ele>
        <time>2021-09-13T15:03:11.000Z</time>
      </trkpt>
      <trkpt lat="45.06505" lon="2.8209">
        <ele>1142.9</ele>
        <time>2021-09-13T15:03:15.000Z</time>
      </trkpt>
      <trkpt lat="45.06505" lon="2.821">
        <ele>1143.9</ele>
        <time>2021-09-13T15:03:37.000Z</time>
      </trkpt>
      <trkpt lat="45.06498" lon="2.82104">
        <ele>1146.1</ele>
        <time>2021-09-13T15:03:56.000Z</time>
      </trkpt>
      <trkpt lat="45.06491" lon="2.82109">
        <ele>1149.7</ele>
        <time>2021-09-13T15:04:02.000Z</time>
      </trkpt>
      <trkpt lat="45.06483" lon="2.82115">
        <ele>1153.9</ele>
        <time>2021-09-13T15:04:06.000Z</time>
      </trkpt>
      <trkpt lat="45.06476" lon="2.82115">
        <ele>1157</ele>
        <time>2021-09-13T15:04:21.000Z</time>
      </trkpt>
      <trkpt lat="45.06468" lon="2.82119">
        <ele>1161</ele>
        <time>2021-09-13T15:04:52.000Z</time>
      </trkpt>
      <trkpt lat="45.06461" lon="2.82122">
        <ele>1164.5</ele>
        <time>2021-09-13T15:05:09.000Z</time>
      </trkpt>
      <trkpt lat="45.06453" lon="2.82121">
        <ele>1167.9</ele>
        <time>2021-09-13T15:05:15.000Z</time>
      </trkpt>
      <trkpt lat="45.06446" lon="2.82122">
        <ele>1171.1</ele>
        <time>2021-09-13T15:05:24.000Z</time>
      </trkpt>
      <trkpt lat="45.0644" lon="2.82127">
        <ele>1174.4</ele>
        <time>2021-09-13T15:05:45.000Z</time>
      </trkpt>
      <trkpt lat="45.06435" lon="2.82136">
        <ele>1177.8</ele>
        <time>2021-09-13T15:05:57.000Z</time>
      </trkpt>
      <trkpt lat="45.06434" lon="2.82154">
        <ele>1180.5</ele>
        <time>2021-09-13T15:06:03.000Z</time>
      </trkpt>
      <trkpt lat="45.06436" lon="2.82165">
        <ele>1181</ele>
        <time>2021-09-13T15:06:09.000Z</time>
      </trkpt>
      <trkpt lat="45.06433" lon="2.82155">
        <ele>1181.1</ele>
        <time>2021-09-13T15:06:15.000Z</time>
      </trkpt>
      <trkpt lat="45.06435" lon="2.8214">
        <ele>1178.3</ele>
        <time>2021-09-13T15:06:21.000Z</time>
      </trkpt>
      <trkpt lat="45.06429" lon="2.82134">
        <ele>1180.2</ele>
        <time>2021-09-13T15:06:27.000Z</time>
      </trkpt>
      <trkpt lat="45.06421" lon="2.82135">
        <ele>1183.9</ele>
        <time>2021-09-13T15:06:33.000Z</time>
      </trkpt>
      <trkpt lat="45.06423" lon="2.82144">
        <ele>1184.2</ele>
        <time>2021-09-13T15:06:51.000Z</time>
      </trkpt>
      <trkpt lat="45.06426" lon="2.8216">
        <ele>1184.9</ele>
        <time>2021-09-13T15:06:57.000Z</time>
      </trkpt>
      <trkpt lat="45.06424" lon="2.82169">
        <ele>1187</ele>
        <time>2021-09-13T15:07:03.000Z</time>
      </trkpt>
      <trkpt lat="45.06422" lon="2.82179">
        <ele>1189.2</ele>
        <time>2021-09-13T15:07:12.000Z</time>
      </trkpt>
      <trkpt lat="45.06415" lon="2.82185">
        <ele>1193</ele>
        <time>2021-09-13T15:07:20.000Z</time>
      </trkpt>
      <trkpt lat="45.0642" lon="2.82193">
        <ele>1192</ele>
        <time>2021-09-13T15:07:29.000Z</time>
      </trkpt>
      <trkpt lat="45.06422" lon="2.82202">
        <ele>1192.2</ele>
        <time>2021-09-13T15:07:33.000Z</time>
      </trkpt>
      <trkpt lat="45.06426" lon="2.8221">
        <ele>1191.5</ele>
        <time>2021-09-13T15:07:39.000Z</time>
      </trkpt>
      <trkpt lat="45.0643" lon="2.82218">
        <ele>1190.7</ele>
        <time>2021-09-13T15:07:45.000Z</time>
      </trkpt>
      <trkpt lat="45.06431" lon="2.82228">
        <ele>1191.6</ele>
        <time>2021-09-13T15:07:51.000Z</time>
      </trkpt>
      <trkpt lat="45.06433" lon="2.82237">
        <ele>1191.8</ele>
        <time>2021-09-13T15:08:00.000Z</time>
      </trkpt>
      <trkpt lat="45.06439" lon="2.82246">
        <ele>1190.3</ele>
        <time>2021-09-13T15:08:05.000Z</time>
      </trkpt>
      <trkpt lat="45.06442" lon="2.82255">
        <ele>1190.1</ele>
        <time>2021-09-13T15:08:18.000Z</time>
      </trkpt>
      <trkpt lat="45.06443" lon="2.82264">
        <ele>1191</ele>
        <time>2021-09-13T15:08:24.000Z</time>
      </trkpt>
      <trkpt lat="45.06447" lon="2.82275">
        <ele>1190.7</ele>
        <time>2021-09-13T15:08:30.000Z</time>
      </trkpt>
      <trkpt lat="45.06451" lon="2.82283">
        <ele>1189.9</ele>
        <time>2021-09-13T15:08:35.000Z</time>
      </trkpt>
      <trkpt lat="45.06448" lon="2.82291">
        <ele>1192.4</ele>
        <time>2021-09-13T15:08:43.000Z</time>
      </trkpt>
      <trkpt lat="45.06446" lon="2.82302">
        <ele>1194.9</ele>
        <time>2021-09-13T15:08:53.000Z</time>
      </trkpt>
      <trkpt lat="45.06443" lon="2.82311">
        <ele>1197.5</ele>
        <time>2021-09-13T15:08:57.000Z</time>
      </trkpt>
      <trkpt lat="45.06433" lon="2.82325">
        <ele>1204.2</ele>
        <time>2021-09-13T15:09:03.000Z</time>
      </trkpt>
      <trkpt lat="45.06426" lon="2.82327">
        <ele>1207.7</ele>
        <time>2021-09-13T15:09:23.000Z</time>
      </trkpt>
      <trkpt lat="45.06432" lon="2.82334">
        <ele>1205.9</ele>
        <time>2021-09-13T15:09:35.000Z</time>
      </trkpt>
      <trkpt lat="45.06427" lon="2.82341">
        <ele>1209.3</ele>
        <time>2021-09-13T15:09:51.000Z</time>
      </trkpt>
      <trkpt lat="45.06421" lon="2.82346">
        <ele>1212.8</ele>
        <time>2021-09-13T15:10:01.000Z</time>
      </trkpt>
      <trkpt lat="45.06426" lon="2.82354">
        <ele>1211.7</ele>
        <time>2021-09-13T15:10:10.000Z</time>
      </trkpt>
      <trkpt lat="45.06427" lon="2.82363">
        <ele>1212.6</ele>
        <time>2021-09-13T15:10:23.000Z</time>
      </trkpt>
      <trkpt lat="45.06432" lon="2.82369">
        <ele>1211.2</ele>
        <time>2021-09-13T15:10:48.000Z</time>
      </trkpt>
      <trkpt lat="45.06427" lon="2.82376">
        <ele>1214.5</ele>
        <time>2021-09-13T15:10:51.000Z</time>
      </trkpt>
      <trkpt lat="45.0642" lon="2.82384">
        <ele>1218.8</ele>
        <time>2021-09-13T15:11:02.000Z</time>
      </trkpt>
      <trkpt lat="45.06415" lon="2.82391">
        <ele>1222</ele>
        <time>2021-09-13T15:11:07.000Z</time>
      </trkpt>
      <trkpt lat="45.06424" lon="2.82395">
        <ele>1218.6</ele>
        <time>2021-09-13T15:11:11.000Z</time>
      </trkpt>
      <trkpt lat="45.06435" lon="2.82402">
        <ele>1214.9</ele>
        <time>2021-09-13T15:11:15.000Z</time>
      </trkpt>
      <trkpt lat="45.06443" lon="2.82408">
        <ele>1212.3</ele>
        <time>2021-09-13T15:11:25.000Z</time>
      </trkpt>
      <trkpt lat="45.06453" lon="2.82406">
        <ele>1207.6</ele>
        <time>2021-09-13T15:11:28.000Z</time>
      </trkpt>
      <trkpt lat="45.06459" lon="2.82407">
        <ele>1205.1</ele>
        <time>2021-09-13T15:11:33.000Z</time>
      </trkpt>
      <trkpt lat="45.0646" lon="2.82416">
        <ele>1206.2</ele>
        <time>2021-09-13T15:11:39.000Z</time>
      </trkpt>
      <trkpt lat="45.06461" lon="2.82426">
        <ele>1207.8</ele>
        <time>2021-09-13T15:11:49.000Z</time>
      </trkpt>
      <trkpt lat="45.06455" lon="2.82432">
        <ele>1211.6</ele>
        <time>2021-09-13T15:11:56.000Z</time>
      </trkpt>
      <trkpt lat="45.06453" lon="2.82442">
        <ele>1214.4</ele>
        <time>2021-09-13T15:12:07.000Z</time>
      </trkpt>
      <trkpt lat="45.0645" lon="2.82451">
        <ele>1217.4</ele>
        <time>2021-09-13T15:12:13.000Z</time>
      </trkpt>
      <trkpt lat="45.06452" lon="2.8246">
        <ele>1218.4</ele>
        <time>2021-09-13T15:12:19.000Z</time>
      </trkpt>
      <trkpt lat="45.06454" lon="2.82469">
        <ele>1219.5</ele>
        <time>2021-09-13T15:12:24.000Z</time>
      </trkpt>
      <trkpt lat="45.06457" lon="2.82478">
        <ele>1220.3</ele>
        <time>2021-09-13T15:12:29.000Z</time>
      </trkpt>
      <trkpt lat="45.0646" lon="2.82488">
        <ele>1221.4</ele>
        <time>2021-09-13T15:12:35.000Z</time>
      </trkpt>
      <trkpt lat="45.06463" lon="2.82496">
        <ele>1222.2</ele>
        <time>2021-09-13T15:12:43.000Z</time>
      </trkpt>
      <trkpt lat="45.06466" lon="2.82504">
        <ele>1223.3</ele>
        <time>2021-09-13T15:12:48.000Z</time>
      </trkpt>
      <trkpt lat="45.06471" lon="2.82512">
        <ele>1223.9</ele>
        <time>2021-09-13T15:12:54.000Z</time>
      </trkpt>
      <trkpt lat="45.06472" lon="2.82521">
        <ele>1226</ele>
        <time>2021-09-13T15:13:00.000Z</time>
      </trkpt>
      <trkpt lat="45.06476" lon="2.82529">
        <ele>1227</ele>
        <time>2021-09-13T15:13:07.000Z</time>
      </trkpt>
      <trkpt lat="45.06482" lon="2.82533">
        <ele>1226.3</ele>
        <time>2021-09-13T15:13:10.000Z</time>
      </trkpt>
      <trkpt lat="45.06491" lon="2.8254">
        <ele>1225.6</ele>
        <time>2021-09-13T15:13:15.000Z</time>
      </trkpt>
      <trkpt lat="45.06502" lon="2.82546">
        <ele>1223.8</ele>
        <time>2021-09-13T15:13:21.000Z</time>
      </trkpt>
      <trkpt lat="45.06508" lon="2.82551">
        <ele>1222.4</ele>
        <time>2021-09-13T15:13:27.000Z</time>
      </trkpt>
      <trkpt lat="45.06508" lon="2.82562">
        <ele>1225.4</ele>
        <time>2021-09-13T15:13:38.000Z</time>
      </trkpt>
      <trkpt lat="45.06511" lon="2.82572">
        <ele>1226.7</ele>
        <time>2021-09-13T15:13:43.000Z</time>
      </trkpt>
      <trkpt lat="45.06514" lon="2.82583">
        <ele>1228.2</ele>
        <time>2021-09-13T15:13:49.000Z</time>
      </trkpt>
      <trkpt lat="45.06518" lon="2.82591">
        <ele>1227.8</ele>
        <time>2021-09-13T15:13:52.000Z</time>
      </trkpt>
      <trkpt lat="45.06522" lon="2.82602">
        <ele>1227.9</ele>
        <time>2021-09-13T15:13:57.000Z</time>
      </trkpt>
      <trkpt lat="45.06524" lon="2.82613">
        <ele>1229.1</ele>
        <time>2021-09-13T15:14:03.000Z</time>
      </trkpt>
      <trkpt lat="45.06538" lon="2.82621">
        <ele>1224.3</ele>
        <time>2021-09-13T15:14:09.000Z</time>
      </trkpt>
      <trkpt lat="45.0655" lon="2.82625">
        <ele>1219.8</ele>
        <time>2021-09-13T15:14:15.000Z</time>
      </trkpt>
      <trkpt lat="45.06557" lon="2.82628">
        <ele>1217.3</ele>
        <time>2021-09-13T15:14:21.000Z</time>
      </trkpt>
      <trkpt lat="45.06567" lon="2.82633">
        <ele>1214.1</ele>
        <time>2021-09-13T15:14:27.000Z</time>
      </trkpt>
      <trkpt lat="45.06574" lon="2.82647">
        <ele>1214.2</ele>
        <time>2021-09-13T15:14:33.000Z</time>
      </trkpt>
      <trkpt lat="45.06574" lon="2.8266">
        <ele>1217.3</ele>
        <time>2021-09-13T15:14:39.000Z</time>
      </trkpt>
      <trkpt lat="45.06574" lon="2.82672">
        <ele>1219.7</ele>
        <time>2021-09-13T15:14:45.000Z</time>
      </trkpt>
      <trkpt lat="45.06572" lon="2.82685">
        <ele>1222.7</ele>
        <time>2021-09-13T15:14:51.000Z</time>
      </trkpt>
      <trkpt lat="45.06575" lon="2.82695">
        <ele>1223.3</ele>
        <time>2021-09-13T15:14:57.000Z</time>
      </trkpt>
      <trkpt lat="45.06581" lon="2.82702">
        <ele>1222.2</ele>
        <time>2021-09-13T15:15:03.000Z</time>
      </trkpt>
      <trkpt lat="45.06588" lon="2.82711">
        <ele>1220.9</ele>
        <time>2021-09-13T15:15:09.000Z</time>
      </trkpt>
      <trkpt lat="45.06596" lon="2.8272">
        <ele>1218.9</ele>
        <time>2021-09-13T15:15:15.000Z</time>
      </trkpt>
      <trkpt lat="45.06602" lon="2.82732">
        <ele>1218.4</ele>
        <time>2021-09-13T15:15:21.000Z</time>
      </trkpt>
      <trkpt lat="45.06611" lon="2.8274">
        <ele>1215.9</ele>
        <time>2021-09-13T15:15:27.000Z</time>
      </trkpt>
      <trkpt lat="45.06618" lon="2.82748">
        <ele>1214.2</ele>
        <time>2021-09-13T15:15:33.000Z</time>
      </trkpt>
      <trkpt lat="45.06626" lon="2.82755">
        <ele>1211.9</ele>
        <time>2021-09-13T15:15:39.000Z</time>
      </trkpt>
      <trkpt lat="45.06631" lon="2.82763">
        <ele>1211.1</ele>
        <time>2021-09-13T15:15:45.000Z</time>
      </trkpt>
      <trkpt lat="45.06637" lon="2.8277">
        <ele>1209.7</ele>
        <time>2021-09-13T15:15:51.000Z</time>
      </trkpt>
      <trkpt lat="45.06643" lon="2.82778">
        <ele>1208.5</ele>
        <time>2021-09-13T15:15:57.000Z</time>
      </trkpt>
      <trkpt lat="45.06649" lon="2.82785">
        <ele>1207.2</ele>
        <time>2021-09-13T15:16:03.000Z</time>
      </trkpt>
      <trkpt lat="45.06657" lon="2.82791">
        <ele>1204.9</ele>
        <time>2021-09-13T15:16:09.000Z</time>
      </trkpt>
      <trkpt lat="45.06664" lon="2.82798">
        <ele>1203.3</ele>
        <time>2021-09-13T15:16:15.000Z</time>
      </trkpt>
      <trkpt lat="45.0667" lon="2.82803">
        <ele>1201.9</ele>
        <time>2021-09-13T15:16:22.000Z</time>
      </trkpt>
      <trkpt lat="45.06672" lon="2.82812">
        <ele>1202.8</ele>
        <time>2021-09-13T15:16:30.000Z</time>
      </trkpt>
      <trkpt lat="45.06691" lon="2.82816">
        <ele>1196.1</ele>
        <time>2021-09-13T15:16:33.000Z</time>
      </trkpt>
      <trkpt lat="45.06688" lon="2.82825">
        <ele>1199.1</ele>
        <time>2021-09-13T15:16:45.000Z</time>
      </trkpt>
      <trkpt lat="45.06687" lon="2.82838">
        <ele>1202.3</ele>
        <time>2021-09-13T15:16:51.000Z</time>
      </trkpt>
      <trkpt lat="45.06683" lon="2.82858">
        <ele>1208.6</ele>
        <time>2021-09-13T15:16:57.000Z</time>
      </trkpt>
      <trkpt lat="45.06686" lon="2.82869">
        <ele>1210.1</ele>
        <time>2021-09-13T15:17:03.000Z</time>
      </trkpt>
      <trkpt lat="45.06697" lon="2.82873">
        <ele>1206.9</ele>
        <time>2021-09-13T15:17:09.000Z</time>
      </trkpt>
      <trkpt lat="45.06711" lon="2.82873">
        <ele>1201.5</ele>
        <time>2021-09-13T15:17:15.000Z</time>
      </trkpt>
      <trkpt lat="45.06718" lon="2.82875">
        <ele>1199.3</ele>
        <time>2021-09-13T15:17:21.000Z</time>
      </trkpt>
      <trkpt lat="45.06725" lon="2.82875">
        <ele>1196.6</ele>
        <time>2021-09-13T15:17:29.000Z</time>
      </trkpt>
      <trkpt lat="45.06734" lon="2.82873">
        <ele>1192.7</ele>
        <time>2021-09-13T15:17:51.000Z</time>
      </trkpt>
      <trkpt lat="45.0674" lon="2.82882">
        <ele>1192.5</ele>
        <time>2021-09-13T15:18:06.000Z</time>
      </trkpt>
      <trkpt lat="45.06745" lon="2.82888">
        <ele>1192</ele>
        <time>2021-09-13T15:18:11.000Z</time>
      </trkpt>
      <trkpt lat="45.06752" lon="2.82892">
        <ele>1190.2</ele>
        <time>2021-09-13T15:18:15.000Z</time>
      </trkpt>
      <trkpt lat="45.06761" lon="2.82898">
        <ele>1187.4</ele>
        <time>2021-09-13T15:18:21.000Z</time>
      </trkpt>
      <trkpt lat="45.06769" lon="2.82904">
        <ele>1185.1</ele>
        <time>2021-09-13T15:18:27.000Z</time>
      </trkpt>
      <trkpt lat="45.06776" lon="2.82912">
        <ele>1183.5</ele>
        <time>2021-09-13T15:18:33.000Z</time>
      </trkpt>
      <trkpt lat="45.06783" lon="2.82919">
        <ele>1181.7</ele>
        <time>2021-09-13T15:18:39.000Z</time>
      </trkpt>
      <trkpt lat="45.06793" lon="2.82927">
        <ele>1178.8</ele>
        <time>2021-09-13T15:18:45.000Z</time>
      </trkpt>
      <trkpt lat="45.06802" lon="2.82935">
        <ele>1176.4</ele>
        <time>2021-09-13T15:18:51.000Z</time>
      </trkpt>
      <trkpt lat="45.0681" lon="2.82945">
        <ele>1174.9</ele>
        <time>2021-09-13T15:18:57.000Z</time>
      </trkpt>
      <trkpt lat="45.06817" lon="2.82956">
        <ele>1174</ele>
        <time>2021-09-13T15:19:03.000Z</time>
      </trkpt>
      <trkpt lat="45.06822" lon="2.82965">
        <ele>1173.6</ele>
        <time>2021-09-13T15:19:09.000Z</time>
      </trkpt>
      <trkpt lat="45.06831" lon="2.8297">
        <ele>1170.3</ele>
        <time>2021-09-13T15:19:15.000Z</time>
      </trkpt>
      <trkpt lat="45.06838" lon="2.82978">
        <ele>1168.7</ele>
        <time>2021-09-13T15:19:21.000Z</time>
      </trkpt>
      <trkpt lat="45.06842" lon="2.82987">
        <ele>1168.7</ele>
        <time>2021-09-13T15:19:27.000Z</time>
      </trkpt>
      <trkpt lat="45.06847" lon="2.82994">
        <ele>1167.7</ele>
        <time>2021-09-13T15:19:34.000Z</time>
      </trkpt>
      <trkpt lat="45.06854" lon="2.82994">
        <ele>1164.1</ele>
        <time>2021-09-13T15:19:54.000Z</time>
      </trkpt>
      <trkpt lat="45.06857" lon="2.82984">
        <ele>1160.5</ele>
        <time>2021-09-13T15:20:19.000Z</time>
      </trkpt>
      <trkpt lat="45.06856" lon="2.82974">
        <ele>1159</ele>
        <time>2021-09-13T15:20:22.000Z</time>
      </trkpt>
      <trkpt lat="45.06853" lon="2.8296">
        <ele>1157.5</ele>
        <time>2021-09-13T15:20:27.000Z</time>
      </trkpt>
      <trkpt lat="45.06847" lon="2.82946">
        <ele>1157.4</ele>
        <time>2021-09-13T15:20:33.000Z</time>
      </trkpt>
      <trkpt lat="45.06843" lon="2.82933">
        <ele>1156.4</ele>
        <time>2021-09-13T15:20:39.000Z</time>
      </trkpt>
      <trkpt lat="45.06838" lon="2.82917">
        <ele>1155.1</ele>
        <time>2021-09-13T15:20:45.000Z</time>
      </trkpt>
      <trkpt lat="45.0684" lon="2.82904">
        <ele>1152.2</ele>
        <time>2021-09-13T15:20:51.000Z</time>
      </trkpt>
      <trkpt lat="45.06843" lon="2.82895">
        <ele>1149.6</ele>
        <time>2021-09-13T15:21:02.000Z</time>
      </trkpt>
      <trkpt lat="45.06844" lon="2.82884">
        <ele>1147.5</ele>
        <time>2021-09-13T15:21:07.000Z</time>
      </trkpt>
      <trkpt lat="45.06845" lon="2.82875">
        <ele>1145.8</ele>
        <time>2021-09-13T15:21:12.000Z</time>
      </trkpt>
      <trkpt lat="45.06845" lon="2.82865">
        <ele>1144.3</ele>
        <time>2021-09-13T15:21:17.000Z</time>
      </trkpt>
      <trkpt lat="45.06845" lon="2.82854">
        <ele>1142.7</ele>
        <time>2021-09-13T15:21:22.000Z</time>
      </trkpt>
      <trkpt lat="45.06845" lon="2.82844">
        <ele>1141.2</ele>
        <time>2021-09-13T15:21:28.000Z</time>
      </trkpt>
      <trkpt lat="45.06844" lon="2.82834">
        <ele>1140.1</ele>
        <time>2021-09-13T15:21:34.000Z</time>
      </trkpt>
      <trkpt lat="45.06844" lon="2.82823">
        <ele>1138.5</ele>
        <time>2021-09-13T15:21:39.000Z</time>
      </trkpt>
      <trkpt lat="45.06842" lon="2.82812">
        <ele>1137.5</ele>
        <time>2021-09-13T15:21:45.000Z</time>
      </trkpt>
      <trkpt lat="45.0684" lon="2.82803">
        <ele>1136.8</ele>
        <time>2021-09-13T15:21:52.000Z</time>
      </trkpt>
      <trkpt lat="45.06836" lon="2.82792">
        <ele>1136.6</ele>
        <time>2021-09-13T15:21:57.000Z</time>
      </trkpt>
      <trkpt lat="45.06833" lon="2.8278">
        <ele>1135.8</ele>
        <time>2021-09-13T15:22:03.000Z</time>
      </trkpt>
      <trkpt lat="45.06832" lon="2.82771">
        <ele>1134.7</ele>
        <time>2021-09-13T15:22:11.000Z</time>
      </trkpt>
      <trkpt lat="45.06828" lon="2.82763">
        <ele>1134.8</ele>
        <time>2021-09-13T15:22:17.000Z</time>
      </trkpt>
      <trkpt lat="45.06825" lon="2.82755">
        <ele>1134.5</ele>
        <time>2021-09-13T15:22:23.000Z</time>
      </trkpt>
      <trkpt lat="45.06818" lon="2.8275">
        <ele>1136</ele>
        <time>2021-09-13T15:22:29.000Z</time>
      </trkpt>
      <trkpt lat="45.06818" lon="2.82739">
        <ele>1134.9</ele>
        <time>2021-09-13T15:22:34.000Z</time>
      </trkpt>
      <trkpt lat="45.06821" lon="2.82727">
        <ele>1132.8</ele>
        <time>2021-09-13T15:22:39.000Z</time>
      </trkpt>
      <trkpt lat="45.06826" lon="2.82714">
        <ele>1130.1</ele>
        <time>2021-09-13T15:22:45.000Z</time>
      </trkpt>
      <trkpt lat="45.06833" lon="2.82702">
        <ele>1127.1</ele>
        <time>2021-09-13T15:22:51.000Z</time>
      </trkpt>
      <trkpt lat="45.06841" lon="2.82692">
        <ele>1123.6</ele>
        <time>2021-09-13T15:22:57.000Z</time>
      </trkpt>
      <trkpt lat="45.06846" lon="2.82685">
        <ele>1121.4</ele>
        <time>2021-09-13T15:23:15.000Z</time>
      </trkpt>
      <trkpt lat="45.06853" lon="2.82678">
        <ele>1118.5</ele>
        <time>2021-09-13T15:23:21.000Z</time>
      </trkpt>
      <trkpt lat="45.06861" lon="2.82671">
        <ele>1115.4</ele>
        <time>2021-09-13T15:23:27.000Z</time>
      </trkpt>
      <trkpt lat="45.06867" lon="2.82665">
        <ele>1112.9</ele>
        <time>2021-09-13T15:23:33.000Z</time>
      </trkpt>
      <trkpt lat="45.06875" lon="2.8266">
        <ele>1109.9</ele>
        <time>2021-09-13T15:23:39.000Z</time>
      </trkpt>
      <trkpt lat="45.06882" lon="2.8266">
        <ele>1107.7</ele>
        <time>2021-09-13T15:23:46.000Z</time>
      </trkpt>
      <trkpt lat="45.06887" lon="2.82666">
        <ele>1106.6</ele>
        <time>2021-09-13T15:23:54.000Z</time>
      </trkpt>
      <trkpt lat="45.06887" lon="2.82676">
        <ele>1107.3</ele>
        <time>2021-09-13T15:24:09.000Z</time>
      </trkpt>
      <trkpt lat="45.06888" lon="2.82686">
        <ele>1107.6</ele>
        <time>2021-09-13T15:24:16.000Z</time>
      </trkpt>
      <trkpt lat="45.06898" lon="2.82694">
        <ele>1104.8</ele>
        <time>2021-09-13T15:24:21.000Z</time>
      </trkpt>
      <trkpt lat="45.06912" lon="2.82703">
        <ele>1100.7</ele>
        <time>2021-09-13T15:24:27.000Z</time>
      </trkpt>
      <trkpt lat="45.06922" lon="2.8271">
        <ele>1098.8</ele>
        <time>2021-09-13T15:24:33.000Z</time>
      </trkpt>
      <trkpt lat="45.06926" lon="2.82718">
        <ele>1098.6</ele>
        <time>2021-09-13T15:24:39.000Z</time>
      </trkpt>
      <trkpt lat="45.06934" lon="2.8272">
        <ele>1097.4</ele>
        <time>2021-09-13T15:24:52.000Z</time>
      </trkpt>
      <trkpt lat="45.06941" lon="2.82715">
        <ele>1096.1</ele>
        <time>2021-09-13T15:24:57.000Z</time>
      </trkpt>
      <trkpt lat="45.06946" lon="2.82709">
        <ele>1095.1</ele>
        <time>2021-09-13T15:25:03.000Z</time>
      </trkpt>
      <trkpt lat="45.06952" lon="2.82704">
        <ele>1094.1</ele>
        <time>2021-09-13T15:25:10.000Z</time>
      </trkpt>
      <trkpt lat="45.06959" lon="2.82707">
        <ele>1093.1</ele>
        <time>2021-09-13T15:25:25.000Z</time>
      </trkpt>
      <trkpt lat="45.06961" lon="2.82698">
        <ele>1092.7</ele>
        <time>2021-09-13T15:25:34.000Z</time>
      </trkpt>
      <trkpt lat="45.06968" lon="2.82695">
        <ele>1091.7</ele>
        <time>2021-09-13T15:25:41.000Z</time>
      </trkpt>
      <trkpt lat="45.06976" lon="2.82696">
        <ele>1090.6</ele>
        <time>2021-09-13T15:25:49.000Z</time>
      </trkpt>
      <trkpt lat="45.06982" lon="2.82702">
        <ele>1089.7</ele>
        <time>2021-09-13T15:25:56.000Z</time>
      </trkpt>
      <trkpt lat="45.06988" lon="2.82707">
        <ele>1088.8</ele>
        <time>2021-09-13T15:26:02.000Z</time>
      </trkpt>
      <trkpt lat="45.06992" lon="2.82715">
        <ele>1088.1</ele>
        <time>2021-09-13T15:26:09.000Z</time>
      </trkpt>
      <trkpt lat="45.06997" lon="2.82721">
        <ele>1087.2</ele>
        <time>2021-09-13T15:26:15.000Z</time>
      </trkpt>
      <trkpt lat="45.07001" lon="2.82729">
        <ele>1086.6</ele>
        <time>2021-09-13T15:26:23.000Z</time>
      </trkpt>
      <trkpt lat="45.07007" lon="2.82735">
        <ele>1086.8</ele>
        <time>2021-09-13T15:26:29.000Z</time>
      </trkpt>
      <trkpt lat="45.07012" lon="2.82744">
        <ele>1086.9</ele>
        <time>2021-09-13T15:26:35.000Z</time>
      </trkpt>
      <trkpt lat="45.07016" lon="2.82753">
        <ele>1087.1</ele>
        <time>2021-09-13T15:26:41.000Z</time>
      </trkpt>
      <trkpt lat="45.07022" lon="2.82759">
        <ele>1087.6</ele>
        <time>2021-09-13T15:27:02.000Z</time>
      </trkpt>
      <trkpt lat="45.07024" lon="2.82768">
        <ele>1087.9</ele>
        <time>2021-09-13T15:27:07.000Z</time>
      </trkpt>
      <trkpt lat="45.07028" lon="2.82775">
        <ele>1088.2</ele>
        <time>2021-09-13T15:27:12.000Z</time>
      </trkpt>
      <trkpt lat="45.07033" lon="2.82783">
        <ele>1088.5</ele>
        <time>2021-09-13T15:27:18.000Z</time>
      </trkpt>
      <trkpt lat="45.07036" lon="2.82791">
        <ele>1088.6</ele>
        <time>2021-09-13T15:27:23.000Z</time>
      </trkpt>
      <trkpt lat="45.07041" lon="2.82799">
        <ele>1088.8</ele>
        <time>2021-09-13T15:27:28.000Z</time>
      </trkpt>
      <trkpt lat="45.07045" lon="2.82808">
        <ele>1088.9</ele>
        <time>2021-09-13T15:27:33.000Z</time>
      </trkpt>
      <trkpt lat="45.07049" lon="2.82816">
        <ele>1088.8</ele>
        <time>2021-09-13T15:27:39.000Z</time>
      </trkpt>
      <trkpt lat="45.07054" lon="2.82823">
        <ele>1088.8</ele>
        <time>2021-09-13T15:27:48.000Z</time>
      </trkpt>
      <trkpt lat="45.07059" lon="2.8283">
        <ele>1088.6</ele>
        <time>2021-09-13T15:28:15.000Z</time>
      </trkpt>
      <trkpt lat="45.07064" lon="2.82839">
        <ele>1088.4</ele>
        <time>2021-09-13T15:28:21.000Z</time>
      </trkpt>
      <trkpt lat="45.07066" lon="2.82848">
        <ele>1088.3</ele>
        <time>2021-09-13T15:28:27.000Z</time>
      </trkpt>
      <trkpt lat="45.07069" lon="2.82858">
        <ele>1088</ele>
        <time>2021-09-13T15:28:33.000Z</time>
      </trkpt>
      <trkpt lat="45.07073" lon="2.82871">
        <ele>1087.5</ele>
        <time>2021-09-13T15:28:39.000Z</time>
      </trkpt>
      <trkpt lat="45.07074" lon="2.82883">
        <ele>1087.1</ele>
        <time>2021-09-13T15:28:45.000Z</time>
      </trkpt>
      <trkpt lat="45.07077" lon="2.82895">
        <ele>1086.5</ele>
        <time>2021-09-13T15:28:51.000Z</time>
      </trkpt>
      <trkpt lat="45.07081" lon="2.82906">
        <ele>1085.7</ele>
        <time>2021-09-13T15:28:57.000Z</time>
      </trkpt>
      <trkpt lat="45.07084" lon="2.82919">
        <ele>1084.9</ele>
        <time>2021-09-13T15:29:03.000Z</time>
      </trkpt>
      <trkpt lat="45.07086" lon="2.82929">
        <ele>1084.5</ele>
        <time>2021-09-13T15:29:09.000Z</time>
      </trkpt>
      <trkpt lat="45.0709" lon="2.82938">
        <ele>1084.1</ele>
        <time>2021-09-13T15:29:15.000Z</time>
      </trkpt>
      <trkpt lat="45.07095" lon="2.82946">
        <ele>1083.7</ele>
        <time>2021-09-13T15:29:21.000Z</time>
      </trkpt>
      <trkpt lat="45.07098" lon="2.82954">
        <ele>1083.2</ele>
        <time>2021-09-13T15:29:28.000Z</time>
      </trkpt>
      <trkpt lat="45.07103" lon="2.82962">
        <ele>1082.7</ele>
        <time>2021-09-13T15:29:34.000Z</time>
      </trkpt>
      <trkpt lat="45.07107" lon="2.8297">
        <ele>1082.3</ele>
        <time>2021-09-13T15:29:39.000Z</time>
      </trkpt>
      <trkpt lat="45.07111" lon="2.82982">
        <ele>1081.5</ele>
        <time>2021-09-13T15:29:45.000Z</time>
      </trkpt>
      <trkpt lat="45.07115" lon="2.82992">
        <ele>1080.9</ele>
        <time>2021-09-13T15:29:51.000Z</time>
      </trkpt>
      <trkpt lat="45.07118" lon="2.83004">
        <ele>1080.3</ele>
        <time>2021-09-13T15:29:57.000Z</time>
      </trkpt>
      <trkpt lat="45.07121" lon="2.83017">
        <ele>1080</ele>
        <time>2021-09-13T15:30:03.000Z</time>
      </trkpt>
      <trkpt lat="45.07122" lon="2.83029">
        <ele>1079.9</ele>
        <time>2021-09-13T15:30:09.000Z</time>
      </trkpt>
      <trkpt lat="45.07123" lon="2.83042">
        <ele>1079.7</ele>
        <time>2021-09-13T15:30:15.000Z</time>
      </trkpt>
      <trkpt lat="45.07125" lon="2.83054">
        <ele>1079.4</ele>
        <time>2021-09-13T15:30:21.000Z</time>
      </trkpt>
      <trkpt lat="45.07124" lon="2.8307">
        <ele>1079.3</ele>
        <time>2021-09-13T15:30:27.000Z</time>
      </trkpt>
      <trkpt lat="45.07125" lon="2.83087">
        <ele>1079.1</ele>
        <time>2021-09-13T15:30:33.000Z</time>
      </trkpt>
      <trkpt lat="45.07124" lon="2.8311">
        <ele>1079.8</ele>
        <time>2021-09-13T15:30:39.000Z</time>
      </trkpt>
      <trkpt lat="45.07126" lon="2.83125">
        <ele>1079.8</ele>
        <time>2021-09-13T15:30:45.000Z</time>
      </trkpt>
      <trkpt lat="45.07128" lon="2.83139">
        <ele>1079.8</ele>
        <time>2021-09-13T15:30:51.000Z</time>
      </trkpt>
      <trkpt lat="45.07135" lon="2.83149">
        <ele>1078.6</ele>
        <time>2021-09-13T15:30:57.000Z</time>
      </trkpt>
      <trkpt lat="45.07141" lon="2.83159">
        <ele>1077.5</ele>
        <time>2021-09-13T15:31:03.000Z</time>
      </trkpt>
      <trkpt lat="45.07143" lon="2.83169">
        <ele>1077.1</ele>
        <time>2021-09-13T15:31:09.000Z</time>
      </trkpt>
      <trkpt lat="45.07148" lon="2.83177">
        <ele>1076.1</ele>
        <time>2021-09-13T15:31:15.000Z</time>
      </trkpt>
      <trkpt lat="45.07152" lon="2.83187">
        <ele>1075.1</ele>
        <time>2021-09-13T15:31:21.000Z</time>
      </trkpt>
      <trkpt lat="45.07158" lon="2.83196">
        <ele>1073.5</ele>
        <time>2021-09-13T15:31:27.000Z</time>
      </trkpt>
      <trkpt lat="45.07164" lon="2.83206">
        <ele>1071.8</ele>
        <time>2021-09-13T15:31:33.000Z</time>
      </trkpt>
      <trkpt lat="45.07172" lon="2.83215">
        <ele>1070.7</ele>
        <time>2021-09-13T15:31:39.000Z</time>
      </trkpt>
      <trkpt lat="45.0718" lon="2.83224">
        <ele>1070.3</ele>
        <time>2021-09-13T15:31:45.000Z</time>
      </trkpt>
      <trkpt lat="45.07188" lon="2.83232">
        <ele>1069.8</ele>
        <time>2021-09-13T15:31:51.000Z</time>
      </trkpt>
      <trkpt lat="45.07196" lon="2.83241">
        <ele>1069.3</ele>
        <time>2021-09-13T15:31:57.000Z</time>
      </trkpt>
      <trkpt lat="45.072" lon="2.83251">
        <ele>1068.8</ele>
        <time>2021-09-13T15:32:03.000Z</time>
      </trkpt>
      <trkpt lat="45.07206" lon="2.83259">
        <ele>1068.7</ele>
        <time>2021-09-13T15:32:09.000Z</time>
      </trkpt>
      <trkpt lat="45.07213" lon="2.83265">
        <ele>1068.4</ele>
        <time>2021-09-13T15:32:15.000Z</time>
      </trkpt>
      <trkpt lat="45.07219" lon="2.83274">
        <ele>1068.1</ele>
        <time>2021-09-13T15:32:21.000Z</time>
      </trkpt>
      <trkpt lat="45.07221" lon="2.83283">
        <ele>1068</ele>
        <time>2021-09-13T15:32:32.000Z</time>
      </trkpt>
      <trkpt lat="45.07217" lon="2.8329">
        <ele>1068.3</ele>
        <time>2021-09-13T15:32:35.000Z</time>
      </trkpt>
      <trkpt lat="45.07216" lon="2.833">
        <ele>1068.4</ele>
        <time>2021-09-13T15:33:07.000Z</time>
      </trkpt>
      <trkpt lat="45.07213" lon="2.8331">
        <ele>1068.7</ele>
        <time>2021-09-13T15:33:43.000Z</time>
      </trkpt>
      <trkpt lat="45.07216" lon="2.83319">
        <ele>1068.4</ele>
        <time>2021-09-13T15:33:53.000Z</time>
      </trkpt>
      <trkpt lat="45.0722" lon="2.83327">
        <ele>1068</ele>
        <time>2021-09-13T15:33:58.000Z</time>
      </trkpt>
      <trkpt lat="45.07227" lon="2.83334">
        <ele>1067.1</ele>
        <time>2021-09-13T15:34:03.000Z</time>
      </trkpt>
      <trkpt lat="45.07232" lon="2.83342">
        <ele>1066.8</ele>
        <time>2021-09-13T15:34:09.000Z</time>
      </trkpt>
      <trkpt lat="45.07239" lon="2.83344">
        <ele>1065.8</ele>
        <time>2021-09-13T15:34:23.000Z</time>
      </trkpt>
      <trkpt lat="45.0724" lon="2.83354">
        <ele>1066</ele>
        <time>2021-09-13T15:34:31.000Z</time>
      </trkpt>
      <trkpt lat="45.07243" lon="2.83363">
        <ele>1065.7</ele>
        <time>2021-09-13T15:34:37.000Z</time>
      </trkpt>
      <trkpt lat="45.07248" lon="2.83371">
        <ele>1064.9</ele>
        <time>2021-09-13T15:34:43.000Z</time>
      </trkpt>
      <trkpt lat="45.0725" lon="2.83381">
        <ele>1064.6</ele>
        <time>2021-09-13T15:34:48.000Z</time>
      </trkpt>
      <trkpt lat="45.0725" lon="2.83391">
        <ele>1064.7</ele>
        <time>2021-09-13T15:34:53.000Z</time>
      </trkpt>
      <trkpt lat="45.0725" lon="2.83401">
        <ele>1064.8</ele>
        <time>2021-09-13T15:35:04.000Z</time>
      </trkpt>
      <trkpt lat="45.07256" lon="2.83406">
        <ele>1064.6</ele>
        <time>2021-09-13T15:35:29.000Z</time>
      </trkpt>
      <trkpt lat="45.07262" lon="2.83411">
        <ele>1064.4</ele>
        <time>2021-09-13T15:35:35.000Z</time>
      </trkpt>
      <trkpt lat="45.07267" lon="2.83417">
        <ele>1064.2</ele>
        <time>2021-09-13T15:35:41.000Z</time>
      </trkpt>
      <trkpt lat="45.07272" lon="2.83429">
        <ele>1064.5</ele>
        <time>2021-09-13T15:35:47.000Z</time>
      </trkpt>
      <trkpt lat="45.07274" lon="2.8344">
        <ele>1064.9</ele>
        <time>2021-09-13T15:35:51.000Z</time>
      </trkpt>
      <trkpt lat="45.07279" lon="2.83451">
        <ele>1064.9</ele>
        <time>2021-09-13T15:35:57.000Z</time>
      </trkpt>
      <trkpt lat="45.07283" lon="2.83463">
        <ele>1065</ele>
        <time>2021-09-13T15:36:03.000Z</time>
      </trkpt>
      <trkpt lat="45.07288" lon="2.83469">
        <ele>1064.7</ele>
        <time>2021-09-13T15:36:09.000Z</time>
      </trkpt>
      <trkpt lat="45.07293" lon="2.83477">
        <ele>1064.3</ele>
        <time>2021-09-13T15:36:21.000Z</time>
      </trkpt>
      <trkpt lat="45.07296" lon="2.83487">
        <ele>1064.1</ele>
        <time>2021-09-13T15:36:28.000Z</time>
      </trkpt>
      <trkpt lat="45.07301" lon="2.83495">
        <ele>1063.6</ele>
        <time>2021-09-13T15:36:33.000Z</time>
      </trkpt>
      <trkpt lat="45.07308" lon="2.83503">
        <ele>1062.9</ele>
        <time>2021-09-13T15:36:39.000Z</time>
      </trkpt>
      <trkpt lat="45.07315" lon="2.8351">
        <ele>1062.4</ele>
        <time>2021-09-13T15:36:45.000Z</time>
      </trkpt>
      <trkpt lat="45.07319" lon="2.83519">
        <ele>1062.4</ele>
        <time>2021-09-13T15:36:51.000Z</time>
      </trkpt>
      <trkpt lat="45.07324" lon="2.83527">
        <ele>1062</ele>
        <time>2021-09-13T15:36:57.000Z</time>
      </trkpt>
      <trkpt lat="45.07328" lon="2.8354">
        <ele>1062</ele>
        <time>2021-09-13T15:37:03.000Z</time>
      </trkpt>
      <trkpt lat="45.07329" lon="2.83549">
        <ele>1062.3</ele>
        <time>2021-09-13T15:37:09.000Z</time>
      </trkpt>
      <trkpt lat="45.07336" lon="2.83552">
        <ele>1061.2</ele>
        <time>2021-09-13T15:37:35.000Z</time>
      </trkpt>
      <trkpt lat="45.07344" lon="2.83551">
        <ele>1060.2</ele>
        <time>2021-09-13T15:37:40.000Z</time>
      </trkpt>
      <trkpt lat="45.07352" lon="2.83554">
        <ele>1059.3</ele>
        <time>2021-09-13T15:37:45.000Z</time>
      </trkpt>
      <trkpt lat="45.07359" lon="2.83558">
        <ele>1058.5</ele>
        <time>2021-09-13T15:37:51.000Z</time>
      </trkpt>
      <trkpt lat="45.07366" lon="2.83558">
        <ele>1057.6</ele>
        <time>2021-09-13T15:37:58.000Z</time>
      </trkpt>
      <trkpt lat="45.07372" lon="2.83557">
        <ele>1056.9</ele>
        <time>2021-09-13T15:38:04.000Z</time>
      </trkpt>
      <trkpt lat="45.07379" lon="2.83559">
        <ele>1056</ele>
        <time>2021-09-13T15:38:10.000Z</time>
      </trkpt>
      <trkpt lat="45.07387" lon="2.83559">
        <ele>1055</ele>
        <time>2021-09-13T15:38:15.000Z</time>
      </trkpt>
      <trkpt lat="45.07394" lon="2.8356">
        <ele>1054</ele>
        <time>2021-09-13T15:38:30.000Z</time>
      </trkpt>
      <trkpt lat="45.074" lon="2.83565">
        <ele>1053.1</ele>
        <time>2021-09-13T15:38:48.000Z</time>
      </trkpt>
      <trkpt lat="45.07407" lon="2.8357">
        <ele>1052</ele>
        <time>2021-09-13T15:38:53.000Z</time>
      </trkpt>
      <trkpt lat="45.07413" lon="2.83575">
        <ele>1050.9</ele>
        <time>2021-09-13T15:38:58.000Z</time>
      </trkpt>
      <trkpt lat="45.07419" lon="2.8358">
        <ele>1050</ele>
        <time>2021-09-13T15:39:18.000Z</time>
      </trkpt>
      <trkpt lat="45.07425" lon="2.83587">
        <ele>1049.6</ele>
        <time>2021-09-13T15:39:26.000Z</time>
      </trkpt>
      <trkpt lat="45.07432" lon="2.83591">
        <ele>1049.1</ele>
        <time>2021-09-13T15:39:32.000Z</time>
      </trkpt>
      <trkpt lat="45.07438" lon="2.8359">
        <ele>1048.7</ele>
        <time>2021-09-13T15:39:43.000Z</time>
      </trkpt>
      <trkpt lat="45.07444" lon="2.83595">
        <ele>1048.3</ele>
        <time>2021-09-13T15:39:52.000Z</time>
      </trkpt>
      <trkpt lat="45.07451" lon="2.83599">
        <ele>1047.8</ele>
        <time>2021-09-13T15:39:57.000Z</time>
      </trkpt>
      <trkpt lat="45.0746" lon="2.83603">
        <ele>1047</ele>
        <time>2021-09-13T15:40:03.000Z</time>
      </trkpt>
      <trkpt lat="45.07464" lon="2.83611">
        <ele>1046.5</ele>
        <time>2021-09-13T15:40:10.000Z</time>
      </trkpt>
      <trkpt lat="45.0746" lon="2.83619">
        <ele>1046.7</ele>
        <time>2021-09-13T15:40:16.000Z</time>
      </trkpt>
      <trkpt lat="45.07455" lon="2.83625">
        <ele>1047.1</ele>
        <time>2021-09-13T15:40:22.000Z</time>
      </trkpt>
      <trkpt lat="45.07449" lon="2.83631">
        <ele>1047.7</ele>
        <time>2021-09-13T15:40:29.000Z</time>
      </trkpt>
      <trkpt lat="45.07442" lon="2.83632">
        <ele>1048.4</ele>
        <time>2021-09-13T15:40:36.000Z</time>
      </trkpt>
      <trkpt lat="45.07435" lon="2.83633">
        <ele>1049.2</ele>
        <time>2021-09-13T15:40:44.000Z</time>
      </trkpt>
      <trkpt lat="45.07428" lon="2.83635">
        <ele>1050</ele>
        <time>2021-09-13T15:41:00.000Z</time>
      </trkpt>
      <trkpt lat="45.07421" lon="2.83632">
        <ele>1050.7</ele>
        <time>2021-09-13T15:41:07.000Z</time>
      </trkpt>
      <trkpt lat="45.07414" lon="2.83628">
        <ele>1051.6</ele>
        <time>2021-09-13T15:41:12.000Z</time>
      </trkpt>
      <trkpt lat="45.07408" lon="2.83624">
        <ele>1052.7</ele>
        <time>2021-09-13T15:41:17.000Z</time>
      </trkpt>
      <trkpt lat="45.07399" lon="2.83622">
        <ele>1054.4</ele>
        <time>2021-09-13T15:41:22.000Z</time>
      </trkpt>
      <trkpt lat="45.07389" lon="2.83625">
        <ele>1056.5</ele>
        <time>2021-09-13T15:41:27.000Z</time>
      </trkpt>
      <trkpt lat="45.0738" lon="2.83625">
        <ele>1058.3</ele>
        <time>2021-09-13T15:41:33.000Z</time>
      </trkpt>
      <trkpt lat="45.0737" lon="2.83613">
        <ele>1059.4</ele>
        <time>2021-09-13T15:42:31.000Z</time>
      </trkpt>
      <trkpt lat="45.07362" lon="2.83613">
        <ele>1060.9</ele>
        <time>2021-09-13T15:43:06.000Z</time>
      </trkpt>
      <trkpt lat="45.07356" lon="2.83618">
        <ele>1062.4</ele>
        <time>2021-09-13T15:43:12.000Z</time>
      </trkpt>
      <trkpt lat="45.07349" lon="2.83619">
        <ele>1063.8</ele>
        <time>2021-09-13T15:43:19.000Z</time>
      </trkpt>
      <trkpt lat="45.07351" lon="2.83603">
        <ele>1062</ele>
        <time>2021-09-13T15:44:07.000Z</time>
      </trkpt>
      <trkpt lat="45.07357" lon="2.83609">
        <ele>1061.5</ele>
        <time>2021-09-13T15:44:41.000Z</time>
      </trkpt>
      <trkpt lat="45.07366" lon="2.83608">
        <ele>1059.8</ele>
        <time>2021-09-13T15:44:57.000Z</time>
      </trkpt>
      <trkpt lat="45.07375" lon="2.83599">
        <ele>1057.5</ele>
        <time>2021-09-13T15:45:53.000Z</time>
      </trkpt>
      <trkpt lat="45.07382" lon="2.83599">
        <ele>1056.3</ele>
        <time>2021-09-13T15:45:59.000Z</time>
      </trkpt>
      <trkpt lat="45.07388" lon="2.83603">
        <ele>1055.5</ele>
        <time>2021-09-13T15:46:07.000Z</time>
      </trkpt>
      <trkpt lat="45.07394" lon="2.83609">
        <ele>1054.7</ele>
        <time>2021-09-13T15:46:11.000Z</time>
      </trkpt>
      <trkpt lat="45.07399" lon="2.83613">
        <ele>1054</ele>
        <time>2021-09-13T15:46:17.000Z</time>
      </trkpt>
      <trkpt lat="45.07408" lon="2.83618">
        <ele>1052.5</ele>
        <time>2021-09-13T15:46:38.000Z</time>
      </trkpt>
      <trkpt lat="45.07415" lon="2.8362">
        <ele>1051.2</ele>
        <time>2021-09-13T15:46:44.000Z</time>
      </trkpt>
      <trkpt lat="45.07422" lon="2.83623">
        <ele>1050.4</ele>
        <time>2021-09-13T15:46:53.000Z</time>
      </trkpt>
      <trkpt lat="45.07429" lon="2.83623">
        <ele>1049.7</ele>
        <time>2021-09-13T15:47:06.000Z</time>
      </trkpt>
      <trkpt lat="45.07436" lon="2.83624">
        <ele>1049</ele>
        <time>2021-09-13T15:47:14.000Z</time>
      </trkpt>
      <trkpt lat="45.07443" lon="2.83623">
        <ele>1048.3</ele>
        <time>2021-09-13T15:47:24.000Z</time>
      </trkpt>
      <trkpt lat="45.07449" lon="2.83617">
        <ele>1047.8</ele>
        <time>2021-09-13T15:47:32.000Z</time>
      </trkpt>
      <trkpt lat="45.07455" lon="2.83612">
        <ele>1047.3</ele>
        <time>2021-09-13T15:47:37.000Z</time>
      </trkpt>
      <trkpt lat="45.07458" lon="2.83604">
        <ele>1047.2</ele>
        <time>2021-09-13T15:47:46.000Z</time>
      </trkpt>
      <trkpt lat="45.07451" lon="2.83602">
        <ele>1047.7</ele>
        <time>2021-09-13T15:48:04.000Z</time>
      </trkpt>
      <trkpt lat="45.07445" lon="2.83597">
        <ele>1048.2</ele>
        <time>2021-09-13T15:48:11.000Z</time>
      </trkpt>
      <trkpt lat="45.07437" lon="2.83594">
        <ele>1048.8</ele>
        <time>2021-09-13T15:48:18.000Z</time>
      </trkpt>
      <trkpt lat="45.0743" lon="2.83591">
        <ele>1049.3</ele>
        <time>2021-09-13T15:48:24.000Z</time>
      </trkpt>
      <trkpt lat="45.07423" lon="2.83588">
        <ele>1049.7</ele>
        <time>2021-09-13T15:48:31.000Z</time>
      </trkpt>
      <trkpt lat="45.07416" lon="2.83581">
        <ele>1050.2</ele>
        <time>2021-09-13T15:48:36.000Z</time>
      </trkpt>
      <trkpt lat="45.0741" lon="2.83575">
        <ele>1051.4</ele>
        <time>2021-09-13T15:48:39.000Z</time>
      </trkpt>
      <trkpt lat="45.07402" lon="2.83567">
        <ele>1052.8</ele>
        <time>2021-09-13T15:48:45.000Z</time>
      </trkpt>
      <trkpt lat="45.074" lon="2.83558">
        <ele>1053.3</ele>
        <time>2021-09-13T15:48:51.000Z</time>
      </trkpt>
      <trkpt lat="45.07406" lon="2.83552">
        <ele>1052.8</ele>
        <time>2021-09-13T15:49:03.000Z</time>
      </trkpt>
      <trkpt lat="45.07415" lon="2.83551">
        <ele>1051.7</ele>
        <time>2021-09-13T15:49:09.000Z</time>
      </trkpt>
      <trkpt lat="45.07423" lon="2.83549">
        <ele>1051.3</ele>
        <time>2021-09-13T15:49:15.000Z</time>
      </trkpt>
      <trkpt lat="45.07429" lon="2.83548">
        <ele>1051</ele>
        <time>2021-09-13T15:49:32.000Z</time>
      </trkpt>
      <trkpt lat="45.07435" lon="2.83543">
        <ele>1050.8</ele>
        <time>2021-09-13T15:49:44.000Z</time>
      </trkpt>
      <trkpt lat="45.07438" lon="2.83534">
        <ele>1051.1</ele>
        <time>2021-09-13T15:49:50.000Z</time>
      </trkpt>
      <trkpt lat="45.07441" lon="2.83524">
        <ele>1051.4</ele>
        <time>2021-09-13T15:49:56.000Z</time>
      </trkpt>
      <trkpt lat="45.07444" lon="2.83515">
        <ele>1051.6</ele>
        <time>2021-09-13T15:50:01.000Z</time>
      </trkpt>
      <trkpt lat="45.07444" lon="2.83505">
        <ele>1052.1</ele>
        <time>2021-09-13T15:50:06.000Z</time>
      </trkpt>
      <trkpt lat="45.07445" lon="2.83494">
        <ele>1052.9</ele>
        <time>2021-09-13T15:50:11.000Z</time>
      </trkpt>
      <trkpt lat="45.07445" lon="2.83479">
        <ele>1054.3</ele>
        <time>2021-09-13T15:50:15.000Z</time>
      </trkpt>
      <trkpt lat="45.07449" lon="2.83463">
        <ele>1055.5</ele>
        <time>2021-09-13T15:50:21.000Z</time>
      </trkpt>
      <trkpt lat="45.07452" lon="2.8345">
        <ele>1056.5</ele>
        <time>2021-09-13T15:50:27.000Z</time>
      </trkpt>
      <trkpt lat="45.07455" lon="2.83441">
        <ele>1057.1</ele>
        <time>2021-09-13T15:50:33.000Z</time>
      </trkpt>
      <trkpt lat="45.07458" lon="2.83431">
        <ele>1057.7</ele>
        <time>2021-09-13T15:50:39.000Z</time>
      </trkpt>
      <trkpt lat="45.07461" lon="2.83423">
        <ele>1058.2</ele>
        <time>2021-09-13T15:50:52.000Z</time>
      </trkpt>
      <trkpt lat="45.07467" lon="2.8342">
        <ele>1057.9</ele>
        <time>2021-09-13T15:51:37.000Z</time>
      </trkpt>
      <trkpt lat="45.07474" lon="2.83419">
        <ele>1057.3</ele>
        <time>2021-09-13T15:51:58.000Z</time>
      </trkpt>
      <trkpt lat="45.07482" lon="2.83421">
        <ele>1056.4</ele>
        <time>2021-09-13T15:52:11.000Z</time>
      </trkpt>
      <trkpt lat="45.07492" lon="2.83414">
        <ele>1056.2</ele>
        <time>2021-09-13T15:52:18.000Z</time>
      </trkpt>
      <trkpt lat="45.07499" lon="2.8341">
        <ele>1056.4</ele>
        <time>2021-09-13T15:52:26.000Z</time>
      </trkpt>
      <trkpt lat="45.07506" lon="2.83408">
        <ele>1056.6</ele>
        <time>2021-09-13T15:52:31.000Z</time>
      </trkpt>
      <trkpt lat="45.07515" lon="2.83408">
        <ele>1056.4</ele>
        <time>2021-09-13T15:52:36.000Z</time>
      </trkpt>
      <trkpt lat="45.07521" lon="2.83411">
        <ele>1055.7</ele>
        <time>2021-09-13T15:52:40.000Z</time>
      </trkpt>
      <trkpt lat="45.07529" lon="2.83417">
        <ele>1054.3</ele>
        <time>2021-09-13T15:52:45.000Z</time>
      </trkpt>
      <trkpt lat="45.07534" lon="2.83411">
        <ele>1055.4</ele>
        <time>2021-09-13T15:52:51.000Z</time>
      </trkpt>
      <trkpt lat="45.07539" lon="2.83404">
        <ele>1056.9</ele>
        <time>2021-09-13T15:52:59.000Z</time>
      </trkpt>
      <trkpt lat="45.07545" lon="2.83402">
        <ele>1057.2</ele>
        <time>2021-09-13T15:53:06.000Z</time>
      </trkpt>
      <trkpt lat="45.07552" lon="2.83398">
        <ele>1058</ele>
        <time>2021-09-13T15:53:11.000Z</time>
      </trkpt>
      <trkpt lat="45.07559" lon="2.83398">
        <ele>1058</ele>
        <time>2021-09-13T15:53:16.000Z</time>
      </trkpt>
      <trkpt lat="45.07567" lon="2.83397">
        <ele>1058.1</ele>
        <time>2021-09-13T15:53:21.000Z</time>
      </trkpt>
      <trkpt lat="45.07576" lon="2.83394">
        <ele>1058.8</ele>
        <time>2021-09-13T15:53:27.000Z</time>
      </trkpt>
      <trkpt lat="45.07585" lon="2.8339">
        <ele>1059.6</ele>
        <time>2021-09-13T15:53:33.000Z</time>
      </trkpt>
      <trkpt lat="45.07591" lon="2.83385">
        <ele>1060.5</ele>
        <time>2021-09-13T15:53:41.000Z</time>
      </trkpt>
      <trkpt lat="45.07597" lon="2.83382">
        <ele>1060.8</ele>
        <time>2021-09-13T15:53:49.000Z</time>
      </trkpt>
      <trkpt lat="45.07603" lon="2.83377">
        <ele>1061.6</ele>
        <time>2021-09-13T15:53:53.000Z</time>
      </trkpt>
      <trkpt lat="45.07608" lon="2.83371">
        <ele>1062.7</ele>
        <time>2021-09-13T15:53:57.000Z</time>
      </trkpt>
      <trkpt lat="45.07614" lon="2.83376">
        <ele>1061.1</ele>
        <time>2021-09-13T15:54:06.000Z</time>
      </trkpt>
      <trkpt lat="45.07619" lon="2.83368">
        <ele>1062.6</ele>
        <time>2021-09-13T15:54:20.000Z</time>
      </trkpt>
      <trkpt lat="45.07624" lon="2.83362">
        <ele>1063.5</ele>
        <time>2021-09-13T15:54:32.000Z</time>
      </trkpt>
      <trkpt lat="45.07628" lon="2.83355">
        <ele>1064.8</ele>
        <time>2021-09-13T15:54:38.000Z</time>
      </trkpt>
      <trkpt lat="45.07628" lon="2.83345">
        <ele>1067.1</ele>
        <time>2021-09-13T15:54:48.000Z</time>
      </trkpt>
      <trkpt lat="45.07633" lon="2.83337">
        <ele>1068.4</ele>
        <time>2021-09-13T15:54:59.000Z</time>
      </trkpt>
      <trkpt lat="45.07634" lon="2.83328">
        <ele>1069.8</ele>
        <time>2021-09-13T15:55:04.000Z</time>
      </trkpt>
      <trkpt lat="45.0764" lon="2.83319">
        <ele>1070.4</ele>
        <time>2021-09-13T15:55:09.000Z</time>
      </trkpt>
      <trkpt lat="45.07643" lon="2.83308">
        <ele>1071.4</ele>
        <time>2021-09-13T15:55:15.000Z</time>
      </trkpt>
      <trkpt lat="45.07646" lon="2.83299">
        <ele>1072.2</ele>
        <time>2021-09-13T15:55:22.000Z</time>
      </trkpt>
      <trkpt lat="45.0765" lon="2.83292">
        <ele>1072.6</ele>
        <time>2021-09-13T15:55:31.000Z</time>
      </trkpt>
      <trkpt lat="45.07653" lon="2.83282">
        <ele>1073.4</ele>
        <time>2021-09-13T15:55:38.000Z</time>
      </trkpt>
      <trkpt lat="45.07656" lon="2.83272">
        <ele>1074.1</ele>
        <time>2021-09-13T15:55:43.000Z</time>
      </trkpt>
      <trkpt lat="45.07658" lon="2.83263">
        <ele>1074.9</ele>
        <time>2021-09-13T15:55:49.000Z</time>
      </trkpt>
      <trkpt lat="45.07661" lon="2.83252">
        <ele>1075.7</ele>
        <time>2021-09-13T15:55:57.000Z</time>
      </trkpt>
      <trkpt lat="45.07663" lon="2.83239">
        <ele>1076.5</ele>
        <time>2021-09-13T15:56:03.000Z</time>
      </trkpt>
      <trkpt lat="45.07665" lon="2.83228">
        <ele>1077.1</ele>
        <time>2021-09-13T15:56:09.000Z</time>
      </trkpt>
      <trkpt lat="45.07661" lon="2.83221">
        <ele>1078.4</ele>
        <time>2021-09-13T15:56:21.000Z</time>
      </trkpt>
      <trkpt lat="45.07667" lon="2.83216">
        <ele>1077.8</ele>
        <time>2021-09-13T15:56:40.000Z</time>
      </trkpt>
      <trkpt lat="45.07673" lon="2.83212">
        <ele>1076.5</ele>
        <time>2021-09-13T15:56:45.000Z</time>
      </trkpt>
      <trkpt lat="45.0768" lon="2.83208">
        <ele>1075</ele>
        <time>2021-09-13T15:56:51.000Z</time>
      </trkpt>
      <trkpt lat="45.07687" lon="2.83201">
        <ele>1073.8</ele>
        <time>2021-09-13T15:56:57.000Z</time>
      </trkpt>
      <trkpt lat="45.07691" lon="2.83192">
        <ele>1073.6</ele>
        <time>2021-09-13T15:57:04.000Z</time>
      </trkpt>
      <trkpt lat="45.07696" lon="2.83185">
        <ele>1072.9</ele>
        <time>2021-09-13T15:57:09.000Z</time>
      </trkpt>
      <trkpt lat="45.07699" lon="2.83176">
        <ele>1073</ele>
        <time>2021-09-13T15:57:17.000Z</time>
      </trkpt>
      <trkpt lat="45.07701" lon="2.83166">
        <ele>1073.4</ele>
        <time>2021-09-13T15:57:23.000Z</time>
      </trkpt>
      <trkpt lat="45.07702" lon="2.83157">
        <ele>1074.1</ele>
        <time>2021-09-13T15:57:29.000Z</time>
      </trkpt>
      <trkpt lat="45.07708" lon="2.8315">
        <ele>1073.3</ele>
        <time>2021-09-13T15:57:34.000Z</time>
      </trkpt>
      <trkpt lat="45.07712" lon="2.83142">
        <ele>1073.1</ele>
        <time>2021-09-13T15:57:43.000Z</time>
      </trkpt>
      <trkpt lat="45.07715" lon="2.83133">
        <ele>1073.4</ele>
        <time>2021-09-13T15:57:49.000Z</time>
      </trkpt>
      <trkpt lat="45.07719" lon="2.83125">
        <ele>1073.3</ele>
        <time>2021-09-13T15:57:55.000Z</time>
      </trkpt>
      <trkpt lat="45.07724" lon="2.83119">
        <ele>1072.7</ele>
        <time>2021-09-13T15:58:00.000Z</time>
      </trkpt>
      <trkpt lat="45.07729" lon="2.8311">
        <ele>1072.6</ele>
        <time>2021-09-13T15:58:07.000Z</time>
      </trkpt>
      <trkpt lat="45.07734" lon="2.83102">
        <ele>1072.3</ele>
        <time>2021-09-13T15:58:12.000Z</time>
      </trkpt>
      <trkpt lat="45.07739" lon="2.83095">
        <ele>1072</ele>
        <time>2021-09-13T15:58:19.000Z</time>
      </trkpt>
      <trkpt lat="45.0774" lon="2.83085">
        <ele>1073</ele>
        <time>2021-09-13T15:58:26.000Z</time>
      </trkpt>
      <trkpt lat="45.07737" lon="2.83077">
        <ele>1074.5</ele>
        <time>2021-09-13T15:58:32.000Z</time>
      </trkpt>
      <trkpt lat="45.0774" lon="2.83068">
        <ele>1075</ele>
        <time>2021-09-13T15:58:39.000Z</time>
      </trkpt>
      <trkpt lat="45.07741" lon="2.83056">
        <ele>1076.3</ele>
        <time>2021-09-13T15:58:45.000Z</time>
      </trkpt>
      <trkpt lat="45.07745" lon="2.83045">
        <ele>1076.9</ele>
        <time>2021-09-13T15:58:51.000Z</time>
      </trkpt>
      <trkpt lat="45.07751" lon="2.83038">
        <ele>1076.7</ele>
        <time>2021-09-13T15:58:57.000Z</time>
      </trkpt>
      <trkpt lat="45.07756" lon="2.83029">
        <ele>1076.6</ele>
        <time>2021-09-13T15:59:03.000Z</time>
      </trkpt>
      <trkpt lat="45.07762" lon="2.83023">
        <ele>1075.7</ele>
        <time>2021-09-13T15:59:09.000Z</time>
      </trkpt>
      <trkpt lat="45.07763" lon="2.83013">
        <ele>1076.6</ele>
        <time>2021-09-13T15:59:15.000Z</time>
      </trkpt>
      <trkpt lat="45.07762" lon="2.83002">
        <ele>1078.2</ele>
        <time>2021-09-13T15:59:21.000Z</time>
      </trkpt>
      <trkpt lat="45.07764" lon="2.82993">
        <ele>1078</ele>
        <time>2021-09-13T15:59:27.000Z</time>
      </trkpt>
      <trkpt lat="45.07771" lon="2.82989">
        <ele>1076</ele>
        <time>2021-09-13T15:59:33.000Z</time>
      </trkpt>
      <trkpt lat="45.07781" lon="2.82987">
        <ele>1072.9</ele>
        <time>2021-09-13T15:59:39.000Z</time>
      </trkpt>
      <trkpt lat="45.0779" lon="2.82989">
        <ele>1070.1</ele>
        <time>2021-09-13T15:59:45.000Z</time>
      </trkpt>
      <trkpt lat="45.07797" lon="2.82991">
        <ele>1068</ele>
        <time>2021-09-13T15:59:51.000Z</time>
      </trkpt>
      <trkpt lat="45.07805" lon="2.82995">
        <ele>1065.5</ele>
        <time>2021-09-13T15:59:57.000Z</time>
      </trkpt>
      <trkpt lat="45.07812" lon="2.82996">
        <ele>1063.4</ele>
        <time>2021-09-13T16:00:03.000Z</time>
      </trkpt>
      <trkpt lat="45.07822" lon="2.82993">
        <ele>1060.4</ele>
        <time>2021-09-13T16:00:09.000Z</time>
      </trkpt>
      <trkpt lat="45.07829" lon="2.82991">
        <ele>1058.2</ele>
        <time>2021-09-13T16:00:15.000Z</time>
      </trkpt>
      <trkpt lat="45.07838" lon="2.82987">
        <ele>1056.1</ele>
        <time>2021-09-13T16:00:21.000Z</time>
      </trkpt>
      <trkpt lat="45.07845" lon="2.82987">
        <ele>1055.1</ele>
        <time>2021-09-13T16:00:36.000Z</time>
      </trkpt>
      <trkpt lat="45.0785" lon="2.82994">
        <ele>1054.4</ele>
        <time>2021-09-13T16:00:43.000Z</time>
      </trkpt>
      <trkpt lat="45.07858" lon="2.82993">
        <ele>1053.1</ele>
        <time>2021-09-13T16:00:49.000Z</time>
      </trkpt>
      <trkpt lat="45.07864" lon="2.82992">
        <ele>1052.2</ele>
        <time>2021-09-13T16:00:53.000Z</time>
      </trkpt>
      <trkpt lat="45.0787" lon="2.82987">
        <ele>1051.3</ele>
        <time>2021-09-13T16:01:08.000Z</time>
      </trkpt>
      <trkpt lat="45.07877" lon="2.82985">
        <ele>1050.2</ele>
        <time>2021-09-13T16:01:21.000Z</time>
      </trkpt>
      <trkpt lat="45.07883" lon="2.82982">
        <ele>1049.3</ele>
        <time>2021-09-13T16:01:27.000Z</time>
      </trkpt>
      <trkpt lat="45.07889" lon="2.82978">
        <ele>1048.4</ele>
        <time>2021-09-13T16:01:33.000Z</time>
      </trkpt>
      <trkpt lat="45.07897" lon="2.82977">
        <ele>1047.2</ele>
        <time>2021-09-13T16:01:42.000Z</time>
      </trkpt>
      <trkpt lat="45.07903" lon="2.8298">
        <ele>1046.3</ele>
        <time>2021-09-13T16:01:46.000Z</time>
      </trkpt>
      <trkpt lat="45.07896" lon="2.8298">
        <ele>1047.3</ele>
        <time>2021-09-13T16:01:59.000Z</time>
      </trkpt>
      <trkpt lat="45.07889" lon="2.82982">
        <ele>1048.4</ele>
        <time>2021-09-13T16:02:05.000Z</time>
      </trkpt>
      <trkpt lat="45.07883" lon="2.82984">
        <ele>1049.3</ele>
        <time>2021-09-13T16:02:12.000Z</time>
      </trkpt>
      <trkpt lat="45.07876" lon="2.82987">
        <ele>1050.3</ele>
        <time>2021-09-13T16:03:04.000Z</time>
      </trkpt>
      <trkpt lat="45.07868" lon="2.82988">
        <ele>1051.6</ele>
        <time>2021-09-13T16:03:10.000Z</time>
      </trkpt>
      <trkpt lat="45.07861" lon="2.82988">
        <ele>1052.6</ele>
        <time>2021-09-13T16:03:15.000Z</time>
      </trkpt>
      <trkpt lat="45.07854" lon="2.82988">
        <ele>1053.7</ele>
        <time>2021-09-13T16:03:21.000Z</time>
      </trkpt>
      <trkpt lat="45.07847" lon="2.82986">
        <ele>1054.8</ele>
        <time>2021-09-13T16:03:28.000Z</time>
      </trkpt>
      <trkpt lat="45.0784" lon="2.82985">
        <ele>1055.8</ele>
        <time>2021-09-13T16:03:36.000Z</time>
      </trkpt>
      <trkpt lat="45.07834" lon="2.82985">
        <ele>1056.7</ele>
        <time>2021-09-13T16:03:44.000Z</time>
      </trkpt>
      <trkpt lat="45.07841" lon="2.82981">
        <ele>1055.6</ele>
        <time>2021-09-13T16:04:14.000Z</time>
      </trkpt>
      <trkpt lat="45.07848" lon="2.82984">
        <ele>1054.6</ele>
        <time>2021-09-13T16:04:19.000Z</time>
      </trkpt>
      <trkpt lat="45.07856" lon="2.82986">
        <ele>1053.4</ele>
        <time>2021-09-13T16:04:25.000Z</time>
      </trkpt>
      <trkpt lat="45.07863" lon="2.82987">
        <ele>1052.3</ele>
        <time>2021-09-13T16:04:33.000Z</time>
      </trkpt>
      <trkpt lat="45.0787" lon="2.82991">
        <ele>1051.3</ele>
        <time>2021-09-13T16:04:38.000Z</time>
      </trkpt>
      <trkpt lat="45.0786" lon="2.82989">
        <ele>1052.8</ele>
        <time>2021-09-13T16:05:29.000Z</time>
      </trkpt>
      <trkpt lat="45.07867" lon="2.82989">
        <ele>1051.7</ele>
        <time>2021-09-13T16:05:46.000Z</time>
      </trkpt>
      <trkpt lat="45.07872" lon="2.82981">
        <ele>1051</ele>
        <time>2021-09-13T16:05:53.000Z</time>
      </trkpt>
      <trkpt lat="45.07877" lon="2.82974">
        <ele>1050.2</ele>
        <time>2021-09-13T16:06:00.000Z</time>
      </trkpt>
      <trkpt lat="45.07883" lon="2.82971">
        <ele>1049.3</ele>
        <time>2021-09-13T16:06:10.000Z</time>
      </trkpt>
      <trkpt lat="45.07888" lon="2.82978">
        <ele>1048.6</ele>
        <time>2021-09-13T16:06:44.000Z</time>
      </trkpt>
      <trkpt lat="45.07892" lon="2.82986">
        <ele>1047.9</ele>
        <time>2021-09-13T16:06:53.000Z</time>
      </trkpt>
      <trkpt lat="45.07892" lon="2.82997">
        <ele>1047.9</ele>
        <time>2021-09-13T16:06:59.000Z</time>
      </trkpt>
      <trkpt lat="45.07892" lon="2.82987">
        <ele>1047.9</ele>
        <time>2021-09-13T16:07:23.000Z</time>
      </trkpt>
      <trkpt lat="45.07894" lon="2.82978">
        <ele>1047.7</ele>
        <time>2021-09-13T16:07:30.000Z</time>
      </trkpt>
      <trkpt lat="45.07898" lon="2.82969">
        <ele>1047.1</ele>
        <time>2021-09-13T16:07:39.000Z</time>
      </trkpt>
      <trkpt lat="45.07902" lon="2.82962">
        <ele>1046.6</ele>
        <time>2021-09-13T16:07:43.000Z</time>
      </trkpt>
      <trkpt lat="45.07897" lon="2.82968">
        <ele>1047.3</ele>
        <time>2021-09-13T16:07:51.000Z</time>
      </trkpt>
      <trkpt lat="45.07891" lon="2.82962">
        <ele>1048.2</ele>
        <time>2021-09-13T16:08:04.000Z</time>
      </trkpt>
      <trkpt lat="45.07897" lon="2.82958">
        <ele>1047.3</ele>
        <time>2021-09-13T16:08:35.000Z</time>
      </trkpt>
      <trkpt lat="45.0789" lon="2.82965">
        <ele>1048.3</ele>
        <time>2021-09-13T16:08:50.000Z</time>
      </trkpt>
      <trkpt lat="45.0789" lon="2.82974">
        <ele>1048.3</ele>
        <time>2021-09-13T16:13:01.000Z</time>
      </trkpt>
      <trkpt lat="45.07891" lon="2.82984">
        <ele>1048.1</ele>
        <time>2021-09-13T16:13:25.000Z</time>
      </trkpt>
    </trkseg>
  </trk>
</gpx>